<?xml version='1.0' encoding='UTF-8'?><gpx version="1.1" creator="JPX - https://github.com/jenetics/jpx" xmlns="http://www.topografix.com/GPX/1/1"><trk><trkseg><trkpt lat="45.4057649" lon="7.6396148"><ele>411.0</ele><time>2026-03-28T09:34:45.443Z</time></trkpt><trkpt lat="45.4058494" lon="7.6395267"><ele>411.0</ele><time>2026-03-28T09:35:52.292Z</time></trkpt><trkpt lat="45.4059023" lon="7.6394087"><ele>411.0</ele><time>2026-03-28T09:35:53.275Z</time></trkpt><trkpt lat="45.405963" lon="7.6392579"><ele>411.0</ele><time>2026-03-28T09:35:54.281Z</time></trkpt><trkpt lat="45.4060234" lon="7.6390955"><ele>411.0</ele><time>2026-03-28T09:35:55.285Z</time></trkpt><trkpt lat="45.4060866" lon="7.6389392"><ele>411.0</ele><time>2026-03-28T09:35:56.262Z</time></trkpt><trkpt lat="45.4061432" lon="7.6387725"><ele>411.0</ele><time>2026-03-28T09:35:57.264Z</time></trkpt><trkpt lat="45.4062016" lon="7.6386063"><ele>411.0</ele><time>2026-03-28T09:35:58.285Z</time></trkpt><trkpt lat="45.4062569" lon="7.6384383"><ele>411.0</ele><time>2026-03-28T09:35:59.276Z</time></trkpt><trkpt lat="45.4063115" lon="7.6382783"><ele>411.0</ele><time>2026-03-28T09:36:00.279Z</time></trkpt><trkpt lat="45.4063589" lon="7.6381129"><ele>411.0</ele><time>2026-03-28T09:36:01.28Z</time></trkpt><trkpt lat="45.4064142" lon="7.6379318"><ele>411.0</ele><time>2026-03-28T09:36:02.291Z</time></trkpt><trkpt lat="45.4064726" lon="7.6377477"><ele>413.25</ele><time>2026-03-28T09:36:03.283Z</time></trkpt><trkpt lat="45.406533" lon="7.6375638"><ele>415.5</ele><time>2026-03-28T09:36:04.286Z</time></trkpt><trkpt lat="45.406594" lon="7.6373833"><ele>417.75</ele><time>2026-03-28T09:36:05.27Z</time></trkpt><trkpt lat="45.4066555" lon="7.6371864"><ele>420.0</ele><time>2026-03-28T09:36:06.276Z</time></trkpt><trkpt lat="45.4067186" lon="7.636992"><ele>418.33333333333337</ele><time>2026-03-28T09:36:07.276Z</time></trkpt><trkpt lat="45.406783" lon="7.6367925"><ele>416.6666666666667</ele><time>2026-03-28T09:36:08.276Z</time></trkpt><trkpt lat="45.4068444" lon="7.6365895"><ele>415.0</ele><time>2026-03-28T09:36:09.273Z</time></trkpt><trkpt lat="45.406911" lon="7.6363785"><ele>415.0</ele><time>2026-03-28T09:36:10.269Z</time></trkpt><trkpt lat="45.4069731" lon="7.6361761"><ele>415.0</ele><time>2026-03-28T09:36:11.272Z</time></trkpt><trkpt lat="45.4070354" lon="7.6359721"><ele>415.0</ele><time>2026-03-28T09:36:12.275Z</time></trkpt><trkpt lat="45.4070864" lon="7.6357855"><ele>414.5</ele><time>2026-03-28T09:36:13.271Z</time></trkpt><trkpt lat="45.4071459" lon="7.6356036"><ele>414.0</ele><time>2026-03-28T09:36:14.287Z</time></trkpt><trkpt lat="45.4072012" lon="7.6354151"><ele>413.5</ele><time>2026-03-28T09:36:15.348Z</time></trkpt><trkpt lat="45.4072559" lon="7.6352179"><ele>413.0</ele><time>2026-03-28T09:36:16.273Z</time></trkpt><trkpt lat="45.4073107" lon="7.635027"><ele>415.0</ele><time>2026-03-28T09:36:17.283Z</time></trkpt><trkpt lat="45.4073633" lon="7.6348531"><ele>417.0</ele><time>2026-03-28T09:36:18.307Z</time></trkpt><trkpt lat="45.4074144" lon="7.6346736"><ele>419.0</ele><time>2026-03-28T09:36:19.228Z</time></trkpt><trkpt lat="45.4074686" lon="7.6345007"><ele>421.0</ele><time>2026-03-28T09:36:20.141Z</time></trkpt><trkpt lat="45.4075178" lon="7.6343375"><ele>421.0</ele><time>2026-03-28T09:36:21.045Z</time></trkpt><trkpt lat="45.407569" lon="7.6341854"><ele>421.0</ele><time>2026-03-28T09:36:22.051Z</time></trkpt><trkpt lat="45.4076195" lon="7.6340313"><ele>421.0</ele><time>2026-03-28T09:36:23.06Z</time></trkpt><trkpt lat="45.4076643" lon="7.6338896"><ele>421.0</ele><time>2026-03-28T09:36:24.055Z</time></trkpt><trkpt lat="45.4077025" lon="7.6337517"><ele>421.00000000000006</ele><time>2026-03-28T09:36:25.058Z</time></trkpt><trkpt lat="45.4077377" lon="7.6336222"><ele>421.0</ele><time>2026-03-28T09:36:26.056Z</time></trkpt><trkpt lat="45.4077703" lon="7.633513"><ele>421.0</ele><time>2026-03-28T09:36:27.06Z</time></trkpt><trkpt lat="45.4077987" lon="7.6334196"><ele>421.0</ele><time>2026-03-28T09:36:28.045Z</time></trkpt><trkpt lat="45.4078461" lon="7.6332571"><ele>421.00000000000006</ele><time>2026-03-28T09:36:30.053Z</time></trkpt><trkpt lat="45.4078753" lon="7.6331689"><ele>421.0</ele><time>2026-03-28T09:36:31.057Z</time></trkpt><trkpt lat="45.4079061" lon="7.6330732"><ele>421.00000000000006</ele><time>2026-03-28T09:36:32.057Z</time></trkpt><trkpt lat="45.4079395" lon="7.6329647"><ele>421.0</ele><time>2026-03-28T09:36:33.059Z</time></trkpt><trkpt lat="45.4079759" lon="7.6328519"><ele>421.0</ele><time>2026-03-28T09:36:34.066Z</time></trkpt><trkpt lat="45.4080134" lon="7.6327387"><ele>421.0</ele><time>2026-03-28T09:36:35.065Z</time></trkpt><trkpt lat="45.4080519" lon="7.6326283"><ele>421.00000000000006</ele><time>2026-03-28T09:36:36.061Z</time></trkpt><trkpt lat="45.4080917" lon="7.6325078"><ele>421.0</ele><time>2026-03-28T09:36:37.047Z</time></trkpt><trkpt lat="45.4081333" lon="7.63238"><ele>422.4</ele><time>2026-03-28T09:36:38.041Z</time></trkpt><trkpt lat="45.4081716" lon="7.6322392"><ele>423.8</ele><time>2026-03-28T09:36:39.057Z</time></trkpt><trkpt lat="45.4082079" lon="7.6320922"><ele>425.19999999999993</ele><time>2026-03-28T09:36:40.046Z</time></trkpt><trkpt lat="45.4082386" lon="7.6319344"><ele>426.59999999999997</ele><time>2026-03-28T09:36:41.055Z</time></trkpt><trkpt lat="45.4082617" lon="7.6317698"><ele>428.0</ele><time>2026-03-28T09:36:42.063Z</time></trkpt><trkpt lat="45.4082822" lon="7.6316007"><ele>428.25</ele><time>2026-03-28T09:36:43.028Z</time></trkpt><trkpt lat="45.4082969" lon="7.6314279"><ele>428.5</ele><time>2026-03-28T09:36:43.981Z</time></trkpt><trkpt lat="45.4083097" lon="7.6312566"><ele>428.75</ele><time>2026-03-28T09:36:44.96Z</time></trkpt><trkpt lat="45.4083239" lon="7.6310799"><ele>429.0</ele><time>2026-03-28T09:36:45.944Z</time></trkpt><trkpt lat="45.408339" lon="7.6309028"><ele>428.25</ele><time>2026-03-28T09:36:46.948Z</time></trkpt><trkpt lat="45.4083527" lon="7.6307252"><ele>427.5</ele><time>2026-03-28T09:36:47.97Z</time></trkpt><trkpt lat="45.4083635" lon="7.6305481"><ele>426.75</ele><time>2026-03-28T09:36:48.957Z</time></trkpt><trkpt lat="45.4083727" lon="7.630372"><ele>426.0</ele><time>2026-03-28T09:36:49.962Z</time></trkpt><trkpt lat="45.4083827" lon="7.6301998"><ele>426.0</ele><time>2026-03-28T09:36:50.955Z</time></trkpt><trkpt lat="45.4083946" lon="7.6300322"><ele>426.0</ele><time>2026-03-28T09:36:51.958Z</time></trkpt><trkpt lat="45.408405" lon="7.629871"><ele>426.0</ele><time>2026-03-28T09:36:52.948Z</time></trkpt><trkpt lat="45.408416" lon="7.6297069"><ele>426.0</ele><time>2026-03-28T09:36:54.035Z</time></trkpt><trkpt lat="45.4084283" lon="7.6295453"><ele>427.20000000000005</ele><time>2026-03-28T09:36:54.976Z</time></trkpt><trkpt lat="45.4084408" lon="7.6293853"><ele>428.40000000000003</ele><time>2026-03-28T09:36:55.943Z</time></trkpt><trkpt lat="45.4084509" lon="7.6292338"><ele>429.6</ele><time>2026-03-28T09:36:56.952Z</time></trkpt><trkpt lat="45.4084628" lon="7.6290789"><ele>430.8</ele><time>2026-03-28T09:36:57.965Z</time></trkpt><trkpt lat="45.4084786" lon="7.6289229"><ele>432.0</ele><time>2026-03-28T09:36:58.945Z</time></trkpt><trkpt lat="45.4084854" lon="7.6287727"><ele>430.8</ele><time>2026-03-28T09:36:59.944Z</time></trkpt><trkpt lat="45.4084936" lon="7.6286182"><ele>429.6</ele><time>2026-03-28T09:37:00.955Z</time></trkpt><trkpt lat="45.4085005" lon="7.628455"><ele>428.40000000000003</ele><time>2026-03-28T09:37:01.942Z</time></trkpt><trkpt lat="45.4085134" lon="7.6282972"><ele>427.20000000000005</ele><time>2026-03-28T09:37:02.952Z</time></trkpt><trkpt lat="45.4085269" lon="7.6281519"><ele>426.0</ele><time>2026-03-28T09:37:03.936Z</time></trkpt><trkpt lat="45.4085432" lon="7.6280192"><ele>426.0</ele><time>2026-03-28T09:37:04.936Z</time></trkpt><trkpt lat="45.408563" lon="7.6278939"><ele>426.0</ele><time>2026-03-28T09:37:05.951Z</time></trkpt><trkpt lat="45.4085811" lon="7.6277655"><ele>426.0</ele><time>2026-03-28T09:37:06.957Z</time></trkpt><trkpt lat="45.4085892" lon="7.6276323"><ele>426.0</ele><time>2026-03-28T09:37:07.951Z</time></trkpt><trkpt lat="45.4085889" lon="7.6274959"><ele>426.0</ele><time>2026-03-28T09:37:08.943Z</time></trkpt><trkpt lat="45.4085787" lon="7.6273612"><ele>426.4</ele><time>2026-03-28T09:37:09.948Z</time></trkpt><trkpt lat="45.4085656" lon="7.6272316"><ele>426.8</ele><time>2026-03-28T09:37:10.945Z</time></trkpt><trkpt lat="45.4085549" lon="7.6271036"><ele>427.19999999999993</ele><time>2026-03-28T09:37:11.954Z</time></trkpt><trkpt lat="45.4085464" lon="7.6269762"><ele>427.59999999999997</ele><time>2026-03-28T09:37:12.938Z</time></trkpt><trkpt lat="45.4085428" lon="7.6268483"><ele>428.0</ele><time>2026-03-28T09:37:13.941Z</time></trkpt><trkpt lat="45.4085443" lon="7.6267228"><ele>427.99999999999994</ele><time>2026-03-28T09:37:14.959Z</time></trkpt><trkpt lat="45.4085593" lon="7.6265948"><ele>428.0</ele><time>2026-03-28T09:37:15.947Z</time></trkpt><trkpt lat="45.4085752" lon="7.6264757"><ele>428.0</ele><time>2026-03-28T09:37:16.941Z</time></trkpt><trkpt lat="45.4085996" lon="7.6263676"><ele>428.0</ele><time>2026-03-28T09:37:17.957Z</time></trkpt><trkpt lat="45.4086294" lon="7.6262593"><ele>427.99999999999994</ele><time>2026-03-28T09:37:18.941Z</time></trkpt><trkpt lat="45.4086581" lon="7.6261566"><ele>428.0</ele><time>2026-03-28T09:37:19.96Z</time></trkpt><trkpt lat="45.4086891" lon="7.6260682"><ele>426.8571428571429</ele><time>2026-03-28T09:37:20.943Z</time></trkpt><trkpt lat="45.408725" lon="7.6259872"><ele>425.7142857142857</ele><time>2026-03-28T09:37:21.951Z</time></trkpt><trkpt lat="45.4087695" lon="7.6259101"><ele>424.57142857142856</ele><time>2026-03-28T09:37:22.951Z</time></trkpt><trkpt lat="45.4088202" lon="7.6258307"><ele>423.42857142857144</ele><time>2026-03-28T09:37:23.956Z</time></trkpt><trkpt lat="45.4088752" lon="7.6257522"><ele>422.2857142857143</ele><time>2026-03-28T09:37:24.941Z</time></trkpt><trkpt lat="45.4089267" lon="7.6256807"><ele>421.14285714285717</ele><time>2026-03-28T09:37:25.962Z</time></trkpt><trkpt lat="45.4089804" lon="7.6256123"><ele>420.0</ele><time>2026-03-28T09:37:26.939Z</time></trkpt><trkpt lat="45.4090375" lon="7.6255528"><ele>422.0</ele><time>2026-03-28T09:37:27.945Z</time></trkpt><trkpt lat="45.4091299" lon="7.6254456"><ele>424.0</ele><time>2026-03-28T09:37:29.945Z</time></trkpt><trkpt lat="45.4092" lon="7.6253092"><ele>426.0</ele><time>2026-03-28T09:37:31.942Z</time></trkpt><trkpt lat="45.4092617" lon="7.6251899"><ele>428.0</ele><time>2026-03-28T09:37:33.959Z</time></trkpt><trkpt lat="45.4093057" lon="7.6251003"><ele>430.0</ele><time>2026-03-28T09:37:35.952Z</time></trkpt><trkpt lat="45.4093833" lon="7.6249751"><ele>430.00000000000006</ele><time>2026-03-28T09:37:37.938Z</time></trkpt><trkpt lat="45.4094299" lon="7.6248993"><ele>430.0</ele><time>2026-03-28T09:37:38.94Z</time></trkpt><trkpt lat="45.4095064" lon="7.6247717"><ele>430.0</ele><time>2026-03-28T09:37:40.953Z</time></trkpt><trkpt lat="45.4095654" lon="7.6246888"><ele>430.0</ele><time>2026-03-28T09:37:42.947Z</time></trkpt><trkpt lat="45.4095713" lon="7.6245861"><ele>430.00000000000006</ele><time>2026-03-28T09:38:43.955Z</time></trkpt><trkpt lat="45.4096198" lon="7.6246642"><ele>430.0</ele><time>2026-03-28T09:40:34.948Z</time></trkpt><trkpt lat="45.4097032" lon="7.6246747"><ele>432.0</ele><time>2026-03-28T09:40:37.946Z</time></trkpt><trkpt lat="45.4098091" lon="7.6246064"><ele>434.0</ele><time>2026-03-28T09:40:39.95Z</time></trkpt><trkpt lat="45.4098685" lon="7.6245732"><ele>436.0</ele><time>2026-03-28T09:40:40.954Z</time></trkpt><trkpt lat="45.4099609" lon="7.6245024"><ele>438.0</ele><time>2026-03-28T09:40:42.953Z</time></trkpt><trkpt lat="45.4100491" lon="7.6244263"><ele>440.0</ele><time>2026-03-28T09:40:44.948Z</time></trkpt><trkpt lat="45.4101204" lon="7.6244064"><ele>443.71428571428567</ele><time>2026-03-28T09:40:47.938Z</time></trkpt><trkpt lat="45.4101638" lon="7.6244943"><ele>447.42857142857144</ele><time>2026-03-28T09:40:50.936Z</time></trkpt><trkpt lat="45.4101622" lon="7.6245896"><ele>451.1428571428571</ele><time>2026-03-28T09:40:52.953Z</time></trkpt><trkpt lat="45.4101286" lon="7.6247012"><ele>454.85714285714283</ele><time>2026-03-28T09:40:54.947Z</time></trkpt><trkpt lat="45.410088" lon="7.6247737"><ele>458.57142857142856</ele><time>2026-03-28T09:40:56.949Z</time></trkpt><trkpt lat="45.4100335" lon="7.624827"><ele>462.2857142857143</ele><time>2026-03-28T09:40:58.95Z</time></trkpt><trkpt lat="45.4099766" lon="7.6248995"><ele>466.0</ele><time>2026-03-28T09:41:00.945Z</time></trkpt><trkpt lat="45.4099194" lon="7.6249766"><ele>466.00000000000006</ele><time>2026-03-28T09:41:03.032Z</time></trkpt><trkpt lat="45.4098717" lon="7.6250543"><ele>466.0</ele><time>2026-03-28T09:41:04.959Z</time></trkpt><trkpt lat="45.4098286" lon="7.6251535"><ele>466.0</ele><time>2026-03-28T09:41:28.947Z</time></trkpt><trkpt lat="45.4098144" lon="7.6252427"><ele>466.0</ele><time>2026-03-28T09:41:32.014Z</time></trkpt><trkpt lat="45.4097767" lon="7.6253353"><ele>466.00000000000006</ele><time>2026-03-28T09:41:38.946Z</time></trkpt><trkpt lat="45.4097133" lon="7.6254512"><ele>466.0</ele><time>2026-03-28T09:41:41.942Z</time></trkpt><trkpt lat="45.4096463" lon="7.6255293"><ele>464.00000000000006</ele><time>2026-03-28T09:41:43.946Z</time></trkpt><trkpt lat="45.4096354" lon="7.6256211"><ele>462.0</ele><time>2026-03-28T09:41:49.944Z</time></trkpt><trkpt lat="45.4097145" lon="7.6255759"><ele>460.0</ele><time>2026-03-28T09:41:59.942Z</time></trkpt><trkpt lat="45.4097958" lon="7.6255292"><ele>458.0</ele><time>2026-03-28T09:42:02.961Z</time></trkpt><trkpt lat="45.4098692" lon="7.6254949"><ele>456.00000000000006</ele><time>2026-03-28T09:42:05.96Z</time></trkpt><trkpt lat="45.409933" lon="7.6254787"><ele>454.0</ele><time>2026-03-28T09:42:07.975Z</time></trkpt><trkpt lat="45.4099978" lon="7.6254186"><ele>456.00000000000006</ele><time>2026-03-28T09:42:12.032Z</time></trkpt><trkpt lat="45.4100593" lon="7.625335"><ele>458.0</ele><time>2026-03-28T09:42:14.98Z</time></trkpt><trkpt lat="45.4101201" lon="7.6252899"><ele>460.0</ele><time>2026-03-28T09:42:16.943Z</time></trkpt><trkpt lat="45.4101897" lon="7.6252393"><ele>462.0</ele><time>2026-03-28T09:42:18.949Z</time></trkpt><trkpt lat="45.4102491" lon="7.6252002"><ele>464.00000000000006</ele><time>2026-03-28T09:42:20.941Z</time></trkpt><trkpt lat="45.4103369" lon="7.6251509"><ele>466.0</ele><time>2026-03-28T09:42:24.017Z</time></trkpt><trkpt lat="45.4104032" lon="7.6251367"><ele>466.00000000000006</ele><time>2026-03-28T09:42:25.948Z</time></trkpt><trkpt lat="45.4104879" lon="7.6251271"><ele>466.0</ele><time>2026-03-28T09:42:28.955Z</time></trkpt><trkpt lat="45.410554" lon="7.6251257"><ele>466.0</ele><time>2026-03-28T09:42:31.98Z</time></trkpt><trkpt lat="45.4106348" lon="7.6251413"><ele>466.0</ele><time>2026-03-28T09:42:34.953Z</time></trkpt><trkpt lat="45.4107165" lon="7.6251373"><ele>466.00000000000006</ele><time>2026-03-28T09:42:38.946Z</time></trkpt><trkpt lat="45.4107563" lon="7.6252109"><ele>466.0</ele><time>2026-03-28T09:42:44.004Z</time></trkpt><trkpt lat="45.4107547" lon="7.6253139"><ele>470.33333333333337</ele><time>2026-03-28T09:42:46.953Z</time></trkpt><trkpt lat="45.4107112" lon="7.625397"><ele>474.6666666666667</ele><time>2026-03-28T09:42:48.957Z</time></trkpt><trkpt lat="45.4106638" lon="7.6254796"><ele>479.0</ele><time>2026-03-28T09:42:50.942Z</time></trkpt><trkpt lat="45.4106158" lon="7.6255415"><ele>483.33333333333337</ele><time>2026-03-28T09:42:52.943Z</time></trkpt><trkpt lat="45.4105537" lon="7.625622"><ele>487.6666666666667</ele><time>2026-03-28T09:42:55.958Z</time></trkpt><trkpt lat="45.41047" lon="7.6256884"><ele>492.0</ele><time>2026-03-28T09:42:58.943Z</time></trkpt><trkpt lat="45.4105258" lon="7.6257505"><ele>496.8571428571429</ele><time>2026-03-28T09:43:04.958Z</time></trkpt><trkpt lat="45.4105983" lon="7.6257455"><ele>501.7142857142857</ele><time>2026-03-28T09:43:08.956Z</time></trkpt><trkpt lat="45.4106731" lon="7.6257422"><ele>506.57142857142856</ele><time>2026-03-28T09:43:11.962Z</time></trkpt><trkpt lat="45.4107396" lon="7.6257231"><ele>511.42857142857144</ele><time>2026-03-28T09:43:13.935Z</time></trkpt><trkpt lat="45.4108168" lon="7.6257034"><ele>516.2857142857142</ele><time>2026-03-28T09:43:16.955Z</time></trkpt><trkpt lat="45.4108863" lon="7.6257032"><ele>521.1428571428571</ele><time>2026-03-28T09:43:19.951Z</time></trkpt><trkpt lat="45.4109671" lon="7.625687"><ele>526.0</ele><time>2026-03-28T09:47:13.948Z</time></trkpt><trkpt lat="45.411044" lon="7.6256447"><ele>526.0</ele><time>2026-03-28T09:47:19.957Z</time></trkpt><trkpt lat="45.4111004" lon="7.6255926"><ele>526.0</ele><time>2026-03-28T09:47:21.95Z</time></trkpt><trkpt lat="45.4111572" lon="7.625539"><ele>526.0</ele><time>2026-03-28T09:47:23.951Z</time></trkpt><trkpt lat="45.4112219" lon="7.6254564"><ele>526.0</ele><time>2026-03-28T09:47:25.96Z</time></trkpt><trkpt lat="45.4112741" lon="7.6253493"><ele>526.0</ele><time>2026-03-28T09:47:27.952Z</time></trkpt><trkpt lat="45.4113238" lon="7.6252802"><ele>526.0</ele><time>2026-03-28T09:47:29.955Z</time></trkpt><trkpt lat="45.4113627" lon="7.6251999"><ele>528.0</ele><time>2026-03-28T09:47:31.963Z</time></trkpt><trkpt lat="45.4114096" lon="7.6251353"><ele>530.0</ele><time>2026-03-28T09:47:33.961Z</time></trkpt><trkpt lat="45.4114775" lon="7.6251196"><ele>532.0</ele><time>2026-03-28T09:47:35.941Z</time></trkpt><trkpt lat="45.4115663" lon="7.625096"><ele>534.0</ele><time>2026-03-28T09:47:38.957Z</time></trkpt><trkpt lat="45.4116207" lon="7.6250131"><ele>536.0</ele><time>2026-03-28T09:47:40.963Z</time></trkpt><trkpt lat="45.4116732" lon="7.6249405"><ele>538.0</ele><time>2026-03-28T09:47:42.949Z</time></trkpt><trkpt lat="45.41174" lon="7.6249059"><ele>540.0</ele><time>2026-03-28T09:47:44.965Z</time></trkpt><trkpt lat="45.4118361" lon="7.6248941"><ele>540.0</ele><time>2026-03-28T09:47:46.947Z</time></trkpt><trkpt lat="45.4119318" lon="7.6248503"><ele>540.0</ele><time>2026-03-28T09:47:48.961Z</time></trkpt><trkpt lat="45.4120287" lon="7.6248205"><ele>540.0</ele><time>2026-03-28T09:47:50.955Z</time></trkpt><trkpt lat="45.4120927" lon="7.6247986"><ele>540.0</ele><time>2026-03-28T09:47:52.958Z</time></trkpt><trkpt lat="45.4121476" lon="7.6247504"><ele>540.0</ele><time>2026-03-28T09:47:54.951Z</time></trkpt><trkpt lat="45.412208" lon="7.6247247"><ele>540.0</ele><time>2026-03-28T09:47:56.963Z</time></trkpt><trkpt lat="45.4122981" lon="7.624769"><ele>542.8571428571429</ele><time>2026-03-28T09:47:59.959Z</time></trkpt><trkpt lat="45.4123649" lon="7.624797"><ele>545.7142857142857</ele><time>2026-03-28T09:48:01.957Z</time></trkpt><trkpt lat="45.4124339" lon="7.6248456"><ele>548.5714285714286</ele><time>2026-03-28T09:48:03.948Z</time></trkpt><trkpt lat="45.4125034" lon="7.6248832"><ele>551.4285714285714</ele><time>2026-03-28T09:48:05.963Z</time></trkpt><trkpt lat="45.4125725" lon="7.624914"><ele>554.2857142857142</ele><time>2026-03-28T09:48:07.964Z</time></trkpt><trkpt lat="45.4126388" lon="7.6249296"><ele>557.1428571428571</ele><time>2026-03-28T09:48:09.957Z</time></trkpt><trkpt lat="45.4127031" lon="7.6249415"><ele>560.0</ele><time>2026-03-28T09:48:11.958Z</time></trkpt><trkpt lat="45.4127765" lon="7.6249396"><ele>560.0</ele><time>2026-03-28T09:48:13.956Z</time></trkpt><trkpt lat="45.412841" lon="7.6249447"><ele>560.0</ele><time>2026-03-28T09:48:15.945Z</time></trkpt><trkpt lat="45.41291" lon="7.6249319"><ele>560.0</ele><time>2026-03-28T09:48:17.955Z</time></trkpt><trkpt lat="45.4129925" lon="7.6248876"><ele>560.0</ele><time>2026-03-28T09:48:20.963Z</time></trkpt><trkpt lat="45.4130776" lon="7.6249208"><ele>560.0</ele><time>2026-03-28T09:48:23.958Z</time></trkpt><trkpt lat="45.4131453" lon="7.6249401"><ele>560.0</ele><time>2026-03-28T09:48:26.952Z</time></trkpt><trkpt lat="45.4132277" lon="7.624956"><ele>562.6666666666666</ele><time>2026-03-28T09:48:29.961Z</time></trkpt><trkpt lat="45.4133062" lon="7.6249518"><ele>565.3333333333333</ele><time>2026-03-28T09:48:32.948Z</time></trkpt><trkpt lat="45.4133732" lon="7.6249278"><ele>568.0</ele><time>2026-03-28T09:48:35.038Z</time></trkpt><trkpt lat="45.4134466" lon="7.6249374"><ele>570.6666666666666</ele><time>2026-03-28T09:48:37.031Z</time></trkpt><trkpt lat="45.4135321" lon="7.6249469"><ele>573.3333333333334</ele><time>2026-03-28T09:48:39.954Z</time></trkpt><trkpt lat="45.4136067" lon="7.6249621"><ele>576.0</ele><time>2026-03-28T09:48:44.037Z</time></trkpt><trkpt lat="45.4136998" lon="7.6249669"><ele>576.0000000000001</ele><time>2026-03-28T09:48:46.948Z</time></trkpt><trkpt lat="45.4137644" lon="7.6249598"><ele>576.0</ele><time>2026-03-28T09:48:48.938Z</time></trkpt><trkpt lat="45.4138401" lon="7.624955"><ele>576.0</ele><time>2026-03-28T09:48:52.957Z</time></trkpt><trkpt lat="45.4139059" lon="7.624918"><ele>576.0</ele><time>2026-03-28T09:48:57.959Z</time></trkpt><trkpt lat="45.4139728" lon="7.624887"><ele>576.0</ele><time>2026-03-28T09:49:03.035Z</time></trkpt><trkpt lat="45.4140636" lon="7.6248857"><ele>576.0000000000001</ele><time>2026-03-28T09:49:05.953Z</time></trkpt><trkpt lat="45.4141122" lon="7.6249516"><ele>576.0</ele><time>2026-03-28T09:49:08.967Z</time></trkpt><trkpt lat="45.4141399" lon="7.6250379"><ele>577.5714285714287</ele><time>2026-03-28T09:49:15.955Z</time></trkpt><trkpt lat="45.4141593" lon="7.625127"><ele>579.1428571428571</ele><time>2026-03-28T09:50:31.938Z</time></trkpt><trkpt lat="45.4141448" lon="7.625255"><ele>580.7142857142858</ele><time>2026-03-28T09:51:21.954Z</time></trkpt><trkpt lat="45.414164" lon="7.6253425"><ele>582.2857142857143</ele><time>2026-03-28T09:51:23.949Z</time></trkpt><trkpt lat="45.4141378" lon="7.6254443"><ele>583.8571428571429</ele><time>2026-03-28T09:51:26.946Z</time></trkpt><trkpt lat="45.4141552" lon="7.6255371"><ele>585.4285714285714</ele><time>2026-03-28T09:51:33.948Z</time></trkpt><trkpt lat="45.4141931" lon="7.6256309"><ele>587.0</ele><time>2026-03-28T09:51:36.951Z</time></trkpt><trkpt lat="45.4142508" lon="7.6257373"><ele>590.2857142857143</ele><time>2026-03-28T09:51:39.941Z</time></trkpt><trkpt lat="45.4142712" lon="7.6258262"><ele>593.5714285714287</ele><time>2026-03-28T09:51:41.942Z</time></trkpt><trkpt lat="45.4143279" lon="7.6259008"><ele>596.8571428571429</ele><time>2026-03-28T09:51:44.947Z</time></trkpt><trkpt lat="45.4143639" lon="7.626027"><ele>600.1428571428571</ele><time>2026-03-28T09:51:47.949Z</time></trkpt><trkpt lat="45.4143808" lon="7.6261341"><ele>603.4285714285713</ele><time>2026-03-28T09:51:49.945Z</time></trkpt><trkpt lat="45.4143782" lon="7.6262241"><ele>606.7142857142858</ele><time>2026-03-28T09:51:51.953Z</time></trkpt><trkpt lat="45.4143865" lon="7.6263166"><ele>610.0</ele><time>2026-03-28T09:51:53.936Z</time></trkpt><trkpt lat="45.4144329" lon="7.6264121"><ele>612.0</ele><time>2026-03-28T09:51:56.946Z</time></trkpt><trkpt lat="45.4144765" lon="7.6264852"><ele>614.0</ele><time>2026-03-28T09:51:59.943Z</time></trkpt><trkpt lat="45.4145524" lon="7.6264649"><ele>616.0</ele><time>2026-03-28T09:52:04.96Z</time></trkpt><trkpt lat="45.4146271" lon="7.6264093"><ele>618.0</ele><time>2026-03-28T09:52:07.943Z</time></trkpt><trkpt lat="45.4147101" lon="7.626348"><ele>620.0</ele><time>2026-03-28T09:52:10.96Z</time></trkpt><trkpt lat="45.4147738" lon="7.6263227"><ele>622.0</ele><time>2026-03-28T09:52:12.946Z</time></trkpt><trkpt lat="45.4148569" lon="7.626267"><ele>622.1666666666667</ele><time>2026-03-28T09:52:15.95Z</time></trkpt><trkpt lat="45.4149527" lon="7.626266"><ele>622.3333333333334</ele><time>2026-03-28T09:52:18.953Z</time></trkpt><trkpt lat="45.4150193" lon="7.6262462"><ele>622.5</ele><time>2026-03-28T09:52:20.955Z</time></trkpt><trkpt lat="45.4150901" lon="7.62622"><ele>622.6666666666666</ele><time>2026-03-28T09:52:22.944Z</time></trkpt><trkpt lat="45.4151576" lon="7.6262123"><ele>622.8333333333333</ele><time>2026-03-28T09:52:24.953Z</time></trkpt><trkpt lat="45.4152285" lon="7.6261892"><ele>623.0</ele><time>2026-03-28T09:52:26.958Z</time></trkpt><trkpt lat="45.4153105" lon="7.6261585"><ele>621.8333333333333</ele><time>2026-03-28T09:52:28.938Z</time></trkpt><trkpt lat="45.4153812" lon="7.6261152"><ele>620.6666666666666</ele><time>2026-03-28T09:52:30.948Z</time></trkpt><trkpt lat="45.4154431" lon="7.6260801"><ele>619.5</ele><time>2026-03-28T09:52:32.95Z</time></trkpt><trkpt lat="45.4155029" lon="7.6260236"><ele>618.3333333333334</ele><time>2026-03-28T09:52:34.947Z</time></trkpt><trkpt lat="45.4155655" lon="7.6259774"><ele>617.1666666666667</ele><time>2026-03-28T09:52:36.946Z</time></trkpt><trkpt lat="45.415662" lon="7.6259566"><ele>616.0</ele><time>2026-03-28T09:52:39.952Z</time></trkpt><trkpt lat="45.4157162" lon="7.6259025"><ele>618.8333333333334</ele><time>2026-03-28T09:52:41.952Z</time></trkpt><trkpt lat="45.4157669" lon="7.6258308"><ele>621.6666666666667</ele><time>2026-03-28T09:52:43.935Z</time></trkpt><trkpt lat="45.4158232" lon="7.6257797"><ele>624.5</ele><time>2026-03-28T09:52:45.938Z</time></trkpt><trkpt lat="45.4157537" lon="7.6258314"><ele>627.3333333333334</ele><time>2026-03-28T09:53:00.947Z</time></trkpt><trkpt lat="45.4157078" lon="7.6259292"><ele>630.1666666666666</ele><time>2026-03-28T09:53:03.964Z</time></trkpt><trkpt lat="45.415616" lon="7.6259673"><ele>633.0</ele><time>2026-03-28T09:53:06.955Z</time></trkpt><trkpt lat="45.4155418" lon="7.6259374"><ele>631.3333333333334</ele><time>2026-03-28T09:53:08.949Z</time></trkpt><trkpt lat="45.4154596" lon="7.6259459"><ele>629.6666666666666</ele><time>2026-03-28T09:53:10.965Z</time></trkpt><trkpt lat="45.4153923" lon="7.6259992"><ele>628.0</ele><time>2026-03-28T09:53:12.927Z</time></trkpt><trkpt lat="45.4153272" lon="7.6260455"><ele>626.3333333333333</ele><time>2026-03-28T09:53:14.966Z</time></trkpt><trkpt lat="45.4152502" lon="7.6260832"><ele>624.6666666666666</ele><time>2026-03-28T09:53:16.956Z</time></trkpt><trkpt lat="45.4151717" lon="7.6261461"><ele>623.0</ele><time>2026-03-28T09:53:18.959Z</time></trkpt><trkpt lat="45.4151019" lon="7.6262202"><ele>623.0</ele><time>2026-03-28T09:53:20.957Z</time></trkpt><trkpt lat="45.4150172" lon="7.6262514"><ele>623.0</ele><time>2026-03-28T09:53:22.951Z</time></trkpt><trkpt lat="45.4149309" lon="7.6262821"><ele>623.0</ele><time>2026-03-28T09:53:24.956Z</time></trkpt><trkpt lat="45.4148636" lon="7.6263248"><ele>623.0</ele><time>2026-03-28T09:53:26.937Z</time></trkpt><trkpt lat="45.4147817" lon="7.6263392"><ele>623.0</ele><time>2026-03-28T09:53:28.949Z</time></trkpt><trkpt lat="45.4147112" lon="7.6263563"><ele>623.0</ele><time>2026-03-28T09:53:30.959Z</time></trkpt><trkpt lat="45.4146331" lon="7.626411"><ele>623.0</ele><time>2026-03-28T09:53:32.949Z</time></trkpt><trkpt lat="45.4145797" lon="7.6264671"><ele>623.0</ele><time>2026-03-28T09:53:34.96Z</time></trkpt><trkpt lat="45.4145318" lon="7.6265313"><ele>623.0</ele><time>2026-03-28T09:53:36.958Z</time></trkpt><trkpt lat="45.4145574" lon="7.6266281"><ele>623.0</ele><time>2026-03-28T09:53:39.995Z</time></trkpt><trkpt lat="45.4146307" lon="7.6267084"><ele>623.0</ele><time>2026-03-28T09:53:42.962Z</time></trkpt><trkpt lat="45.4146816" lon="7.6268126"><ele>623.0</ele><time>2026-03-28T09:53:45.964Z</time></trkpt><trkpt lat="45.4146796" lon="7.6269366"><ele>622.6666666666666</ele><time>2026-03-28T09:53:50.962Z</time></trkpt><trkpt lat="45.4146209" lon="7.6269876"><ele>622.3333333333333</ele><time>2026-03-28T09:53:53.04Z</time></trkpt><trkpt lat="45.4145384" lon="7.6270265"><ele>622.0</ele><time>2026-03-28T09:53:55.946Z</time></trkpt><trkpt lat="45.4144909" lon="7.6271118"><ele>621.6666666666666</ele><time>2026-03-28T09:54:08.946Z</time></trkpt><trkpt lat="45.4144556" lon="7.6272083"><ele>621.3333333333334</ele><time>2026-03-28T09:54:11.954Z</time></trkpt><trkpt lat="45.4144166" lon="7.62731"><ele>621.0</ele><time>2026-03-28T09:54:14.032Z</time></trkpt><trkpt lat="45.4143579" lon="7.6274378"><ele>621.0</ele><time>2026-03-28T09:54:15.952Z</time></trkpt><trkpt lat="45.4142957" lon="7.6275869"><ele>621.0</ele><time>2026-03-28T09:54:17.961Z</time></trkpt><trkpt lat="45.4142358" lon="7.6277317"><ele>621.0</ele><time>2026-03-28T09:54:19.958Z</time></trkpt><trkpt lat="45.4141612" lon="7.6278845"><ele>621.0</ele><time>2026-03-28T09:54:22.033Z</time></trkpt><trkpt lat="45.4141215" lon="7.6279689"><ele>621.0</ele><time>2026-03-28T09:54:23.037Z</time></trkpt><trkpt lat="45.4140774" lon="7.6280497"><ele>620.1666666666666</ele><time>2026-03-28T09:54:24.032Z</time></trkpt><trkpt lat="45.4139873" lon="7.6281713"><ele>619.3333333333334</ele><time>2026-03-28T09:54:25.949Z</time></trkpt><trkpt lat="45.4139137" lon="7.6282947"><ele>618.5</ele><time>2026-03-28T09:54:27.948Z</time></trkpt><trkpt lat="45.4138764" lon="7.6283698"><ele>617.6666666666667</ele><time>2026-03-28T09:54:28.956Z</time></trkpt><trkpt lat="45.4138316" lon="7.6284433"><ele>616.8333333333334</ele><time>2026-03-28T09:54:29.973Z</time></trkpt><trkpt lat="45.4137847" lon="7.6285081"><ele>616.0</ele><time>2026-03-28T09:54:31.043Z</time></trkpt><trkpt lat="45.4137046" lon="7.6286373"><ele>613.7142857142857</ele><time>2026-03-28T09:54:33.035Z</time></trkpt><trkpt lat="45.4136674" lon="7.6287168"><ele>611.4285714285714</ele><time>2026-03-28T09:54:34.035Z</time></trkpt><trkpt lat="45.4136363" lon="7.6288058"><ele>609.1428571428571</ele><time>2026-03-28T09:54:34.939Z</time></trkpt><trkpt lat="45.413609" lon="7.6288923"><ele>606.8571428571429</ele><time>2026-03-28T09:54:35.964Z</time></trkpt><trkpt lat="45.4135825" lon="7.628993"><ele>604.5714285714286</ele><time>2026-03-28T09:54:36.946Z</time></trkpt><trkpt lat="45.4135545" lon="7.6290928"><ele>602.2857142857142</ele><time>2026-03-28T09:54:38.017Z</time></trkpt><trkpt lat="45.41353" lon="7.6292062"><ele>600.0</ele><time>2026-03-28T09:54:39.017Z</time></trkpt><trkpt lat="45.4135008" lon="7.6293151"><ele>599.9999999999999</ele><time>2026-03-28T09:54:39.954Z</time></trkpt><trkpt lat="45.4134686" lon="7.6294037"><ele>600.0</ele><time>2026-03-28T09:54:40.952Z</time></trkpt><trkpt lat="45.4134217" lon="7.6294796"><ele>600.0</ele><time>2026-03-28T09:54:41.969Z</time></trkpt><trkpt lat="45.4133672" lon="7.6295471"><ele>600.0</ele><time>2026-03-28T09:54:42.954Z</time></trkpt><trkpt lat="45.413314" lon="7.6296117"><ele>600.0</ele><time>2026-03-28T09:54:44.018Z</time></trkpt><trkpt lat="45.4132547" lon="7.629682"><ele>599.9999999999999</ele><time>2026-03-28T09:54:44.947Z</time></trkpt><trkpt lat="45.4131994" lon="7.6297452"><ele>600.0</ele><time>2026-03-28T09:54:45.956Z</time></trkpt><trkpt lat="45.4131415" lon="7.6298103"><ele>598.8571428571428</ele><time>2026-03-28T09:54:46.968Z</time></trkpt><trkpt lat="45.4130888" lon="7.6298859"><ele>597.7142857142857</ele><time>2026-03-28T09:54:48.031Z</time></trkpt><trkpt lat="45.4130407" lon="7.6299668"><ele>596.5714285714286</ele><time>2026-03-28T09:54:49.028Z</time></trkpt><trkpt lat="45.4129837" lon="7.6300404"><ele>595.4285714285713</ele><time>2026-03-28T09:54:49.958Z</time></trkpt><trkpt lat="45.4129189" lon="7.6300997"><ele>594.2857142857142</ele><time>2026-03-28T09:54:50.958Z</time></trkpt><trkpt lat="45.4128515" lon="7.6301356"><ele>593.1428571428571</ele><time>2026-03-28T09:54:51.954Z</time></trkpt><trkpt lat="45.4127854" lon="7.630174"><ele>592.0</ele><time>2026-03-28T09:54:53.034Z</time></trkpt><trkpt lat="45.4127168" lon="7.6301992"><ele>592.0</ele><time>2026-03-28T09:54:54.031Z</time></trkpt><trkpt lat="45.4126392" lon="7.6302239"><ele>592.0</ele><time>2026-03-28T09:54:54.958Z</time></trkpt><trkpt lat="45.4125688" lon="7.6302514"><ele>592.0</ele><time>2026-03-28T09:54:55.964Z</time></trkpt><trkpt lat="45.4125012" lon="7.6302878"><ele>592.0</ele><time>2026-03-28T09:54:56.984Z</time></trkpt><trkpt lat="45.4124381" lon="7.6303287"><ele>592.0</ele><time>2026-03-28T09:54:57.949Z</time></trkpt><trkpt lat="45.412372" lon="7.6303535"><ele>592.0</ele><time>2026-03-28T09:54:58.964Z</time></trkpt><trkpt lat="45.4123027" lon="7.6303642"><ele>592.0</ele><time>2026-03-28T09:54:59.969Z</time></trkpt><trkpt lat="45.4122375" lon="7.6303847"><ele>591.6</ele><time>2026-03-28T09:55:00.962Z</time></trkpt><trkpt lat="45.4121689" lon="7.6304025"><ele>591.2</ele><time>2026-03-28T09:55:01.959Z</time></trkpt><trkpt lat="45.4120602" lon="7.6304566"><ele>590.8</ele><time>2026-03-28T09:55:04.021Z</time></trkpt><trkpt lat="45.4120028" lon="7.6305581"><ele>590.4</ele><time>2026-03-28T09:55:05.967Z</time></trkpt><trkpt lat="45.4119667" lon="7.6307031"><ele>590.0</ele><time>2026-03-28T09:55:07.96Z</time></trkpt><trkpt lat="45.411948" lon="7.6308721"><ele>590.0</ele><time>2026-03-28T09:55:09.961Z</time></trkpt><trkpt lat="45.4119386" lon="7.6310505"><ele>590.0</ele><time>2026-03-28T09:55:12.027Z</time></trkpt><trkpt lat="45.4119515" lon="7.6312168"><ele>590.0</ele><time>2026-03-28T09:55:14.035Z</time></trkpt><trkpt lat="45.412002" lon="7.6313334"><ele>590.0</ele><time>2026-03-28T09:55:15.962Z</time></trkpt><trkpt lat="45.4120988" lon="7.6313925"><ele>590.0</ele><time>2026-03-28T09:55:17.952Z</time></trkpt><trkpt lat="45.412203" lon="7.6314301"><ele>593.2</ele><time>2026-03-28T09:55:19.948Z</time></trkpt><trkpt lat="45.4122971" lon="7.6314552"><ele>596.4</ele><time>2026-03-28T09:55:22.033Z</time></trkpt><trkpt lat="45.4123991" lon="7.6314981"><ele>599.6</ele><time>2026-03-28T09:55:24.035Z</time></trkpt><trkpt lat="45.4124955" lon="7.6315503"><ele>602.8</ele><time>2026-03-28T09:55:25.952Z</time></trkpt><trkpt lat="45.412597" lon="7.6316207"><ele>606.0</ele><time>2026-03-28T09:55:28.037Z</time></trkpt><trkpt lat="45.4127028" lon="7.6316763"><ele>606.0</ele><time>2026-03-28T09:55:29.965Z</time></trkpt><trkpt lat="45.4127944" lon="7.6317347"><ele>606.0</ele><time>2026-03-28T09:55:31.989Z</time></trkpt><trkpt lat="45.4128594" lon="7.6318544"><ele>606.0</ele><time>2026-03-28T09:55:33.953Z</time></trkpt><trkpt lat="45.4129351" lon="7.6319772"><ele>606.0</ele><time>2026-03-28T09:55:35.959Z</time></trkpt><trkpt lat="45.4129892" lon="7.6320321"><ele>606.0</ele><time>2026-03-28T09:55:36.959Z</time></trkpt><trkpt lat="45.4130933" lon="7.6320768"><ele>608.0</ele><time>2026-03-28T09:55:38.99Z</time></trkpt><trkpt lat="45.4131917" lon="7.6320555"><ele>610.0</ele><time>2026-03-28T09:55:40.953Z</time></trkpt><trkpt lat="45.4132478" lon="7.6320106"><ele>612.0</ele><time>2026-03-28T09:55:41.932Z</time></trkpt><trkpt lat="45.4133505" lon="7.631926"><ele>614.0</ele><time>2026-03-28T09:55:43.954Z</time></trkpt><trkpt lat="45.4134476" lon="7.6318793"><ele>616.0</ele><time>2026-03-28T09:55:45.959Z</time></trkpt><trkpt lat="45.4135175" lon="7.631887"><ele>616.8</ele><time>2026-03-28T09:55:47.956Z</time></trkpt><trkpt lat="45.4135703" lon="7.6318181"><ele>617.6</ele><time>2026-03-28T09:55:52.954Z</time></trkpt><trkpt lat="45.4135945" lon="7.6316809"><ele>618.4</ele><time>2026-03-28T09:55:54.956Z</time></trkpt><trkpt lat="45.4136487" lon="7.6315388"><ele>619.2</ele><time>2026-03-28T09:55:56.958Z</time></trkpt><trkpt lat="45.4136874" lon="7.6314148"><ele>620.0</ele><time>2026-03-28T09:55:58.956Z</time></trkpt><trkpt lat="45.4137225" lon="7.6312819"><ele>620.6</ele><time>2026-03-28T09:56:00.941Z</time></trkpt><trkpt lat="45.4137566" lon="7.631138"><ele>621.2</ele><time>2026-03-28T09:56:02.969Z</time></trkpt><trkpt lat="45.4137812" lon="7.6310325"><ele>621.8</ele><time>2026-03-28T09:56:04.972Z</time></trkpt><trkpt lat="45.4137931" lon="7.6309075"><ele>622.4</ele><time>2026-03-28T09:56:06.945Z</time></trkpt><trkpt lat="45.4137821" lon="7.6307519"><ele>623.0</ele><time>2026-03-28T09:56:08.96Z</time></trkpt><trkpt lat="45.4137892" lon="7.6306487"><ele>623.0</ele><time>2026-03-28T09:56:09.957Z</time></trkpt><trkpt lat="45.4138084" lon="7.6305482"><ele>623.0</ele><time>2026-03-28T09:56:10.947Z</time></trkpt><trkpt lat="45.4138345" lon="7.6304549"><ele>623.0</ele><time>2026-03-28T09:56:11.95Z</time></trkpt><trkpt lat="45.4138718" lon="7.6303597"><ele>623.0</ele><time>2026-03-28T09:56:12.942Z</time></trkpt><trkpt lat="45.4139145" lon="7.630269"><ele>623.0</ele><time>2026-03-28T09:56:13.945Z</time></trkpt><trkpt lat="45.4139692" lon="7.6301798"><ele>623.0</ele><time>2026-03-28T09:56:14.95Z</time></trkpt><trkpt lat="45.4140316" lon="7.6300899"><ele>624.6666666666666</ele><time>2026-03-28T09:56:15.944Z</time></trkpt><trkpt lat="45.414094" lon="7.6300041"><ele>626.3333333333333</ele><time>2026-03-28T09:56:16.956Z</time></trkpt><trkpt lat="45.4141621" lon="7.6299268"><ele>628.0</ele><time>2026-03-28T09:56:17.962Z</time></trkpt><trkpt lat="45.414227" lon="7.6298405"><ele>629.6666666666666</ele><time>2026-03-28T09:56:18.957Z</time></trkpt><trkpt lat="45.4142845" lon="7.6297581"><ele>631.3333333333334</ele><time>2026-03-28T09:56:19.955Z</time></trkpt><trkpt lat="45.4143425" lon="7.6296746"><ele>633.0</ele><time>2026-03-28T09:56:20.949Z</time></trkpt><trkpt lat="45.4143865" lon="7.6295975"><ele>633.0</ele><time>2026-03-28T09:56:21.956Z</time></trkpt><trkpt lat="45.4144243" lon="7.6295194"><ele>633.0</ele><time>2026-03-28T09:56:22.948Z</time></trkpt><trkpt lat="45.4144918" lon="7.6293971"><ele>633.0</ele><time>2026-03-28T09:56:24.949Z</time></trkpt><trkpt lat="45.4144906" lon="7.6294976"><ele>633.0</ele><time>2026-03-28T09:56:31.962Z</time></trkpt><trkpt lat="45.4144738" lon="7.629596"><ele>633.0</ele><time>2026-03-28T09:56:32.968Z</time></trkpt><trkpt lat="45.4144597" lon="7.6297279"><ele>633.0</ele><time>2026-03-28T09:56:33.953Z</time></trkpt><trkpt lat="45.4144598" lon="7.6298636"><ele>633.0</ele><time>2026-03-28T09:56:34.956Z</time></trkpt><trkpt lat="45.4144536" lon="7.6299909"><ele>633.0</ele><time>2026-03-28T09:56:35.948Z</time></trkpt><trkpt lat="45.4144518" lon="7.6301159"><ele>633.0</ele><time>2026-03-28T09:56:37.034Z</time></trkpt><trkpt lat="45.4144549" lon="7.6302309"><ele>633.0</ele><time>2026-03-28T09:56:38.029Z</time></trkpt><trkpt lat="45.4144624" lon="7.6303316"><ele>633.0</ele><time>2026-03-28T09:56:38.959Z</time></trkpt><trkpt lat="45.4144728" lon="7.6304292"><ele>633.0</ele><time>2026-03-28T09:56:39.956Z</time></trkpt><trkpt lat="45.4145038" lon="7.6305578"><ele>634.0</ele><time>2026-03-28T09:56:41.964Z</time></trkpt><trkpt lat="45.4145814" lon="7.6305652"><ele>635.0</ele><time>2026-03-28T09:56:44.952Z</time></trkpt><trkpt lat="45.4146244" lon="7.6304485"><ele>636.0</ele><time>2026-03-28T09:56:48.017Z</time></trkpt><trkpt lat="45.4146672" lon="7.6303763"><ele>637.0</ele><time>2026-03-28T09:56:49.95Z</time></trkpt><trkpt lat="45.4147444" lon="7.6303606"><ele>638.0</ele><time>2026-03-28T09:56:51.951Z</time></trkpt><trkpt lat="45.4148017" lon="7.6304376"><ele>639.0</ele><time>2026-03-28T09:56:52.955Z</time></trkpt><trkpt lat="45.414857" lon="7.6305241"><ele>643.3333333333334</ele><time>2026-03-28T09:56:54.033Z</time></trkpt><trkpt lat="45.4148997" lon="7.6306002"><ele>647.6666666666666</ele><time>2026-03-28T09:56:54.959Z</time></trkpt><trkpt lat="45.4149638" lon="7.6306563"><ele>652.0</ele><time>2026-03-28T09:56:55.956Z</time></trkpt><trkpt lat="45.4150454" lon="7.6306884"><ele>656.3333333333333</ele><time>2026-03-28T09:56:56.951Z</time></trkpt><trkpt lat="45.4151291" lon="7.6307083"><ele>660.6666666666666</ele><time>2026-03-28T09:56:57.964Z</time></trkpt><trkpt lat="45.4151909" lon="7.6307354"><ele>665.0</ele><time>2026-03-28T09:56:58.947Z</time></trkpt><trkpt lat="45.4152596" lon="7.6308256"><ele>665.0</ele><time>2026-03-28T09:57:00.964Z</time></trkpt><trkpt lat="45.4152862" lon="7.6309561"><ele>665.0</ele><time>2026-03-28T09:57:02.959Z</time></trkpt><trkpt lat="45.4153319" lon="7.6310902"><ele>665.0</ele><time>2026-03-28T09:57:04.973Z</time></trkpt><trkpt lat="45.4153808" lon="7.6312058"><ele>665.0</ele><time>2026-03-28T09:57:06.956Z</time></trkpt><trkpt lat="45.4154278" lon="7.6313212"><ele>665.0</ele><time>2026-03-28T09:57:08.94Z</time></trkpt><trkpt lat="45.4154645" lon="7.6314064"><ele>668.5</ele><time>2026-03-28T09:57:10.956Z</time></trkpt><trkpt lat="45.4154921" lon="7.6315142"><ele>672.0</ele><time>2026-03-28T09:57:13.976Z</time></trkpt><trkpt lat="45.4155169" lon="7.6316002"><ele>675.5</ele><time>2026-03-28T09:57:15.962Z</time></trkpt><trkpt lat="45.4155553" lon="7.6316761"><ele>679.0</ele><time>2026-03-28T09:57:17.965Z</time></trkpt><trkpt lat="45.4156046" lon="7.6317519"><ele>682.5</ele><time>2026-03-28T09:57:20.96Z</time></trkpt><trkpt lat="45.4156593" lon="7.6318412"><ele>686.0</ele><time>2026-03-28T09:57:23.955Z</time></trkpt><trkpt lat="45.4157141" lon="7.6319317"><ele>684.3333333333333</ele><time>2026-03-28T09:57:26.959Z</time></trkpt><trkpt lat="45.4157509" lon="7.6320291"><ele>682.6666666666666</ele><time>2026-03-28T09:57:28.97Z</time></trkpt><trkpt lat="45.4157772" lon="7.6321293"><ele>681.0</ele><time>2026-03-28T09:57:30.944Z</time></trkpt><trkpt lat="45.4158035" lon="7.6322374"><ele>679.3333333333334</ele><time>2026-03-28T09:57:32.958Z</time></trkpt><trkpt lat="45.4158701" lon="7.6322729"><ele>677.6666666666667</ele><time>2026-03-28T09:57:34.958Z</time></trkpt><trkpt lat="45.4159547" lon="7.6322277"><ele>676.0</ele><time>2026-03-28T09:57:36.966Z</time></trkpt><trkpt lat="45.4160296" lon="7.6321882"><ele>676.0</ele><time>2026-03-28T09:57:38.949Z</time></trkpt><trkpt lat="45.4161138" lon="7.6321404"><ele>676.0</ele><time>2026-03-28T09:57:40.952Z</time></trkpt><trkpt lat="45.4162151" lon="7.6321068"><ele>676.0</ele><time>2026-03-28T09:57:42.971Z</time></trkpt><trkpt lat="45.4163226" lon="7.6320714"><ele>676.0</ele><time>2026-03-28T09:57:44.972Z</time></trkpt><trkpt lat="45.4164682" lon="7.6320523"><ele>678.4</ele><time>2026-03-28T09:57:46.953Z</time></trkpt><trkpt lat="45.4165769" lon="7.6320569"><ele>680.8</ele><time>2026-03-28T09:57:47.962Z</time></trkpt><trkpt lat="45.4166797" lon="7.6320611"><ele>683.1999999999999</ele><time>2026-03-28T09:57:48.958Z</time></trkpt><trkpt lat="45.4167672" lon="7.6320469"><ele>685.5999999999999</ele><time>2026-03-28T09:57:49.966Z</time></trkpt><trkpt lat="45.4168438" lon="7.6320345"><ele>688.0</ele><time>2026-03-28T09:57:50.962Z</time></trkpt><trkpt lat="45.4169153" lon="7.6320098"><ele>691.5999999999999</ele><time>2026-03-28T09:57:51.957Z</time></trkpt><trkpt lat="45.4169882" lon="7.6319548"><ele>695.1999999999999</ele><time>2026-03-28T09:57:52.952Z</time></trkpt><trkpt lat="45.4170598" lon="7.6318551"><ele>698.8</ele><time>2026-03-28T09:57:53.963Z</time></trkpt><trkpt lat="45.4171213" lon="7.6317476"><ele>702.4</ele><time>2026-03-28T09:57:54.956Z</time></trkpt><trkpt lat="45.4171997" lon="7.6316728"><ele>706.0</ele><time>2026-03-28T09:57:55.959Z</time></trkpt><trkpt lat="45.4172885" lon="7.6315905"><ele>706.5999999999999</ele><time>2026-03-28T09:57:56.971Z</time></trkpt><trkpt lat="45.41738" lon="7.6314881"><ele>707.2</ele><time>2026-03-28T09:57:57.967Z</time></trkpt><trkpt lat="45.4174856" lon="7.6313705"><ele>707.8</ele><time>2026-03-28T09:57:58.968Z</time></trkpt><trkpt lat="45.4175619" lon="7.6312581"><ele>708.4000000000001</ele><time>2026-03-28T09:57:59.955Z</time></trkpt><trkpt lat="45.4176184" lon="7.6311892"><ele>709.0</ele><time>2026-03-28T09:58:00.944Z</time></trkpt><trkpt lat="45.4177077" lon="7.6311338"><ele>709.0</ele><time>2026-03-28T09:58:02.963Z</time></trkpt><trkpt lat="45.4178106" lon="7.6311595"><ele>709.0</ele><time>2026-03-28T09:58:04.964Z</time></trkpt><trkpt lat="45.4178992" lon="7.6311957"><ele>709.0</ele><time>2026-03-28T09:58:06.973Z</time></trkpt><trkpt lat="45.4179608" lon="7.6312874"><ele>709.0</ele><time>2026-03-28T09:58:09.022Z</time></trkpt><trkpt lat="45.4180131" lon="7.6314104"><ele>709.0</ele><time>2026-03-28T09:58:10.969Z</time></trkpt><trkpt lat="45.4180773" lon="7.6314661"><ele>711.8333333333334</ele><time>2026-03-28T09:58:12.953Z</time></trkpt><trkpt lat="45.4181285" lon="7.6314079"><ele>714.6666666666667</ele><time>2026-03-28T09:58:14.954Z</time></trkpt><trkpt lat="45.4181534" lon="7.6313007"><ele>717.5</ele><time>2026-03-28T09:58:17.062Z</time></trkpt><trkpt lat="45.4181726" lon="7.6311669"><ele>720.3333333333334</ele><time>2026-03-28T09:58:19.035Z</time></trkpt><trkpt lat="45.4181779" lon="7.6310342"><ele>723.1666666666666</ele><time>2026-03-28T09:58:20.969Z</time></trkpt><trkpt lat="45.4181582" lon="7.6308863"><ele>726.0</ele><time>2026-03-28T09:58:22.949Z</time></trkpt><trkpt lat="45.4181597" lon="7.6307814"><ele>727.0</ele><time>2026-03-28T09:58:24.954Z</time></trkpt><trkpt lat="45.4181616" lon="7.6306887"><ele>728.0</ele><time>2026-03-28T09:58:26.961Z</time></trkpt><trkpt lat="45.4182064" lon="7.6306121"><ele>729.0</ele><time>2026-03-28T09:58:29.034Z</time></trkpt><trkpt lat="45.4183041" lon="7.6305432"><ele>730.0</ele><time>2026-03-28T09:58:29.951Z</time></trkpt><trkpt lat="45.4184613" lon="7.6304841"><ele>731.0</ele><time>2026-03-28T09:58:30.955Z</time></trkpt><trkpt lat="45.4186608" lon="7.6304226"><ele>736.0</ele><time>2026-03-28T09:58:31.949Z</time></trkpt><trkpt lat="45.4188478" lon="7.6303617"><ele>741.0</ele><time>2026-03-28T09:58:32.968Z</time></trkpt><trkpt lat="45.4189896" lon="7.6303166"><ele>746.0</ele><time>2026-03-28T09:58:33.958Z</time></trkpt><trkpt lat="45.4191053" lon="7.6303124"><ele>746.0</ele><time>2026-03-28T09:58:34.953Z</time></trkpt><trkpt lat="45.4192042" lon="7.6303257"><ele>746.0</ele><time>2026-03-28T09:58:35.953Z</time></trkpt><trkpt lat="45.4193042" lon="7.6303397"><ele>746.0</ele><time>2026-03-28T09:58:36.949Z</time></trkpt><trkpt lat="45.4193776" lon="7.6303525"><ele>746.0</ele><time>2026-03-28T09:58:37.964Z</time></trkpt><trkpt lat="45.4194798" lon="7.6303974"><ele>746.0</ele><time>2026-03-28T09:58:39.952Z</time></trkpt><trkpt lat="45.4195713" lon="7.6304324"><ele>746.0</ele><time>2026-03-28T09:58:41.954Z</time></trkpt><trkpt lat="45.4196728" lon="7.6304848"><ele>746.0</ele><time>2026-03-28T09:58:43.958Z</time></trkpt><trkpt lat="45.4197399" lon="7.6305514"><ele>746.0</ele><time>2026-03-28T09:58:46.034Z</time></trkpt><trkpt lat="45.4197886" lon="7.630648"><ele>746.0</ele><time>2026-03-28T09:58:48.959Z</time></trkpt><trkpt lat="45.419722" lon="7.630687"><ele>746.0</ele><time>2026-03-28T09:58:52.96Z</time></trkpt><trkpt lat="45.4196539" lon="7.6307293"><ele>746.0</ele><time>2026-03-28T09:58:54.956Z</time></trkpt><trkpt lat="45.4195782" lon="7.6308152"><ele>746.0</ele><time>2026-03-28T09:58:56.967Z</time></trkpt><trkpt lat="45.4195469" lon="7.6309523"><ele>746.0</ele><time>2026-03-28T09:58:58.962Z</time></trkpt><trkpt lat="45.4195695" lon="7.6311107"><ele>746.0</ele><time>2026-03-28T09:59:00.974Z</time></trkpt><trkpt lat="45.4196124" lon="7.631286"><ele>746.0</ele><time>2026-03-28T09:59:02.961Z</time></trkpt><trkpt lat="45.4196492" lon="7.6313893"><ele>746.0</ele><time>2026-03-28T09:59:03.968Z</time></trkpt><trkpt lat="45.4196887" lon="7.6314803"><ele>748.5714285714286</ele><time>2026-03-28T09:59:04.952Z</time></trkpt><trkpt lat="45.4197254" lon="7.631563"><ele>751.1428571428571</ele><time>2026-03-28T09:59:05.961Z</time></trkpt><trkpt lat="45.419755" lon="7.6316571"><ele>753.7142857142858</ele><time>2026-03-28T09:59:06.96Z</time></trkpt><trkpt lat="45.4197789" lon="7.6317492"><ele>756.2857142857142</ele><time>2026-03-28T09:59:07.966Z</time></trkpt><trkpt lat="45.4198018" lon="7.6318357"><ele>758.8571428571428</ele><time>2026-03-28T09:59:08.97Z</time></trkpt><trkpt lat="45.4198253" lon="7.6319284"><ele>761.4285714285714</ele><time>2026-03-28T09:59:09.971Z</time></trkpt><trkpt lat="45.4198449" lon="7.6320244"><ele>764.0</ele><time>2026-03-28T09:59:10.962Z</time></trkpt><trkpt lat="45.4198536" lon="7.6321195"><ele>765.5</ele><time>2026-03-28T09:59:11.966Z</time></trkpt><trkpt lat="45.4198691" lon="7.6322926"><ele>767.0</ele><time>2026-03-28T09:59:14.03Z</time></trkpt><trkpt lat="45.4198809" lon="7.6324697"><ele>768.5</ele><time>2026-03-28T09:59:15.939Z</time></trkpt><trkpt lat="45.4198725" lon="7.6326419"><ele>770.0</ele><time>2026-03-28T09:59:17.952Z</time></trkpt><trkpt lat="45.4198304" lon="7.6327865"><ele>769.0</ele><time>2026-03-28T09:59:19.958Z</time></trkpt><trkpt lat="45.4197746" lon="7.632902"><ele>768.0</ele><time>2026-03-28T09:59:21.942Z</time></trkpt><trkpt lat="45.4197244" lon="7.6330408"><ele>767.0</ele><time>2026-03-28T09:59:24.025Z</time></trkpt><trkpt lat="45.4197085" lon="7.6331345"><ele>766.0</ele><time>2026-03-28T09:59:24.959Z</time></trkpt><trkpt lat="45.419663" lon="7.6333008"><ele>765.0</ele><time>2026-03-28T09:59:26.956Z</time></trkpt><trkpt lat="45.4196404" lon="7.6333908"><ele>765.0000000000001</ele><time>2026-03-28T09:59:27.964Z</time></trkpt><trkpt lat="45.4196143" lon="7.6334777"><ele>765.0</ele><time>2026-03-28T09:59:28.961Z</time></trkpt><trkpt lat="45.4196013" lon="7.6335852"><ele>765.0</ele><time>2026-03-28T09:59:29.959Z</time></trkpt><trkpt lat="45.4195977" lon="7.6336932"><ele>765.0</ele><time>2026-03-28T09:59:31.035Z</time></trkpt><trkpt lat="45.4195901" lon="7.6337877"><ele>765.0</ele><time>2026-03-28T09:59:32.031Z</time></trkpt><trkpt lat="45.4195795" lon="7.6338762"><ele>765.0000000000001</ele><time>2026-03-28T09:59:33.029Z</time></trkpt><trkpt lat="45.4195759" lon="7.6339958"><ele>765.0</ele><time>2026-03-28T09:59:34.95Z</time></trkpt><trkpt lat="45.4196502" lon="7.6339965"><ele>776.0</ele><time>2026-03-28T09:59:38.029Z</time></trkpt><trkpt lat="45.4196994" lon="7.6338608"><ele>787.0</ele><time>2026-03-28T09:59:39.953Z</time></trkpt><trkpt lat="45.4198032" lon="7.6337471"><ele>798.0</ele><time>2026-03-28T09:59:41.97Z</time></trkpt><trkpt lat="45.4198966" lon="7.6336983"><ele>809.0</ele><time>2026-03-28T09:59:42.955Z</time></trkpt><trkpt lat="45.420022" lon="7.6336705"><ele>809.0</ele><time>2026-03-28T09:59:43.958Z</time></trkpt><trkpt lat="45.4201358" lon="7.6336533"><ele>809.0</ele><time>2026-03-28T09:59:44.955Z</time></trkpt><trkpt lat="45.4202296" lon="7.6336431"><ele>809.0</ele><time>2026-03-28T09:59:45.982Z</time></trkpt><trkpt lat="45.4202983" lon="7.6336557"><ele>809.0</ele><time>2026-03-28T09:59:46.984Z</time></trkpt><trkpt lat="45.4203657" lon="7.6336814"><ele>809.0</ele><time>2026-03-28T09:59:47.946Z</time></trkpt><trkpt lat="45.4205246" lon="7.6337965"><ele>809.0</ele><time>2026-03-28T09:59:50.954Z</time></trkpt><trkpt lat="45.420568" lon="7.6339419"><ele>809.0</ele><time>2026-03-28T09:59:52.956Z</time></trkpt><trkpt lat="45.4205891" lon="7.6341107"><ele>809.0</ele><time>2026-03-28T09:59:54.962Z</time></trkpt><trkpt lat="45.4206067" lon="7.6342123"><ele>809.0</ele><time>2026-03-28T09:59:55.961Z</time></trkpt><trkpt lat="45.4206202" lon="7.6343145"><ele>809.0</ele><time>2026-03-28T09:59:56.958Z</time></trkpt><trkpt lat="45.4206449" lon="7.6344161"><ele>811.5000000000001</ele><time>2026-03-28T09:59:57.963Z</time></trkpt><trkpt lat="45.4206727" lon="7.6345111"><ele>814.0</ele><time>2026-03-28T09:59:58.964Z</time></trkpt><trkpt lat="45.4207024" lon="7.6346013"><ele>816.5</ele><time>2026-03-28T09:59:59.967Z</time></trkpt><trkpt lat="45.420739" lon="7.6346842"><ele>819.0</ele><time>2026-03-28T10:00:00.943Z</time></trkpt><trkpt lat="45.4207755" lon="7.6347629"><ele>821.5000000000001</ele><time>2026-03-28T10:00:01.953Z</time></trkpt><trkpt lat="45.4208104" lon="7.6348447"><ele>824.0</ele><time>2026-03-28T10:00:02.947Z</time></trkpt><trkpt lat="45.420877" lon="7.63498"><ele>824.0</ele><time>2026-03-28T10:00:04.961Z</time></trkpt><trkpt lat="45.4209452" lon="7.6351081"><ele>824.0</ele><time>2026-03-28T10:00:06.956Z</time></trkpt><trkpt lat="45.421013" lon="7.6352306"><ele>824.0</ele><time>2026-03-28T10:00:09.03Z</time></trkpt><trkpt lat="45.4211163" lon="7.6353064"><ele>824.0</ele><time>2026-03-28T10:00:10.953Z</time></trkpt><trkpt lat="45.4212379" lon="7.6353463"><ele>827.4000000000001</ele><time>2026-03-28T10:00:12.952Z</time></trkpt><trkpt lat="45.4213102" lon="7.6353468"><ele>830.8</ele><time>2026-03-28T10:00:13.961Z</time></trkpt><trkpt lat="45.4214176" lon="7.6353733"><ele>834.2</ele><time>2026-03-28T10:00:15.949Z</time></trkpt><trkpt lat="45.4214855" lon="7.6354467"><ele>837.5999999999999</ele><time>2026-03-28T10:00:17.951Z</time></trkpt><trkpt lat="45.4215348" lon="7.6356001"><ele>841.0</ele><time>2026-03-28T10:00:19.957Z</time></trkpt><trkpt lat="45.4215712" lon="7.6357374"><ele>840.9999999999999</ele><time>2026-03-28T10:00:21.972Z</time></trkpt><trkpt lat="45.4216115" lon="7.6358548"><ele>841.0</ele><time>2026-03-28T10:00:23.955Z</time></trkpt><trkpt lat="45.4215607" lon="7.635951"><ele>841.0</ele><time>2026-03-28T10:00:26.964Z</time></trkpt><trkpt lat="45.4214848" lon="7.6359479"><ele>841.0</ele><time>2026-03-28T10:00:30.967Z</time></trkpt><trkpt lat="45.4214055" lon="7.6358921"><ele>840.9999999999999</ele><time>2026-03-28T10:00:33.967Z</time></trkpt><trkpt lat="45.4213302" lon="7.635868"><ele>841.0</ele><time>2026-03-28T10:00:36.975Z</time></trkpt><trkpt lat="45.4212216" lon="7.6358359"><ele>842.1666666666666</ele><time>2026-03-28T10:04:03.958Z</time></trkpt><trkpt lat="45.4211553" lon="7.6358523"><ele>843.3333333333333</ele><time>2026-03-28T10:04:05.953Z</time></trkpt><trkpt lat="45.4210333" lon="7.6358673"><ele>844.5</ele><time>2026-03-28T10:04:07.958Z</time></trkpt><trkpt lat="45.4209697" lon="7.6358668"><ele>845.6666666666667</ele><time>2026-03-28T10:04:08.954Z</time></trkpt><trkpt lat="45.4209045" lon="7.6358682"><ele>846.8333333333334</ele><time>2026-03-28T10:04:09.95Z</time></trkpt><trkpt lat="45.4207817" lon="7.6358534"><ele>848.0</ele><time>2026-03-28T10:04:11.957Z</time></trkpt><trkpt lat="45.4206615" lon="7.6358401"><ele>848.0</ele><time>2026-03-28T10:04:13.948Z</time></trkpt><trkpt lat="45.420538" lon="7.6358414"><ele>848.0</ele><time>2026-03-28T10:04:15.955Z</time></trkpt><trkpt lat="45.4204368" lon="7.6358998"><ele>848.0</ele><time>2026-03-28T10:04:18.037Z</time></trkpt><trkpt lat="45.420375" lon="7.6359664"><ele>848.0</ele><time>2026-03-28T10:04:19.957Z</time></trkpt><trkpt lat="45.4204021" lon="7.6360751"><ele>848.0</ele><time>2026-03-28T10:04:23.017Z</time></trkpt><trkpt lat="45.4204693" lon="7.6361733"><ele>851.5000000000001</ele><time>2026-03-28T10:04:24.964Z</time></trkpt><trkpt lat="45.4205773" lon="7.6362982"><ele>855.0</ele><time>2026-03-28T10:04:26.957Z</time></trkpt><trkpt lat="45.4206394" lon="7.6363581"><ele>858.5</ele><time>2026-03-28T10:04:27.952Z</time></trkpt><trkpt lat="45.4207039" lon="7.6364125"><ele>862.0</ele><time>2026-03-28T10:04:28.957Z</time></trkpt><trkpt lat="45.4207625" lon="7.6364729"><ele>865.5000000000001</ele><time>2026-03-28T10:04:29.956Z</time></trkpt><trkpt lat="45.420816" lon="7.6365353"><ele>869.0</ele><time>2026-03-28T10:04:30.962Z</time></trkpt><trkpt lat="45.4208712" lon="7.6365859"><ele>869.0</ele><time>2026-03-28T10:04:31.951Z</time></trkpt><trkpt lat="45.4209839" lon="7.6366636"><ele>869.0</ele><time>2026-03-28T10:04:33.941Z</time></trkpt><trkpt lat="45.4210904" lon="7.6367612"><ele>869.0</ele><time>2026-03-28T10:04:35.958Z</time></trkpt><trkpt lat="45.4211751" lon="7.6368972"><ele>869.0</ele><time>2026-03-28T10:04:37.95Z</time></trkpt><trkpt lat="45.4212356" lon="7.637051"><ele>872.0</ele><time>2026-03-28T10:04:39.965Z</time></trkpt><trkpt lat="45.421298" lon="7.6372112"><ele>875.0000000000001</ele><time>2026-03-28T10:04:42.003Z</time></trkpt><trkpt lat="45.4213356" lon="7.6373287"><ele>878.0000000000001</ele><time>2026-03-28T10:04:44.029Z</time></trkpt><trkpt lat="45.4213126" lon="7.6374344"><ele>881.0</ele><time>2026-03-28T10:04:46.955Z</time></trkpt><trkpt lat="45.4212367" lon="7.6374326"><ele>884.0</ele><time>2026-03-28T10:04:49.024Z</time></trkpt><trkpt lat="45.4211636" lon="7.637392"><ele>884.0000000000001</ele><time>2026-03-28T10:04:50.957Z</time></trkpt><trkpt lat="45.4210753" lon="7.637385"><ele>884.0</ele><time>2026-03-28T10:04:52.958Z</time></trkpt><trkpt lat="45.4209619" lon="7.637424"><ele>884.0</ele><time>2026-03-28T10:04:54.953Z</time></trkpt><trkpt lat="45.4209029" lon="7.6374931"><ele>884.0</ele><time>2026-03-28T10:04:56.971Z</time></trkpt><trkpt lat="45.4208842" lon="7.6376217"><ele>884.0000000000001</ele><time>2026-03-28T10:04:59.029Z</time></trkpt><trkpt lat="45.4208674" lon="7.6377141"><ele>884.0</ele><time>2026-03-28T10:04:59.957Z</time></trkpt><trkpt lat="45.4208431" lon="7.6378048"><ele>886.8333333333334</ele><time>2026-03-28T10:05:00.961Z</time></trkpt><trkpt lat="45.4208015" lon="7.637893"><ele>889.6666666666667</ele><time>2026-03-28T10:05:01.957Z</time></trkpt><trkpt lat="45.4207609" lon="7.6379735"><ele>892.5</ele><time>2026-03-28T10:05:02.932Z</time></trkpt><trkpt lat="45.4207259" lon="7.6380611"><ele>895.3333333333333</ele><time>2026-03-28T10:05:03.949Z</time></trkpt><trkpt lat="45.4206772" lon="7.6382087"><ele>898.1666666666666</ele><time>2026-03-28T10:05:05.964Z</time></trkpt><trkpt lat="45.4206587" lon="7.6383762"><ele>901.0</ele><time>2026-03-28T10:05:07.984Z</time></trkpt><trkpt lat="45.4206604" lon="7.6385513"><ele>904.4</ele><time>2026-03-28T10:05:09.962Z</time></trkpt><trkpt lat="45.4206718" lon="7.6387167"><ele>907.8</ele><time>2026-03-28T10:05:11.97Z</time></trkpt><trkpt lat="45.4206764" lon="7.6388492"><ele>911.1999999999999</ele><time>2026-03-28T10:05:14.019Z</time></trkpt><trkpt lat="45.4206404" lon="7.63897"><ele>914.5999999999999</ele><time>2026-03-28T10:05:15.96Z</time></trkpt><trkpt lat="45.4205803" lon="7.6390679"><ele>918.0</ele><time>2026-03-28T10:05:17.944Z</time></trkpt><trkpt lat="45.4205088" lon="7.6391581"><ele>917.3333333333334</ele><time>2026-03-28T10:05:19.963Z</time></trkpt><trkpt lat="45.4204406" lon="7.6392247"><ele>916.6666666666667</ele><time>2026-03-28T10:05:22.95Z</time></trkpt><trkpt lat="45.4203867" lon="7.6393082"><ele>916.0</ele><time>2026-03-28T10:05:24.96Z</time></trkpt><trkpt lat="45.4203451" lon="7.6393823"><ele>915.3333333333334</ele><time>2026-03-28T10:05:27.053Z</time></trkpt><trkpt lat="45.4202677" lon="7.6394473"><ele>914.6666666666667</ele><time>2026-03-28T10:05:29.946Z</time></trkpt><trkpt lat="45.4201789" lon="7.6394726"><ele>914.0</ele><time>2026-03-28T10:05:32.937Z</time></trkpt><trkpt lat="45.4201105" lon="7.6395256"><ele>917.2857142857144</ele><time>2026-03-28T10:05:34.945Z</time></trkpt><trkpt lat="45.4200548" lon="7.6395912"><ele>920.5714285714287</ele><time>2026-03-28T10:05:36.953Z</time></trkpt><trkpt lat="45.419993" lon="7.6396683"><ele>923.8571428571429</ele><time>2026-03-28T10:05:38.949Z</time></trkpt><trkpt lat="45.4199962" lon="7.6397709"><ele>927.1428571428572</ele><time>2026-03-28T10:05:41.956Z</time></trkpt><trkpt lat="45.4199512" lon="7.6398517"><ele>930.4285714285716</ele><time>2026-03-28T10:05:44.95Z</time></trkpt><trkpt lat="45.4198883" lon="7.6399004"><ele>933.7142857142857</ele><time>2026-03-28T10:05:54.041Z</time></trkpt><trkpt lat="45.4198223" lon="7.6399208"><ele>937.0</ele><time>2026-03-28T10:06:16.954Z</time></trkpt><trkpt lat="45.4197552" lon="7.6399901"><ele>936.9999999999999</ele><time>2026-03-28T10:06:20.961Z</time></trkpt><trkpt lat="45.4197115" lon="7.6400565"><ele>937.0</ele><time>2026-03-28T10:06:22.948Z</time></trkpt><trkpt lat="45.4196343" lon="7.6401239"><ele>937.0</ele><time>2026-03-28T10:06:25.961Z</time></trkpt><trkpt lat="45.4195698" lon="7.6401644"><ele>937.0</ele><time>2026-03-28T10:06:28.958Z</time></trkpt><trkpt lat="45.419478" lon="7.6402065"><ele>936.9999999999999</ele><time>2026-03-28T10:11:02.943Z</time></trkpt><trkpt lat="45.4193971" lon="7.640232"><ele>937.0</ele><time>2026-03-28T10:11:04.942Z</time></trkpt><trkpt lat="45.4193068" lon="7.6402647"><ele>937.6666666666666</ele><time>2026-03-28T10:11:07.963Z</time></trkpt><trkpt lat="45.4192326" lon="7.6402842"><ele>938.3333333333333</ele><time>2026-03-28T10:11:09.936Z</time></trkpt><trkpt lat="45.4191603" lon="7.6403072"><ele>939.0</ele><time>2026-03-28T10:11:11.947Z</time></trkpt><trkpt lat="45.4190698" lon="7.6403517"><ele>939.6666666666667</ele><time>2026-03-28T10:11:14.956Z</time></trkpt><trkpt lat="45.4189921" lon="7.6404337"><ele>940.3333333333334</ele><time>2026-03-28T10:11:17.949Z</time></trkpt><trkpt lat="45.41893" lon="7.6404749"><ele>941.0</ele><time>2026-03-28T10:11:20.949Z</time></trkpt><trkpt lat="45.4188666" lon="7.640528"><ele>941.7142857142856</ele><time>2026-03-28T10:11:24.947Z</time></trkpt><trkpt lat="45.4188093" lon="7.6405794"><ele>942.4285714285713</ele><time>2026-03-28T10:11:28.948Z</time></trkpt><trkpt lat="45.4187504" lon="7.6406238"><ele>943.1428571428571</ele><time>2026-03-28T10:11:35.952Z</time></trkpt><trkpt lat="45.4186848" lon="7.6406764"><ele>943.8571428571428</ele><time>2026-03-28T10:11:39.037Z</time></trkpt><trkpt lat="45.4186425" lon="7.6407612"><ele>944.5714285714284</ele><time>2026-03-28T10:13:00.96Z</time></trkpt><trkpt lat="45.4186286" lon="7.6408979"><ele>945.2857142857143</ele><time>2026-03-28T10:13:22.954Z</time></trkpt><trkpt lat="45.4186059" lon="7.640991"><ele>946.0</ele><time>2026-03-28T10:13:29.954Z</time></trkpt><trkpt lat="45.4186024" lon="7.6410828"><ele>946.0</ele><time>2026-03-28T10:16:56.961Z</time></trkpt><trkpt lat="45.4185404" lon="7.6410464"><ele>946.0</ele><time>2026-03-28T10:27:14.523Z</time></trkpt><trkpt lat="45.4186041" lon="7.6410611"><ele>946.0</ele><time>2026-03-28T10:31:25.538Z</time></trkpt><trkpt lat="45.4186103" lon="7.6409575"><ele>946.0</ele><time>2026-03-28T10:31:45.529Z</time></trkpt><trkpt lat="45.4186471" lon="7.6408791"><ele>946.0</ele><time>2026-03-28T10:32:09.537Z</time></trkpt><trkpt lat="45.4186545" lon="7.6407765"><ele>946.0</ele><time>2026-03-28T10:32:42.533Z</time></trkpt><trkpt lat="45.4186913" lon="7.6406998"><ele>946.0</ele><time>2026-03-28T10:35:46.532Z</time></trkpt><trkpt lat="45.4187473" lon="7.6406232"><ele>946.0</ele><time>2026-03-28T10:35:50.523Z</time></trkpt><trkpt lat="45.4188036" lon="7.6405823"><ele>946.0</ele><time>2026-03-28T10:35:53.533Z</time></trkpt><trkpt lat="45.4188513" lon="7.640523"><ele>946.0</ele><time>2026-03-28T10:35:59.15Z</time></trkpt><trkpt lat="45.4189192" lon="7.6404859"><ele>946.0</ele><time>2026-03-28T10:36:01.96Z</time></trkpt><trkpt lat="45.4189698" lon="7.640431"><ele>946.0</ele><time>2026-03-28T10:36:04.965Z</time></trkpt><trkpt lat="45.4190246" lon="7.6403668"><ele>946.0</ele><time>2026-03-28T10:36:07.955Z</time></trkpt><trkpt lat="45.4190898" lon="7.6403192"><ele>946.0</ele><time>2026-03-28T10:36:12.03Z</time></trkpt><trkpt lat="45.4191607" lon="7.6402885"><ele>945.2857142857143</ele><time>2026-03-28T10:36:15.945Z</time></trkpt><trkpt lat="45.4192344" lon="7.6402494"><ele>944.5714285714284</ele><time>2026-03-28T10:36:21.043Z</time></trkpt><trkpt lat="45.4192965" lon="7.6402248"><ele>943.8571428571428</ele><time>2026-03-28T10:36:23.956Z</time></trkpt><trkpt lat="45.4193638" lon="7.6402019"><ele>943.1428571428571</ele><time>2026-03-28T10:36:26.954Z</time></trkpt><trkpt lat="45.4194298" lon="7.6401801"><ele>942.4285714285713</ele><time>2026-03-28T10:36:29.961Z</time></trkpt><trkpt lat="45.4194948" lon="7.6401508"><ele>941.7142857142856</ele><time>2026-03-28T10:36:32.968Z</time></trkpt><trkpt lat="45.4195716" lon="7.6401315"><ele>940.9999999999999</ele><time>2026-03-28T10:36:38.96Z</time></trkpt><trkpt lat="45.4196369" lon="7.6400825"><ele>940.4285714285713</ele><time>2026-03-28T10:36:41.95Z</time></trkpt><trkpt lat="45.4196978" lon="7.6400214"><ele>939.8571428571429</ele><time>2026-03-28T10:36:44.962Z</time></trkpt><trkpt lat="45.4197596" lon="7.6399643"><ele>939.2857142857142</ele><time>2026-03-28T10:36:48.962Z</time></trkpt><trkpt lat="45.4198291" lon="7.6399192"><ele>938.7142857142857</ele><time>2026-03-28T10:36:53.952Z</time></trkpt><trkpt lat="45.4198957" lon="7.6398654"><ele>938.1428571428571</ele><time>2026-03-28T10:36:57.96Z</time></trkpt><trkpt lat="45.4199081" lon="7.6397518"><ele>937.5714285714286</ele><time>2026-03-28T10:37:01.953Z</time></trkpt><trkpt lat="45.4199326" lon="7.6396674"><ele>937.0</ele><time>2026-03-28T10:37:04.026Z</time></trkpt><trkpt lat="45.4199807" lon="7.6396079"><ele>936.9999999999999</ele><time>2026-03-28T10:37:05.959Z</time></trkpt><trkpt lat="45.4200513" lon="7.6395323"><ele>937.0</ele><time>2026-03-28T10:37:08.962Z</time></trkpt><trkpt lat="45.4200915" lon="7.639458"><ele>937.0</ele><time>2026-03-28T10:37:14.973Z</time></trkpt><trkpt lat="45.4201619" lon="7.639432"><ele>937.0</ele><time>2026-03-28T10:37:19.958Z</time></trkpt><trkpt lat="45.4202392" lon="7.6394121"><ele>936.9999999999999</ele><time>2026-03-28T10:37:22.95Z</time></trkpt><trkpt lat="45.4203023" lon="7.6393412"><ele>937.0</ele><time>2026-03-28T10:37:25.945Z</time></trkpt><trkpt lat="45.4203529" lon="7.6392626"><ele>934.2857142857142</ele><time>2026-03-28T10:37:27.955Z</time></trkpt><trkpt lat="45.4203985" lon="7.6391987"><ele>931.5714285714287</ele><time>2026-03-28T10:37:29.959Z</time></trkpt><trkpt lat="45.4204693" lon="7.6391422"><ele>928.8571428571429</ele><time>2026-03-28T10:37:32.963Z</time></trkpt><trkpt lat="45.4205254" lon="7.6390983"><ele>926.1428571428571</ele><time>2026-03-28T10:37:35.948Z</time></trkpt><trkpt lat="45.4205871" lon="7.639042"><ele>923.4285714285713</ele><time>2026-03-28T10:37:46.955Z</time></trkpt><trkpt lat="45.4206112" lon="7.6389504"><ele>920.7142857142858</ele><time>2026-03-28T10:37:48.951Z</time></trkpt><trkpt lat="45.4206197" lon="7.6388134"><ele>918.0</ele><time>2026-03-28T10:37:51.038Z</time></trkpt><trkpt lat="45.4206193" lon="7.6386405"><ele>915.1666666666666</ele><time>2026-03-28T10:37:52.955Z</time></trkpt><trkpt lat="45.4206219" lon="7.6385498"><ele>912.3333333333333</ele><time>2026-03-28T10:37:53.952Z</time></trkpt><trkpt lat="45.4206251" lon="7.6383796"><ele>909.5</ele><time>2026-03-28T10:37:55.962Z</time></trkpt><trkpt lat="45.4206756" lon="7.6382222"><ele>906.6666666666666</ele><time>2026-03-28T10:37:57.955Z</time></trkpt><trkpt lat="45.4207121" lon="7.6381491"><ele>903.8333333333333</ele><time>2026-03-28T10:37:58.957Z</time></trkpt><trkpt lat="45.4207549" lon="7.6380772"><ele>901.0</ele><time>2026-03-28T10:38:00.099Z</time></trkpt><trkpt lat="45.4208202" lon="7.6379436"><ele>900.9999999999999</ele><time>2026-03-28T10:38:01.952Z</time></trkpt><trkpt lat="45.4208572" lon="7.6378222"><ele>901.0</ele><time>2026-03-28T10:38:03.956Z</time></trkpt><trkpt lat="45.420881" lon="7.6376757"><ele>901.0</ele><time>2026-03-28T10:38:05.948Z</time></trkpt><trkpt lat="45.4208982" lon="7.6375353"><ele>901.0</ele><time>2026-03-28T10:38:07.944Z</time></trkpt><trkpt lat="45.4209338" lon="7.6374396"><ele>900.9999999999999</ele><time>2026-03-28T10:38:09.95Z</time></trkpt><trkpt lat="45.4209857" lon="7.6373848"><ele>901.0</ele><time>2026-03-28T10:38:11.959Z</time></trkpt><trkpt lat="45.4210572" lon="7.6373781"><ele>899.1428571428572</ele><time>2026-03-28T10:38:13.957Z</time></trkpt><trkpt lat="45.4211284" lon="7.6373919"><ele>897.2857142857144</ele><time>2026-03-28T10:38:16.047Z</time></trkpt><trkpt lat="45.4212229" lon="7.6373936"><ele>895.4285714285714</ele><time>2026-03-28T10:38:17.969Z</time></trkpt><trkpt lat="45.421299" lon="7.6373948"><ele>893.5714285714287</ele><time>2026-03-28T10:38:19.966Z</time></trkpt><trkpt lat="45.421362" lon="7.6374203"><ele>891.7142857142858</ele><time>2026-03-28T10:38:21.958Z</time></trkpt><trkpt lat="45.4214326" lon="7.6374597"><ele>889.8571428571429</ele><time>2026-03-28T10:38:24.983Z</time></trkpt><trkpt lat="45.4214792" lon="7.6375236"><ele>888.0</ele><time>2026-03-28T10:38:27.968Z</time></trkpt><trkpt lat="45.4214762" lon="7.6376535"><ele>892.4</ele><time>2026-03-28T10:38:30.989Z</time></trkpt><trkpt lat="45.4215083" lon="7.6378581"><ele>896.8</ele><time>2026-03-28T10:38:32.969Z</time></trkpt><trkpt lat="45.421519" lon="7.6379803"><ele>901.2</ele><time>2026-03-28T10:38:33.969Z</time></trkpt><trkpt lat="45.4215336" lon="7.6380871"><ele>905.6</ele><time>2026-03-28T10:38:34.978Z</time></trkpt><trkpt lat="45.4215506" lon="7.6381969"><ele>910.0</ele><time>2026-03-28T10:38:35.974Z</time></trkpt><trkpt lat="45.4215591" lon="7.6383581"><ele>909.9999999999999</ele><time>2026-03-28T10:38:37.964Z</time></trkpt><trkpt lat="45.4215525" lon="7.6384642"><ele>910.0</ele><time>2026-03-28T10:38:39.976Z</time></trkpt><trkpt lat="45.4215428" lon="7.638588"><ele>910.0</ele><time>2026-03-28T10:38:41.969Z</time></trkpt><trkpt lat="45.4215411" lon="7.6386955"><ele>910.0</ele><time>2026-03-28T10:38:43.966Z</time></trkpt><trkpt lat="45.4215067" lon="7.6388348"><ele>909.9999999999999</ele><time>2026-03-28T10:38:45.955Z</time></trkpt><trkpt lat="45.4215041" lon="7.6389554"><ele>910.0</ele><time>2026-03-28T10:38:47.946Z</time></trkpt><trkpt lat="45.421536" lon="7.6390779"><ele>914.2</ele><time>2026-03-28T10:38:49.949Z</time></trkpt><trkpt lat="45.421547" lon="7.6391948"><ele>918.4</ele><time>2026-03-28T10:38:51.964Z</time></trkpt><trkpt lat="45.4215463" lon="7.6393607"><ele>922.5999999999999</ele><time>2026-03-28T10:38:53.951Z</time></trkpt><trkpt lat="45.421538" lon="7.6395336"><ele>926.8</ele><time>2026-03-28T10:38:55.967Z</time></trkpt><trkpt lat="45.4215282" lon="7.6396232"><ele>931.0</ele><time>2026-03-28T10:38:56.947Z</time></trkpt><trkpt lat="45.4215067" lon="7.6397844"><ele>933.9999999999999</ele><time>2026-03-28T10:38:58.97Z</time></trkpt><trkpt lat="45.4214952" lon="7.6398918"><ele>937.0</ele><time>2026-03-28T10:39:00.959Z</time></trkpt><trkpt lat="45.4215019" lon="7.6400076"><ele>940.0</ele><time>2026-03-28T10:39:02.965Z</time></trkpt><trkpt lat="45.4215107" lon="7.640142"><ele>943.0</ele><time>2026-03-28T10:39:04.969Z</time></trkpt><trkpt lat="45.421534" lon="7.6402568"><ele>945.9999999999999</ele><time>2026-03-28T10:39:06.968Z</time></trkpt><trkpt lat="45.4215424" lon="7.6403676"><ele>949.0</ele><time>2026-03-28T10:39:09.95Z</time></trkpt><trkpt lat="45.4215191" lon="7.6404516"><ele>948.9999999999999</ele><time>2026-03-28T10:39:12.954Z</time></trkpt><trkpt lat="45.4215521" lon="7.6405336"><ele>949.0</ele><time>2026-03-28T10:39:37.956Z</time></trkpt><trkpt lat="45.4215273" lon="7.6404412"><ele>949.0</ele><time>2026-03-28T10:39:43.954Z</time></trkpt><trkpt lat="45.4214999" lon="7.6403303"><ele>949.0</ele><time>2026-03-28T10:39:46.945Z</time></trkpt><trkpt lat="45.4214793" lon="7.6401977"><ele>948.9999999999999</ele><time>2026-03-28T10:39:49.955Z</time></trkpt><trkpt lat="45.4214731" lon="7.6400771"><ele>949.0</ele><time>2026-03-28T10:39:52.947Z</time></trkpt><trkpt lat="45.4214056" lon="7.6400442"><ele>948.9999999999999</ele><time>2026-03-28T10:41:32.953Z</time></trkpt><trkpt lat="45.42145" lon="7.6401569"><ele>949.0</ele><time>2026-03-28T10:41:37.037Z</time></trkpt><trkpt lat="45.4214787" lon="7.6402378"><ele>949.0</ele><time>2026-03-28T10:41:38.958Z</time></trkpt><trkpt lat="45.4215019" lon="7.6403432"><ele>949.0</ele><time>2026-03-28T10:41:40.956Z</time></trkpt><trkpt lat="45.4215217" lon="7.6404662"><ele>948.9999999999999</ele><time>2026-03-28T10:41:42.947Z</time></trkpt><trkpt lat="45.4215333" lon="7.6405981"><ele>949.0</ele><time>2026-03-28T10:41:44.963Z</time></trkpt><trkpt lat="45.4215378" lon="7.6407149"><ele>949.3333333333333</ele><time>2026-03-28T10:41:46.96Z</time></trkpt><trkpt lat="45.4215576" lon="7.640818"><ele>949.6666666666666</ele><time>2026-03-28T10:41:48.984Z</time></trkpt><trkpt lat="45.421566" lon="7.6409292"><ele>950.0</ele><time>2026-03-28T10:41:50.953Z</time></trkpt><trkpt lat="45.4215829" lon="7.6410529"><ele>950.3333333333333</ele><time>2026-03-28T10:41:52.956Z</time></trkpt><trkpt lat="45.4216223" lon="7.6411815"><ele>950.6666666666666</ele><time>2026-03-28T10:41:54.949Z</time></trkpt><trkpt lat="45.4216634" lon="7.6413085"><ele>951.0</ele><time>2026-03-28T10:41:56.945Z</time></trkpt><trkpt lat="45.4217269" lon="7.6413912"><ele>951.0</ele><time>2026-03-28T10:41:58.964Z</time></trkpt><trkpt lat="45.4218121" lon="7.6414305"><ele>951.0</ele><time>2026-03-28T10:42:00.966Z</time></trkpt><trkpt lat="45.4218961" lon="7.6414352"><ele>951.0</ele><time>2026-03-28T10:42:02.965Z</time></trkpt><trkpt lat="45.421979" lon="7.6414177"><ele>951.0</ele><time>2026-03-28T10:42:05.946Z</time></trkpt><trkpt lat="45.4220612" lon="7.6413537"><ele>951.0</ele><time>2026-03-28T10:42:08.958Z</time></trkpt><trkpt lat="45.4221023" lon="7.641263"><ele>951.0</ele><time>2026-03-28T10:42:11.968Z</time></trkpt><trkpt lat="45.4221152" lon="7.6411701"><ele>951.2857142857142</ele><time>2026-03-28T10:42:15.97Z</time></trkpt><trkpt lat="45.4221829" lon="7.6411586"><ele>951.5714285714287</ele><time>2026-03-28T10:42:22.954Z</time></trkpt><trkpt lat="45.4222501" lon="7.6411544"><ele>951.8571428571429</ele><time>2026-03-28T10:42:28.947Z</time></trkpt><trkpt lat="45.4223175" lon="7.6411552"><ele>952.1428571428571</ele><time>2026-03-28T10:42:31.959Z</time></trkpt><trkpt lat="45.4224002" lon="7.64115"><ele>952.4285714285713</ele><time>2026-03-28T10:42:34.956Z</time></trkpt><trkpt lat="45.4224791" lon="7.6410976"><ele>952.7142857142858</ele><time>2026-03-28T10:42:36.956Z</time></trkpt><trkpt lat="45.4225294" lon="7.6410359"><ele>953.0</ele><time>2026-03-28T10:42:38.965Z</time></trkpt><trkpt lat="45.4225904" lon="7.6409731"><ele>953.1666666666667</ele><time>2026-03-28T10:42:40.96Z</time></trkpt><trkpt lat="45.4226687" lon="7.6409618"><ele>953.3333333333334</ele><time>2026-03-28T10:42:43.973Z</time></trkpt><trkpt lat="45.4227195" lon="7.6410226"><ele>953.5</ele><time>2026-03-28T10:42:45.962Z</time></trkpt><trkpt lat="45.4227793" lon="7.6410862"><ele>953.6666666666667</ele><time>2026-03-28T10:42:47.966Z</time></trkpt><trkpt lat="45.4228479" lon="7.6410962"><ele>953.8333333333334</ele><time>2026-03-28T10:42:49.965Z</time></trkpt><trkpt lat="45.4229267" lon="7.6411291"><ele>954.0</ele><time>2026-03-28T10:42:52.96Z</time></trkpt><trkpt lat="45.4230357" lon="7.6411024"><ele>955.1666666666666</ele><time>2026-03-28T10:42:55.958Z</time></trkpt><trkpt lat="45.4231477" lon="7.6410619"><ele>956.3333333333333</ele><time>2026-03-28T10:42:57.951Z</time></trkpt><trkpt lat="45.4232714" lon="7.6410703"><ele>957.5</ele><time>2026-03-28T10:42:59.962Z</time></trkpt><trkpt lat="45.4233351" lon="7.641112"><ele>958.6666666666666</ele><time>2026-03-28T10:43:00.952Z</time></trkpt><trkpt lat="45.4233952" lon="7.6411531"><ele>959.8333333333333</ele><time>2026-03-28T10:43:01.967Z</time></trkpt><trkpt lat="45.4234579" lon="7.6411822"><ele>961.0</ele><time>2026-03-28T10:43:02.953Z</time></trkpt><trkpt lat="45.4235748" lon="7.6411754"><ele>961.0</ele><time>2026-03-28T10:43:04.963Z</time></trkpt><trkpt lat="45.4236859" lon="7.6411046"><ele>960.9999999999999</ele><time>2026-03-28T10:43:06.94Z</time></trkpt><trkpt lat="45.4237542" lon="7.6410587"><ele>960.9999999999999</ele><time>2026-03-28T10:43:07.973Z</time></trkpt><trkpt lat="45.4238282" lon="7.6410262"><ele>961.0</ele><time>2026-03-28T10:43:08.963Z</time></trkpt><trkpt lat="45.4239037" lon="7.6410084"><ele>961.0</ele><time>2026-03-28T10:43:10.038Z</time></trkpt><trkpt lat="45.424002" lon="7.6410188"><ele>966.0</ele><time>2026-03-28T10:43:12.033Z</time></trkpt><trkpt lat="45.4240233" lon="7.6411347"><ele>970.9999999999999</ele><time>2026-03-28T10:43:14.967Z</time></trkpt><trkpt lat="45.4239591" lon="7.6412081"><ele>975.9999999999999</ele><time>2026-03-28T10:43:16.972Z</time></trkpt><trkpt lat="45.4238914" lon="7.6412904"><ele>981.0</ele><time>2026-03-28T10:43:18.988Z</time></trkpt><trkpt lat="45.423895" lon="7.6413977"><ele>986.0</ele><time>2026-03-28T10:43:20.977Z</time></trkpt><trkpt lat="45.4240101" lon="7.6414577"><ele>986.0000000000001</ele><time>2026-03-28T10:43:22.961Z</time></trkpt><trkpt lat="45.4240952" lon="7.6414473"><ele>986.0</ele><time>2026-03-28T10:43:24.04Z</time></trkpt><trkpt lat="45.4241753" lon="7.6414306"><ele>986.0</ele><time>2026-03-28T10:43:24.975Z</time></trkpt><trkpt lat="45.4242427" lon="7.641436"><ele>986.0</ele><time>2026-03-28T10:43:25.98Z</time></trkpt><trkpt lat="45.4243304" lon="7.6415323"><ele>986.0000000000001</ele><time>2026-03-28T10:43:27.956Z</time></trkpt><trkpt lat="45.4243688" lon="7.6416111"><ele>986.0</ele><time>2026-03-28T10:43:28.959Z</time></trkpt><trkpt lat="45.4243926" lon="7.64171"><ele>986.0000000000001</ele><time>2026-03-28T10:43:29.949Z</time></trkpt><trkpt lat="45.4244179" lon="7.6417983"><ele>986.0</ele><time>2026-03-28T10:43:30.954Z</time></trkpt><trkpt lat="45.4244895" lon="7.641943"><ele>986.0</ele><time>2026-03-28T10:43:32.964Z</time></trkpt><trkpt lat="45.4245407" lon="7.6419994"><ele>986.0</ele><time>2026-03-28T10:43:33.972Z</time></trkpt><trkpt lat="45.4246022" lon="7.6420502"><ele>986.0000000000001</ele><time>2026-03-28T10:43:34.963Z</time></trkpt><trkpt lat="45.4246593" lon="7.6420984"><ele>986.0</ele><time>2026-03-28T10:43:35.967Z</time></trkpt><trkpt lat="45.4247157" lon="7.6421519"><ele>987.1999999999999</ele><time>2026-03-28T10:43:36.967Z</time></trkpt><trkpt lat="45.4248218" lon="7.6422392"><ele>988.3999999999999</ele><time>2026-03-28T10:43:38.976Z</time></trkpt><trkpt lat="45.4248886" lon="7.6422473"><ele>989.6</ele><time>2026-03-28T10:43:39.978Z</time></trkpt><trkpt lat="45.424968" lon="7.6422299"><ele>990.8</ele><time>2026-03-28T10:43:40.97Z</time></trkpt><trkpt lat="45.4250547" lon="7.6422124"><ele>992.0</ele><time>2026-03-28T10:43:41.971Z</time></trkpt><trkpt lat="45.4251515" lon="7.6422007"><ele>992.0000000000001</ele><time>2026-03-28T10:43:42.982Z</time></trkpt><trkpt lat="45.4252396" lon="7.6421819"><ele>992.0</ele><time>2026-03-28T10:43:43.972Z</time></trkpt><trkpt lat="45.4253293" lon="7.6421668"><ele>992.0</ele><time>2026-03-28T10:43:44.972Z</time></trkpt><trkpt lat="45.4254165" lon="7.642154"><ele>992.0</ele><time>2026-03-28T10:43:45.972Z</time></trkpt><trkpt lat="45.425497" lon="7.6421492"><ele>992.0000000000001</ele><time>2026-03-28T10:43:46.959Z</time></trkpt><trkpt lat="45.4255704" lon="7.6421666"><ele>992.0</ele><time>2026-03-28T10:43:47.956Z</time></trkpt><trkpt lat="45.4256458" lon="7.6422063"><ele>993.6666666666667</ele><time>2026-03-28T10:43:48.977Z</time></trkpt><trkpt lat="45.4257156" lon="7.6422682"><ele>995.3333333333334</ele><time>2026-03-28T10:43:49.956Z</time></trkpt><trkpt lat="45.4257808" lon="7.6423466"><ele>997.0</ele><time>2026-03-28T10:43:50.967Z</time></trkpt><trkpt lat="45.4258448" lon="7.6424322"><ele>998.6666666666667</ele><time>2026-03-28T10:43:51.975Z</time></trkpt><trkpt lat="45.4259065" lon="7.6425119"><ele>1000.3333333333334</ele><time>2026-03-28T10:43:52.973Z</time></trkpt><trkpt lat="45.4259702" lon="7.6425847"><ele>1002.0</ele><time>2026-03-28T10:43:53.97Z</time></trkpt><trkpt lat="45.4260391" lon="7.6426512"><ele>1002.0</ele><time>2026-03-28T10:43:54.969Z</time></trkpt><trkpt lat="45.4261138" lon="7.642717"><ele>1002.0</ele><time>2026-03-28T10:43:56.018Z</time></trkpt><trkpt lat="45.4261886" lon="7.6427714"><ele>1002.0</ele><time>2026-03-28T10:43:57.029Z</time></trkpt><trkpt lat="45.4262637" lon="7.6428233"><ele>1002.0</ele><time>2026-03-28T10:43:57.961Z</time></trkpt><trkpt lat="45.426336" lon="7.6428692"><ele>1002.0</ele><time>2026-03-28T10:43:58.968Z</time></trkpt><trkpt lat="45.4264033" lon="7.6429066"><ele>1002.0</ele><time>2026-03-28T10:43:59.974Z</time></trkpt><trkpt lat="45.4264758" lon="7.6429295"><ele>1003.8333333333334</ele><time>2026-03-28T10:44:00.986Z</time></trkpt><trkpt lat="45.4265421" lon="7.642922"><ele>1005.6666666666667</ele><time>2026-03-28T10:44:01.967Z</time></trkpt><trkpt lat="45.4266171" lon="7.6429"><ele>1007.5</ele><time>2026-03-28T10:44:02.973Z</time></trkpt><trkpt lat="45.426689" lon="7.6428676"><ele>1009.3333333333334</ele><time>2026-03-28T10:44:04.024Z</time></trkpt><trkpt lat="45.4267597" lon="7.6428398"><ele>1011.1666666666667</ele><time>2026-03-28T10:44:05.025Z</time></trkpt><trkpt lat="45.4268687" lon="7.6428449"><ele>1013.0</ele><time>2026-03-28T10:44:06.954Z</time></trkpt><trkpt lat="45.4269167" lon="7.6429077"><ele>1013.0</ele><time>2026-03-28T10:44:08.968Z</time></trkpt><trkpt lat="45.4268936" lon="7.6430242"><ele>1013.0000000000001</ele><time>2026-03-28T10:44:10.972Z</time></trkpt><trkpt lat="45.4268638" lon="7.6431044"><ele>1013.0</ele><time>2026-03-28T10:44:12.021Z</time></trkpt><trkpt lat="45.4268455" lon="7.643204"><ele>1013.0</ele><time>2026-03-28T10:44:12.966Z</time></trkpt><trkpt lat="45.4268541" lon="7.6433153"><ele>1013.0000000000001</ele><time>2026-03-28T10:44:13.966Z</time></trkpt><trkpt lat="45.4268773" lon="7.6434143"><ele>1013.0</ele><time>2026-03-28T10:44:14.974Z</time></trkpt><trkpt lat="45.426914" lon="7.6435016"><ele>1013.0</ele><time>2026-03-28T10:44:16.035Z</time></trkpt><trkpt lat="45.4269489" lon="7.6435853"><ele>1012.0000000000001</ele><time>2026-03-28T10:44:17.025Z</time></trkpt><trkpt lat="45.4269959" lon="7.6436465"><ele>1011.0</ele><time>2026-03-28T10:44:17.987Z</time></trkpt><trkpt lat="45.4270873" lon="7.6436868"><ele>1010.0</ele><time>2026-03-28T10:44:20.029Z</time></trkpt><trkpt lat="45.4271832" lon="7.6436365"><ele>1009.0</ele><time>2026-03-28T10:44:22.026Z</time></trkpt><trkpt lat="45.4272507" lon="7.6435458"><ele>1008.0000000000001</ele><time>2026-03-28T10:44:24.038Z</time></trkpt><trkpt lat="45.4272795" lon="7.6434495"><ele>1007.0</ele><time>2026-03-28T10:48:36.957Z</time></trkpt><trkpt lat="45.4273738" lon="7.6434971"><ele>1012.75</ele><time>2026-03-28T10:48:41.026Z</time></trkpt><trkpt lat="45.4274933" lon="7.6435417"><ele>1018.5</ele><time>2026-03-28T10:48:42.963Z</time></trkpt><trkpt lat="45.4275907" lon="7.6435943"><ele>1024.25</ele><time>2026-03-28T10:48:45.026Z</time></trkpt><trkpt lat="45.427664" lon="7.643719"><ele>1030.0</ele><time>2026-03-28T10:48:46.962Z</time></trkpt><trkpt lat="45.4277185" lon="7.643873"><ele>1030.0</ele><time>2026-03-28T10:48:48.962Z</time></trkpt><trkpt lat="45.427748" lon="7.6439664"><ele>1030.0</ele><time>2026-03-28T10:48:49.959Z</time></trkpt><trkpt lat="45.4277815" lon="7.6440538"><ele>1030.0</ele><time>2026-03-28T10:48:51.037Z</time></trkpt><trkpt lat="45.4278241" lon="7.6441286"><ele>1030.0</ele><time>2026-03-28T10:48:52.04Z</time></trkpt><trkpt lat="45.4278733" lon="7.6441951"><ele>1030.0</ele><time>2026-03-28T10:48:52.961Z</time></trkpt><trkpt lat="45.4279209" lon="7.6442542"><ele>1030.0</ele><time>2026-03-28T10:48:53.963Z</time></trkpt><trkpt lat="45.4280091" lon="7.6443767"><ele>1035.2</ele><time>2026-03-28T10:48:55.961Z</time></trkpt><trkpt lat="45.4280845" lon="7.644489"><ele>1040.4</ele><time>2026-03-28T10:48:57.975Z</time></trkpt><trkpt lat="45.4281374" lon="7.6446209"><ele>1045.6</ele><time>2026-03-28T10:49:00.038Z</time></trkpt><trkpt lat="45.428153" lon="7.6447602"><ele>1050.8</ele><time>2026-03-28T10:49:02.031Z</time></trkpt><trkpt lat="45.4281689" lon="7.6448987"><ele>1056.0</ele><time>2026-03-28T10:49:03.968Z</time></trkpt><trkpt lat="45.4282083" lon="7.6450748"><ele>1056.0</ele><time>2026-03-28T10:49:06.026Z</time></trkpt><trkpt lat="45.4282288" lon="7.6451705"><ele>1056.0</ele><time>2026-03-28T10:49:07.024Z</time></trkpt><trkpt lat="45.4282665" lon="7.6453233"><ele>1056.0</ele><time>2026-03-28T10:49:08.964Z</time></trkpt><trkpt lat="45.4282795" lon="7.6454303"><ele>1056.0</ele><time>2026-03-28T10:49:11.962Z</time></trkpt><trkpt lat="45.4283118" lon="7.6455207"><ele>1056.0</ele><time>2026-03-28T10:49:15.039Z</time></trkpt><trkpt lat="45.4283166" lon="7.6456174"><ele>1056.0</ele><time>2026-03-28T10:49:17.983Z</time></trkpt><trkpt lat="45.4283353" lon="7.645704"><ele>1056.1666666666667</ele><time>2026-03-28T10:49:26.963Z</time></trkpt><trkpt lat="45.428366" lon="7.6458201"><ele>1056.3333333333333</ele><time>2026-03-28T10:49:28.96Z</time></trkpt><trkpt lat="45.428391" lon="7.6459478"><ele>1056.5</ele><time>2026-03-28T10:49:30.969Z</time></trkpt><trkpt lat="45.4284022" lon="7.6460663"><ele>1056.6666666666665</ele><time>2026-03-28T10:49:32.966Z</time></trkpt><trkpt lat="45.4284152" lon="7.6461821"><ele>1056.8333333333333</ele><time>2026-03-28T10:49:34.962Z</time></trkpt><trkpt lat="45.4284548" lon="7.6462545"><ele>1057.0</ele><time>2026-03-28T10:49:37.967Z</time></trkpt><trkpt lat="45.4284976" lon="7.646168"><ele>1057.0</ele><time>2026-03-28T10:49:39.947Z</time></trkpt><trkpt lat="45.4285554" lon="7.6460559"><ele>1057.0</ele><time>2026-03-28T10:49:41.969Z</time></trkpt><trkpt lat="45.4285921" lon="7.645976"><ele>1057.0</ele><time>2026-03-28T10:49:42.961Z</time></trkpt><trkpt lat="45.4286279" lon="7.6459002"><ele>1057.0</ele><time>2026-03-28T10:49:43.971Z</time></trkpt><trkpt lat="45.4286646" lon="7.6458225"><ele>1057.0</ele><time>2026-03-28T10:49:44.964Z</time></trkpt><trkpt lat="45.4287229" lon="7.6456864"><ele>1057.0</ele><time>2026-03-28T10:49:46.954Z</time></trkpt><trkpt lat="45.4287736" lon="7.6455768"><ele>1063.3333333333333</ele><time>2026-03-28T10:49:48.962Z</time></trkpt><trkpt lat="45.4288266" lon="7.6454743"><ele>1069.6666666666665</ele><time>2026-03-28T10:49:50.963Z</time></trkpt><trkpt lat="45.4288723" lon="7.6455376"><ele>1076.0</ele><time>2026-03-28T10:50:14.96Z</time></trkpt><trkpt lat="45.4288549" lon="7.6456277"><ele>1082.3333333333333</ele><time>2026-03-28T10:50:18.952Z</time></trkpt><trkpt lat="45.4288423" lon="7.6457295"><ele>1088.6666666666667</ele><time>2026-03-28T10:50:21.004Z</time></trkpt><trkpt lat="45.4288578" lon="7.6458486"><ele>1095.0</ele><time>2026-03-28T10:50:22.963Z</time></trkpt><trkpt lat="45.4288718" lon="7.6459549"><ele>1095.0</ele><time>2026-03-28T10:50:24.961Z</time></trkpt><trkpt lat="45.4288789" lon="7.6460708"><ele>1095.0</ele><time>2026-03-28T10:50:26.964Z</time></trkpt><trkpt lat="45.4288771" lon="7.6461794"><ele>1095.0</ele><time>2026-03-28T10:50:28.964Z</time></trkpt><trkpt lat="45.4288546" lon="7.6463227"><ele>1095.0</ele><time>2026-03-28T10:50:31.967Z</time></trkpt><trkpt lat="45.4288088" lon="7.6464457"><ele>1095.0</ele><time>2026-03-28T10:50:33.963Z</time></trkpt><trkpt lat="45.4287616" lon="7.6465514"><ele>1095.0</ele><time>2026-03-28T10:50:35.956Z</time></trkpt><trkpt lat="45.4287268" lon="7.6466526"><ele>1090.5</ele><time>2026-03-28T10:50:37.964Z</time></trkpt><trkpt lat="45.4287101" lon="7.6467578"><ele>1086.0</ele><time>2026-03-28T10:50:39.966Z</time></trkpt><trkpt lat="45.4287135" lon="7.6468922"><ele>1081.5</ele><time>2026-03-28T10:50:41.962Z</time></trkpt><trkpt lat="45.4287182" lon="7.6470143"><ele>1077.0</ele><time>2026-03-28T10:50:43.965Z</time></trkpt><trkpt lat="45.4287153" lon="7.6471179"><ele>1072.5</ele><time>2026-03-28T10:50:45.947Z</time></trkpt><trkpt lat="45.4286758" lon="7.6471988"><ele>1068.0</ele><time>2026-03-28T10:50:47.964Z</time></trkpt><trkpt lat="45.4286139" lon="7.6472833"><ele>1068.0</ele><time>2026-03-28T10:50:49.962Z</time></trkpt><trkpt lat="45.4285891" lon="7.6474283"><ele>1068.0</ele><time>2026-03-28T10:50:51.958Z</time></trkpt><trkpt lat="45.428588" lon="7.6475384"><ele>1068.0</ele><time>2026-03-28T10:50:53.969Z</time></trkpt><trkpt lat="45.4285896" lon="7.6476536"><ele>1068.0</ele><time>2026-03-28T10:50:55.964Z</time></trkpt><trkpt lat="45.4286367" lon="7.6477375"><ele>1068.0</ele><time>2026-03-28T10:50:57.965Z</time></trkpt><trkpt lat="45.4287144" lon="7.6478668"><ele>1066.4</ele><time>2026-03-28T10:50:59.972Z</time></trkpt><trkpt lat="45.42879" lon="7.6479736"><ele>1064.8</ele><time>2026-03-28T10:51:01.963Z</time></trkpt><trkpt lat="45.4288601" lon="7.6480741"><ele>1063.2</ele><time>2026-03-28T10:51:03.965Z</time></trkpt><trkpt lat="45.4289369" lon="7.6481498"><ele>1061.6</ele><time>2026-03-28T10:51:05.949Z</time></trkpt><trkpt lat="45.4290075" lon="7.6482089"><ele>1060.0</ele><time>2026-03-28T10:51:07.97Z</time></trkpt><trkpt lat="45.4290792" lon="7.6482257"><ele>1066.8333333333333</ele><time>2026-03-28T10:51:09.962Z</time></trkpt><trkpt lat="45.4291564" lon="7.6482293"><ele>1073.6666666666665</ele><time>2026-03-28T10:51:11.962Z</time></trkpt><trkpt lat="45.4292397" lon="7.6482527"><ele>1080.5</ele><time>2026-03-28T10:51:13.962Z</time></trkpt><trkpt lat="45.4293075" lon="7.6482519"><ele>1087.3333333333333</ele><time>2026-03-28T10:51:15.965Z</time></trkpt><trkpt lat="45.4294033" lon="7.6483057"><ele>1094.1666666666667</ele><time>2026-03-28T10:51:18.961Z</time></trkpt><trkpt lat="45.4294588" lon="7.6483785"><ele>1101.0</ele><time>2026-03-28T10:51:20.96Z</time></trkpt><trkpt lat="45.4294867" lon="7.6484994"><ele>1103.6</ele><time>2026-03-28T10:51:22.966Z</time></trkpt><trkpt lat="45.4295476" lon="7.6486374"><ele>1106.1999999999998</ele><time>2026-03-28T10:51:24.956Z</time></trkpt><trkpt lat="45.4296144" lon="7.6487694"><ele>1108.8000000000002</ele><time>2026-03-28T10:51:26.958Z</time></trkpt><trkpt lat="45.4296893" lon="7.6488915"><ele>1111.4</ele><time>2026-03-28T10:51:28.961Z</time></trkpt><trkpt lat="45.4297623" lon="7.6489832"><ele>1114.0</ele><time>2026-03-28T10:51:30.965Z</time></trkpt><trkpt lat="45.4298441" lon="7.6490843"><ele>1114.0</ele><time>2026-03-28T10:51:32.968Z</time></trkpt><trkpt lat="45.4299102" lon="7.64918"><ele>1114.0</ele><time>2026-03-28T10:51:34.962Z</time></trkpt><trkpt lat="45.4299832" lon="7.6492841"><ele>1114.0</ele><time>2026-03-28T10:51:36.962Z</time></trkpt><trkpt lat="45.4300504" lon="7.6493655"><ele>1114.0</ele><time>2026-03-28T10:51:38.967Z</time></trkpt><trkpt lat="45.4301096" lon="7.6494117"><ele>1114.0</ele><time>2026-03-28T10:51:40.965Z</time></trkpt><trkpt lat="45.4300767" lon="7.6493222"><ele>1114.0</ele><time>2026-03-28T10:51:45.96Z</time></trkpt><trkpt lat="45.4300415" lon="7.6492369"><ele>1114.0</ele><time>2026-03-28T10:51:47.958Z</time></trkpt><trkpt lat="45.4300232" lon="7.6491293"><ele>1114.0</ele><time>2026-03-28T10:51:49.963Z</time></trkpt><trkpt lat="45.4299941" lon="7.6490402"><ele>1114.0</ele><time>2026-03-28T10:51:51.963Z</time></trkpt><trkpt lat="45.429967" lon="7.6489534"><ele>1114.0</ele><time>2026-03-28T10:51:53.967Z</time></trkpt><trkpt lat="45.4299338" lon="7.6488617"><ele>1114.0</ele><time>2026-03-28T10:52:32.966Z</time></trkpt><trkpt lat="45.4298986" lon="7.6487867"><ele>1114.0</ele><time>2026-03-28T10:52:34.963Z</time></trkpt><trkpt lat="45.4298572" lon="7.6486851"><ele>1114.0</ele><time>2026-03-28T10:52:37.956Z</time></trkpt><trkpt lat="45.4297927" lon="7.6485966"><ele>1118.1666666666665</ele><time>2026-03-28T10:52:41.959Z</time></trkpt><trkpt lat="45.4297386" lon="7.6485342"><ele>1122.3333333333333</ele><time>2026-03-28T10:52:43.97Z</time></trkpt><trkpt lat="45.4297166" lon="7.6484478"><ele>1126.5</ele><time>2026-03-28T10:52:45.966Z</time></trkpt><trkpt lat="45.4296999" lon="7.6483592"><ele>1130.6666666666667</ele><time>2026-03-28T10:52:47.966Z</time></trkpt><trkpt lat="45.4297102" lon="7.6482423"><ele>1134.8333333333335</ele><time>2026-03-28T10:52:50.951Z</time></trkpt><trkpt lat="45.429735" lon="7.6481131"><ele>1139.0</ele><time>2026-03-28T10:52:53.962Z</time></trkpt><trkpt lat="45.4297443" lon="7.6479757"><ele>1139.0</ele><time>2026-03-28T10:52:57.038Z</time></trkpt><trkpt lat="45.4297476" lon="7.6478585"><ele>1139.0</ele><time>2026-03-28T10:52:58.945Z</time></trkpt><trkpt lat="45.4297557" lon="7.647758"><ele>1139.0</ele><time>2026-03-28T10:53:00.946Z</time></trkpt><trkpt lat="45.4297555" lon="7.6476634"><ele>1139.0</ele><time>2026-03-28T10:53:02.955Z</time></trkpt><trkpt lat="45.4297225" lon="7.6475501"><ele>1139.0</ele><time>2026-03-28T10:53:05.949Z</time></trkpt><trkpt lat="45.4296584" lon="7.6474813"><ele>1139.0</ele><time>2026-03-28T10:53:08.947Z</time></trkpt><trkpt lat="45.4296163" lon="7.6474076"><ele>1134.3333333333335</ele><time>2026-03-28T10:53:11.037Z</time></trkpt><trkpt lat="45.429573" lon="7.6473346"><ele>1129.6666666666667</ele><time>2026-03-28T10:53:13.965Z</time></trkpt><trkpt lat="45.4295227" lon="7.6472574"><ele>1125.0</ele><time>2026-03-28T10:53:16.946Z</time></trkpt><trkpt lat="45.4294723" lon="7.6471745"><ele>1120.3333333333333</ele><time>2026-03-28T10:53:20.961Z</time></trkpt><trkpt lat="45.4294649" lon="7.6470821"><ele>1115.6666666666665</ele><time>2026-03-28T10:53:23.964Z</time></trkpt><trkpt lat="45.4295184" lon="7.6469872"><ele>1111.0</ele><time>2026-03-28T10:53:26.963Z</time></trkpt><trkpt lat="45.4295851" lon="7.6468947"><ele>1110.2857142857142</ele><time>2026-03-28T10:53:29.965Z</time></trkpt><trkpt lat="45.4296341" lon="7.6468218"><ele>1109.5714285714287</ele><time>2026-03-28T10:53:31.969Z</time></trkpt><trkpt lat="45.4296869" lon="7.6467504"><ele>1108.857142857143</ele><time>2026-03-28T10:53:33.959Z</time></trkpt><trkpt lat="45.429739" lon="7.6466879"><ele>1108.142857142857</ele><time>2026-03-28T10:53:36.045Z</time></trkpt><trkpt lat="45.429803" lon="7.6466096"><ele>1107.4285714285716</ele><time>2026-03-28T10:53:38.943Z</time></trkpt><trkpt lat="45.429885" lon="7.6465906"><ele>1106.7142857142858</ele><time>2026-03-28T10:53:44.031Z</time></trkpt><trkpt lat="45.4299383" lon="7.6466384"><ele>1106.0</ele><time>2026-03-28T10:53:48.951Z</time></trkpt><trkpt lat="45.429921" lon="7.6467372"><ele>1111.4285714285713</ele><time>2026-03-28T10:54:33.961Z</time></trkpt><trkpt lat="45.4299431" lon="7.6468396"><ele>1116.857142857143</ele><time>2026-03-28T11:05:49.959Z</time></trkpt><trkpt lat="45.4299551" lon="7.6469281"><ele>1122.2857142857142</ele><time>2026-03-28T11:05:51.965Z</time></trkpt><trkpt lat="45.430018" lon="7.6469591"><ele>1127.7142857142858</ele><time>2026-03-28T11:05:55.959Z</time></trkpt><trkpt lat="45.430094" lon="7.646964"><ele>1133.142857142857</ele><time>2026-03-28T11:05:58.957Z</time></trkpt><trkpt lat="45.4301476" lon="7.6468823"><ele>1138.5714285714284</ele><time>2026-03-28T11:06:02.947Z</time></trkpt><trkpt lat="45.4301203" lon="7.6469642"><ele>1144.0</ele><time>2026-03-28T11:07:21.959Z</time></trkpt><trkpt lat="45.4301107" lon="7.6471122"><ele>1144.5</ele><time>2026-03-28T11:07:42.953Z</time></trkpt><trkpt lat="45.4301331" lon="7.6472132"><ele>1145.0</ele><time>2026-03-28T11:07:46.954Z</time></trkpt><trkpt lat="45.430128" lon="7.6473257"><ele>1145.5</ele><time>2026-03-28T11:07:52.949Z</time></trkpt><trkpt lat="45.4301384" lon="7.6474218"><ele>1146.0</ele><time>2026-03-28T11:08:00.963Z</time></trkpt><trkpt lat="45.4300964" lon="7.6473441"><ele>1146.5</ele><time>2026-03-28T11:08:19.964Z</time></trkpt><trkpt lat="45.4300695" lon="7.6472345"><ele>1147.0</ele><time>2026-03-28T11:08:23.956Z</time></trkpt><trkpt lat="45.430059" lon="7.647093"><ele>1147.0</ele><time>2026-03-28T11:08:29.96Z</time></trkpt><trkpt lat="45.4301106" lon="7.6470177"><ele>1147.0</ele><time>2026-03-28T11:08:39.953Z</time></trkpt><trkpt lat="45.4301749" lon="7.6470531"><ele>1147.0</ele><time>2026-03-28T11:08:50.956Z</time></trkpt><trkpt lat="45.4302297" lon="7.6470999"><ele>1147.0</ele><time>2026-03-28T11:08:54.957Z</time></trkpt><trkpt lat="45.430299" lon="7.6471377"><ele>1147.0</ele><time>2026-03-28T11:08:58.941Z</time></trkpt><trkpt lat="45.4303497" lon="7.6472156"><ele>1147.0</ele><time>2026-03-28T11:09:02.954Z</time></trkpt><trkpt lat="45.4304018" lon="7.6472781"><ele>1147.0</ele><time>2026-03-28T11:09:05.948Z</time></trkpt><trkpt lat="45.4304549" lon="7.647353"><ele>1147.0</ele><time>2026-03-28T11:09:09.957Z</time></trkpt><trkpt lat="45.4304919" lon="7.6474435"><ele>1147.0</ele><time>2026-03-28T11:09:16.952Z</time></trkpt><trkpt lat="45.4305545" lon="7.6475512"><ele>1147.0</ele><time>2026-03-28T11:11:56.961Z</time></trkpt><trkpt lat="45.4304945" lon="7.6475016"><ele>1147.0</ele><time>2026-03-28T11:13:30.954Z</time></trkpt><trkpt lat="45.4304503" lon="7.647431"><ele>1147.0</ele><time>2026-03-28T11:13:35.964Z</time></trkpt><trkpt lat="45.4303941" lon="7.6473857"><ele>1147.0</ele><time>2026-03-28T11:13:40.962Z</time></trkpt><trkpt lat="45.4303432" lon="7.6473065"><ele>1147.0</ele><time>2026-03-28T11:13:44.954Z</time></trkpt><trkpt lat="45.4302672" lon="7.6472684"><ele>1147.0</ele><time>2026-03-28T11:13:49.957Z</time></trkpt><trkpt lat="45.4302062" lon="7.6472203"><ele>1147.0</ele><time>2026-03-28T11:13:54.032Z</time></trkpt><trkpt lat="45.4301753" lon="7.647138"><ele>1147.0</ele><time>2026-03-28T11:13:57.963Z</time></trkpt><trkpt lat="45.4301492" lon="7.647052"><ele>1147.0</ele><time>2026-03-28T11:14:03.953Z</time></trkpt><trkpt lat="45.4300871" lon="7.6470687"><ele>1147.0</ele><time>2026-03-28T11:14:10.951Z</time></trkpt><trkpt lat="45.4300214" lon="7.6470951"><ele>1147.0</ele><time>2026-03-28T11:14:13.959Z</time></trkpt><trkpt lat="45.4299721" lon="7.6470212"><ele>1147.0</ele><time>2026-03-28T11:14:17.04Z</time></trkpt><trkpt lat="45.4299422" lon="7.646929"><ele>1146.5</ele><time>2026-03-28T11:14:18.947Z</time></trkpt><trkpt lat="45.4299229" lon="7.6468081"><ele>1146.0</ele><time>2026-03-28T11:14:22.02Z</time></trkpt><trkpt lat="45.4299049" lon="7.6467133"><ele>1145.5</ele><time>2026-03-28T11:14:59.952Z</time></trkpt><trkpt lat="45.4298595" lon="7.6466392"><ele>1145.0</ele><time>2026-03-28T11:15:03.951Z</time></trkpt><trkpt lat="45.4297919" lon="7.6467009"><ele>1144.5</ele><time>2026-03-28T11:15:07.995Z</time></trkpt><trkpt lat="45.4297213" lon="7.6467914"><ele>1144.0</ele><time>2026-03-28T11:15:10.989Z</time></trkpt><trkpt lat="45.4296444" lon="7.6468849"><ele>1138.5</ele><time>2026-03-28T11:15:14Z</time></trkpt><trkpt lat="45.4295837" lon="7.6469543"><ele>1133.0</ele><time>2026-03-28T11:15:16.043Z</time></trkpt><trkpt lat="45.4295337" lon="7.6470346"><ele>1127.5</ele><time>2026-03-28T11:15:17.955Z</time></trkpt><trkpt lat="45.4294915" lon="7.6471075"><ele>1122.0</ele><time>2026-03-28T11:15:21.951Z</time></trkpt><trkpt lat="45.4295207" lon="7.6471931"><ele>1116.5</ele><time>2026-03-28T11:15:26.954Z</time></trkpt><trkpt lat="45.4295595" lon="7.6472641"><ele>1111.0</ele><time>2026-03-28T11:15:31.003Z</time></trkpt><trkpt lat="45.4296311" lon="7.6473894"><ele>1115.6666666666665</ele><time>2026-03-28T11:15:34.009Z</time></trkpt><trkpt lat="45.4296846" lon="7.6474641"><ele>1120.3333333333333</ele><time>2026-03-28T11:15:35.954Z</time></trkpt><trkpt lat="45.4297367" lon="7.6475265"><ele>1125.0</ele><time>2026-03-28T11:15:37.947Z</time></trkpt><trkpt lat="45.4297679" lon="7.6476082"><ele>1129.6666666666667</ele><time>2026-03-28T11:15:40.022Z</time></trkpt><trkpt lat="45.4297861" lon="7.6477228"><ele>1134.3333333333335</ele><time>2026-03-28T11:15:41.953Z</time></trkpt><trkpt lat="45.4297944" lon="7.6478348"><ele>1139.0</ele><time>2026-03-28T11:15:43.975Z</time></trkpt><trkpt lat="45.4298045" lon="7.647954"><ele>1139.0</ele><time>2026-03-28T11:15:45.959Z</time></trkpt><trkpt lat="45.4297975" lon="7.6480495"><ele>1139.0</ele><time>2026-03-28T11:15:47.961Z</time></trkpt><trkpt lat="45.4297873" lon="7.6481435"><ele>1139.0</ele><time>2026-03-28T11:15:49.957Z</time></trkpt><trkpt lat="45.4297856" lon="7.6482588"><ele>1139.0</ele><time>2026-03-28T11:15:52.956Z</time></trkpt><trkpt lat="45.4297802" lon="7.6483507"><ele>1139.0</ele><time>2026-03-28T11:15:54.95Z</time></trkpt><trkpt lat="45.4297977" lon="7.6484407"><ele>1139.0</ele><time>2026-03-28T11:15:56.957Z</time></trkpt><trkpt lat="45.4298379" lon="7.6485512"><ele>1139.0</ele><time>2026-03-28T11:16:00.052Z</time></trkpt><trkpt lat="45.4298724" lon="7.6486317"><ele>1134.8333333333335</ele><time>2026-03-28T11:16:06.957Z</time></trkpt><trkpt lat="45.4299093" lon="7.6487311"><ele>1130.6666666666667</ele><time>2026-03-28T11:16:10.026Z</time></trkpt><trkpt lat="45.4299416" lon="7.6488119"><ele>1126.5</ele><time>2026-03-28T11:16:36.956Z</time></trkpt><trkpt lat="45.4299825" lon="7.6489281"><ele>1122.3333333333333</ele><time>2026-03-28T11:16:39.961Z</time></trkpt><trkpt lat="45.4300225" lon="7.6490195"><ele>1118.1666666666665</ele><time>2026-03-28T11:16:41.962Z</time></trkpt><trkpt lat="45.4300608" lon="7.6491338"><ele>1114.0</ele><time>2026-03-28T11:16:43.96Z</time></trkpt><trkpt lat="45.4301027" lon="7.6492308"><ele>1114.0</ele><time>2026-03-28T11:16:45.942Z</time></trkpt><trkpt lat="45.4301537" lon="7.6492985"><ele>1114.0</ele><time>2026-03-28T11:16:47.955Z</time></trkpt><trkpt lat="45.4301368" lon="7.6494037"><ele>1114.0</ele><time>2026-03-28T11:16:50.97Z</time></trkpt><trkpt lat="45.4300511" lon="7.6494169"><ele>1114.0</ele><time>2026-03-28T11:16:52.988Z</time></trkpt><trkpt lat="45.4299771" lon="7.6493478"><ele>1114.0</ele><time>2026-03-28T11:16:54.95Z</time></trkpt><trkpt lat="45.4299105" lon="7.6492483"><ele>1114.0</ele><time>2026-03-28T11:16:56.953Z</time></trkpt><trkpt lat="45.429843" lon="7.6491729"><ele>1114.0</ele><time>2026-03-28T11:16:58.956Z</time></trkpt><trkpt lat="45.4297875" lon="7.6491289"><ele>1114.0</ele><time>2026-03-28T11:17:00.949Z</time></trkpt><trkpt lat="45.4297322" lon="7.6490791"><ele>1114.0</ele><time>2026-03-28T11:17:02.958Z</time></trkpt><trkpt lat="45.429685" lon="7.648993"><ele>1114.0</ele><time>2026-03-28T11:17:04.942Z</time></trkpt><trkpt lat="45.4296307" lon="7.648873"><ele>1114.0</ele><time>2026-03-28T11:17:06.956Z</time></trkpt><trkpt lat="45.4295516" lon="7.6487563"><ele>1114.0</ele><time>2026-03-28T11:17:08.958Z</time></trkpt><trkpt lat="45.4294986" lon="7.6486223"><ele>1111.4</ele><time>2026-03-28T11:17:10.961Z</time></trkpt><trkpt lat="45.429457" lon="7.6484911"><ele>1108.8000000000002</ele><time>2026-03-28T11:17:12.957Z</time></trkpt><trkpt lat="45.429398" lon="7.6483991"><ele>1106.1999999999998</ele><time>2026-03-28T11:17:16.029Z</time></trkpt><trkpt lat="45.4293141" lon="7.648355"><ele>1103.6</ele><time>2026-03-28T11:17:18.952Z</time></trkpt><trkpt lat="45.4292326" lon="7.6483488"><ele>1101.0</ele><time>2026-03-28T11:17:20.951Z</time></trkpt><trkpt lat="45.4291355" lon="7.6483559"><ele>1101.0</ele><time>2026-03-28T11:17:22.961Z</time></trkpt><trkpt lat="45.4290357" lon="7.6483502"><ele>1101.0</ele><time>2026-03-28T11:17:24.994Z</time></trkpt><trkpt lat="45.4289403" lon="7.648312"><ele>1101.0</ele><time>2026-03-28T11:17:26.959Z</time></trkpt><trkpt lat="45.4288494" lon="7.648269"><ele>1101.0</ele><time>2026-03-28T11:17:28.958Z</time></trkpt><trkpt lat="45.4287619" lon="7.6481785"><ele>1101.0</ele><time>2026-03-28T11:17:30.948Z</time></trkpt><trkpt lat="45.4287097" lon="7.6481162"><ele>1094.3999999999999</ele><time>2026-03-28T11:17:31.953Z</time></trkpt><trkpt lat="45.4286365" lon="7.6479869"><ele>1087.8</ele><time>2026-03-28T11:17:33.965Z</time></trkpt><trkpt lat="45.4285758" lon="7.6478593"><ele>1081.1999999999998</ele><time>2026-03-28T11:17:35.96Z</time></trkpt><trkpt lat="45.4285517" lon="7.6477505"><ele>1074.6</ele><time>2026-03-28T11:17:37.954Z</time></trkpt><trkpt lat="45.4285415" lon="7.6476328"><ele>1068.0</ele><time>2026-03-28T11:17:40.033Z</time></trkpt><trkpt lat="45.4285667" lon="7.6474926"><ele>1068.0</ele><time>2026-03-28T11:17:41.962Z</time></trkpt><trkpt lat="45.4285902" lon="7.647402"><ele>1068.0</ele><time>2026-03-28T11:17:42.963Z</time></trkpt><trkpt lat="45.4286389" lon="7.6472583"><ele>1068.0</ele><time>2026-03-28T11:17:45.047Z</time></trkpt><trkpt lat="45.4286468" lon="7.6471404"><ele>1068.0</ele><time>2026-03-28T11:17:46.974Z</time></trkpt><trkpt lat="45.42863" lon="7.6470445"><ele>1068.0</ele><time>2026-03-28T11:17:48.955Z</time></trkpt><trkpt lat="45.4286193" lon="7.6469239"><ele>1068.0</ele><time>2026-03-28T11:17:51.068Z</time></trkpt><trkpt lat="45.4286437" lon="7.6467611"><ele>1067.3333333333333</ele><time>2026-03-28T11:17:52.96Z</time></trkpt><trkpt lat="45.4286786" lon="7.6466228"><ele>1066.6666666666667</ele><time>2026-03-28T11:17:54.967Z</time></trkpt><trkpt lat="45.4287209" lon="7.6465026"><ele>1066.0</ele><time>2026-03-28T11:17:56.951Z</time></trkpt><trkpt lat="45.4287493" lon="7.6464091"><ele>1065.3333333333335</ele><time>2026-03-28T11:17:59.024Z</time></trkpt><trkpt lat="45.428775" lon="7.6463229"><ele>1064.6666666666667</ele><time>2026-03-28T11:18:00.952Z</time></trkpt><trkpt lat="45.4287938" lon="7.6462359"><ele>1064.0</ele><time>2026-03-28T11:18:02.955Z</time></trkpt><trkpt lat="45.4288046" lon="7.6461273"><ele>1063.0</ele><time>2026-03-28T11:18:05.041Z</time></trkpt><trkpt lat="45.4288089" lon="7.6460313"><ele>1062.0</ele><time>2026-03-28T11:18:06.954Z</time></trkpt><trkpt lat="45.4287965" lon="7.6459266"><ele>1061.0</ele><time>2026-03-28T11:18:08.952Z</time></trkpt><trkpt lat="45.4288159" lon="7.6458197"><ele>1060.0</ele><time>2026-03-28T11:18:10.946Z</time></trkpt><trkpt lat="45.4288455" lon="7.6456982"><ele>1059.0</ele><time>2026-03-28T11:18:13.957Z</time></trkpt><trkpt lat="45.4288546" lon="7.6456034"><ele>1058.0</ele><time>2026-03-28T11:18:17.947Z</time></trkpt><trkpt lat="45.4288726" lon="7.6455119"><ele>1057.0</ele><time>2026-03-28T11:19:34.958Z</time></trkpt><trkpt lat="45.4288442" lon="7.645637"><ele>1057.0</ele><time>2026-03-28T11:19:49.959Z</time></trkpt><trkpt lat="45.428784" lon="7.6457442"><ele>1057.0</ele><time>2026-03-28T11:19:51.954Z</time></trkpt><trkpt lat="45.4287234" lon="7.6458627"><ele>1057.0</ele><time>2026-03-28T11:19:53.964Z</time></trkpt><trkpt lat="45.4286462" lon="7.645995"><ele>1057.0</ele><time>2026-03-28T11:19:55.959Z</time></trkpt><trkpt lat="45.4286069" lon="7.6460771"><ele>1057.0</ele><time>2026-03-28T11:19:56.964Z</time></trkpt><trkpt lat="45.4285469" lon="7.6461922"><ele>1057.0</ele><time>2026-03-28T11:19:58.958Z</time></trkpt><trkpt lat="45.4284956" lon="7.6462651"><ele>1057.0</ele><time>2026-03-28T11:20:00.966Z</time></trkpt><trkpt lat="45.4284257" lon="7.6461763"><ele>1057.0</ele><time>2026-03-28T11:20:04.96Z</time></trkpt><trkpt lat="45.4284069" lon="7.6460355"><ele>1057.0</ele><time>2026-03-28T11:20:06.961Z</time></trkpt><trkpt lat="45.4283681" lon="7.6459147"><ele>1057.0</ele><time>2026-03-28T11:20:08.961Z</time></trkpt><trkpt lat="45.4283209" lon="7.6458038"><ele>1057.0</ele><time>2026-03-28T11:20:10.944Z</time></trkpt><trkpt lat="45.4282957" lon="7.6456924"><ele>1057.0</ele><time>2026-03-28T11:20:12.95Z</time></trkpt><trkpt lat="45.4282901" lon="7.6455561"><ele>1057.0</ele><time>2026-03-28T11:20:14.943Z</time></trkpt><trkpt lat="45.42832" lon="7.64539"><ele>1057.0</ele><time>2026-03-28T11:20:16.95Z</time></trkpt><trkpt lat="45.4283431" lon="7.6453011"><ele>1057.0</ele><time>2026-03-28T11:20:17.96Z</time></trkpt><trkpt lat="45.4283771" lon="7.6452166"><ele>1057.0</ele><time>2026-03-28T11:20:18.962Z</time></trkpt><trkpt lat="45.4284125" lon="7.6451346"><ele>1056.8333333333333</ele><time>2026-03-28T11:20:19.962Z</time></trkpt><trkpt lat="45.4284498" lon="7.645061"><ele>1056.6666666666665</ele><time>2026-03-28T11:20:20.961Z</time></trkpt><trkpt lat="45.428489" lon="7.6449887"><ele>1056.5</ele><time>2026-03-28T11:20:21.957Z</time></trkpt><trkpt lat="45.4285403" lon="7.6448308"><ele>1056.3333333333333</ele><time>2026-03-28T11:20:23.982Z</time></trkpt><trkpt lat="45.4285495" lon="7.6446475"><ele>1056.1666666666667</ele><time>2026-03-28T11:20:25.956Z</time></trkpt><trkpt lat="45.4285654" lon="7.6445495"><ele>1056.0</ele><time>2026-03-28T11:20:26.958Z</time></trkpt><trkpt lat="45.4285834" lon="7.6444561"><ele>1055.5714285714284</ele><time>2026-03-28T11:20:27.953Z</time></trkpt><trkpt lat="45.4286162" lon="7.6443706"><ele>1055.142857142857</ele><time>2026-03-28T11:20:28.962Z</time></trkpt><trkpt lat="45.4286548" lon="7.6442809"><ele>1054.7142857142858</ele><time>2026-03-28T11:20:29.961Z</time></trkpt><trkpt lat="45.4286921" lon="7.6441805"><ele>1054.2857142857142</ele><time>2026-03-28T11:20:30.96Z</time></trkpt><trkpt lat="45.4287298" lon="7.6440858"><ele>1053.857142857143</ele><time>2026-03-28T11:20:31.965Z</time></trkpt><trkpt lat="45.4287789" lon="7.6440025"><ele>1053.4285714285713</ele><time>2026-03-28T11:20:32.957Z</time></trkpt><trkpt lat="45.4288201" lon="7.6439296"><ele>1053.0</ele><time>2026-03-28T11:20:33.956Z</time></trkpt><trkpt lat="45.4288594" lon="7.6437623"><ele>1052.5714285714284</ele><time>2026-03-28T11:20:35.957Z</time></trkpt><trkpt lat="45.4288693" lon="7.6436593"><ele>1052.142857142857</ele><time>2026-03-28T11:20:36.957Z</time></trkpt><trkpt lat="45.4288666" lon="7.6435557"><ele>1051.7142857142858</ele><time>2026-03-28T11:20:37.955Z</time></trkpt><trkpt lat="45.4288527" lon="7.6434526"><ele>1051.2857142857142</ele><time>2026-03-28T11:20:38.962Z</time></trkpt><trkpt lat="45.4288353" lon="7.6433507"><ele>1050.857142857143</ele><time>2026-03-28T11:20:39.953Z</time></trkpt><trkpt lat="45.4288149" lon="7.6432522"><ele>1050.4285714285713</ele><time>2026-03-28T11:20:40.964Z</time></trkpt><trkpt lat="45.4287983" lon="7.6431598"><ele>1050.0</ele><time>2026-03-28T11:20:41.948Z</time></trkpt><trkpt lat="45.4287753" lon="7.643073"><ele>1050.0</ele><time>2026-03-28T11:20:42.961Z</time></trkpt><trkpt lat="45.4287434" lon="7.642916"><ele>1050.0</ele><time>2026-03-28T11:20:44.954Z</time></trkpt><trkpt lat="45.428744" lon="7.6427961"><ele>1050.0</ele><time>2026-03-28T11:20:46.962Z</time></trkpt><trkpt lat="45.4287829" lon="7.6427201"><ele>1050.0</ele><time>2026-03-28T11:20:48.962Z</time></trkpt><trkpt lat="45.4288465" lon="7.6426917"><ele>1050.0</ele><time>2026-03-28T11:20:50.962Z</time></trkpt><trkpt lat="45.4289242" lon="7.6426829"><ele>1050.0</ele><time>2026-03-28T11:20:52.957Z</time></trkpt><trkpt lat="45.4289986" lon="7.6426746"><ele>1054.6666666666667</ele><time>2026-03-28T11:20:54.963Z</time></trkpt><trkpt lat="45.4290714" lon="7.6426728"><ele>1059.3333333333333</ele><time>2026-03-28T11:21:14.96Z</time></trkpt><trkpt lat="45.4291605" lon="7.6425849"><ele>1064.0</ele><time>2026-03-28T11:21:17.029Z</time></trkpt><trkpt lat="45.4292063" lon="7.6425165"><ele>1068.6666666666665</ele><time>2026-03-28T11:21:17.957Z</time></trkpt><trkpt lat="45.4292442" lon="7.6424357"><ele>1073.3333333333333</ele><time>2026-03-28T11:21:18.949Z</time></trkpt><trkpt lat="45.4292793" lon="7.6423542"><ele>1078.0</ele><time>2026-03-28T11:21:19.946Z</time></trkpt><trkpt lat="45.4293478" lon="7.6422123"><ele>1078.0</ele><time>2026-03-28T11:21:21.96Z</time></trkpt><trkpt lat="45.4294065" lon="7.642142"><ele>1078.0</ele><time>2026-03-28T11:21:22.948Z</time></trkpt><trkpt lat="45.4294614" lon="7.6420736"><ele>1078.0</ele><time>2026-03-28T11:21:23.954Z</time></trkpt><trkpt lat="45.4295266" lon="7.6419384"><ele>1078.0</ele><time>2026-03-28T11:21:25.957Z</time></trkpt><trkpt lat="45.4295771" lon="7.6417917"><ele>1078.0</ele><time>2026-03-28T11:21:27.957Z</time></trkpt><trkpt lat="45.4295859" lon="7.641652"><ele>1076.8</ele><time>2026-03-28T11:21:29.958Z</time></trkpt><trkpt lat="45.4296079" lon="7.6414681"><ele>1075.6</ele><time>2026-03-28T11:21:32.031Z</time></trkpt><trkpt lat="45.4296263" lon="7.6413708"><ele>1074.4</ele><time>2026-03-28T11:21:32.953Z</time></trkpt><trkpt lat="45.429658" lon="7.6412905"><ele>1073.2</ele><time>2026-03-28T11:21:34.038Z</time></trkpt><trkpt lat="45.4296888" lon="7.641143"><ele>1072.0</ele><time>2026-03-28T11:21:35.96Z</time></trkpt><trkpt lat="45.4297186" lon="7.6409873"><ele>1076.3333333333333</ele><time>2026-03-28T11:21:37.962Z</time></trkpt><trkpt lat="45.429729" lon="7.6408367"><ele>1080.6666666666665</ele><time>2026-03-28T11:21:40.023Z</time></trkpt><trkpt lat="45.4296868" lon="7.6407434"><ele>1085.0</ele><time>2026-03-28T11:21:42.06Z</time></trkpt><trkpt lat="45.4296637" lon="7.6406471"><ele>1089.3333333333333</ele><time>2026-03-28T11:21:44.992Z</time></trkpt><trkpt lat="45.4296781" lon="7.6404923"><ele>1093.6666666666667</ele><time>2026-03-28T11:22:11.043Z</time></trkpt><trkpt lat="45.4296647" lon="7.6404023"><ele>1098.0</ele><time>2026-03-28T11:22:59.958Z</time></trkpt><trkpt lat="45.4296555" lon="7.640278"><ele>1098.0</ele><time>2026-03-28T11:23:03.974Z</time></trkpt><trkpt lat="45.429667" lon="7.6401858"><ele>1098.0</ele><time>2026-03-28T11:23:05.957Z</time></trkpt><trkpt lat="45.429689" lon="7.6400548"><ele>1098.0</ele><time>2026-03-28T11:23:07.957Z</time></trkpt><trkpt lat="45.4297195" lon="7.6399632"><ele>1098.0</ele><time>2026-03-28T11:23:10.04Z</time></trkpt><trkpt lat="45.4297465" lon="7.6398581"><ele>1098.0</ele><time>2026-03-28T11:23:11.964Z</time></trkpt><trkpt lat="45.4297756" lon="7.6397341"><ele>1098.0</ele><time>2026-03-28T11:23:13.97Z</time></trkpt><trkpt lat="45.4298121" lon="7.6395986"><ele>1097.0</ele><time>2026-03-28T11:23:15.974Z</time></trkpt><trkpt lat="45.429855" lon="7.6394658"><ele>1096.0</ele><time>2026-03-28T11:23:17.951Z</time></trkpt><trkpt lat="45.4298894" lon="7.6393516"><ele>1095.0</ele><time>2026-03-28T11:23:18.951Z</time></trkpt><trkpt lat="45.429915" lon="7.6392541"><ele>1094.0</ele><time>2026-03-28T11:23:19.952Z</time></trkpt><trkpt lat="45.429938" lon="7.6391567"><ele>1093.0</ele><time>2026-03-28T11:23:20.95Z</time></trkpt><trkpt lat="45.4299705" lon="7.639041"><ele>1092.0</ele><time>2026-03-28T11:23:22.031Z</time></trkpt><trkpt lat="45.4300129" lon="7.6389182"><ele>1092.0</ele><time>2026-03-28T11:23:22.953Z</time></trkpt><trkpt lat="45.4300571" lon="7.6387852"><ele>1092.0</ele><time>2026-03-28T11:23:23.955Z</time></trkpt><trkpt lat="45.4300807" lon="7.6386573"><ele>1092.0</ele><time>2026-03-28T11:23:24.954Z</time></trkpt><trkpt lat="45.4300951" lon="7.6385404"><ele>1092.0</ele><time>2026-03-28T11:23:25.95Z</time></trkpt><trkpt lat="45.430124" lon="7.6383949"><ele>1092.0</ele><time>2026-03-28T11:23:27.947Z</time></trkpt><trkpt lat="45.4301686" lon="7.6382731"><ele>1091.6</ele><time>2026-03-28T11:23:29.946Z</time></trkpt><trkpt lat="45.4302369" lon="7.6381245"><ele>1091.2</ele><time>2026-03-28T11:23:31.953Z</time></trkpt><trkpt lat="45.4302946" lon="7.6379854"><ele>1090.8</ele><time>2026-03-28T11:23:33.953Z</time></trkpt><trkpt lat="45.430312" lon="7.6378199"><ele>1090.4</ele><time>2026-03-28T11:23:35.944Z</time></trkpt><trkpt lat="45.4303233" lon="7.6377309"><ele>1090.0</ele><time>2026-03-28T11:23:36.95Z</time></trkpt><trkpt lat="45.4303439" lon="7.6375664"><ele>1088.8</ele><time>2026-03-28T11:23:38.951Z</time></trkpt><trkpt lat="45.4303785" lon="7.6374155"><ele>1087.6</ele><time>2026-03-28T11:23:40.947Z</time></trkpt><trkpt lat="45.4304277" lon="7.6372405"><ele>1086.4</ele><time>2026-03-28T11:23:42.949Z</time></trkpt><trkpt lat="45.4304534" lon="7.6371463"><ele>1085.2</ele><time>2026-03-28T11:23:43.946Z</time></trkpt><trkpt lat="45.4305086" lon="7.6369915"><ele>1084.0</ele><time>2026-03-28T11:23:45.945Z</time></trkpt><trkpt lat="45.4305423" lon="7.636868"><ele>1093.8</ele><time>2026-03-28T11:23:47.955Z</time></trkpt><trkpt lat="45.4305709" lon="7.6367807"><ele>1103.6000000000001</ele><time>2026-03-28T11:23:49.961Z</time></trkpt><trkpt lat="45.4306116" lon="7.6366739"><ele>1113.4</ele><time>2026-03-28T11:23:51.951Z</time></trkpt><trkpt lat="45.4306249" lon="7.6365328"><ele>1123.2</ele><time>2026-03-28T11:23:53.943Z</time></trkpt><trkpt lat="45.4306538" lon="7.6363812"><ele>1133.0</ele><time>2026-03-28T11:23:55.952Z</time></trkpt><trkpt lat="45.43068" lon="7.6362198"><ele>1131.0</ele><time>2026-03-28T11:23:57.936Z</time></trkpt><trkpt lat="45.4307336" lon="7.6360554"><ele>1129.0</ele><time>2026-03-28T11:23:59.949Z</time></trkpt><trkpt lat="45.4307658" lon="7.6359729"><ele>1127.0</ele><time>2026-03-28T11:24:00.953Z</time></trkpt><trkpt lat="45.430797" lon="7.6358872"><ele>1125.0</ele><time>2026-03-28T11:24:01.953Z</time></trkpt><trkpt lat="45.4308836" lon="7.6357368"><ele>1123.0</ele><time>2026-03-28T11:24:03.953Z</time></trkpt><trkpt lat="45.4309289" lon="7.6356591"><ele>1123.0</ele><time>2026-03-28T11:24:04.945Z</time></trkpt><trkpt lat="45.4309984" lon="7.6355033"><ele>1123.0</ele><time>2026-03-28T11:24:06.941Z</time></trkpt><trkpt lat="45.4310269" lon="7.6354203"><ele>1123.0</ele><time>2026-03-28T11:24:07.949Z</time></trkpt><trkpt lat="45.4310965" lon="7.6352767"><ele>1123.0</ele><time>2026-03-28T11:24:09.956Z</time></trkpt><trkpt lat="45.4311751" lon="7.6351533"><ele>1123.0</ele><time>2026-03-28T11:24:11.956Z</time></trkpt><trkpt lat="45.4312631" lon="7.6350204"><ele>1120.1666666666665</ele><time>2026-03-28T11:24:13.95Z</time></trkpt><trkpt lat="45.4312959" lon="7.6349433"><ele>1117.3333333333333</ele><time>2026-03-28T11:24:14.942Z</time></trkpt><trkpt lat="45.4313615" lon="7.6347949"><ele>1114.5</ele><time>2026-03-28T11:24:16.954Z</time></trkpt><trkpt lat="45.4313913" lon="7.6347044"><ele>1111.6666666666667</ele><time>2026-03-28T11:24:17.953Z</time></trkpt><trkpt lat="45.4314156" lon="7.6345984"><ele>1108.8333333333335</ele><time>2026-03-28T11:24:18.946Z</time></trkpt><trkpt lat="45.4314341" lon="7.6344891"><ele>1106.0</ele><time>2026-03-28T11:24:19.958Z</time></trkpt><trkpt lat="45.4314524" lon="7.6343729"><ele>1112.2857142857142</ele><time>2026-03-28T11:24:20.961Z</time></trkpt><trkpt lat="45.431469" lon="7.6342522"><ele>1118.5714285714284</ele><time>2026-03-28T11:24:21.948Z</time></trkpt><trkpt lat="45.4314881" lon="7.6341432"><ele>1124.857142857143</ele><time>2026-03-28T11:24:22.952Z</time></trkpt><trkpt lat="45.4314938" lon="7.6340467"><ele>1131.142857142857</ele><time>2026-03-28T11:24:23.954Z</time></trkpt><trkpt lat="45.4314882" lon="7.6339509"><ele>1137.4285714285713</ele><time>2026-03-28T11:24:24.95Z</time></trkpt><trkpt lat="45.4314807" lon="7.6338488"><ele>1143.7142857142858</ele><time>2026-03-28T11:24:26.027Z</time></trkpt><trkpt lat="45.4314639" lon="7.6337573"><ele>1150.0</ele><time>2026-03-28T11:24:27.031Z</time></trkpt><trkpt lat="45.4314528" lon="7.6336657"><ele>1149.25</ele><time>2026-03-28T11:24:27.956Z</time></trkpt><trkpt lat="45.4314526" lon="7.6334976"><ele>1148.5</ele><time>2026-03-28T11:24:29.968Z</time></trkpt><trkpt lat="45.431487" lon="7.6333413"><ele>1147.75</ele><time>2026-03-28T11:24:32.033Z</time></trkpt><trkpt lat="45.4315175" lon="7.6331902"><ele>1147.0</ele><time>2026-03-28T11:24:34.034Z</time></trkpt><trkpt lat="45.4315454" lon="7.6330425"><ele>1147.0</ele><time>2026-03-28T11:24:35.953Z</time></trkpt><trkpt lat="45.4315659" lon="7.6329069"><ele>1147.0</ele><time>2026-03-28T11:24:37.949Z</time></trkpt><trkpt lat="45.4316207" lon="7.6328066"><ele>1147.0</ele><time>2026-03-28T11:24:39.952Z</time></trkpt><trkpt lat="45.4317108" lon="7.6327397"><ele>1147.0</ele><time>2026-03-28T11:24:41.941Z</time></trkpt><trkpt lat="45.4318174" lon="7.6327051"><ele>1147.0</ele><time>2026-03-28T11:24:43.952Z</time></trkpt><trkpt lat="45.4319422" lon="7.6326661"><ele>1146.8</ele><time>2026-03-28T11:24:45.947Z</time></trkpt><trkpt lat="45.432054" lon="7.6326407"><ele>1146.6</ele><time>2026-03-28T11:24:47.957Z</time></trkpt><trkpt lat="45.4321558" lon="7.632667"><ele>1146.3999999999999</ele><time>2026-03-28T11:24:50.031Z</time></trkpt><trkpt lat="45.4322527" lon="7.6327167"><ele>1146.2</ele><time>2026-03-28T11:24:52.032Z</time></trkpt><trkpt lat="45.4323519" lon="7.6327881"><ele>1146.0</ele><time>2026-03-28T11:24:53.959Z</time></trkpt><trkpt lat="45.4324152" lon="7.6328262"><ele>1151.3333333333333</ele><time>2026-03-28T11:24:54.957Z</time></trkpt><trkpt lat="45.4324842" lon="7.632866"><ele>1156.6666666666667</ele><time>2026-03-28T11:24:55.96Z</time></trkpt><trkpt lat="45.4325502" lon="7.6329029"><ele>1162.0</ele><time>2026-03-28T11:24:56.954Z</time></trkpt><trkpt lat="45.4326635" lon="7.6329648"><ele>1167.3333333333335</ele><time>2026-03-28T11:24:59.035Z</time></trkpt><trkpt lat="45.4327339" lon="7.6330126"><ele>1172.6666666666667</ele><time>2026-03-28T11:25:01.032Z</time></trkpt><trkpt lat="45.4327473" lon="7.6331104"><ele>1178.0</ele><time>2026-03-28T11:25:02.932Z</time></trkpt><trkpt lat="45.4326679" lon="7.6331296"><ele>1178.0</ele><time>2026-03-28T11:25:05.024Z</time></trkpt><trkpt lat="45.4325754" lon="7.6330758"><ele>1178.0</ele><time>2026-03-28T11:25:07.024Z</time></trkpt><trkpt lat="45.4324504" lon="7.6330877"><ele>1178.0</ele><time>2026-03-28T11:25:08.95Z</time></trkpt><trkpt lat="45.4323586" lon="7.6331154"><ele>1178.0</ele><time>2026-03-28T11:25:09.959Z</time></trkpt><trkpt lat="45.4322837" lon="7.6331339"><ele>1178.0</ele><time>2026-03-28T11:25:10.938Z</time></trkpt><trkpt lat="45.4321725" lon="7.633195"><ele>1172.4</ele><time>2026-03-28T11:25:12.958Z</time></trkpt><trkpt lat="45.43209" lon="7.63326"><ele>1166.8</ele><time>2026-03-28T11:25:14.947Z</time></trkpt><trkpt lat="45.4320405" lon="7.6333565"><ele>1161.2</ele><time>2026-03-28T11:25:16.962Z</time></trkpt><trkpt lat="45.4320204" lon="7.6334881"><ele>1155.6</ele><time>2026-03-28T11:25:18.951Z</time></trkpt><trkpt lat="45.4320185" lon="7.6336262"><ele>1150.0</ele><time>2026-03-28T11:25:20.959Z</time></trkpt><trkpt lat="45.4320302" lon="7.6337558"><ele>1150.0</ele><time>2026-03-28T11:25:22.956Z</time></trkpt><trkpt lat="45.4320743" lon="7.6339037"><ele>1150.0</ele><time>2026-03-28T11:25:24.956Z</time></trkpt><trkpt lat="45.4321262" lon="7.6339696"><ele>1150.0</ele><time>2026-03-28T11:25:26.96Z</time></trkpt><trkpt lat="45.4321897" lon="7.6338853"><ele>1150.0</ele><time>2026-03-28T11:25:30.957Z</time></trkpt><trkpt lat="45.4322835" lon="7.6338553"><ele>1150.0</ele><time>2026-03-28T11:25:34.037Z</time></trkpt><trkpt lat="45.4323728" lon="7.6338872"><ele>1157.1666666666665</ele><time>2026-03-28T11:25:36.956Z</time></trkpt><trkpt lat="45.432455" lon="7.6339483"><ele>1164.3333333333333</ele><time>2026-03-28T11:25:39.953Z</time></trkpt><trkpt lat="45.4325098" lon="7.6340034"><ele>1171.5</ele><time>2026-03-28T11:25:42.032Z</time></trkpt><trkpt lat="45.4325685" lon="7.634053"><ele>1178.6666666666667</ele><time>2026-03-28T11:25:43.962Z</time></trkpt><trkpt lat="45.4326282" lon="7.6341146"><ele>1185.8333333333335</ele><time>2026-03-28T11:25:45.996Z</time></trkpt><trkpt lat="45.4326984" lon="7.6341735"><ele>1193.0</ele><time>2026-03-28T11:25:48Z</time></trkpt><trkpt lat="45.4327868" lon="7.6342344"><ele>1193.0</ele><time>2026-03-28T11:25:49.958Z</time></trkpt><trkpt lat="45.4328661" lon="7.634319"><ele>1193.0</ele><time>2026-03-28T11:25:51.952Z</time></trkpt><trkpt lat="45.4328956" lon="7.6344548"><ele>1193.0</ele><time>2026-03-28T11:25:53.973Z</time></trkpt><trkpt lat="45.4329019" lon="7.6345444"><ele>1193.0</ele><time>2026-03-28T11:25:54.949Z</time></trkpt><trkpt lat="45.432896" lon="7.6346934"><ele>1193.0</ele><time>2026-03-28T11:25:56.961Z</time></trkpt><trkpt lat="45.4328823" lon="7.6348058"><ele>1193.0</ele><time>2026-03-28T11:25:58.959Z</time></trkpt><trkpt lat="45.4329052" lon="7.6349273"><ele>1194.8333333333335</ele><time>2026-03-28T11:26:00.957Z</time></trkpt><trkpt lat="45.4329096" lon="7.6350437"><ele>1196.6666666666667</ele><time>2026-03-28T11:26:02.959Z</time></trkpt><trkpt lat="45.4329211" lon="7.6351546"><ele>1198.5</ele><time>2026-03-28T11:26:04.959Z</time></trkpt><trkpt lat="45.4329369" lon="7.6352819"><ele>1200.3333333333333</ele><time>2026-03-28T11:26:07.035Z</time></trkpt><trkpt lat="45.432943" lon="7.6353868"><ele>1202.1666666666665</ele><time>2026-03-28T11:26:08.97Z</time></trkpt><trkpt lat="45.4329667" lon="7.6354788"><ele>1204.0</ele><time>2026-03-28T11:26:10.967Z</time></trkpt><trkpt lat="45.4329926" lon="7.6355742"><ele>1210.1666666666665</ele><time>2026-03-28T11:26:12.957Z</time></trkpt><trkpt lat="45.4330271" lon="7.6356742"><ele>1216.3333333333333</ele><time>2026-03-28T11:26:15.076Z</time></trkpt><trkpt lat="45.4330311" lon="7.6357708"><ele>1222.5</ele><time>2026-03-28T11:26:17.006Z</time></trkpt><trkpt lat="45.4330349" lon="7.6358763"><ele>1228.6666666666667</ele><time>2026-03-28T11:26:18.963Z</time></trkpt><trkpt lat="45.4330408" lon="7.635996"><ele>1234.8333333333335</ele><time>2026-03-28T11:26:20.966Z</time></trkpt><trkpt lat="45.4330286" lon="7.636116"><ele>1241.0</ele><time>2026-03-28T11:26:22.963Z</time></trkpt><trkpt lat="45.4330349" lon="7.6362126"><ele>1240.5</ele><time>2026-03-28T11:26:24.965Z</time></trkpt><trkpt lat="45.4330164" lon="7.6363432"><ele>1240.0</ele><time>2026-03-28T11:26:27.959Z</time></trkpt><trkpt lat="45.4330139" lon="7.6364506"><ele>1239.5</ele><time>2026-03-28T11:26:30Z</time></trkpt><trkpt lat="45.4330052" lon="7.636557"><ele>1239.0</ele><time>2026-03-28T11:26:31.964Z</time></trkpt><trkpt lat="45.4329805" lon="7.6366676"><ele>1238.5</ele><time>2026-03-28T11:26:33.958Z</time></trkpt><trkpt lat="45.4329641" lon="7.6367861"><ele>1238.0</ele><time>2026-03-28T11:26:36.041Z</time></trkpt><trkpt lat="45.4329441" lon="7.6369108"><ele>1240.5</ele><time>2026-03-28T11:26:37.956Z</time></trkpt><trkpt lat="45.4329152" lon="7.6370303"><ele>1243.0</ele><time>2026-03-28T11:26:39.951Z</time></trkpt><trkpt lat="45.4328849" lon="7.6371355"><ele>1245.5</ele><time>2026-03-28T11:26:41.949Z</time></trkpt><trkpt lat="45.4328412" lon="7.6372292"><ele>1248.0</ele><time>2026-03-28T11:26:43.947Z</time></trkpt><trkpt lat="45.432804" lon="7.6373234"><ele>1250.5</ele><time>2026-03-28T11:26:45.949Z</time></trkpt><trkpt lat="45.4327923" lon="7.6374225"><ele>1253.0</ele><time>2026-03-28T11:26:47.957Z</time></trkpt><trkpt lat="45.4327747" lon="7.6375355"><ele>1253.0</ele><time>2026-03-28T11:26:49.991Z</time></trkpt><trkpt lat="45.432768" lon="7.637639"><ele>1253.0</ele><time>2026-03-28T11:26:51.952Z</time></trkpt><trkpt lat="45.432753" lon="7.6377805"><ele>1253.0</ele><time>2026-03-28T11:26:55.038Z</time></trkpt><trkpt lat="45.4327743" lon="7.6379052"><ele>1253.0</ele><time>2026-03-28T11:26:57.949Z</time></trkpt><trkpt lat="45.4328298" lon="7.6379969"><ele>1253.0</ele><time>2026-03-28T11:26:59.953Z</time></trkpt><trkpt lat="45.4329005" lon="7.6380704"><ele>1253.0</ele><time>2026-03-28T11:27:01.953Z</time></trkpt><trkpt lat="45.4329736" lon="7.6381689"><ele>1259.6</ele><time>2026-03-28T11:27:03.959Z</time></trkpt><trkpt lat="45.4330426" lon="7.6382777"><ele>1266.1999999999998</ele><time>2026-03-28T11:27:05.961Z</time></trkpt><trkpt lat="45.4330965" lon="7.6383865"><ele>1272.8</ele><time>2026-03-28T11:27:07.956Z</time></trkpt><trkpt lat="45.4331318" lon="7.6384765"><ele>1279.3999999999999</ele><time>2026-03-28T11:27:09.954Z</time></trkpt><trkpt lat="45.4331835" lon="7.6385675"><ele>1286.0</ele><time>2026-03-28T11:27:11.959Z</time></trkpt><trkpt lat="45.4332444" lon="7.6386961"><ele>1288.0</ele><time>2026-03-28T11:27:54.954Z</time></trkpt><trkpt lat="45.4333104" lon="7.6387263"><ele>1290.0</ele><time>2026-03-28T11:27:57.958Z</time></trkpt><trkpt lat="45.433365" lon="7.6388316"><ele>1292.0</ele><time>2026-03-28T11:28:00.972Z</time></trkpt><trkpt lat="45.4333752" lon="7.6389819"><ele>1294.0</ele><time>2026-03-28T11:28:02.971Z</time></trkpt><trkpt lat="45.4333646" lon="7.6391234"><ele>1296.0</ele><time>2026-03-28T11:28:05.039Z</time></trkpt><trkpt lat="45.4333503" lon="7.6392643"><ele>1296.0</ele><time>2026-03-28T11:28:06.98Z</time></trkpt><trkpt lat="45.4333559" lon="7.6394184"><ele>1296.0</ele><time>2026-03-28T11:28:08.989Z</time></trkpt><trkpt lat="45.4333668" lon="7.6395805"><ele>1296.0</ele><time>2026-03-28T11:28:10.983Z</time></trkpt><trkpt lat="45.4333667" lon="7.6396761"><ele>1296.0</ele><time>2026-03-28T11:28:12Z</time></trkpt><trkpt lat="45.4333861" lon="7.6397888"><ele>1296.0</ele><time>2026-03-28T11:28:12.99Z</time></trkpt><trkpt lat="45.4334109" lon="7.6398999"><ele>1299.0</ele><time>2026-03-28T11:28:14.047Z</time></trkpt><trkpt lat="45.4334375" lon="7.640004"><ele>1302.0</ele><time>2026-03-28T11:28:15.033Z</time></trkpt><trkpt lat="45.433451" lon="7.6401015"><ele>1305.0</ele><time>2026-03-28T11:28:15.963Z</time></trkpt><trkpt lat="45.4334776" lon="7.6402522"><ele>1308.0</ele><time>2026-03-28T11:28:17.964Z</time></trkpt><trkpt lat="45.4335164" lon="7.640412"><ele>1311.0</ele><time>2026-03-28T11:28:19.962Z</time></trkpt><trkpt lat="45.4335387" lon="7.6405236"><ele>1312.5</ele><time>2026-03-28T11:28:20.967Z</time></trkpt><trkpt lat="45.4335524" lon="7.6406319"><ele>1314.0</ele><time>2026-03-28T11:28:21.962Z</time></trkpt><trkpt lat="45.4335464" lon="7.6407242"><ele>1315.5</ele><time>2026-03-28T11:28:22.968Z</time></trkpt><trkpt lat="45.433584" lon="7.6408549"><ele>1317.0</ele><time>2026-03-28T11:28:24.978Z</time></trkpt><trkpt lat="45.4336492" lon="7.6409681"><ele>1318.5</ele><time>2026-03-28T11:28:27.022Z</time></trkpt><trkpt lat="45.433713" lon="7.6410459"><ele>1320.0</ele><time>2026-03-28T11:28:28.96Z</time></trkpt><trkpt lat="45.4337653" lon="7.6411303"><ele>1323.5</ele><time>2026-03-28T11:28:30.959Z</time></trkpt><trkpt lat="45.4338384" lon="7.6412276"><ele>1327.0</ele><time>2026-03-28T11:28:32.95Z</time></trkpt><trkpt lat="45.4338862" lon="7.641332"><ele>1330.5</ele><time>2026-03-28T11:28:35.034Z</time></trkpt><trkpt lat="45.4339271" lon="7.6414319"><ele>1334.0</ele><time>2026-03-28T11:28:36.958Z</time></trkpt><trkpt lat="45.4339815" lon="7.6414926"><ele>1337.5</ele><time>2026-03-28T11:28:38.952Z</time></trkpt><trkpt lat="45.4340446" lon="7.6415252"><ele>1341.0</ele><time>2026-03-28T11:28:40.954Z</time></trkpt><trkpt lat="45.4341048" lon="7.6415529"><ele>1341.0</ele><time>2026-03-28T11:28:42.957Z</time></trkpt><trkpt lat="45.4341737" lon="7.6416313"><ele>1341.0</ele><time>2026-03-28T11:28:45.951Z</time></trkpt><trkpt lat="45.4342432" lon="7.6416639"><ele>1341.0</ele><time>2026-03-28T11:28:47.941Z</time></trkpt><trkpt lat="45.4342917" lon="7.641736"><ele>1341.0</ele><time>2026-03-28T11:28:49.947Z</time></trkpt><trkpt lat="45.434346" lon="7.641846"><ele>1341.0</ele><time>2026-03-28T11:28:51.954Z</time></trkpt><trkpt lat="45.4343521" lon="7.6419765"><ele>1341.0</ele><time>2026-03-28T11:28:53.956Z</time></trkpt><trkpt lat="45.434289" lon="7.6419917"><ele>1342.1666666666667</ele><time>2026-03-28T11:29:16.967Z</time></trkpt><trkpt lat="45.4342338" lon="7.6420507"><ele>1343.3333333333333</ele><time>2026-03-28T11:29:29.964Z</time></trkpt><trkpt lat="45.4341921" lon="7.6421311"><ele>1344.5</ele><time>2026-03-28T11:29:39.956Z</time></trkpt><trkpt lat="45.4341861" lon="7.642257"><ele>1345.6666666666665</ele><time>2026-03-28T11:29:42.957Z</time></trkpt><trkpt lat="45.4341852" lon="7.6423829"><ele>1346.8333333333333</ele><time>2026-03-28T11:29:45.962Z</time></trkpt><trkpt lat="45.4341804" lon="7.6425163"><ele>1348.0</ele><time>2026-03-28T11:29:48.965Z</time></trkpt><trkpt lat="45.4342048" lon="7.6426145"><ele>1348.0</ele><time>2026-03-28T11:29:50.958Z</time></trkpt><trkpt lat="45.4342568" lon="7.6427046"><ele>1348.0</ele><time>2026-03-28T11:29:52.963Z</time></trkpt><trkpt lat="45.4343318" lon="7.6426958"><ele>1348.0</ele><time>2026-03-28T11:29:54.963Z</time></trkpt><trkpt lat="45.4343861" lon="7.6426462"><ele>1348.0</ele><time>2026-03-28T11:29:55.964Z</time></trkpt><trkpt lat="45.434479" lon="7.6425671"><ele>1348.0</ele><time>2026-03-28T11:29:57.963Z</time></trkpt><trkpt lat="45.4345662" lon="7.6425369"><ele>1348.0</ele><time>2026-03-28T11:30:00.025Z</time></trkpt><trkpt lat="45.434668" lon="7.6425464"><ele>1350.2</ele><time>2026-03-28T11:30:02.957Z</time></trkpt><trkpt lat="45.4347629" lon="7.6425141"><ele>1352.4</ele><time>2026-03-28T11:30:04.965Z</time></trkpt><trkpt lat="45.4348616" lon="7.6425046"><ele>1354.6000000000001</ele><time>2026-03-28T11:30:07.046Z</time></trkpt><trkpt lat="45.4349606" lon="7.6425211"><ele>1356.8000000000002</ele><time>2026-03-28T11:30:08.97Z</time></trkpt><trkpt lat="45.4350675" lon="7.6425483"><ele>1359.0</ele><time>2026-03-28T11:30:10.974Z</time></trkpt><trkpt lat="45.4351676" lon="7.6425609"><ele>1359.0</ele><time>2026-03-28T11:30:12.971Z</time></trkpt><trkpt lat="45.4352548" lon="7.6425624"><ele>1359.0</ele><time>2026-03-28T11:30:15.033Z</time></trkpt><trkpt lat="45.4353361" lon="7.6425847"><ele>1359.0</ele><time>2026-03-28T11:30:16.971Z</time></trkpt><trkpt lat="45.4354065" lon="7.6426456"><ele>1359.0</ele><time>2026-03-28T11:30:18.967Z</time></trkpt><trkpt lat="45.4354538" lon="7.6427374"><ele>1359.0</ele><time>2026-03-28T11:30:22.039Z</time></trkpt><trkpt lat="45.4354962" lon="7.6428365"><ele>1359.0</ele><time>2026-03-28T11:30:23.978Z</time></trkpt><trkpt lat="45.4355575" lon="7.6429548"><ele>1363.0</ele><time>2026-03-28T11:30:25.972Z</time></trkpt><trkpt lat="45.4356412" lon="7.6430592"><ele>1367.0</ele><time>2026-03-28T11:30:27.967Z</time></trkpt><trkpt lat="45.4356902" lon="7.6431251"><ele>1371.0</ele><time>2026-03-28T11:30:28.974Z</time></trkpt><trkpt lat="45.4357711" lon="7.6432523"><ele>1375.0</ele><time>2026-03-28T11:30:30.979Z</time></trkpt><trkpt lat="45.4358311" lon="7.6433844"><ele>1379.0</ele><time>2026-03-28T11:30:32.976Z</time></trkpt><trkpt lat="45.4358737" lon="7.6434805"><ele>1379.0</ele><time>2026-03-28T11:30:34.973Z</time></trkpt><trkpt lat="45.4359202" lon="7.6435842"><ele>1379.0</ele><time>2026-03-28T11:30:36.953Z</time></trkpt><trkpt lat="45.4359772" lon="7.6437354"><ele>1379.0</ele><time>2026-03-28T11:30:38.959Z</time></trkpt><trkpt lat="45.4360124" lon="7.6438791"><ele>1379.0</ele><time>2026-03-28T11:30:40.966Z</time></trkpt><trkpt lat="45.4360471" lon="7.6439728"><ele>1379.0</ele><time>2026-03-28T11:30:42.961Z</time></trkpt><trkpt lat="45.4360639" lon="7.6440598"><ele>1378.6666666666667</ele><time>2026-03-28T11:30:44.981Z</time></trkpt><trkpt lat="45.4360875" lon="7.6441494"><ele>1378.3333333333335</ele><time>2026-03-28T11:30:47.973Z</time></trkpt><trkpt lat="45.4361102" lon="7.6442532"><ele>1378.0</ele><time>2026-03-28T11:32:09.964Z</time></trkpt><trkpt lat="45.4361456" lon="7.6443302"><ele>1377.6666666666667</ele><time>2026-03-28T11:32:33.957Z</time></trkpt><trkpt lat="45.436224" lon="7.6443383"><ele>1377.3333333333333</ele><time>2026-03-28T11:32:36.971Z</time></trkpt><trkpt lat="45.4362873" lon="7.6442726"><ele>1377.0</ele><time>2026-03-28T11:32:39.971Z</time></trkpt><trkpt lat="45.4363482" lon="7.6441726"><ele>1380.1666666666667</ele><time>2026-03-28T11:32:42.966Z</time></trkpt><trkpt lat="45.4364566" lon="7.6441066"><ele>1383.3333333333333</ele><time>2026-03-28T11:32:44.958Z</time></trkpt><trkpt lat="45.4365199" lon="7.6441053"><ele>1386.5</ele><time>2026-03-28T11:32:45.972Z</time></trkpt><trkpt lat="45.4365894" lon="7.6441089"><ele>1389.6666666666665</ele><time>2026-03-28T11:32:46.972Z</time></trkpt><trkpt lat="45.4366874" lon="7.6441379"><ele>1392.8333333333333</ele><time>2026-03-28T11:32:48.969Z</time></trkpt><trkpt lat="45.4367641" lon="7.6441742"><ele>1396.0</ele><time>2026-03-28T11:32:50.965Z</time></trkpt><trkpt lat="45.4368296" lon="7.6441934"><ele>1396.0</ele><time>2026-03-28T11:32:52.968Z</time></trkpt><trkpt lat="45.4368951" lon="7.6442524"><ele>1396.0</ele><time>2026-03-28T11:32:55.972Z</time></trkpt><trkpt lat="45.4369404" lon="7.6443333"><ele>1396.0</ele><time>2026-03-28T11:32:58.971Z</time></trkpt></trkseg><trkseg><trkpt lat="45.4409491" lon="7.6495463"><ele>1359.0</ele><time>2026-03-28T13:01:24.647Z</time></trkpt><trkpt lat="45.4409275" lon="7.6496391"><ele>1359.0</ele><time>2026-03-28T13:01:32.647Z</time></trkpt><trkpt lat="45.4408882" lon="7.6497386"><ele>1359.0</ele><time>2026-03-28T13:03:43.668Z</time></trkpt><trkpt lat="45.4408237" lon="7.6498018"><ele>1359.0</ele><time>2026-03-28T13:03:46.655Z</time></trkpt><trkpt lat="45.4407595" lon="7.6498096"><ele>1359.0</ele><time>2026-03-28T13:03:48.735Z</time></trkpt><trkpt lat="45.4406802" lon="7.6497941"><ele>1359.0</ele><time>2026-03-28T13:03:50.726Z</time></trkpt><trkpt lat="45.4405833" lon="7.6497759"><ele>1359.0</ele><time>2026-03-28T13:03:52.662Z</time></trkpt><trkpt lat="45.4404802" lon="7.649748"><ele>1359.0</ele><time>2026-03-28T13:03:54.659Z</time></trkpt><trkpt lat="45.4403976" lon="7.6496954"><ele>1359.0</ele><time>2026-03-28T13:03:56.652Z</time></trkpt><trkpt lat="45.4403391" lon="7.6496095"><ele>1359.0</ele><time>2026-03-28T13:03:58.664Z</time></trkpt><trkpt lat="45.440249" lon="7.6496383"><ele>1359.0</ele><time>2026-03-28T13:04:01.664Z</time></trkpt><trkpt lat="45.4401922" lon="7.6497365"><ele>1359.0</ele><time>2026-03-28T13:04:03.66Z</time></trkpt><trkpt lat="45.4401508" lon="7.6498505"><ele>1359.0</ele><time>2026-03-28T13:04:05.659Z</time></trkpt><trkpt lat="45.4401473" lon="7.6499799"><ele>1359.0</ele><time>2026-03-28T13:04:07.655Z</time></trkpt><trkpt lat="45.4401854" lon="7.6501123"><ele>1359.0</ele><time>2026-03-28T13:04:09.646Z</time></trkpt><trkpt lat="45.4402581" lon="7.6501999"><ele>1359.0</ele><time>2026-03-28T13:04:11.648Z</time></trkpt><trkpt lat="45.440362" lon="7.6502449"><ele>1359.0</ele><time>2026-03-28T13:04:13.716Z</time></trkpt><trkpt lat="45.4404836" lon="7.6502565"><ele>1359.0</ele><time>2026-03-28T13:04:15.727Z</time></trkpt><trkpt lat="45.4405961" lon="7.6502577"><ele>1359.0</ele><time>2026-03-28T13:04:17.655Z</time></trkpt><trkpt lat="45.4407169" lon="7.6502405"><ele>1359.0</ele><time>2026-03-28T13:04:19.718Z</time></trkpt><trkpt lat="45.4408272" lon="7.650204"><ele>1359.0</ele><time>2026-03-28T13:04:21.657Z</time></trkpt><trkpt lat="45.440939" lon="7.6501561"><ele>1359.0</ele><time>2026-03-28T13:04:23.668Z</time></trkpt><trkpt lat="45.4409993" lon="7.6501197"><ele>1359.0</ele><time>2026-03-28T13:04:24.714Z</time></trkpt><trkpt lat="45.4410604" lon="7.6500715"><ele>1359.0</ele><time>2026-03-28T13:04:25.721Z</time></trkpt><trkpt lat="45.441123" lon="7.6500264"><ele>1359.0</ele><time>2026-03-28T13:04:26.66Z</time></trkpt><trkpt lat="45.4411961" lon="7.6499995"><ele>1359.0</ele><time>2026-03-28T13:04:27.656Z</time></trkpt><trkpt lat="45.4412742" lon="7.6500047"><ele>1358.3333333333333</ele><time>2026-03-28T13:04:28.683Z</time></trkpt><trkpt lat="45.4413554" lon="7.6500215"><ele>1357.6666666666667</ele><time>2026-03-28T13:04:29.718Z</time></trkpt><trkpt lat="45.4414326" lon="7.6500397"><ele>1357.0</ele><time>2026-03-28T13:04:30.717Z</time></trkpt><trkpt lat="45.4415016" lon="7.6500519"><ele>1356.3333333333335</ele><time>2026-03-28T13:04:31.655Z</time></trkpt><trkpt lat="45.4416095" lon="7.6501113"><ele>1355.6666666666667</ele><time>2026-03-28T13:04:33.68Z</time></trkpt><trkpt lat="45.4415756" lon="7.6502288"><ele>1355.0</ele><time>2026-03-28T13:04:36.65Z</time></trkpt><trkpt lat="45.4415115" lon="7.650262"><ele>1351.4</ele><time>2026-03-28T13:04:37.652Z</time></trkpt><trkpt lat="45.44139" lon="7.6502934"><ele>1347.8</ele><time>2026-03-28T13:04:39.654Z</time></trkpt><trkpt lat="45.4413072" lon="7.6503068"><ele>1344.1999999999998</ele><time>2026-03-28T13:04:40.649Z</time></trkpt><trkpt lat="45.4412257" lon="7.6503266"><ele>1340.6</ele><time>2026-03-28T13:04:41.657Z</time></trkpt><trkpt lat="45.4411334" lon="7.6503531"><ele>1337.0</ele><time>2026-03-28T13:04:42.659Z</time></trkpt><trkpt lat="45.4410609" lon="7.6504008"><ele>1337.0</ele><time>2026-03-28T13:04:43.663Z</time></trkpt><trkpt lat="45.4409962" lon="7.6504488"><ele>1337.0</ele><time>2026-03-28T13:04:44.657Z</time></trkpt><trkpt lat="45.440937" lon="7.6504955"><ele>1337.0</ele><time>2026-03-28T13:04:45.657Z</time></trkpt><trkpt lat="45.4408803" lon="7.6505719"><ele>1337.0</ele><time>2026-03-28T13:04:46.729Z</time></trkpt><trkpt lat="45.4408185" lon="7.6506635"><ele>1337.0</ele><time>2026-03-28T13:04:47.727Z</time></trkpt><trkpt lat="45.4407422" lon="7.6507689"><ele>1337.0</ele><time>2026-03-28T13:04:48.723Z</time></trkpt><trkpt lat="45.4406661" lon="7.6508712"><ele>1337.0</ele><time>2026-03-28T13:04:49.724Z</time></trkpt><trkpt lat="45.4405876" lon="7.6509823"><ele>1337.0</ele><time>2026-03-28T13:04:50.714Z</time></trkpt><trkpt lat="45.4405125" lon="7.6510883"><ele>1337.0</ele><time>2026-03-28T13:04:51.654Z</time></trkpt><trkpt lat="45.4404526" lon="7.6511973"><ele>1337.0</ele><time>2026-03-28T13:04:52.655Z</time></trkpt><trkpt lat="45.4404152" lon="7.6513023"><ele>1337.0</ele><time>2026-03-28T13:04:53.776Z</time></trkpt><trkpt lat="45.4403924" lon="7.6514288"><ele>1335.1999999999998</ele><time>2026-03-28T13:04:54.728Z</time></trkpt><trkpt lat="45.4403841" lon="7.6515779"><ele>1333.4</ele><time>2026-03-28T13:04:55.648Z</time></trkpt><trkpt lat="45.4403756" lon="7.6517274"><ele>1331.6</ele><time>2026-03-28T13:04:56.655Z</time></trkpt><trkpt lat="45.4403774" lon="7.6518839"><ele>1329.8000000000002</ele><time>2026-03-28T13:04:57.73Z</time></trkpt><trkpt lat="45.4403862" lon="7.6520223"><ele>1328.0</ele><time>2026-03-28T13:04:58.651Z</time></trkpt><trkpt lat="45.4404113" lon="7.6521633"><ele>1325.5</ele><time>2026-03-28T13:04:59.72Z</time></trkpt><trkpt lat="45.4404392" lon="7.6522911"><ele>1323.0</ele><time>2026-03-28T13:05:00.732Z</time></trkpt><trkpt lat="45.440463" lon="7.6524133"><ele>1320.5</ele><time>2026-03-28T13:05:01.656Z</time></trkpt><trkpt lat="45.4404859" lon="7.6525256"><ele>1318.0</ele><time>2026-03-28T13:05:02.66Z</time></trkpt><trkpt lat="45.4405169" lon="7.6526197"><ele>1315.5</ele><time>2026-03-28T13:05:03.674Z</time></trkpt><trkpt lat="45.4405695" lon="7.6526976"><ele>1313.0</ele><time>2026-03-28T13:05:04.73Z</time></trkpt><trkpt lat="45.4406327" lon="7.652765"><ele>1310.0</ele><time>2026-03-28T13:05:05.72Z</time></trkpt><trkpt lat="45.4407067" lon="7.6528175"><ele>1307.0</ele><time>2026-03-28T13:05:06.655Z</time></trkpt><trkpt lat="45.4407929" lon="7.652847"><ele>1304.0</ele><time>2026-03-28T13:05:07.653Z</time></trkpt><trkpt lat="45.4408931" lon="7.6528697"><ele>1301.0</ele><time>2026-03-28T13:05:08.675Z</time></trkpt><trkpt lat="45.4409938" lon="7.6528848"><ele>1298.0</ele><time>2026-03-28T13:05:09.713Z</time></trkpt><trkpt lat="45.4411034" lon="7.6528952"><ele>1298.0</ele><time>2026-03-28T13:05:10.728Z</time></trkpt><trkpt lat="45.4412138" lon="7.6529073"><ele>1298.0</ele><time>2026-03-28T13:05:11.654Z</time></trkpt><trkpt lat="45.4413278" lon="7.6529136"><ele>1298.0</ele><time>2026-03-28T13:05:12.658Z</time></trkpt><trkpt lat="45.4414423" lon="7.6529246"><ele>1298.0</ele><time>2026-03-28T13:05:13.756Z</time></trkpt><trkpt lat="45.4416489" lon="7.6529394"><ele>1298.3333333333335</ele><time>2026-03-28T13:05:15.66Z</time></trkpt><trkpt lat="45.4417477" lon="7.6529367"><ele>1298.6666666666667</ele><time>2026-03-28T13:05:16.657Z</time></trkpt><trkpt lat="45.4418404" lon="7.6529332"><ele>1299.0</ele><time>2026-03-28T13:05:17.656Z</time></trkpt><trkpt lat="45.4419262" lon="7.6529389"><ele>1299.3333333333333</ele><time>2026-03-28T13:05:18.652Z</time></trkpt><trkpt lat="45.4420059" lon="7.6529466"><ele>1299.6666666666665</ele><time>2026-03-28T13:05:19.722Z</time></trkpt><trkpt lat="45.4420838" lon="7.6529601"><ele>1300.0</ele><time>2026-03-28T13:05:20.73Z</time></trkpt><trkpt lat="45.4421629" lon="7.652959"><ele>1301.1666666666665</ele><time>2026-03-28T13:05:21.656Z</time></trkpt><trkpt lat="45.4422391" lon="7.6529468"><ele>1302.3333333333333</ele><time>2026-03-28T13:05:22.664Z</time></trkpt><trkpt lat="45.4423217" lon="7.6529045"><ele>1303.5</ele><time>2026-03-28T13:05:23.678Z</time></trkpt><trkpt lat="45.4424147" lon="7.6528604"><ele>1304.6666666666667</ele><time>2026-03-28T13:05:24.653Z</time></trkpt><trkpt lat="45.4424876" lon="7.652842"><ele>1305.8333333333335</ele><time>2026-03-28T13:05:25.656Z</time></trkpt><trkpt lat="45.4425532" lon="7.6528768"><ele>1307.0</ele><time>2026-03-28T13:05:26.653Z</time></trkpt><trkpt lat="45.4426261" lon="7.6529295"><ele>1307.0</ele><time>2026-03-28T13:05:27.652Z</time></trkpt><trkpt lat="45.4427004" lon="7.6529911"><ele>1307.0</ele><time>2026-03-28T13:05:28.719Z</time></trkpt><trkpt lat="45.4427797" lon="7.6530735"><ele>1307.0</ele><time>2026-03-28T13:05:29.719Z</time></trkpt><trkpt lat="45.4428604" lon="7.6531575"><ele>1307.0</ele><time>2026-03-28T13:05:30.719Z</time></trkpt><trkpt lat="45.4429388" lon="7.6532531"><ele>1307.0</ele><time>2026-03-28T13:05:31.652Z</time></trkpt><trkpt lat="45.4430106" lon="7.6533511"><ele>1306.0</ele><time>2026-03-28T13:05:32.659Z</time></trkpt><trkpt lat="45.4430776" lon="7.6534631"><ele>1305.0</ele><time>2026-03-28T13:05:33.658Z</time></trkpt><trkpt lat="45.4431483" lon="7.6535785"><ele>1304.0</ele><time>2026-03-28T13:05:34.655Z</time></trkpt><trkpt lat="45.4432101" lon="7.6536942"><ele>1303.0</ele><time>2026-03-28T13:05:35.661Z</time></trkpt><trkpt lat="45.4432731" lon="7.6538114"><ele>1302.0</ele><time>2026-03-28T13:05:36.656Z</time></trkpt><trkpt lat="45.4433395" lon="7.6539289"><ele>1302.0</ele><time>2026-03-28T13:05:37.654Z</time></trkpt><trkpt lat="45.4434021" lon="7.6540486"><ele>1302.0</ele><time>2026-03-28T13:05:38.649Z</time></trkpt><trkpt lat="45.4434539" lon="7.6541762"><ele>1302.0</ele><time>2026-03-28T13:05:39.726Z</time></trkpt><trkpt lat="45.4434999" lon="7.6543084"><ele>1302.0</ele><time>2026-03-28T13:05:41.035Z</time></trkpt><trkpt lat="45.4435283" lon="7.6544505"><ele>1302.0</ele><time>2026-03-28T13:05:41.953Z</time></trkpt><trkpt lat="45.4435414" lon="7.6545927"><ele>1301.0</ele><time>2026-03-28T13:05:42.95Z</time></trkpt><trkpt lat="45.4435447" lon="7.654737"><ele>1300.0</ele><time>2026-03-28T13:05:43.952Z</time></trkpt><trkpt lat="45.4435474" lon="7.6548824"><ele>1299.0</ele><time>2026-03-28T13:05:45.041Z</time></trkpt><trkpt lat="45.4435506" lon="7.6550287"><ele>1298.0</ele><time>2026-03-28T13:05:46.046Z</time></trkpt><trkpt lat="45.4435688" lon="7.6551757"><ele>1297.0</ele><time>2026-03-28T13:05:46.951Z</time></trkpt><trkpt lat="45.4435942" lon="7.6553064"><ele>1295.0</ele><time>2026-03-28T13:05:47.952Z</time></trkpt><trkpt lat="45.4436138" lon="7.6554178"><ele>1293.0</ele><time>2026-03-28T13:05:48.961Z</time></trkpt><trkpt lat="45.4435597" lon="7.6555483"><ele>1291.0</ele><time>2026-03-28T13:05:51.025Z</time></trkpt><trkpt lat="45.4434492" lon="7.6555366"><ele>1289.0</ele><time>2026-03-28T13:05:52.944Z</time></trkpt><trkpt lat="45.4433814" lon="7.6554881"><ele>1287.0</ele><time>2026-03-28T13:05:53.946Z</time></trkpt><trkpt lat="45.4433042" lon="7.6554617"><ele>1287.0</ele><time>2026-03-28T13:05:54.953Z</time></trkpt><trkpt lat="45.4432311" lon="7.6554703"><ele>1287.0</ele><time>2026-03-28T13:05:56.012Z</time></trkpt><trkpt lat="45.4431483" lon="7.6555839"><ele>1287.0</ele><time>2026-03-28T13:05:57.952Z</time></trkpt><trkpt lat="45.4431292" lon="7.6556851"><ele>1287.0</ele><time>2026-03-28T13:05:58.955Z</time></trkpt><trkpt lat="45.4431236" lon="7.6557813"><ele>1287.0</ele><time>2026-03-28T13:06:00.028Z</time></trkpt><trkpt lat="45.4431136" lon="7.6558719"><ele>1287.0</ele><time>2026-03-28T13:06:01.025Z</time></trkpt><trkpt lat="45.4431693" lon="7.6560247"><ele>1287.0</ele><time>2026-03-28T13:06:02.94Z</time></trkpt><trkpt lat="45.443265" lon="7.6561024"><ele>1287.0</ele><time>2026-03-28T13:06:04.943Z</time></trkpt><trkpt lat="45.4433654" lon="7.6562249"><ele>1287.0</ele><time>2026-03-28T13:06:06.952Z</time></trkpt><trkpt lat="45.4433997" lon="7.6563359"><ele>1287.0</ele><time>2026-03-28T13:06:07.952Z</time></trkpt><trkpt lat="45.4434364" lon="7.6564635"><ele>1287.0</ele><time>2026-03-28T13:06:08.949Z</time></trkpt><trkpt lat="45.4434706" lon="7.6566178"><ele>1284.75</ele><time>2026-03-28T13:06:09.943Z</time></trkpt><trkpt lat="45.4435045" lon="7.6567771"><ele>1282.5</ele><time>2026-03-28T13:06:10.956Z</time></trkpt><trkpt lat="45.4435336" lon="7.6569374"><ele>1280.25</ele><time>2026-03-28T13:06:11.954Z</time></trkpt><trkpt lat="45.4435386" lon="7.6571025"><ele>1278.0</ele><time>2026-03-28T13:06:12.951Z</time></trkpt><trkpt lat="45.44353" lon="7.6572793"><ele>1277.0</ele><time>2026-03-28T13:06:13.951Z</time></trkpt><trkpt lat="45.4435111" lon="7.6574523"><ele>1276.0</ele><time>2026-03-28T13:06:14.948Z</time></trkpt><trkpt lat="45.4434886" lon="7.6576088"><ele>1275.0</ele><time>2026-03-28T13:06:15.954Z</time></trkpt><trkpt lat="45.443479" lon="7.6577669"><ele>1274.0</ele><time>2026-03-28T13:06:16.956Z</time></trkpt><trkpt lat="45.4434748" lon="7.6579202"><ele>1273.2</ele><time>2026-03-28T13:06:17.957Z</time></trkpt><trkpt lat="45.4434661" lon="7.6580761"><ele>1272.4</ele><time>2026-03-28T13:06:18.954Z</time></trkpt><trkpt lat="45.4434429" lon="7.6582049"><ele>1271.6</ele><time>2026-03-28T13:06:19.954Z</time></trkpt><trkpt lat="45.4434101" lon="7.658313"><ele>1270.8</ele><time>2026-03-28T13:06:20.955Z</time></trkpt><trkpt lat="45.4433984" lon="7.6584352"><ele>1270.0</ele><time>2026-03-28T13:06:21.954Z</time></trkpt><trkpt lat="45.4434116" lon="7.6585776"><ele>1267.6</ele><time>2026-03-28T13:06:22.955Z</time></trkpt><trkpt lat="45.4434256" lon="7.6587385"><ele>1265.2</ele><time>2026-03-28T13:06:23.951Z</time></trkpt><trkpt lat="45.4434417" lon="7.6588927"><ele>1262.8</ele><time>2026-03-28T13:06:24.947Z</time></trkpt><trkpt lat="45.4434582" lon="7.6590516"><ele>1260.4</ele><time>2026-03-28T13:06:25.953Z</time></trkpt><trkpt lat="45.4434702" lon="7.6592055"><ele>1258.0</ele><time>2026-03-28T13:06:26.957Z</time></trkpt><trkpt lat="45.4434854" lon="7.6593526"><ele>1255.5</ele><time>2026-03-28T13:06:27.95Z</time></trkpt><trkpt lat="45.4435049" lon="7.6594691"><ele>1253.0</ele><time>2026-03-28T13:06:28.949Z</time></trkpt><trkpt lat="45.4435383" lon="7.6595594"><ele>1250.5</ele><time>2026-03-28T13:06:29.953Z</time></trkpt><trkpt lat="45.4435934" lon="7.6596263"><ele>1248.0</ele><time>2026-03-28T13:06:30.951Z</time></trkpt><trkpt lat="45.4436579" lon="7.659688"><ele>1245.5</ele><time>2026-03-28T13:06:31.959Z</time></trkpt><trkpt lat="45.4437285" lon="7.6597565"><ele>1243.0</ele><time>2026-03-28T13:06:32.96Z</time></trkpt><trkpt lat="45.443791" lon="7.6598258"><ele>1243.0</ele><time>2026-03-28T13:06:33.951Z</time></trkpt><trkpt lat="45.443843" lon="7.6599517"><ele>1243.0</ele><time>2026-03-28T13:06:35.956Z</time></trkpt><trkpt lat="45.4437572" lon="7.6600152"><ele>1243.0</ele><time>2026-03-28T13:06:37.941Z</time></trkpt><trkpt lat="45.4436825" lon="7.6599836"><ele>1243.0</ele><time>2026-03-28T13:06:38.946Z</time></trkpt><trkpt lat="45.4435916" lon="7.6599336"><ele>1243.0</ele><time>2026-03-28T13:06:39.954Z</time></trkpt><trkpt lat="45.4434698" lon="7.6598745"><ele>1243.0</ele><time>2026-03-28T13:06:40.952Z</time></trkpt><trkpt lat="45.4433257" lon="7.6598453"><ele>1243.0</ele><time>2026-03-28T13:06:41.957Z</time></trkpt><trkpt lat="45.4431519" lon="7.6598248"><ele>1243.0</ele><time>2026-03-28T13:06:42.948Z</time></trkpt><trkpt lat="45.4429749" lon="7.6598049"><ele>1241.0</ele><time>2026-03-28T13:06:43.948Z</time></trkpt><trkpt lat="45.4428287" lon="7.6598103"><ele>1239.0</ele><time>2026-03-28T13:06:44.953Z</time></trkpt><trkpt lat="45.4427118" lon="7.659829"><ele>1237.0</ele><time>2026-03-28T13:06:45.958Z</time></trkpt><trkpt lat="45.4426073" lon="7.6598472"><ele>1235.0</ele><time>2026-03-28T13:06:46.952Z</time></trkpt><trkpt lat="45.4425157" lon="7.6598913"><ele>1235.0</ele><time>2026-03-28T13:06:47.947Z</time></trkpt><trkpt lat="45.4424312" lon="7.6599149"><ele>1235.0</ele><time>2026-03-28T13:06:48.952Z</time></trkpt><trkpt lat="45.4423612" lon="7.6599132"><ele>1235.0</ele><time>2026-03-28T13:06:49.936Z</time></trkpt><trkpt lat="45.4422935" lon="7.6598757"><ele>1235.0</ele><time>2026-03-28T13:06:50.941Z</time></trkpt><trkpt lat="45.4422289" lon="7.6598036"><ele>1235.0</ele><time>2026-03-28T13:06:51.952Z</time></trkpt><trkpt lat="45.442159" lon="7.6597222"><ele>1235.0</ele><time>2026-03-28T13:06:52.954Z</time></trkpt><trkpt lat="45.4420903" lon="7.6596511"><ele>1233.0</ele><time>2026-03-28T13:06:53.956Z</time></trkpt><trkpt lat="45.4420309" lon="7.659585"><ele>1231.0</ele><time>2026-03-28T13:06:54.952Z</time></trkpt><trkpt lat="45.4419693" lon="7.6595472"><ele>1229.0</ele><time>2026-03-28T13:06:55.955Z</time></trkpt><trkpt lat="45.4418576" lon="7.6595882"><ele>1227.0</ele><time>2026-03-28T13:06:57.945Z</time></trkpt><trkpt lat="45.4418202" lon="7.6596691"><ele>1225.0</ele><time>2026-03-28T13:06:58.95Z</time></trkpt><trkpt lat="45.4417954" lon="7.6597942"><ele>1223.0</ele><time>2026-03-28T13:06:59.955Z</time></trkpt><trkpt lat="45.4417657" lon="7.6599535"><ele>1223.0</ele><time>2026-03-28T13:07:00.954Z</time></trkpt><trkpt lat="45.4417111" lon="7.6601453"><ele>1223.0</ele><time>2026-03-28T13:07:01.95Z</time></trkpt><trkpt lat="45.4416284" lon="7.6603616"><ele>1223.0</ele><time>2026-03-28T13:07:02.956Z</time></trkpt><trkpt lat="45.4415232" lon="7.6606116"><ele>1222.3333333333335</ele><time>2026-03-28T13:07:03.948Z</time></trkpt><trkpt lat="45.4414195" lon="7.6608814"><ele>1221.6666666666667</ele><time>2026-03-28T13:07:05.042Z</time></trkpt><trkpt lat="45.4413327" lon="7.661135"><ele>1221.0</ele><time>2026-03-28T13:07:06.049Z</time></trkpt><trkpt lat="45.4412577" lon="7.6613638"><ele>1217.3333333333333</ele><time>2026-03-28T13:07:06.955Z</time></trkpt><trkpt lat="45.4411903" lon="7.6615752"><ele>1213.6666666666665</ele><time>2026-03-28T13:07:07.942Z</time></trkpt><trkpt lat="45.4411253" lon="7.6617781"><ele>1210.0</ele><time>2026-03-28T13:07:08.957Z</time></trkpt><trkpt lat="45.4410617" lon="7.6619507"><ele>1210.0</ele><time>2026-03-28T13:07:10.041Z</time></trkpt><trkpt lat="45.4410002" lon="7.6620953"><ele>1210.0</ele><time>2026-03-28T13:07:10.962Z</time></trkpt><trkpt lat="45.4409487" lon="7.6622351"><ele>1210.0</ele><time>2026-03-28T13:07:11.955Z</time></trkpt><trkpt lat="45.4409129" lon="7.662384"><ele>1210.0</ele><time>2026-03-28T13:07:12.954Z</time></trkpt><trkpt lat="45.440887" lon="7.6625273"><ele>1210.0</ele><time>2026-03-28T13:07:13.96Z</time></trkpt><trkpt lat="45.4408653" lon="7.662662"><ele>1210.1666666666665</ele><time>2026-03-28T13:07:14.983Z</time></trkpt><trkpt lat="45.4408439" lon="7.6627916"><ele>1210.3333333333333</ele><time>2026-03-28T13:07:16.042Z</time></trkpt><trkpt lat="45.4408309" lon="7.6629163"><ele>1210.5</ele><time>2026-03-28T13:07:16.96Z</time></trkpt><trkpt lat="45.4408174" lon="7.6630287"><ele>1210.6666666666667</ele><time>2026-03-28T13:07:17.962Z</time></trkpt><trkpt lat="45.4408193" lon="7.6631244"><ele>1210.8333333333335</ele><time>2026-03-28T13:07:18.957Z</time></trkpt><trkpt lat="45.44087" lon="7.663248"><ele>1211.0</ele><time>2026-03-28T13:07:21.032Z</time></trkpt><trkpt lat="45.4409784" lon="7.6632942"><ele>1211.0</ele><time>2026-03-28T13:07:22.976Z</time></trkpt><trkpt lat="45.4410484" lon="7.6633055"><ele>1211.0</ele><time>2026-03-28T13:07:23.962Z</time></trkpt><trkpt lat="45.4411207" lon="7.6633126"><ele>1211.0</ele><time>2026-03-28T13:07:24.96Z</time></trkpt><trkpt lat="45.4411948" lon="7.6633141"><ele>1211.0</ele><time>2026-03-28T13:07:25.966Z</time></trkpt><trkpt lat="45.4412735" lon="7.6633136"><ele>1211.0</ele><time>2026-03-28T13:07:26.964Z</time></trkpt><trkpt lat="45.4413448" lon="7.6633122"><ele>1211.0</ele><time>2026-03-28T13:07:27.961Z</time></trkpt><trkpt lat="45.4414242" lon="7.6633132"><ele>1211.0</ele><time>2026-03-28T13:07:28.962Z</time></trkpt><trkpt lat="45.4414973" lon="7.6633185"><ele>1210.142857142857</ele><time>2026-03-28T13:07:29.971Z</time></trkpt><trkpt lat="45.4415768" lon="7.66332"><ele>1209.2857142857142</ele><time>2026-03-28T13:07:30.949Z</time></trkpt><trkpt lat="45.4416588" lon="7.6633218"><ele>1208.4285714285716</ele><time>2026-03-28T13:07:31.967Z</time></trkpt><trkpt lat="45.4417269" lon="7.663328"><ele>1207.5714285714284</ele><time>2026-03-28T13:07:32.961Z</time></trkpt><trkpt lat="45.4417949" lon="7.6633285"><ele>1206.7142857142858</ele><time>2026-03-28T13:07:33.951Z</time></trkpt><trkpt lat="45.4418657" lon="7.6633227"><ele>1205.857142857143</ele><time>2026-03-28T13:07:34.958Z</time></trkpt><trkpt lat="45.4419372" lon="7.6633095"><ele>1205.0</ele><time>2026-03-28T13:07:35.96Z</time></trkpt><trkpt lat="45.4420045" lon="7.6632978"><ele>1205.0</ele><time>2026-03-28T13:07:36.959Z</time></trkpt><trkpt lat="45.4420765" lon="7.6632722"><ele>1205.0</ele><time>2026-03-28T13:07:37.964Z</time></trkpt><trkpt lat="45.4421395" lon="7.6632483"><ele>1205.0</ele><time>2026-03-28T13:07:38.966Z</time></trkpt><trkpt lat="45.4422335" lon="7.6632876"><ele>1205.0</ele><time>2026-03-28T13:07:41.035Z</time></trkpt><trkpt lat="45.4422384" lon="7.6634042"><ele>1205.0</ele><time>2026-03-28T13:07:42.954Z</time></trkpt><trkpt lat="45.44215" lon="7.6634605"><ele>1205.0</ele><time>2026-03-28T13:07:44.948Z</time></trkpt><trkpt lat="45.4420363" lon="7.6634995"><ele>1205.0</ele><time>2026-03-28T13:07:46.946Z</time></trkpt><trkpt lat="45.4419697" lon="7.6635372"><ele>1205.0</ele><time>2026-03-28T13:07:47.95Z</time></trkpt><trkpt lat="45.441898" lon="7.6635756"><ele>1205.0</ele><time>2026-03-28T13:07:48.957Z</time></trkpt><trkpt lat="45.4418213" lon="7.6636348"><ele>1205.0</ele><time>2026-03-28T13:07:49.956Z</time></trkpt><trkpt lat="45.4417369" lon="7.6636966"><ele>1205.0</ele><time>2026-03-28T13:07:50.95Z</time></trkpt><trkpt lat="45.4416587" lon="7.6637698"><ele>1205.0</ele><time>2026-03-28T13:07:51.95Z</time></trkpt><trkpt lat="45.4415971" lon="7.6638586"><ele>1202.6</ele><time>2026-03-28T13:07:52.946Z</time></trkpt><trkpt lat="45.4415451" lon="7.6639653"><ele>1200.2</ele><time>2026-03-28T13:07:53.97Z</time></trkpt><trkpt lat="45.4415086" lon="7.6640857"><ele>1197.8</ele><time>2026-03-28T13:07:54.953Z</time></trkpt><trkpt lat="45.4414785" lon="7.6642198"><ele>1195.4</ele><time>2026-03-28T13:07:55.952Z</time></trkpt><trkpt lat="45.441452" lon="7.6643522"><ele>1193.0</ele><time>2026-03-28T13:07:56.95Z</time></trkpt><trkpt lat="45.4414198" lon="7.6644738"><ele>1192.4</ele><time>2026-03-28T13:07:57.953Z</time></trkpt><trkpt lat="45.4413682" lon="7.6645909"><ele>1191.8</ele><time>2026-03-28T13:07:58.943Z</time></trkpt><trkpt lat="45.4412987" lon="7.6647106"><ele>1191.2</ele><time>2026-03-28T13:07:59.943Z</time></trkpt><trkpt lat="45.4412215" lon="7.6648257"><ele>1190.6</ele><time>2026-03-28T13:08:00.94Z</time></trkpt><trkpt lat="45.4411487" lon="7.6649442"><ele>1190.0</ele><time>2026-03-28T13:08:01.953Z</time></trkpt><trkpt lat="45.4410777" lon="7.6650491"><ele>1190.0</ele><time>2026-03-28T13:08:02.955Z</time></trkpt><trkpt lat="45.44101" lon="7.6651311"><ele>1190.0</ele><time>2026-03-28T13:08:03.949Z</time></trkpt><trkpt lat="45.440933" lon="7.6651933"><ele>1190.0</ele><time>2026-03-28T13:08:05.029Z</time></trkpt><trkpt lat="45.4408447" lon="7.6652375"><ele>1190.0</ele><time>2026-03-28T13:08:06.017Z</time></trkpt><trkpt lat="45.4407532" lon="7.6652836"><ele>1190.0</ele><time>2026-03-28T13:08:06.95Z</time></trkpt><trkpt lat="45.4406635" lon="7.6653155"><ele>1185.8</ele><time>2026-03-28T13:08:07.942Z</time></trkpt><trkpt lat="45.4405718" lon="7.6653337"><ele>1181.6</ele><time>2026-03-28T13:08:08.964Z</time></trkpt><trkpt lat="45.4404761" lon="7.6653395"><ele>1177.4</ele><time>2026-03-28T13:08:09.97Z</time></trkpt><trkpt lat="45.4403804" lon="7.6653333"><ele>1173.2</ele><time>2026-03-28T13:08:10.963Z</time></trkpt><trkpt lat="45.4402904" lon="7.6653163"><ele>1169.0</ele><time>2026-03-28T13:08:11.948Z</time></trkpt><trkpt lat="45.4402174" lon="7.665283"><ele>1170.4</ele><time>2026-03-28T13:08:13.02Z</time></trkpt><trkpt lat="45.4401163" lon="7.6652009"><ele>1171.8000000000002</ele><time>2026-03-28T13:08:14.976Z</time></trkpt><trkpt lat="45.4400921" lon="7.6652936"><ele>1173.1999999999998</ele><time>2026-03-28T13:08:17.938Z</time></trkpt><trkpt lat="45.4401805" lon="7.6654278"><ele>1174.6</ele><time>2026-03-28T13:08:20.007Z</time></trkpt><trkpt lat="45.4402493" lon="7.6654827"><ele>1176.0</ele><time>2026-03-28T13:08:21.015Z</time></trkpt><trkpt lat="45.4403266" lon="7.6655433"><ele>1174.6</ele><time>2026-03-28T13:08:21.949Z</time></trkpt><trkpt lat="45.4404114" lon="7.6656033"><ele>1173.1999999999998</ele><time>2026-03-28T13:08:22.956Z</time></trkpt><trkpt lat="45.4405068" lon="7.6656555"><ele>1171.8000000000002</ele><time>2026-03-28T13:08:23.954Z</time></trkpt><trkpt lat="45.4406131" lon="7.6657106"><ele>1170.4</ele><time>2026-03-28T13:08:24.953Z</time></trkpt><trkpt lat="45.4407337" lon="7.665766"><ele>1169.0</ele><time>2026-03-28T13:08:25.946Z</time></trkpt><trkpt lat="45.4408678" lon="7.6658079"><ele>1169.0</ele><time>2026-03-28T13:08:26.936Z</time></trkpt><trkpt lat="45.4409949" lon="7.6658464"><ele>1169.0</ele><time>2026-03-28T13:08:27.948Z</time></trkpt><trkpt lat="45.4411165" lon="7.6658816"><ele>1169.0</ele><time>2026-03-28T13:08:28.966Z</time></trkpt><trkpt lat="45.4412422" lon="7.6659181"><ele>1169.0</ele><time>2026-03-28T13:08:29.952Z</time></trkpt><trkpt lat="45.4413628" lon="7.6659591"><ele>1169.0</ele><time>2026-03-28T13:08:31.015Z</time></trkpt><trkpt lat="45.441479" lon="7.6660075"><ele>1169.0</ele><time>2026-03-28T13:08:31.956Z</time></trkpt><trkpt lat="45.4415942" lon="7.6660663"><ele>1169.0</ele><time>2026-03-28T13:08:32.948Z</time></trkpt><trkpt lat="45.441702" lon="7.6661427"><ele>1169.0</ele><time>2026-03-28T13:08:33.944Z</time></trkpt><trkpt lat="45.4418042" lon="7.6662355"><ele>1165.0</ele><time>2026-03-28T13:08:34.949Z</time></trkpt><trkpt lat="45.441886" lon="7.6663445"><ele>1161.0</ele><time>2026-03-28T13:08:35.955Z</time></trkpt><trkpt lat="45.4419652" lon="7.6664328"><ele>1157.0</ele><time>2026-03-28T13:08:36.948Z</time></trkpt><trkpt lat="45.442043" lon="7.6665074"><ele>1153.0</ele><time>2026-03-28T13:08:37.955Z</time></trkpt><trkpt lat="45.4421122" lon="7.6665777"><ele>1149.0</ele><time>2026-03-28T13:08:38.94Z</time></trkpt><trkpt lat="45.4421855" lon="7.6666121"><ele>1148.2</ele><time>2026-03-28T13:08:39.954Z</time></trkpt><trkpt lat="45.4422698" lon="7.6666157"><ele>1147.4</ele><time>2026-03-28T13:08:40.954Z</time></trkpt><trkpt lat="45.442367" lon="7.6665912"><ele>1146.6</ele><time>2026-03-28T13:08:41.953Z</time></trkpt><trkpt lat="45.44247" lon="7.6665438"><ele>1145.8</ele><time>2026-03-28T13:08:42.946Z</time></trkpt><trkpt lat="45.4425753" lon="7.6664926"><ele>1145.0</ele><time>2026-03-28T13:08:44.04Z</time></trkpt><trkpt lat="45.4426848" lon="7.6664424"><ele>1145.0</ele><time>2026-03-28T13:08:45.021Z</time></trkpt><trkpt lat="45.4427777" lon="7.6664142"><ele>1145.0</ele><time>2026-03-28T13:08:46.047Z</time></trkpt><trkpt lat="45.4428713" lon="7.6664087"><ele>1145.0</ele><time>2026-03-28T13:08:46.967Z</time></trkpt><trkpt lat="45.4429501" lon="7.6664261"><ele>1145.0</ele><time>2026-03-28T13:08:48.047Z</time></trkpt><trkpt lat="45.4430108" lon="7.6664833"><ele>1145.0</ele><time>2026-03-28T13:08:49.034Z</time></trkpt><trkpt lat="45.4430524" lon="7.6665734"><ele>1145.0</ele><time>2026-03-28T13:08:49.966Z</time></trkpt><trkpt lat="45.4430792" lon="7.6666744"><ele>1143.3333333333335</ele><time>2026-03-28T13:08:50.964Z</time></trkpt><trkpt lat="45.4430973" lon="7.6667787"><ele>1141.6666666666667</ele><time>2026-03-28T13:08:51.976Z</time></trkpt><trkpt lat="45.4431231" lon="7.6668749"><ele>1140.0</ele><time>2026-03-28T13:08:52.974Z</time></trkpt><trkpt lat="45.4431627" lon="7.6669461"><ele>1138.3333333333333</ele><time>2026-03-28T13:08:54.029Z</time></trkpt><trkpt lat="45.4432313" lon="7.6669987"><ele>1136.6666666666665</ele><time>2026-03-28T13:08:54.985Z</time></trkpt><trkpt lat="45.4433228" lon="7.667036"><ele>1135.0</ele><time>2026-03-28T13:08:56.029Z</time></trkpt><trkpt lat="45.4434461" lon="7.6670767"><ele>1132.25</ele><time>2026-03-28T13:08:56.972Z</time></trkpt><trkpt lat="45.4435761" lon="7.6671236"><ele>1129.5</ele><time>2026-03-28T13:08:57.975Z</time></trkpt><trkpt lat="45.443715" lon="7.6671857"><ele>1126.75</ele><time>2026-03-28T13:08:58.994Z</time></trkpt><trkpt lat="45.4438502" lon="7.6672346"><ele>1124.0</ele><time>2026-03-28T13:09:00.034Z</time></trkpt><trkpt lat="45.4439838" lon="7.6672884"><ele>1123.5</ele><time>2026-03-28T13:09:01.034Z</time></trkpt><trkpt lat="45.444112" lon="7.6673508"><ele>1123.0</ele><time>2026-03-28T13:09:01.979Z</time></trkpt><trkpt lat="45.4442225" lon="7.6674382"><ele>1122.5</ele><time>2026-03-28T13:09:02.963Z</time></trkpt><trkpt lat="45.4443254" lon="7.667529"><ele>1122.0</ele><time>2026-03-28T13:09:04.002Z</time></trkpt><trkpt lat="45.4444328" lon="7.6676194"><ele>1122.0</ele><time>2026-03-28T13:09:04.976Z</time></trkpt><trkpt lat="45.4445397" lon="7.6676969"><ele>1122.0</ele><time>2026-03-28T13:09:05.965Z</time></trkpt><trkpt lat="45.4446447" lon="7.6677594"><ele>1122.0</ele><time>2026-03-28T13:09:06.96Z</time></trkpt><trkpt lat="45.4447563" lon="7.6678095"><ele>1122.0</ele><time>2026-03-28T13:09:07.96Z</time></trkpt><trkpt lat="45.4448546" lon="7.6678414"><ele>1119.2</ele><time>2026-03-28T13:09:08.958Z</time></trkpt><trkpt lat="45.4449356" lon="7.6678765"><ele>1116.4</ele><time>2026-03-28T13:09:09.955Z</time></trkpt><trkpt lat="45.4450045" lon="7.6679073"><ele>1113.6</ele><time>2026-03-28T13:09:10.969Z</time></trkpt><trkpt lat="45.4450465" lon="7.6680528"><ele>1110.8</ele><time>2026-03-28T13:09:12.96Z</time></trkpt><trkpt lat="45.4449505" lon="7.6681327"><ele>1108.0</ele><time>2026-03-28T13:09:14.973Z</time></trkpt><trkpt lat="45.4448658" lon="7.668158"><ele>1108.0</ele><time>2026-03-28T13:09:15.964Z</time></trkpt><trkpt lat="45.4447629" lon="7.6681933"><ele>1108.0</ele><time>2026-03-28T13:09:16.964Z</time></trkpt><trkpt lat="45.4446564" lon="7.6682141"><ele>1108.0</ele><time>2026-03-28T13:09:17.961Z</time></trkpt><trkpt lat="45.444558" lon="7.6682281"><ele>1108.0</ele><time>2026-03-28T13:09:18.961Z</time></trkpt><trkpt lat="45.4444593" lon="7.6682222"><ele>1108.0</ele><time>2026-03-28T13:09:19.964Z</time></trkpt><trkpt lat="45.4443606" lon="7.6681914"><ele>1107.4</ele><time>2026-03-28T13:09:20.963Z</time></trkpt><trkpt lat="45.4442607" lon="7.6681513"><ele>1106.8</ele><time>2026-03-28T13:09:21.957Z</time></trkpt><trkpt lat="45.4441584" lon="7.6681347"><ele>1106.2</ele><time>2026-03-28T13:09:22.957Z</time></trkpt><trkpt lat="45.4440601" lon="7.6681374"><ele>1105.6</ele><time>2026-03-28T13:09:23.978Z</time></trkpt><trkpt lat="45.4439877" lon="7.6681543"><ele>1105.0</ele><time>2026-03-28T13:09:24.964Z</time></trkpt><trkpt lat="45.4439019" lon="7.6682021"><ele>1105.0</ele><time>2026-03-28T13:09:26.974Z</time></trkpt><trkpt lat="45.4439632" lon="7.6682798"><ele>1105.0</ele><time>2026-03-28T13:09:29.96Z</time></trkpt><trkpt lat="45.4440316" lon="7.6683217"><ele>1105.0</ele><time>2026-03-28T13:09:30.966Z</time></trkpt><trkpt lat="45.4441271" lon="7.6683655"><ele>1105.0</ele><time>2026-03-28T13:09:31.962Z</time></trkpt><trkpt lat="45.4442376" lon="7.6684252"><ele>1105.0</ele><time>2026-03-28T13:09:32.961Z</time></trkpt><trkpt lat="45.4443445" lon="7.668498"><ele>1105.0</ele><time>2026-03-28T13:09:33.96Z</time></trkpt><trkpt lat="45.4444298" lon="7.6685755"><ele>1105.0</ele><time>2026-03-28T13:09:34.97Z</time></trkpt><trkpt lat="45.4445025" lon="7.6686389"><ele>1105.0</ele><time>2026-03-28T13:09:35.964Z</time></trkpt><trkpt lat="45.4445761" lon="7.6686731"><ele>1105.0</ele><time>2026-03-28T13:09:36.962Z</time></trkpt><trkpt lat="45.4446468" lon="7.6686863"><ele>1105.0</ele><time>2026-03-28T13:09:37.969Z</time></trkpt><trkpt lat="45.4447262" lon="7.6686945"><ele>1105.0</ele><time>2026-03-28T13:09:38.967Z</time></trkpt><trkpt lat="45.4447999" lon="7.6686979"><ele>1102.6666666666665</ele><time>2026-03-28T13:09:39.966Z</time></trkpt><trkpt lat="45.4448765" lon="7.6686994"><ele>1100.3333333333333</ele><time>2026-03-28T13:09:40.966Z</time></trkpt><trkpt lat="45.4449523" lon="7.6687071"><ele>1098.0</ele><time>2026-03-28T13:09:41.963Z</time></trkpt><trkpt lat="45.4450247" lon="7.6687289"><ele>1095.6666666666667</ele><time>2026-03-28T13:09:42.955Z</time></trkpt><trkpt lat="45.4451006" lon="7.6687729"><ele>1093.3333333333335</ele><time>2026-03-28T13:09:43.971Z</time></trkpt><trkpt lat="45.4451763" lon="7.6688225"><ele>1091.0</ele><time>2026-03-28T13:09:44.964Z</time></trkpt><trkpt lat="45.445229" lon="7.6688944"><ele>1091.0</ele><time>2026-03-28T13:09:45.972Z</time></trkpt><trkpt lat="45.4452746" lon="7.6689718"><ele>1091.0</ele><time>2026-03-28T13:09:46.977Z</time></trkpt><trkpt lat="45.4453048" lon="7.6690521"><ele>1091.0</ele><time>2026-03-28T13:09:47.973Z</time></trkpt><trkpt lat="45.4453687" lon="7.6691889"><ele>1091.0</ele><time>2026-03-28T13:09:49.966Z</time></trkpt><trkpt lat="45.4454071" lon="7.6692607"><ele>1091.0</ele><time>2026-03-28T13:09:50.971Z</time></trkpt><trkpt lat="45.4454896" lon="7.6693652"><ele>1091.0</ele><time>2026-03-28T13:09:52.971Z</time></trkpt><trkpt lat="45.4455704" lon="7.6694225"><ele>1092.6666666666667</ele><time>2026-03-28T13:09:54.96Z</time></trkpt><trkpt lat="45.4456342" lon="7.6694323"><ele>1094.3333333333335</ele><time>2026-03-28T13:09:56.978Z</time></trkpt><trkpt lat="45.4457432" lon="7.6693768"><ele>1096.0</ele><time>2026-03-28T13:09:58.979Z</time></trkpt><trkpt lat="45.445811" lon="7.6693402"><ele>1097.6666666666667</ele><time>2026-03-28T13:09:59.969Z</time></trkpt><trkpt lat="45.4458852" lon="7.6693068"><ele>1099.3333333333333</ele><time>2026-03-28T13:10:00.96Z</time></trkpt><trkpt lat="45.4459474" lon="7.6692589"><ele>1101.0</ele><time>2026-03-28T13:10:01.954Z</time></trkpt><trkpt lat="45.4459984" lon="7.6691764"><ele>1101.0</ele><time>2026-03-28T13:10:02.967Z</time></trkpt><trkpt lat="45.4460386" lon="7.669092"><ele>1101.0</ele><time>2026-03-28T13:10:03.972Z</time></trkpt><trkpt lat="45.4460699" lon="7.6690062"><ele>1101.0</ele><time>2026-03-28T13:10:04.971Z</time></trkpt><trkpt lat="45.44609" lon="7.6689112"><ele>1101.0</ele><time>2026-03-28T13:10:05.975Z</time></trkpt><trkpt lat="45.4461078" lon="7.6688134"><ele>1101.0</ele><time>2026-03-28T13:10:06.971Z</time></trkpt><trkpt lat="45.4461128" lon="7.6687001"><ele>1101.0</ele><time>2026-03-28T13:10:07.972Z</time></trkpt><trkpt lat="45.4461102" lon="7.6685856"><ele>1101.0</ele><time>2026-03-28T13:10:08.969Z</time></trkpt><trkpt lat="45.4461023" lon="7.6684672"><ele>1101.1666666666667</ele><time>2026-03-28T13:10:09.973Z</time></trkpt><trkpt lat="45.4460833" lon="7.6683434"><ele>1101.3333333333333</ele><time>2026-03-28T13:10:10.98Z</time></trkpt><trkpt lat="45.4460595" lon="7.6682245"><ele>1101.5</ele><time>2026-03-28T13:10:11.964Z</time></trkpt><trkpt lat="45.4460446" lon="7.6681046"><ele>1101.6666666666665</ele><time>2026-03-28T13:10:12.966Z</time></trkpt><trkpt lat="45.4460296" lon="7.6680129"><ele>1101.8333333333333</ele><time>2026-03-28T13:10:13.966Z</time></trkpt><trkpt lat="45.4460154" lon="7.6678624"><ele>1102.0</ele><time>2026-03-28T13:10:15.964Z</time></trkpt><trkpt lat="45.4460458" lon="7.6677306"><ele>1102.3333333333333</ele><time>2026-03-28T13:10:17.977Z</time></trkpt><trkpt lat="45.4460981" lon="7.6676668"><ele>1102.6666666666665</ele><time>2026-03-28T13:10:19.968Z</time></trkpt><trkpt lat="45.4462182" lon="7.6677058"><ele>1103.0</ele><time>2026-03-28T13:10:21.969Z</time></trkpt><trkpt lat="45.4462974" lon="7.6677136"><ele>1103.3333333333333</ele><time>2026-03-28T13:10:22.959Z</time></trkpt><trkpt lat="45.4463697" lon="7.6677199"><ele>1103.6666666666667</ele><time>2026-03-28T13:10:23.965Z</time></trkpt><trkpt lat="45.4464361" lon="7.667711"><ele>1104.0</ele><time>2026-03-28T13:10:24.972Z</time></trkpt><trkpt lat="45.4465461" lon="7.6677084"><ele>1102.5</ele><time>2026-03-28T13:10:26.969Z</time></trkpt><trkpt lat="45.446627" lon="7.6676356"><ele>1101.0</ele><time>2026-03-28T13:10:28.969Z</time></trkpt><trkpt lat="45.4466757" lon="7.6675636"><ele>1099.5</ele><time>2026-03-28T13:10:29.963Z</time></trkpt><trkpt lat="45.4467555" lon="7.667423"><ele>1098.0</ele><time>2026-03-28T13:10:31.972Z</time></trkpt><trkpt lat="45.4468136" lon="7.6673519"><ele>1096.5</ele><time>2026-03-28T13:10:32.963Z</time></trkpt><trkpt lat="45.4468678" lon="7.6672893"><ele>1095.0</ele><time>2026-03-28T13:10:33.966Z</time></trkpt><trkpt lat="45.4469101" lon="7.6672173"><ele>1095.0</ele><time>2026-03-28T13:10:34.97Z</time></trkpt><trkpt lat="45.4469504" lon="7.6671415"><ele>1095.0</ele><time>2026-03-28T13:10:35.968Z</time></trkpt><trkpt lat="45.447004" lon="7.6670448"><ele>1095.0</ele><time>2026-03-28T13:10:36.974Z</time></trkpt><trkpt lat="45.4470548" lon="7.6669521"><ele>1095.0</ele><time>2026-03-28T13:10:37.974Z</time></trkpt><trkpt lat="45.4471002" lon="7.666848"><ele>1095.0</ele><time>2026-03-28T13:10:38.964Z</time></trkpt><trkpt lat="45.4471496" lon="7.6667187"><ele>1095.0</ele><time>2026-03-28T13:10:39.968Z</time></trkpt><trkpt lat="45.4471973" lon="7.6665799"><ele>1094.8</ele><time>2026-03-28T13:10:40.971Z</time></trkpt><trkpt lat="45.4472395" lon="7.6664409"><ele>1094.6</ele><time>2026-03-28T13:10:41.968Z</time></trkpt><trkpt lat="45.4472826" lon="7.6663315"><ele>1094.4</ele><time>2026-03-28T13:10:42.969Z</time></trkpt><trkpt lat="45.4473319" lon="7.6662464"><ele>1094.2</ele><time>2026-03-28T13:10:43.956Z</time></trkpt><trkpt lat="45.4473904" lon="7.6661663"><ele>1094.0</ele><time>2026-03-28T13:10:44.961Z</time></trkpt><trkpt lat="45.4474647" lon="7.6660546"><ele>1099.0</ele><time>2026-03-28T13:10:45.974Z</time></trkpt><trkpt lat="45.4475474" lon="7.6659192"><ele>1104.0</ele><time>2026-03-28T13:10:46.969Z</time></trkpt><trkpt lat="45.4476329" lon="7.6657985"><ele>1109.0</ele><time>2026-03-28T13:10:47.965Z</time></trkpt><trkpt lat="45.4477146" lon="7.6656877"><ele>1114.0</ele><time>2026-03-28T13:10:48.965Z</time></trkpt><trkpt lat="45.4477785" lon="7.6655812"><ele>1114.0</ele><time>2026-03-28T13:10:49.968Z</time></trkpt><trkpt lat="45.4478212" lon="7.6654958"><ele>1114.0</ele><time>2026-03-28T13:10:50.976Z</time></trkpt><trkpt lat="45.4478729" lon="7.6653657"><ele>1114.0</ele><time>2026-03-28T13:10:52.969Z</time></trkpt><trkpt lat="45.4479238" lon="7.665298"><ele>1114.0</ele><time>2026-03-28T13:10:54.968Z</time></trkpt><trkpt lat="45.4480004" lon="7.6653099"><ele>1114.0</ele><time>2026-03-28T13:10:56.97Z</time></trkpt><trkpt lat="45.4480651" lon="7.6654041"><ele>1114.0</ele><time>2026-03-28T13:10:58.968Z</time></trkpt><trkpt lat="45.4480918" lon="7.6655001"><ele>1115.3333333333333</ele><time>2026-03-28T13:10:59.968Z</time></trkpt><trkpt lat="45.4481006" lon="7.6656033"><ele>1116.6666666666665</ele><time>2026-03-28T13:11:00.968Z</time></trkpt><trkpt lat="45.4481063" lon="7.665706"><ele>1118.0</ele><time>2026-03-28T13:11:01.962Z</time></trkpt><trkpt lat="45.4480805" lon="7.6658835"><ele>1119.3333333333333</ele><time>2026-03-28T13:11:03.968Z</time></trkpt><trkpt lat="45.4480659" lon="7.6659788"><ele>1120.6666666666667</ele><time>2026-03-28T13:11:04.955Z</time></trkpt><trkpt lat="45.4480558" lon="7.6660824"><ele>1122.0</ele><time>2026-03-28T13:11:05.97Z</time></trkpt><trkpt lat="45.4480508" lon="7.6661797"><ele>1122.0</ele><time>2026-03-28T13:11:06.969Z</time></trkpt><trkpt lat="45.4480491" lon="7.6662939"><ele>1122.0</ele><time>2026-03-28T13:11:07.966Z</time></trkpt><trkpt lat="45.4480476" lon="7.6664031"><ele>1122.0</ele><time>2026-03-28T13:11:08.974Z</time></trkpt><trkpt lat="45.4480459" lon="7.6665159"><ele>1122.0</ele><time>2026-03-28T13:11:09.972Z</time></trkpt><trkpt lat="45.4480477" lon="7.6666357"><ele>1122.0</ele><time>2026-03-28T13:11:10.968Z</time></trkpt><trkpt lat="45.4480451" lon="7.6667557"><ele>1122.0</ele><time>2026-03-28T13:11:11.969Z</time></trkpt><trkpt lat="45.4480443" lon="7.666865"><ele>1120.0</ele><time>2026-03-28T13:11:12.968Z</time></trkpt><trkpt lat="45.4480442" lon="7.6669674"><ele>1118.0</ele><time>2026-03-28T13:11:13.968Z</time></trkpt><trkpt lat="45.4480384" lon="7.6670693"><ele>1116.0</ele><time>2026-03-28T13:11:14.969Z</time></trkpt><trkpt lat="45.4480382" lon="7.667193"><ele>1114.0</ele><time>2026-03-28T13:11:15.964Z</time></trkpt><trkpt lat="45.4480513" lon="7.6673033"><ele>1112.0</ele><time>2026-03-28T13:11:16.964Z</time></trkpt><trkpt lat="45.4480723" lon="7.667413"><ele>1110.0</ele><time>2026-03-28T13:11:17.966Z</time></trkpt><trkpt lat="45.4480916" lon="7.6675214"><ele>1110.0</ele><time>2026-03-28T13:11:18.964Z</time></trkpt><trkpt lat="45.4481167" lon="7.6676257"><ele>1110.0</ele><time>2026-03-28T13:11:19.969Z</time></trkpt><trkpt lat="45.4481438" lon="7.6677335"><ele>1110.0</ele><time>2026-03-28T13:11:20.966Z</time></trkpt><trkpt lat="45.4481833" lon="7.6678289"><ele>1110.0</ele><time>2026-03-28T13:11:21.968Z</time></trkpt><trkpt lat="45.4482214" lon="7.6679391"><ele>1110.0</ele><time>2026-03-28T13:11:22.96Z</time></trkpt><trkpt lat="45.4482574" lon="7.6680539"><ele>1110.0</ele><time>2026-03-28T13:11:23.958Z</time></trkpt><trkpt lat="45.4482961" lon="7.6681593"><ele>1106.8333333333333</ele><time>2026-03-28T13:11:24.97Z</time></trkpt><trkpt lat="45.4483377" lon="7.6682643"><ele>1103.6666666666667</ele><time>2026-03-28T13:11:25.966Z</time></trkpt><trkpt lat="45.4483689" lon="7.6683728"><ele>1100.5</ele><time>2026-03-28T13:11:26.977Z</time></trkpt><trkpt lat="45.4484057" lon="7.6684769"><ele>1097.3333333333335</ele><time>2026-03-28T13:11:27.96Z</time></trkpt><trkpt lat="45.4484402" lon="7.6685846"><ele>1094.1666666666667</ele><time>2026-03-28T13:11:28.976Z</time></trkpt><trkpt lat="45.4484741" lon="7.6686981"><ele>1091.0</ele><time>2026-03-28T13:11:29.976Z</time></trkpt><trkpt lat="45.4484996" lon="7.6688085"><ele>1089.3333333333335</ele><time>2026-03-28T13:11:30.971Z</time></trkpt><trkpt lat="45.4485236" lon="7.6689139"><ele>1087.6666666666667</ele><time>2026-03-28T13:11:31.967Z</time></trkpt><trkpt lat="45.4485527" lon="7.6690407"><ele>1086.0</ele><time>2026-03-28T13:11:32.968Z</time></trkpt><trkpt lat="45.4485775" lon="7.6691332"><ele>1084.3333333333333</ele><time>2026-03-28T13:11:33.972Z</time></trkpt><trkpt lat="45.4486067" lon="7.6692248"><ele>1082.6666666666665</ele><time>2026-03-28T13:11:34.977Z</time></trkpt><trkpt lat="45.4486486" lon="7.669307"><ele>1081.0</ele><time>2026-03-28T13:11:35.968Z</time></trkpt><trkpt lat="45.4486914" lon="7.6693929"><ele>1078.3333333333333</ele><time>2026-03-28T13:11:36.977Z</time></trkpt><trkpt lat="45.4487308" lon="7.6694731"><ele>1075.6666666666665</ele><time>2026-03-28T13:11:37.971Z</time></trkpt><trkpt lat="45.4487723" lon="7.6695484"><ele>1073.0</ele><time>2026-03-28T13:11:38.971Z</time></trkpt><trkpt lat="45.4488336" lon="7.669701"><ele>1070.3333333333333</ele><time>2026-03-28T13:11:40.978Z</time></trkpt><trkpt lat="45.448849" lon="7.6697891"><ele>1067.6666666666667</ele><time>2026-03-28T13:11:41.971Z</time></trkpt><trkpt lat="45.4488633" lon="7.6699115"><ele>1065.0</ele><time>2026-03-28T13:11:42.96Z</time></trkpt><trkpt lat="45.4488875" lon="7.6700384"><ele>1070.4</ele><time>2026-03-28T13:11:43.963Z</time></trkpt><trkpt lat="45.4489248" lon="7.6701708"><ele>1075.8</ele><time>2026-03-28T13:11:44.968Z</time></trkpt><trkpt lat="45.448963" lon="7.6702851"><ele>1081.2</ele><time>2026-03-28T13:11:45.97Z</time></trkpt><trkpt lat="45.4490158" lon="7.6703986"><ele>1086.6</ele><time>2026-03-28T13:11:46.963Z</time></trkpt><trkpt lat="45.4490801" lon="7.6704999"><ele>1092.0</ele><time>2026-03-28T13:11:47.965Z</time></trkpt><trkpt lat="45.4491556" lon="7.6705867"><ele>1092.0</ele><time>2026-03-28T13:11:48.969Z</time></trkpt><trkpt lat="45.449236" lon="7.6706564"><ele>1092.0</ele><time>2026-03-28T13:11:49.965Z</time></trkpt><trkpt lat="45.449303" lon="7.6707312"><ele>1092.0</ele><time>2026-03-28T13:11:50.97Z</time></trkpt><trkpt lat="45.4493637" lon="7.6708076"><ele>1092.0</ele><time>2026-03-28T13:11:51.968Z</time></trkpt><trkpt lat="45.4494113" lon="7.670896"><ele>1092.0</ele><time>2026-03-28T13:11:52.973Z</time></trkpt><trkpt lat="45.4494328" lon="7.6710071"><ele>1092.0</ele><time>2026-03-28T13:11:53.971Z</time></trkpt><trkpt lat="45.4494245" lon="7.6711578"><ele>1089.0</ele><time>2026-03-28T13:11:54.974Z</time></trkpt><trkpt lat="45.4494166" lon="7.6713154"><ele>1086.0</ele><time>2026-03-28T13:11:55.97Z</time></trkpt><trkpt lat="45.4494338" lon="7.6714609"><ele>1083.0</ele><time>2026-03-28T13:11:56.976Z</time></trkpt><trkpt lat="45.4494568" lon="7.671611"><ele>1080.0</ele><time>2026-03-28T13:11:57.971Z</time></trkpt><trkpt lat="45.4494856" lon="7.6717647"><ele>1077.0</ele><time>2026-03-28T13:11:58.975Z</time></trkpt><trkpt lat="45.4495094" lon="7.6719147"><ele>1074.6</ele><time>2026-03-28T13:11:59.976Z</time></trkpt><trkpt lat="45.4495217" lon="7.6720663"><ele>1072.2</ele><time>2026-03-28T13:12:00.975Z</time></trkpt><trkpt lat="45.4495332" lon="7.6722007"><ele>1069.8</ele><time>2026-03-28T13:12:01.978Z</time></trkpt><trkpt lat="45.4495468" lon="7.6723178"><ele>1067.4</ele><time>2026-03-28T13:12:02.97Z</time></trkpt><trkpt lat="45.4495427" lon="7.6724345"><ele>1065.0</ele><time>2026-03-28T13:12:03.958Z</time></trkpt><trkpt lat="45.4495161" lon="7.6725564"><ele>1065.0</ele><time>2026-03-28T13:12:04.968Z</time></trkpt><trkpt lat="45.4494759" lon="7.6726638"><ele>1065.0</ele><time>2026-03-28T13:12:06.046Z</time></trkpt><trkpt lat="45.4494285" lon="7.6727825"><ele>1065.0</ele><time>2026-03-28T13:12:06.957Z</time></trkpt><trkpt lat="45.4493707" lon="7.6728998"><ele>1065.0</ele><time>2026-03-28T13:12:07.969Z</time></trkpt><trkpt lat="45.4493094" lon="7.6730292"><ele>1065.0</ele><time>2026-03-28T13:12:08.971Z</time></trkpt><trkpt lat="45.4492572" lon="7.6731569"><ele>1064.0</ele><time>2026-03-28T13:12:09.973Z</time></trkpt><trkpt lat="45.4492053" lon="7.6732677"><ele>1063.0</ele><time>2026-03-28T13:12:10.969Z</time></trkpt><trkpt lat="45.4491596" lon="7.6733687"><ele>1062.0</ele><time>2026-03-28T13:12:11.972Z</time></trkpt><trkpt lat="45.4491285" lon="7.6735151"><ele>1061.0</ele><time>2026-03-28T13:12:14.048Z</time></trkpt><trkpt lat="45.449196" lon="7.6736731"><ele>1060.0</ele><time>2026-03-28T13:12:16.04Z</time></trkpt><trkpt lat="45.4492508" lon="7.6737343"><ele>1060.6666666666665</ele><time>2026-03-28T13:12:16.962Z</time></trkpt><trkpt lat="45.4493146" lon="7.6737728"><ele>1061.3333333333333</ele><time>2026-03-28T13:12:17.961Z</time></trkpt><trkpt lat="45.4493902" lon="7.673801"><ele>1062.0</ele><time>2026-03-28T13:12:18.97Z</time></trkpt><trkpt lat="45.4494778" lon="7.6738206"><ele>1062.6666666666667</ele><time>2026-03-28T13:12:19.974Z</time></trkpt><trkpt lat="45.449562" lon="7.673848"><ele>1063.3333333333335</ele><time>2026-03-28T13:12:20.973Z</time></trkpt><trkpt lat="45.4496447" lon="7.6739116"><ele>1064.0</ele><time>2026-03-28T13:12:21.967Z</time></trkpt><trkpt lat="45.4497291" lon="7.6739897"><ele>1064.0</ele><time>2026-03-28T13:12:22.957Z</time></trkpt><trkpt lat="45.4498111" lon="7.674081"><ele>1064.0</ele><time>2026-03-28T13:12:24.043Z</time></trkpt><trkpt lat="45.4498966" lon="7.6741758"><ele>1064.0</ele><time>2026-03-28T13:12:25.031Z</time></trkpt><trkpt lat="45.4499842" lon="7.6742747"><ele>1064.0</ele><time>2026-03-28T13:12:26.039Z</time></trkpt><trkpt lat="45.4500612" lon="7.6743641"><ele>1064.0</ele><time>2026-03-28T13:12:26.968Z</time></trkpt><trkpt lat="45.4501398" lon="7.6744452"><ele>1060.6666666666667</ele><time>2026-03-28T13:12:27.978Z</time></trkpt><trkpt lat="45.4502254" lon="7.6745169"><ele>1057.3333333333335</ele><time>2026-03-28T13:12:28.982Z</time></trkpt><trkpt lat="45.4503065" lon="7.6745679"><ele>1054.0</ele><time>2026-03-28T13:12:29.976Z</time></trkpt><trkpt lat="45.4503935" lon="7.6746046"><ele>1050.6666666666667</ele><time>2026-03-28T13:12:30.978Z</time></trkpt><trkpt lat="45.4504728" lon="7.6746291"><ele>1047.3333333333333</ele><time>2026-03-28T13:12:31.969Z</time></trkpt><trkpt lat="45.4505452" lon="7.6746494"><ele>1044.0</ele><time>2026-03-28T13:12:32.971Z</time></trkpt><trkpt lat="45.4506372" lon="7.6747145"><ele>1044.0</ele><time>2026-03-28T13:12:35.036Z</time></trkpt><trkpt lat="45.4506319" lon="7.6748148"><ele>1044.0</ele><time>2026-03-28T13:12:36.971Z</time></trkpt><trkpt lat="45.4505141" lon="7.6748947"><ele>1044.0</ele><time>2026-03-28T13:12:39.052Z</time></trkpt><trkpt lat="45.4504548" lon="7.6749413"><ele>1044.0</ele><time>2026-03-28T13:12:40.048Z</time></trkpt><trkpt lat="45.450393" lon="7.6750201"><ele>1044.0</ele><time>2026-03-28T13:12:41.029Z</time></trkpt><trkpt lat="45.4503226" lon="7.6751056"><ele>1044.0</ele><time>2026-03-28T13:12:41.949Z</time></trkpt><trkpt lat="45.4502426" lon="7.6752025"><ele>1040.5</ele><time>2026-03-28T13:12:42.942Z</time></trkpt><trkpt lat="45.4501601" lon="7.6753075"><ele>1037.0</ele><time>2026-03-28T13:12:43.947Z</time></trkpt><trkpt lat="45.4500855" lon="7.6754225"><ele>1033.5</ele><time>2026-03-28T13:12:44.951Z</time></trkpt><trkpt lat="45.450011" lon="7.6755643"><ele>1030.0</ele><time>2026-03-28T13:12:45.946Z</time></trkpt><trkpt lat="45.4499529" lon="7.6756975"><ele>1030.0</ele><time>2026-03-28T13:12:46.954Z</time></trkpt><trkpt lat="45.4499049" lon="7.6758215"><ele>1030.0</ele><time>2026-03-28T13:12:47.946Z</time></trkpt><trkpt lat="45.4498647" lon="7.6759475"><ele>1030.0</ele><time>2026-03-28T13:12:49.035Z</time></trkpt><trkpt lat="45.4498457" lon="7.6760849"><ele>1030.0</ele><time>2026-03-28T13:12:50.036Z</time></trkpt><trkpt lat="45.4498523" lon="7.6762381"><ele>1030.0</ele><time>2026-03-28T13:12:51.027Z</time></trkpt><trkpt lat="45.4498487" lon="7.6763925"><ele>1026.5</ele><time>2026-03-28T13:12:51.958Z</time></trkpt><trkpt lat="45.4498347" lon="7.6765721"><ele>1023.0</ele><time>2026-03-28T13:12:52.959Z</time></trkpt><trkpt lat="45.4498224" lon="7.676758"><ele>1019.5</ele><time>2026-03-28T13:12:53.947Z</time></trkpt><trkpt lat="45.4498096" lon="7.67694"><ele>1016.0</ele><time>2026-03-28T13:12:54.949Z</time></trkpt><trkpt lat="45.4497919" lon="7.6771149"><ele>1014.5999999999999</ele><time>2026-03-28T13:12:56.017Z</time></trkpt><trkpt lat="45.4497738" lon="7.6772891"><ele>1013.1999999999999</ele><time>2026-03-28T13:12:56.95Z</time></trkpt><trkpt lat="45.449756" lon="7.677443"><ele>1011.8000000000001</ele><time>2026-03-28T13:12:57.958Z</time></trkpt><trkpt lat="45.4497352" lon="7.6775734"><ele>1010.4000000000001</ele><time>2026-03-28T13:12:58.97Z</time></trkpt><trkpt lat="45.4497036" lon="7.677678"><ele>1009.0</ele><time>2026-03-28T13:13:00.032Z</time></trkpt><trkpt lat="45.4496705" lon="7.6777622"><ele>1008.6666666666666</ele><time>2026-03-28T13:13:00.986Z</time></trkpt><trkpt lat="45.4496122" lon="7.677813"><ele>1008.3333333333333</ele><time>2026-03-28T13:13:01.955Z</time></trkpt><trkpt lat="45.4495465" lon="7.6778479"><ele>1008.0</ele><time>2026-03-28T13:13:02.951Z</time></trkpt><trkpt lat="45.4494764" lon="7.6778763"><ele>1007.6666666666667</ele><time>2026-03-28T13:13:03.959Z</time></trkpt><trkpt lat="45.4493693" lon="7.6778914"><ele>1007.3333333333334</ele><time>2026-03-28T13:13:05.953Z</time></trkpt><trkpt lat="45.4493322" lon="7.6777942"><ele>1007.0</ele><time>2026-03-28T13:13:07.962Z</time></trkpt><trkpt lat="45.4493338" lon="7.6776936"><ele>1007.0000000000001</ele><time>2026-03-28T13:13:08.957Z</time></trkpt><trkpt lat="45.4493249" lon="7.6775945"><ele>1007.0</ele><time>2026-03-28T13:13:09.957Z</time></trkpt><trkpt lat="45.449302" lon="7.6774916"><ele>1007.0</ele><time>2026-03-28T13:13:11.021Z</time></trkpt><trkpt lat="45.4492792" lon="7.6773776"><ele>1007.0</ele><time>2026-03-28T13:13:11.954Z</time></trkpt><trkpt lat="45.4492606" lon="7.6772531"><ele>1007.0000000000001</ele><time>2026-03-28T13:13:12.964Z</time></trkpt><trkpt lat="45.4492318" lon="7.6771322"><ele>1007.0</ele><time>2026-03-28T13:13:13.962Z</time></trkpt><trkpt lat="45.4491863" lon="7.6770274"><ele>1007.0000000000001</ele><time>2026-03-28T13:13:14.962Z</time></trkpt><trkpt lat="45.4491326" lon="7.6769378"><ele>1007.0</ele><time>2026-03-28T13:13:15.955Z</time></trkpt><trkpt lat="45.4490795" lon="7.6768642"><ele>1007.0</ele><time>2026-03-28T13:13:16.963Z</time></trkpt><trkpt lat="45.4490279" lon="7.6768019"><ele>1007.0</ele><time>2026-03-28T13:13:17.961Z</time></trkpt><trkpt lat="45.448964" lon="7.6767436"><ele>1007.0000000000001</ele><time>2026-03-28T13:13:18.971Z</time></trkpt><trkpt lat="45.4488949" lon="7.6766952"><ele>1007.0</ele><time>2026-03-28T13:13:19.978Z</time></trkpt><trkpt lat="45.4488169" lon="7.6766565"><ele>1004.4000000000001</ele><time>2026-03-28T13:13:20.951Z</time></trkpt><trkpt lat="45.4487585" lon="7.6766223"><ele>1001.8000000000001</ele><time>2026-03-28T13:13:21.944Z</time></trkpt><trkpt lat="45.4486559" lon="7.6764832"><ele>999.2</ele><time>2026-03-28T13:13:23.953Z</time></trkpt><trkpt lat="45.4486049" lon="7.6763921"><ele>996.6</ele><time>2026-03-28T13:13:24.95Z</time></trkpt><trkpt lat="45.4485405" lon="7.6763064"><ele>994.0</ele><time>2026-03-28T13:13:26.027Z</time></trkpt><trkpt lat="45.4484635" lon="7.6762452"><ele>994.0</ele><time>2026-03-28T13:13:26.944Z</time></trkpt><trkpt lat="45.4483727" lon="7.6761876"><ele>994.0000000000001</ele><time>2026-03-28T13:13:27.96Z</time></trkpt><trkpt lat="45.4482793" lon="7.6761271"><ele>994.0000000000001</ele><time>2026-03-28T13:13:28.979Z</time></trkpt><trkpt lat="45.4481792" lon="7.6760655"><ele>994.0</ele><time>2026-03-28T13:13:30.028Z</time></trkpt><trkpt lat="45.4480869" lon="7.6760132"><ele>994.0</ele><time>2026-03-28T13:13:31.027Z</time></trkpt><trkpt lat="45.4479941" lon="7.675979"><ele>994.2</ele><time>2026-03-28T13:13:31.966Z</time></trkpt><trkpt lat="45.4478942" lon="7.6759491"><ele>994.4000000000001</ele><time>2026-03-28T13:13:32.963Z</time></trkpt><trkpt lat="45.447793" lon="7.6759166"><ele>994.6</ele><time>2026-03-28T13:13:34.002Z</time></trkpt><trkpt lat="45.4476893" lon="7.6758801"><ele>994.8</ele><time>2026-03-28T13:13:35.031Z</time></trkpt><trkpt lat="45.447587" lon="7.6758406"><ele>995.0</ele><time>2026-03-28T13:13:36.039Z</time></trkpt><trkpt lat="45.4474936" lon="7.6758035"><ele>995.0000000000001</ele><time>2026-03-28T13:13:36.961Z</time></trkpt><trkpt lat="45.4474083" lon="7.6757764"><ele>995.0</ele><time>2026-03-28T13:13:37.971Z</time></trkpt><trkpt lat="45.4473412" lon="7.6757311"><ele>995.0</ele><time>2026-03-28T13:13:38.979Z</time></trkpt><trkpt lat="45.4472963" lon="7.6756578"><ele>995.0</ele><time>2026-03-28T13:13:40.025Z</time></trkpt><trkpt lat="45.4472758" lon="7.6755536"><ele>995.0000000000001</ele><time>2026-03-28T13:13:41.031Z</time></trkpt><trkpt lat="45.447269" lon="7.6754303"><ele>995.0</ele><time>2026-03-28T13:13:41.945Z</time></trkpt><trkpt lat="45.4472881" lon="7.6753066"><ele>995.6</ele><time>2026-03-28T13:13:42.947Z</time></trkpt><trkpt lat="45.4472853" lon="7.6752034"><ele>996.2</ele><time>2026-03-28T13:13:43.981Z</time></trkpt><trkpt lat="45.4472792" lon="7.6750398"><ele>996.8</ele><time>2026-03-28T13:13:46.034Z</time></trkpt><trkpt lat="45.4471981" lon="7.6750155"><ele>997.4</ele><time>2026-03-28T13:13:47.939Z</time></trkpt><trkpt lat="45.4471566" lon="7.675179"><ele>998.0</ele><time>2026-03-28T13:13:49.949Z</time></trkpt><trkpt lat="45.4471145" lon="7.6753105"><ele>990.4</ele><time>2026-03-28T13:13:50.949Z</time></trkpt><trkpt lat="45.447062" lon="7.6754387"><ele>982.8</ele><time>2026-03-28T13:13:51.953Z</time></trkpt><trkpt lat="45.4470116" lon="7.6755804"><ele>975.2</ele><time>2026-03-28T13:13:52.957Z</time></trkpt><trkpt lat="45.4469707" lon="7.6757131"><ele>967.6</ele><time>2026-03-28T13:13:53.968Z</time></trkpt><trkpt lat="45.4469503" lon="7.6758421"><ele>960.0</ele><time>2026-03-28T13:13:54.947Z</time></trkpt><trkpt lat="45.4469552" lon="7.675961"><ele>960.0</ele><time>2026-03-28T13:13:55.951Z</time></trkpt><trkpt lat="45.4469618" lon="7.6760937"><ele>960.0</ele><time>2026-03-28T13:13:56.946Z</time></trkpt><trkpt lat="45.4469843" lon="7.6762238"><ele>960.0</ele><time>2026-03-28T13:13:57.946Z</time></trkpt><trkpt lat="45.447013" lon="7.6763535"><ele>960.0</ele><time>2026-03-28T13:13:58.96Z</time></trkpt><trkpt lat="45.4470635" lon="7.6764819"><ele>960.0</ele><time>2026-03-28T13:13:59.949Z</time></trkpt><trkpt lat="45.447115" lon="7.6766084"><ele>959.3333333333334</ele><time>2026-03-28T13:14:01.017Z</time></trkpt><trkpt lat="45.4471718" lon="7.6767081"><ele>958.6666666666667</ele><time>2026-03-28T13:14:01.938Z</time></trkpt><trkpt lat="45.4472342" lon="7.6768078"><ele>958.0</ele><time>2026-03-28T13:14:02.949Z</time></trkpt><trkpt lat="45.4473007" lon="7.6768659"><ele>957.3333333333334</ele><time>2026-03-28T13:14:03.948Z</time></trkpt><trkpt lat="45.4473769" lon="7.6769196"><ele>956.6666666666667</ele><time>2026-03-28T13:14:04.945Z</time></trkpt><trkpt lat="45.4474555" lon="7.6770001"><ele>956.0</ele><time>2026-03-28T13:14:06.948Z</time></trkpt><trkpt lat="45.4473991" lon="7.6770425"><ele>956.0</ele><time>2026-03-28T13:14:08.958Z</time></trkpt><trkpt lat="45.4473318" lon="7.6769963"><ele>955.9999999999999</ele><time>2026-03-28T13:14:09.949Z</time></trkpt><trkpt lat="45.4472397" lon="7.6769474"><ele>955.9999999999999</ele><time>2026-03-28T13:14:10.948Z</time></trkpt><trkpt lat="45.4471387" lon="7.6769081"><ele>956.0</ele><time>2026-03-28T13:14:11.954Z</time></trkpt><trkpt lat="45.4470328" lon="7.6768777"><ele>956.0</ele><time>2026-03-28T13:14:13.047Z</time></trkpt><trkpt lat="45.4469238" lon="7.6768325"><ele>955.5999999999999</ele><time>2026-03-28T13:14:14.028Z</time></trkpt><trkpt lat="45.4468188" lon="7.6767906"><ele>955.1999999999999</ele><time>2026-03-28T13:14:14.944Z</time></trkpt><trkpt lat="45.4467184" lon="7.6767724"><ele>954.8000000000001</ele><time>2026-03-28T13:14:15.95Z</time></trkpt><trkpt lat="45.4466232" lon="7.6767658"><ele>954.4000000000001</ele><time>2026-03-28T13:14:16.944Z</time></trkpt><trkpt lat="45.4465332" lon="7.6767407"><ele>954.0</ele><time>2026-03-28T13:14:17.941Z</time></trkpt><trkpt lat="45.4464394" lon="7.6766933"><ele>954.0</ele><time>2026-03-28T13:14:19.014Z</time></trkpt><trkpt lat="45.4463521" lon="7.6766229"><ele>954.0000000000001</ele><time>2026-03-28T13:14:20.013Z</time></trkpt><trkpt lat="45.4462692" lon="7.6765552"><ele>954.0000000000001</ele><time>2026-03-28T13:14:20.952Z</time></trkpt><trkpt lat="45.4462073" lon="7.6764602"><ele>954.0</ele><time>2026-03-28T13:14:21.956Z</time></trkpt><trkpt lat="45.4461608" lon="7.6763665"><ele>954.0</ele><time>2026-03-28T13:14:22.952Z</time></trkpt><trkpt lat="45.446071" lon="7.6762669"><ele>947.8000000000001</ele><time>2026-03-28T13:14:25.016Z</time></trkpt><trkpt lat="45.4460069" lon="7.6763808"><ele>941.6000000000001</ele><time>2026-03-28T13:14:26.948Z</time></trkpt><trkpt lat="45.4460151" lon="7.6764809"><ele>935.4</ele><time>2026-03-28T13:14:27.95Z</time></trkpt><trkpt lat="45.4460312" lon="7.6765942"><ele>929.2</ele><time>2026-03-28T13:14:28.938Z</time></trkpt><trkpt lat="45.4460669" lon="7.6767249"><ele>923.0</ele><time>2026-03-28T13:14:30.013Z</time></trkpt><trkpt lat="45.4461217" lon="7.6768953"><ele>921.5</ele><time>2026-03-28T13:14:31.023Z</time></trkpt><trkpt lat="45.4461743" lon="7.6770563"><ele>920.0</ele><time>2026-03-28T13:14:31.951Z</time></trkpt><trkpt lat="45.4462377" lon="7.6772056"><ele>918.5</ele><time>2026-03-28T13:14:32.95Z</time></trkpt><trkpt lat="45.4462958" lon="7.6773619"><ele>917.0</ele><time>2026-03-28T13:14:33.98Z</time></trkpt><trkpt lat="45.446347" lon="7.6774824"><ele>918.6</ele><time>2026-03-28T13:14:35.009Z</time></trkpt><trkpt lat="45.4463857" lon="7.6775854"><ele>920.2</ele><time>2026-03-28T13:14:35.949Z</time></trkpt><trkpt lat="45.4464166" lon="7.6776938"><ele>921.8</ele><time>2026-03-28T13:14:36.945Z</time></trkpt><trkpt lat="45.4464263" lon="7.6777903"><ele>923.4</ele><time>2026-03-28T13:14:37.947Z</time></trkpt><trkpt lat="45.4463574" lon="7.6778823"><ele>925.0</ele><time>2026-03-28T13:14:39.949Z</time></trkpt><trkpt lat="45.446245" lon="7.6778044"><ele>923.4</ele><time>2026-03-28T13:14:41.95Z</time></trkpt><trkpt lat="45.4461955" lon="7.6777341"><ele>921.8</ele><time>2026-03-28T13:14:42.956Z</time></trkpt><trkpt lat="45.4460501" lon="7.6777101"><ele>920.2</ele><time>2026-03-28T13:14:45.95Z</time></trkpt><trkpt lat="45.4460242" lon="7.6777937"><ele>918.6</ele><time>2026-03-28T13:14:47.954Z</time></trkpt><trkpt lat="45.4460175" lon="7.6779423"><ele>917.0</ele><time>2026-03-28T13:14:50.047Z</time></trkpt><trkpt lat="45.4460475" lon="7.6780481"><ele>915.4000000000001</ele><time>2026-03-28T13:14:51.012Z</time></trkpt><trkpt lat="45.4460865" lon="7.6781627"><ele>913.8000000000001</ele><time>2026-03-28T13:14:51.953Z</time></trkpt><trkpt lat="45.4461147" lon="7.6782908"><ele>912.2</ele><time>2026-03-28T13:14:52.944Z</time></trkpt><trkpt lat="45.4461378" lon="7.6784467"><ele>910.6</ele><time>2026-03-28T13:14:53.969Z</time></trkpt><trkpt lat="45.4461588" lon="7.6786264"><ele>909.0</ele><time>2026-03-28T13:14:54.95Z</time></trkpt><trkpt lat="45.4461704" lon="7.6787938"><ele>906.8333333333334</ele><time>2026-03-28T13:14:55.956Z</time></trkpt><trkpt lat="45.4461507" lon="7.6789297"><ele>904.6666666666667</ele><time>2026-03-28T13:14:56.948Z</time></trkpt><trkpt lat="45.4461096" lon="7.679051"><ele>902.5</ele><time>2026-03-28T13:14:58.018Z</time></trkpt><trkpt lat="45.4460697" lon="7.6791595"><ele>900.3333333333334</ele><time>2026-03-28T13:14:58.943Z</time></trkpt><trkpt lat="45.4460591" lon="7.6792741"><ele>898.1666666666667</ele><time>2026-03-28T13:14:59.941Z</time></trkpt><trkpt lat="45.4460726" lon="7.6793656"><ele>896.0</ele><time>2026-03-28T13:15:00.938Z</time></trkpt><trkpt lat="45.4461649" lon="7.6794874"><ele>897.0</ele><time>2026-03-28T13:15:02.951Z</time></trkpt><trkpt lat="45.446253" lon="7.6795197"><ele>897.9999999999999</ele><time>2026-03-28T13:15:03.951Z</time></trkpt><trkpt lat="45.4463384" lon="7.6795834"><ele>898.9999999999999</ele><time>2026-03-28T13:15:05.015Z</time></trkpt><trkpt lat="45.4464318" lon="7.6796638"><ele>900.0</ele><time>2026-03-28T13:15:05.953Z</time></trkpt><trkpt lat="45.4465199" lon="7.6797527"><ele>901.0</ele><time>2026-03-28T13:15:06.947Z</time></trkpt><trkpt lat="45.4466077" lon="7.6798352"><ele>901.0</ele><time>2026-03-28T13:15:07.95Z</time></trkpt><trkpt lat="45.4466903" lon="7.6799203"><ele>900.9999999999999</ele><time>2026-03-28T13:15:09.031Z</time></trkpt><trkpt lat="45.4467563" lon="7.6800156"><ele>900.9999999999999</ele><time>2026-03-28T13:15:09.95Z</time></trkpt><trkpt lat="45.4468077" lon="7.6801069"><ele>901.0</ele><time>2026-03-28T13:15:11.017Z</time></trkpt><trkpt lat="45.4468443" lon="7.6802003"><ele>901.0</ele><time>2026-03-28T13:15:11.953Z</time></trkpt><trkpt lat="45.4467986" lon="7.6803378"><ele>894.5</ele><time>2026-03-28T13:15:13.98Z</time></trkpt><trkpt lat="45.44669" lon="7.6804534"><ele>888.0</ele><time>2026-03-28T13:15:16.009Z</time></trkpt><trkpt lat="45.4465882" lon="7.6805209"><ele>881.5</ele><time>2026-03-28T13:15:16.951Z</time></trkpt><trkpt lat="45.4464884" lon="7.6805356"><ele>875.0</ele><time>2026-03-28T13:15:17.943Z</time></trkpt><trkpt lat="45.4463812" lon="7.6805192"><ele>873.0</ele><time>2026-03-28T13:15:18.969Z</time></trkpt><trkpt lat="45.4462664" lon="7.6804635"><ele>871.0</ele><time>2026-03-28T13:15:20.01Z</time></trkpt><trkpt lat="45.4461516" lon="7.6804129"><ele>869.0</ele><time>2026-03-28T13:15:21.015Z</time></trkpt><trkpt lat="45.4460327" lon="7.6803655"><ele>867.0</ele><time>2026-03-28T13:15:21.947Z</time></trkpt><trkpt lat="45.4459147" lon="7.6803262"><ele>867.0</ele><time>2026-03-28T13:15:22.949Z</time></trkpt><trkpt lat="45.4458102" lon="7.6802921"><ele>867.0</ele><time>2026-03-28T13:15:23.975Z</time></trkpt><trkpt lat="45.445712" lon="7.6802629"><ele>867.0</ele><time>2026-03-28T13:15:25.015Z</time></trkpt><trkpt lat="45.4456224" lon="7.6802609"><ele>867.0</ele><time>2026-03-28T13:15:25.956Z</time></trkpt><trkpt lat="45.4455386" lon="7.6802586"><ele>867.0</ele><time>2026-03-28T13:15:26.949Z</time></trkpt><trkpt lat="45.4454567" lon="7.6802598"><ele>866.5</ele><time>2026-03-28T13:15:27.947Z</time></trkpt><trkpt lat="45.4453754" lon="7.6802647"><ele>866.0</ele><time>2026-03-28T13:15:28.946Z</time></trkpt><trkpt lat="45.4452535" lon="7.6802331"><ele>865.5</ele><time>2026-03-28T13:15:31.025Z</time></trkpt><trkpt lat="45.4452035" lon="7.6801695"><ele>865.0</ele><time>2026-03-28T13:15:31.949Z</time></trkpt><trkpt lat="45.4451496" lon="7.6800868"><ele>864.5</ele><time>2026-03-28T13:15:32.959Z</time></trkpt><trkpt lat="45.4450904" lon="7.680022"><ele>864.0</ele><time>2026-03-28T13:15:34.009Z</time></trkpt><trkpt lat="45.4450197" lon="7.6799851"><ele>864.0</ele><time>2026-03-28T13:15:34.944Z</time></trkpt><trkpt lat="45.4449329" lon="7.680064"><ele>864.0000000000001</ele><time>2026-03-28T13:15:36.95Z</time></trkpt><trkpt lat="45.4449278" lon="7.6801851"><ele>864.0000000000001</ele><time>2026-03-28T13:15:37.948Z</time></trkpt><trkpt lat="45.4449449" lon="7.680301"><ele>864.0</ele><time>2026-03-28T13:15:38.949Z</time></trkpt><trkpt lat="45.4449907" lon="7.6804187"><ele>864.0</ele><time>2026-03-28T13:15:40.008Z</time></trkpt><trkpt lat="45.4450393" lon="7.6805416"><ele>862.25</ele><time>2026-03-28T13:15:41.021Z</time></trkpt><trkpt lat="45.4451028" lon="7.680685"><ele>860.5</ele><time>2026-03-28T13:15:41.952Z</time></trkpt><trkpt lat="45.4451717" lon="7.6808208"><ele>858.75</ele><time>2026-03-28T13:15:42.937Z</time></trkpt><trkpt lat="45.4452315" lon="7.6809601"><ele>857.0</ele><time>2026-03-28T13:15:43.963Z</time></trkpt><trkpt lat="45.445298" lon="7.6811076"><ele>856.0</ele><time>2026-03-28T13:15:44.943Z</time></trkpt><trkpt lat="45.4453702" lon="7.6812405"><ele>855.0</ele><time>2026-03-28T13:15:45.943Z</time></trkpt><trkpt lat="45.4454456" lon="7.6813497"><ele>854.0</ele><time>2026-03-28T13:15:46.946Z</time></trkpt><trkpt lat="45.445523" lon="7.6814463"><ele>853.0</ele><time>2026-03-28T13:15:48.025Z</time></trkpt><trkpt lat="45.4455997" lon="7.681511"><ele>852.0</ele><time>2026-03-28T13:15:49.018Z</time></trkpt><trkpt lat="45.4456837" lon="7.681578"><ele>852.0</ele><time>2026-03-28T13:15:50.02Z</time></trkpt><trkpt lat="45.4457707" lon="7.6816632"><ele>852.0</ele><time>2026-03-28T13:15:51.013Z</time></trkpt><trkpt lat="45.445853" lon="7.6817641"><ele>852.0</ele><time>2026-03-28T13:15:51.949Z</time></trkpt><trkpt lat="45.4459007" lon="7.6818638"><ele>852.0</ele><time>2026-03-28T13:15:52.947Z</time></trkpt><trkpt lat="45.4459315" lon="7.6819707"><ele>852.0</ele><time>2026-03-28T13:15:53.977Z</time></trkpt><trkpt lat="45.4459581" lon="7.6820936"><ele>850.1666666666666</ele><time>2026-03-28T13:15:55.009Z</time></trkpt><trkpt lat="45.4459575" lon="7.6822064"><ele>848.3333333333333</ele><time>2026-03-28T13:15:56.033Z</time></trkpt><trkpt lat="45.4459286" lon="7.6823004"><ele>846.5</ele><time>2026-03-28T13:15:56.942Z</time></trkpt><trkpt lat="45.4458725" lon="7.6823695"><ele>844.6666666666666</ele><time>2026-03-28T13:15:57.952Z</time></trkpt><trkpt lat="45.4457865" lon="7.6824001"><ele>842.8333333333333</ele><time>2026-03-28T13:15:58.977Z</time></trkpt><trkpt lat="45.4456963" lon="7.6824052"><ele>841.0</ele><time>2026-03-28T13:16:00.007Z</time></trkpt><trkpt lat="45.4456006" lon="7.682388"><ele>841.0</ele><time>2026-03-28T13:16:01.007Z</time></trkpt><trkpt lat="45.4455005" lon="7.6823598"><ele>841.0</ele><time>2026-03-28T13:16:01.949Z</time></trkpt><trkpt lat="45.4454031" lon="7.6823302"><ele>841.0</ele><time>2026-03-28T13:16:02.953Z</time></trkpt><trkpt lat="45.4453026" lon="7.682309"><ele>841.0</ele><time>2026-03-28T13:16:03.949Z</time></trkpt><trkpt lat="45.4452022" lon="7.6822916"><ele>841.0</ele><time>2026-03-28T13:16:04.98Z</time></trkpt><trkpt lat="45.445105" lon="7.6823045"><ele>840.1999999999999</ele><time>2026-03-28T13:16:06.036Z</time></trkpt><trkpt lat="45.4450054" lon="7.6823305"><ele>839.4</ele><time>2026-03-28T13:16:06.945Z</time></trkpt><trkpt lat="45.4449078" lon="7.6823862"><ele>838.6</ele><time>2026-03-28T13:16:08.005Z</time></trkpt><trkpt lat="45.444808" lon="7.6824297"><ele>837.8</ele><time>2026-03-28T13:16:09.045Z</time></trkpt><trkpt lat="45.4447147" lon="7.6824756"><ele>837.0</ele><time>2026-03-28T13:16:09.953Z</time></trkpt><trkpt lat="45.4446209" lon="7.6825025"><ele>835.2</ele><time>2026-03-28T13:16:11.02Z</time></trkpt><trkpt lat="45.4445251" lon="7.6825002"><ele>833.4000000000001</ele><time>2026-03-28T13:16:11.955Z</time></trkpt><trkpt lat="45.444426" lon="7.6824768"><ele>831.5999999999999</ele><time>2026-03-28T13:16:13.014Z</time></trkpt><trkpt lat="45.4443191" lon="7.6824324"><ele>829.8</ele><time>2026-03-28T13:16:14.044Z</time></trkpt><trkpt lat="45.4442198" lon="7.6823871"><ele>828.0</ele><time>2026-03-28T13:16:14.969Z</time></trkpt><trkpt lat="45.4441223" lon="7.6823374"><ele>828.0</ele><time>2026-03-28T13:16:15.951Z</time></trkpt><trkpt lat="45.4440224" lon="7.6822974"><ele>828.0</ele><time>2026-03-28T13:16:16.954Z</time></trkpt><trkpt lat="45.4439211" lon="7.6822578"><ele>828.0</ele><time>2026-03-28T13:16:17.954Z</time></trkpt><trkpt lat="45.4438214" lon="7.6822318"><ele>828.0</ele><time>2026-03-28T13:16:18.946Z</time></trkpt><trkpt lat="45.443721" lon="7.6822347"><ele>828.0</ele><time>2026-03-28T13:16:19.939Z</time></trkpt><trkpt lat="45.4436115" lon="7.6822664"><ele>826.4</ele><time>2026-03-28T13:16:20.984Z</time></trkpt><trkpt lat="45.4435037" lon="7.6823148"><ele>824.8</ele><time>2026-03-28T13:16:21.988Z</time></trkpt><trkpt lat="45.4433951" lon="7.6823664"><ele>823.2</ele><time>2026-03-28T13:16:22.946Z</time></trkpt><trkpt lat="45.4432907" lon="7.6824075"><ele>821.6</ele><time>2026-03-28T13:16:23.956Z</time></trkpt><trkpt lat="45.4431907" lon="7.6824396"><ele>820.0</ele><time>2026-03-28T13:16:24.952Z</time></trkpt><trkpt lat="45.443105" lon="7.6824848"><ele>820.0</ele><time>2026-03-28T13:16:25.948Z</time></trkpt><trkpt lat="45.4430382" lon="7.6825396"><ele>820.0</ele><time>2026-03-28T13:16:26.945Z</time></trkpt><trkpt lat="45.4429907" lon="7.6826916"><ele>820.0</ele><time>2026-03-28T13:16:28.945Z</time></trkpt><trkpt lat="45.4430316" lon="7.6828282"><ele>820.0</ele><time>2026-03-28T13:16:31.027Z</time></trkpt><trkpt lat="45.4431169" lon="7.682945"><ele>820.0</ele><time>2026-03-28T13:16:32.948Z</time></trkpt><trkpt lat="45.4431759" lon="7.6830203"><ele>817.2</ele><time>2026-03-28T13:16:33.971Z</time></trkpt><trkpt lat="45.4432523" lon="7.6830848"><ele>814.4</ele><time>2026-03-28T13:16:34.949Z</time></trkpt><trkpt lat="45.4433497" lon="7.683142"><ele>811.5999999999999</ele><time>2026-03-28T13:16:35.946Z</time></trkpt><trkpt lat="45.4434399" lon="7.6831999"><ele>808.8</ele><time>2026-03-28T13:16:36.943Z</time></trkpt><trkpt lat="45.4435189" lon="7.683248"><ele>806.0</ele><time>2026-03-28T13:16:38.014Z</time></trkpt><trkpt lat="45.443579" lon="7.6833025"><ele>806.0000000000001</ele><time>2026-03-28T13:16:39.03Z</time></trkpt><trkpt lat="45.4436158" lon="7.6833919"><ele>806.0</ele><time>2026-03-28T13:16:40.008Z</time></trkpt><trkpt lat="45.4436066" lon="7.6834925"><ele>806.0</ele><time>2026-03-28T13:16:41.021Z</time></trkpt><trkpt lat="45.4435976" lon="7.6835865"><ele>806.0</ele><time>2026-03-28T13:16:41.94Z</time></trkpt><trkpt lat="45.4436232" lon="7.6837494"><ele>806.0000000000001</ele><time>2026-03-28T13:16:43.978Z</time></trkpt><trkpt lat="45.4436618" lon="7.6838225"><ele>806.0</ele><time>2026-03-28T13:16:45.022Z</time></trkpt><trkpt lat="45.4437041" lon="7.6839079"><ele>804.4</ele><time>2026-03-28T13:16:46.015Z</time></trkpt><trkpt lat="45.4437687" lon="7.6839719"><ele>802.8</ele><time>2026-03-28T13:16:46.95Z</time></trkpt><trkpt lat="45.4438543" lon="7.6840363"><ele>801.1999999999999</ele><time>2026-03-28T13:16:47.955Z</time></trkpt><trkpt lat="45.4439439" lon="7.6840864"><ele>799.5999999999999</ele><time>2026-03-28T13:16:48.973Z</time></trkpt><trkpt lat="45.4440592" lon="7.6841392"><ele>798.0</ele><time>2026-03-28T13:16:50.012Z</time></trkpt><trkpt lat="45.4441861" lon="7.6841898"><ele>798.0</ele><time>2026-03-28T13:16:51.016Z</time></trkpt><trkpt lat="45.4443034" lon="7.6842359"><ele>798.0</ele><time>2026-03-28T13:16:51.954Z</time></trkpt><trkpt lat="45.4444047" lon="7.6843059"><ele>798.0</ele><time>2026-03-28T13:16:52.951Z</time></trkpt><trkpt lat="45.4445095" lon="7.6843676"><ele>798.0</ele><time>2026-03-28T13:16:53.972Z</time></trkpt><trkpt lat="45.4445868" lon="7.6844496"><ele>798.0</ele><time>2026-03-28T13:16:55.005Z</time></trkpt><trkpt lat="45.4446656" lon="7.6845619"><ele>795.25</ele><time>2026-03-28T13:16:56.009Z</time></trkpt><trkpt lat="45.4447431" lon="7.6846955"><ele>792.5</ele><time>2026-03-28T13:16:56.948Z</time></trkpt><trkpt lat="45.4448215" lon="7.6848421"><ele>789.75</ele><time>2026-03-28T13:16:57.95Z</time></trkpt><trkpt lat="45.4448873" lon="7.6849633"><ele>787.0</ele><time>2026-03-28T13:16:58.963Z</time></trkpt><trkpt lat="45.4449838" lon="7.6850802"><ele>786.9999999999999</ele><time>2026-03-28T13:17:00.009Z</time></trkpt><trkpt lat="45.4450561" lon="7.6851919"><ele>787.0</ele><time>2026-03-28T13:17:01.025Z</time></trkpt><trkpt lat="45.4451133" lon="7.6852807"><ele>787.0</ele><time>2026-03-28T13:17:01.947Z</time></trkpt><trkpt lat="45.4451868" lon="7.6853579"><ele>787.0</ele><time>2026-03-28T13:17:02.956Z</time></trkpt><trkpt lat="45.4452539" lon="7.6854228"><ele>786.9999999999999</ele><time>2026-03-28T13:17:03.953Z</time></trkpt><trkpt lat="45.4453187" lon="7.6854709"><ele>787.0</ele><time>2026-03-28T13:17:05.003Z</time></trkpt><trkpt lat="45.4453934" lon="7.685501"><ele>788.1666666666666</ele><time>2026-03-28T13:17:05.949Z</time></trkpt><trkpt lat="45.4454749" lon="7.6855491"><ele>789.3333333333333</ele><time>2026-03-28T13:17:06.95Z</time></trkpt><trkpt lat="45.4455365" lon="7.6856097"><ele>790.5</ele><time>2026-03-28T13:17:07.954Z</time></trkpt><trkpt lat="45.4455678" lon="7.685749"><ele>791.6666666666667</ele><time>2026-03-28T13:17:09.944Z</time></trkpt><trkpt lat="45.4455223" lon="7.685832"><ele>792.8333333333334</ele><time>2026-03-28T13:17:10.975Z</time></trkpt><trkpt lat="45.4454928" lon="7.6859724"><ele>794.0</ele><time>2026-03-28T13:17:11.95Z</time></trkpt><trkpt lat="45.4454601" lon="7.6861397"><ele>793.5000000000001</ele><time>2026-03-28T13:17:12.947Z</time></trkpt><trkpt lat="45.445428" lon="7.6862696"><ele>793.0</ele><time>2026-03-28T13:17:13.954Z</time></trkpt><trkpt lat="45.4453858" lon="7.6863867"><ele>792.5</ele><time>2026-03-28T13:17:14.95Z</time></trkpt><trkpt lat="45.4453662" lon="7.6864772"><ele>792.0</ele><time>2026-03-28T13:17:15.951Z</time></trkpt><trkpt lat="45.4453935" lon="7.6865618"><ele>791.5000000000001</ele><time>2026-03-28T13:17:16.957Z</time></trkpt><trkpt lat="45.4454127" lon="7.6866474"><ele>791.0</ele><time>2026-03-28T13:17:17.947Z</time></trkpt><trkpt lat="45.4455207" lon="7.6867867"><ele>791.0</ele><time>2026-03-28T13:17:20.018Z</time></trkpt><trkpt lat="45.4456401" lon="7.6868725"><ele>791.0</ele><time>2026-03-28T13:17:21.024Z</time></trkpt><trkpt lat="45.4458002" lon="7.686957"><ele>791.0</ele><time>2026-03-28T13:17:21.95Z</time></trkpt><trkpt lat="45.4459849" lon="7.6870538"><ele>791.6666666666667</ele><time>2026-03-28T13:17:22.95Z</time></trkpt><trkpt lat="45.4461674" lon="7.6871719"><ele>792.3333333333333</ele><time>2026-03-28T13:17:23.95Z</time></trkpt><trkpt lat="45.446326" lon="7.6872812"><ele>793.0</ele><time>2026-03-28T13:17:24.936Z</time></trkpt><trkpt lat="45.4464722" lon="7.6873772"><ele>793.0</ele><time>2026-03-28T13:17:25.941Z</time></trkpt><trkpt lat="45.4466014" lon="7.6874596"><ele>793.0</ele><time>2026-03-28T13:17:26.94Z</time></trkpt><trkpt lat="45.4466598" lon="7.6875295"><ele>793.0</ele><time>2026-03-28T13:17:28.038Z</time></trkpt><trkpt lat="45.4467176" lon="7.6875997"><ele>793.0</ele><time>2026-03-28T13:17:29.029Z</time></trkpt><trkpt lat="45.4467787" lon="7.6876731"><ele>793.0</ele><time>2026-03-28T13:17:30.011Z</time></trkpt><trkpt lat="45.4468249" lon="7.687771"><ele>792.1666666666666</ele><time>2026-03-28T13:17:31.013Z</time></trkpt><trkpt lat="45.4468449" lon="7.6878799"><ele>791.3333333333333</ele><time>2026-03-28T13:17:31.944Z</time></trkpt><trkpt lat="45.44686" lon="7.6879929"><ele>790.5</ele><time>2026-03-28T13:17:32.942Z</time></trkpt><trkpt lat="45.4468818" lon="7.6881066"><ele>789.6666666666667</ele><time>2026-03-28T13:17:33.942Z</time></trkpt><trkpt lat="45.4468969" lon="7.688218"><ele>788.8333333333334</ele><time>2026-03-28T13:17:34.945Z</time></trkpt><trkpt lat="45.4469022" lon="7.6883325"><ele>788.0</ele><time>2026-03-28T13:17:35.942Z</time></trkpt><trkpt lat="45.4469092" lon="7.6884542"><ele>788.0000000000001</ele><time>2026-03-28T13:17:36.945Z</time></trkpt><trkpt lat="45.4468955" lon="7.6885745"><ele>788.0</ele><time>2026-03-28T13:17:37.955Z</time></trkpt><trkpt lat="45.4468788" lon="7.6886665"><ele>788.0</ele><time>2026-03-28T13:17:39.055Z</time></trkpt><trkpt lat="45.4468143" lon="7.6888297"><ele>788.0</ele><time>2026-03-28T13:17:40.948Z</time></trkpt><trkpt lat="45.4467693" lon="7.6889447"><ele>788.0000000000001</ele><time>2026-03-28T13:17:42.946Z</time></trkpt><trkpt lat="45.446702" lon="7.6889512"><ele>788.0</ele><time>2026-03-28T13:18:26.931Z</time></trkpt><trkpt lat="45.4465793" lon="7.6888908"><ele>792.4</ele><time>2026-03-28T13:18:28.945Z</time></trkpt><trkpt lat="45.4465131" lon="7.6888582"><ele>796.8</ele><time>2026-03-28T13:18:29.946Z</time></trkpt><trkpt lat="45.4464459" lon="7.6888433"><ele>801.2</ele><time>2026-03-28T13:18:30.944Z</time></trkpt><trkpt lat="45.4463657" lon="7.6888352"><ele>805.6</ele><time>2026-03-28T13:18:31.935Z</time></trkpt><trkpt lat="45.4462567" lon="7.6888365"><ele>810.0</ele><time>2026-03-28T13:18:32.946Z</time></trkpt><trkpt lat="45.4461051" lon="7.6888411"><ele>810.0</ele><time>2026-03-28T13:18:33.95Z</time></trkpt><trkpt lat="45.4459268" lon="7.6888167"><ele>810.0</ele><time>2026-03-28T13:18:34.947Z</time></trkpt><trkpt lat="45.4457374" lon="7.6887995"><ele>810.0</ele><time>2026-03-28T13:18:35.943Z</time></trkpt><trkpt lat="45.4455551" lon="7.6887593"><ele>813.6666666666667</ele><time>2026-03-28T13:18:36.943Z</time></trkpt><trkpt lat="45.4453954" lon="7.6886992"><ele>817.3333333333334</ele><time>2026-03-28T13:18:37.943Z</time></trkpt><trkpt lat="45.4452443" lon="7.6886284"><ele>821.0</ele><time>2026-03-28T13:18:38.943Z</time></trkpt><trkpt lat="45.4451042" lon="7.6885773"><ele>810.5</ele><time>2026-03-28T13:18:39.946Z</time></trkpt><trkpt lat="45.4449755" lon="7.6885474"><ele>800.0</ele><time>2026-03-28T13:18:40.944Z</time></trkpt><trkpt lat="45.4448521" lon="7.6885303"><ele>789.5</ele><time>2026-03-28T13:18:41.939Z</time></trkpt><trkpt lat="45.4447416" lon="7.6884925"><ele>779.0</ele><time>2026-03-28T13:18:42.944Z</time></trkpt><trkpt lat="45.4446448" lon="7.6884735"><ele>781.3333333333334</ele><time>2026-03-28T13:18:43.943Z</time></trkpt><trkpt lat="45.4445523" lon="7.6884545"><ele>783.6666666666667</ele><time>2026-03-28T13:18:44.951Z</time></trkpt><trkpt lat="45.444468" lon="7.6884361"><ele>786.0</ele><time>2026-03-28T13:18:45.937Z</time></trkpt><trkpt lat="45.4443819" lon="7.6884232"><ele>788.3333333333333</ele><time>2026-03-28T13:18:46.937Z</time></trkpt><trkpt lat="45.4443046" lon="7.6884093"><ele>790.6666666666666</ele><time>2026-03-28T13:18:47.943Z</time></trkpt><trkpt lat="45.4442263" lon="7.6883889"><ele>793.0</ele><time>2026-03-28T13:18:48.94Z</time></trkpt><trkpt lat="45.4441479" lon="7.6883713"><ele>792.9999999999999</ele><time>2026-03-28T13:18:49.943Z</time></trkpt><trkpt lat="45.4440648" lon="7.6883522"><ele>793.0</ele><time>2026-03-28T13:18:50.941Z</time></trkpt><trkpt lat="45.4439819" lon="7.6883516"><ele>793.0</ele><time>2026-03-28T13:18:51.939Z</time></trkpt><trkpt lat="45.443905" lon="7.6883786"><ele>793.0</ele><time>2026-03-28T13:18:52.941Z</time></trkpt><trkpt lat="45.44382" lon="7.6884195"><ele>792.9999999999999</ele><time>2026-03-28T13:18:53.949Z</time></trkpt><trkpt lat="45.4437289" lon="7.6884387"><ele>793.0</ele><time>2026-03-28T13:18:55.038Z</time></trkpt><trkpt lat="45.4436308" lon="7.6884471"><ele>793.3333333333333</ele><time>2026-03-28T13:18:56.033Z</time></trkpt><trkpt lat="45.4435426" lon="7.6884765"><ele>793.6666666666666</ele><time>2026-03-28T13:18:56.959Z</time></trkpt><trkpt lat="45.4434572" lon="7.6885078"><ele>794.0</ele><time>2026-03-28T13:18:58.032Z</time></trkpt><trkpt lat="45.4433756" lon="7.6885392"><ele>794.3333333333333</ele><time>2026-03-28T13:18:58.943Z</time></trkpt><trkpt lat="45.4432971" lon="7.688558"><ele>794.6666666666666</ele><time>2026-03-28T13:18:59.933Z</time></trkpt><trkpt lat="45.4432051" lon="7.6885692"><ele>795.0</ele><time>2026-03-28T13:19:00.933Z</time></trkpt><trkpt lat="45.4431093" lon="7.6885756"><ele>795.0</ele><time>2026-03-28T13:19:01.945Z</time></trkpt><trkpt lat="45.4430118" lon="7.6885755"><ele>795.0</ele><time>2026-03-28T13:19:02.942Z</time></trkpt><trkpt lat="45.4429197" lon="7.6885863"><ele>795.0</ele><time>2026-03-28T13:19:03.937Z</time></trkpt><trkpt lat="45.4428279" lon="7.6886065"><ele>795.0</ele><time>2026-03-28T13:19:04.946Z</time></trkpt><trkpt lat="45.4427358" lon="7.6886181"><ele>795.0</ele><time>2026-03-28T13:19:05.939Z</time></trkpt><trkpt lat="45.4426502" lon="7.6886345"><ele>800.0</ele><time>2026-03-28T13:19:06.945Z</time></trkpt><trkpt lat="45.4425684" lon="7.6886621"><ele>805.0</ele><time>2026-03-28T13:19:07.948Z</time></trkpt><trkpt lat="45.4424856" lon="7.6886898"><ele>810.0</ele><time>2026-03-28T13:19:08.954Z</time></trkpt><trkpt lat="45.4424065" lon="7.6887247"><ele>815.0</ele><time>2026-03-28T13:19:09.951Z</time></trkpt><trkpt lat="45.4423222" lon="7.6887624"><ele>820.0</ele><time>2026-03-28T13:19:11.031Z</time></trkpt><trkpt lat="45.4422354" lon="7.6887972"><ele>825.0</ele><time>2026-03-28T13:19:11.964Z</time></trkpt><trkpt lat="45.4421378" lon="7.6888099"><ele>823.2</ele><time>2026-03-28T13:19:12.96Z</time></trkpt><trkpt lat="45.442038" lon="7.6888006"><ele>821.4</ele><time>2026-03-28T13:19:13.989Z</time></trkpt><trkpt lat="45.4419462" lon="7.6887875"><ele>819.5999999999999</ele><time>2026-03-28T13:19:14.96Z</time></trkpt><trkpt lat="45.4418481" lon="7.6887862"><ele>817.8</ele><time>2026-03-28T13:19:15.958Z</time></trkpt><trkpt lat="45.4417565" lon="7.6887849"><ele>816.0</ele><time>2026-03-28T13:19:16.96Z</time></trkpt><trkpt lat="45.4416814" lon="7.6887952"><ele>816.0</ele><time>2026-03-28T13:19:17.956Z</time></trkpt><trkpt lat="45.4416114" lon="7.688809"><ele>816.0</ele><time>2026-03-28T13:19:18.996Z</time></trkpt><trkpt lat="45.4415362" lon="7.6888339"><ele>816.0</ele><time>2026-03-28T13:19:19.948Z</time></trkpt><trkpt lat="45.4414728" lon="7.688872"><ele>816.0</ele><time>2026-03-28T13:19:21.033Z</time></trkpt><trkpt lat="45.4413629" lon="7.6889274"><ele>816.0</ele><time>2026-03-28T13:19:22.969Z</time></trkpt><trkpt lat="45.4413155" lon="7.6890879"><ele>816.0</ele><time>2026-03-28T13:19:24.975Z</time></trkpt><trkpt lat="45.4413106" lon="7.689197"><ele>816.0</ele><time>2026-03-28T13:19:26.036Z</time></trkpt><trkpt lat="45.441318" lon="7.6893131"><ele>816.0</ele><time>2026-03-28T13:19:26.956Z</time></trkpt><trkpt lat="45.4413291" lon="7.6894306"><ele>816.0</ele><time>2026-03-28T13:19:27.958Z</time></trkpt><trkpt lat="45.4413365" lon="7.6895398"><ele>816.0</ele><time>2026-03-28T13:19:28.962Z</time></trkpt><trkpt lat="45.4413538" lon="7.6896434"><ele>816.0</ele><time>2026-03-28T13:19:30.035Z</time></trkpt><trkpt lat="45.4413753" lon="7.6897342"><ele>815.4285714285714</ele><time>2026-03-28T13:19:31.035Z</time></trkpt><trkpt lat="45.4414156" lon="7.68981"><ele>814.8571428571429</ele><time>2026-03-28T13:19:31.946Z</time></trkpt><trkpt lat="45.4414572" lon="7.6898808"><ele>814.2857142857142</ele><time>2026-03-28T13:19:32.952Z</time></trkpt><trkpt lat="45.441509" lon="7.6899487"><ele>813.7142857142858</ele><time>2026-03-28T13:19:33.949Z</time></trkpt><trkpt lat="45.4415766" lon="7.6900026"><ele>813.1428571428571</ele><time>2026-03-28T13:19:35.02Z</time></trkpt><trkpt lat="45.4416503" lon="7.6900655"><ele>812.5714285714286</ele><time>2026-03-28T13:19:36.017Z</time></trkpt><trkpt lat="45.4417175" lon="7.6901334"><ele>812.0</ele><time>2026-03-28T13:19:36.949Z</time></trkpt><trkpt lat="45.4417855" lon="7.6902109"><ele>809.6666666666667</ele><time>2026-03-28T13:19:37.952Z</time></trkpt><trkpt lat="45.4418358" lon="7.6902978"><ele>807.3333333333334</ele><time>2026-03-28T13:19:38.967Z</time></trkpt><trkpt lat="45.4418746" lon="7.6903996"><ele>805.0</ele><time>2026-03-28T13:19:39.951Z</time></trkpt><trkpt lat="45.4419247" lon="7.690484"><ele>802.6666666666667</ele><time>2026-03-28T13:19:41.027Z</time></trkpt><trkpt lat="45.4419661" lon="7.6905807"><ele>800.3333333333334</ele><time>2026-03-28T13:19:41.948Z</time></trkpt><trkpt lat="45.4420114" lon="7.6906689"><ele>798.0</ele><time>2026-03-28T13:19:42.954Z</time></trkpt><trkpt lat="45.4420766" lon="7.6907593"><ele>801.0</ele><time>2026-03-28T13:19:43.944Z</time></trkpt><trkpt lat="45.4421365" lon="7.6908519"><ele>804.0</ele><time>2026-03-28T13:19:45.022Z</time></trkpt><trkpt lat="45.4421896" lon="7.6909438"><ele>807.0</ele><time>2026-03-28T13:19:46.022Z</time></trkpt><trkpt lat="45.4422432" lon="7.6910317"><ele>810.0</ele><time>2026-03-28T13:19:46.955Z</time></trkpt><trkpt lat="45.4422901" lon="7.6911146"><ele>813.0</ele><time>2026-03-28T13:19:47.959Z</time></trkpt><trkpt lat="45.4423437" lon="7.6911965"><ele>816.0</ele><time>2026-03-28T13:19:48.951Z</time></trkpt><trkpt lat="45.4424024" lon="7.6912759"><ele>816.0</ele><time>2026-03-28T13:19:49.944Z</time></trkpt><trkpt lat="45.4424618" lon="7.6913451"><ele>816.0</ele><time>2026-03-28T13:19:50.942Z</time></trkpt><trkpt lat="45.4425152" lon="7.6914278"><ele>816.0</ele><time>2026-03-28T13:19:51.95Z</time></trkpt><trkpt lat="45.4425601" lon="7.6915246"><ele>816.0</ele><time>2026-03-28T13:19:52.958Z</time></trkpt><trkpt lat="45.4426033" lon="7.6916249"><ele>816.0</ele><time>2026-03-28T13:19:53.971Z</time></trkpt><trkpt lat="45.4426419" lon="7.6917381"><ele>816.0</ele><time>2026-03-28T13:19:54.956Z</time></trkpt><trkpt lat="45.4426685" lon="7.691843"><ele>815.5</ele><time>2026-03-28T13:19:55.949Z</time></trkpt><trkpt lat="45.4426417" lon="7.6919995"><ele>815.0</ele><time>2026-03-28T13:19:57.953Z</time></trkpt><trkpt lat="45.4425528" lon="7.6921155"><ele>814.5</ele><time>2026-03-28T13:19:59.946Z</time></trkpt><trkpt lat="45.4424988" lon="7.6921831"><ele>814.0</ele><time>2026-03-28T13:20:01.03Z</time></trkpt><trkpt lat="45.442449" lon="7.6922593"><ele>813.5</ele><time>2026-03-28T13:20:01.954Z</time></trkpt><trkpt lat="45.4424084" lon="7.6923398"><ele>813.0</ele><time>2026-03-28T13:20:02.952Z</time></trkpt><trkpt lat="45.4423712" lon="7.6925004"><ele>813.0</ele><time>2026-03-28T13:20:04.994Z</time></trkpt><trkpt lat="45.4423646" lon="7.6926718"><ele>813.0</ele><time>2026-03-28T13:20:06.961Z</time></trkpt><trkpt lat="45.4423841" lon="7.6928076"><ele>813.0</ele><time>2026-03-28T13:20:08.041Z</time></trkpt><trkpt lat="45.4424241" lon="7.6929763"><ele>813.0</ele><time>2026-03-28T13:20:09.032Z</time></trkpt><trkpt lat="45.4424609" lon="7.6931344"><ele>813.1666666666666</ele><time>2026-03-28T13:20:10.031Z</time></trkpt><trkpt lat="45.4425047" lon="7.6932764"><ele>813.3333333333333</ele><time>2026-03-28T13:20:11.041Z</time></trkpt><trkpt lat="45.4425445" lon="7.6933992"><ele>813.5</ele><time>2026-03-28T13:20:11.947Z</time></trkpt><trkpt lat="45.4425851" lon="7.6935058"><ele>813.6666666666666</ele><time>2026-03-28T13:20:12.951Z</time></trkpt><trkpt lat="45.4426369" lon="7.6935929"><ele>813.8333333333333</ele><time>2026-03-28T13:20:13.988Z</time></trkpt><trkpt lat="45.4426975" lon="7.6936677"><ele>814.0</ele><time>2026-03-28T13:20:15.051Z</time></trkpt><trkpt lat="45.4427628" lon="7.6937363"><ele>816.1666666666666</ele><time>2026-03-28T13:20:16.026Z</time></trkpt><trkpt lat="45.4428168" lon="7.6937929"><ele>818.3333333333333</ele><time>2026-03-28T13:20:16.937Z</time></trkpt><trkpt lat="45.4427875" lon="7.693947"><ele>820.5</ele><time>2026-03-28T13:20:18.957Z</time></trkpt><trkpt lat="45.4427299" lon="7.6940342"><ele>822.6666666666667</ele><time>2026-03-28T13:20:19.948Z</time></trkpt><trkpt lat="45.4426631" lon="7.6940778"><ele>824.8333333333334</ele><time>2026-03-28T13:20:20.95Z</time></trkpt><trkpt lat="45.4425822" lon="7.6941019"><ele>827.0</ele><time>2026-03-28T13:20:21.949Z</time></trkpt><trkpt lat="45.4424892" lon="7.6940854"><ele>827.0</ele><time>2026-03-28T13:20:22.95Z</time></trkpt><trkpt lat="45.4423753" lon="7.6940708"><ele>827.0</ele><time>2026-03-28T13:20:23.975Z</time></trkpt><trkpt lat="45.4422477" lon="7.6940596"><ele>827.0</ele><time>2026-03-28T13:20:24.95Z</time></trkpt><trkpt lat="45.442111" lon="7.6940484"><ele>827.0</ele><time>2026-03-28T13:20:25.949Z</time></trkpt><trkpt lat="45.4419751" lon="7.6940472"><ele>828.0</ele><time>2026-03-28T13:20:26.953Z</time></trkpt><trkpt lat="45.4418421" lon="7.6940415"><ele>829.0</ele><time>2026-03-28T13:20:27.949Z</time></trkpt><trkpt lat="45.441717" lon="7.6940229"><ele>830.0</ele><time>2026-03-28T13:20:28.956Z</time></trkpt><trkpt lat="45.4416012" lon="7.6939893"><ele>831.0</ele><time>2026-03-28T13:20:29.959Z</time></trkpt><trkpt lat="45.4414931" lon="7.6939561"><ele>831.0</ele><time>2026-03-28T13:20:30.947Z</time></trkpt><trkpt lat="45.441393" lon="7.6939284"><ele>831.0</ele><time>2026-03-28T13:20:31.951Z</time></trkpt><trkpt lat="45.4412887" lon="7.6939272"><ele>831.0</ele><time>2026-03-28T13:20:32.954Z</time></trkpt><trkpt lat="45.4411773" lon="7.6939736"><ele>831.0</ele><time>2026-03-28T13:20:33.951Z</time></trkpt><trkpt lat="45.4410511" lon="7.694016"><ele>831.5999999999999</ele><time>2026-03-28T13:20:34.955Z</time></trkpt><trkpt lat="45.4409302" lon="7.6940414"><ele>832.2</ele><time>2026-03-28T13:20:35.942Z</time></trkpt><trkpt lat="45.4408195" lon="7.6940525"><ele>832.8</ele><time>2026-03-28T13:20:36.949Z</time></trkpt><trkpt lat="45.4407204" lon="7.6940507"><ele>833.4000000000001</ele><time>2026-03-28T13:20:37.946Z</time></trkpt><trkpt lat="45.440627" lon="7.6940342"><ele>834.0</ele><time>2026-03-28T13:20:38.947Z</time></trkpt><trkpt lat="45.4405324" lon="7.6940404"><ele>832.8333333333334</ele><time>2026-03-28T13:20:39.948Z</time></trkpt><trkpt lat="45.4404391" lon="7.6940632"><ele>831.6666666666667</ele><time>2026-03-28T13:20:41.032Z</time></trkpt><trkpt lat="45.4403489" lon="7.6940861"><ele>830.5</ele><time>2026-03-28T13:20:41.979Z</time></trkpt><trkpt lat="45.4402633" lon="7.6940969"><ele>829.3333333333334</ele><time>2026-03-28T13:20:42.939Z</time></trkpt><trkpt lat="45.4401883" lon="7.694119"><ele>828.1666666666667</ele><time>2026-03-28T13:20:43.947Z</time></trkpt><trkpt lat="45.4401206" lon="7.6941434"><ele>827.0</ele><time>2026-03-28T13:20:45.02Z</time></trkpt><trkpt lat="45.4400584" lon="7.6942027"><ele>827.0000000000001</ele><time>2026-03-28T13:20:46.012Z</time></trkpt><trkpt lat="45.4400088" lon="7.6942734"><ele>827.0</ele><time>2026-03-28T13:20:46.947Z</time></trkpt><trkpt lat="45.4399698" lon="7.6943738"><ele>827.0</ele><time>2026-03-28T13:20:47.947Z</time></trkpt><trkpt lat="45.4399379" lon="7.6945113"><ele>827.0</ele><time>2026-03-28T13:20:48.949Z</time></trkpt><trkpt lat="45.4399063" lon="7.6946284"><ele>827.0000000000001</ele><time>2026-03-28T13:20:49.945Z</time></trkpt><trkpt lat="45.4398675" lon="7.6947168"><ele>827.0</ele><time>2026-03-28T13:20:51.007Z</time></trkpt><trkpt lat="45.4398367" lon="7.6948011"><ele>828.8333333333334</ele><time>2026-03-28T13:20:51.944Z</time></trkpt><trkpt lat="45.4398084" lon="7.6949268"><ele>830.6666666666667</ele><time>2026-03-28T13:20:53.965Z</time></trkpt><trkpt lat="45.4397967" lon="7.6950419"><ele>832.5</ele><time>2026-03-28T13:20:55.938Z</time></trkpt><trkpt lat="45.4397875" lon="7.6951521"><ele>834.3333333333333</ele><time>2026-03-28T13:20:56.944Z</time></trkpt><trkpt lat="45.4397733" lon="7.6952623"><ele>836.1666666666666</ele><time>2026-03-28T13:20:58.009Z</time></trkpt><trkpt lat="45.4397637" lon="7.695367"><ele>838.0</ele><time>2026-03-28T13:20:59.007Z</time></trkpt><trkpt lat="45.4397723" lon="7.6954694"><ele>837.8333333333333</ele><time>2026-03-28T13:21:00.016Z</time></trkpt><trkpt lat="45.4398035" lon="7.6955689"><ele>837.6666666666666</ele><time>2026-03-28T13:21:00.948Z</time></trkpt><trkpt lat="45.4398267" lon="7.6956864"><ele>837.5</ele><time>2026-03-28T13:21:01.951Z</time></trkpt><trkpt lat="45.4398432" lon="7.6957939"><ele>837.3333333333333</ele><time>2026-03-28T13:21:02.944Z</time></trkpt><trkpt lat="45.4398707" lon="7.6959073"><ele>837.1666666666666</ele><time>2026-03-28T13:21:03.945Z</time></trkpt><trkpt lat="45.4399094" lon="7.6960425"><ele>837.0</ele><time>2026-03-28T13:21:04.945Z</time></trkpt><trkpt lat="45.4399583" lon="7.6961713"><ele>837.0</ele><time>2026-03-28T13:21:05.998Z</time></trkpt><trkpt lat="45.4399944" lon="7.6962927"><ele>837.0</ele><time>2026-03-28T13:21:06.947Z</time></trkpt><trkpt lat="45.4400288" lon="7.6964011"><ele>837.0</ele><time>2026-03-28T13:21:07.948Z</time></trkpt><trkpt lat="45.4400923" lon="7.6964976"><ele>837.0</ele><time>2026-03-28T13:21:08.935Z</time></trkpt><trkpt lat="45.4401477" lon="7.696587"><ele>837.0</ele><time>2026-03-28T13:21:09.937Z</time></trkpt><trkpt lat="45.4402088" lon="7.6966813"><ele>837.0</ele><time>2026-03-28T13:21:10.943Z</time></trkpt><trkpt lat="45.4402899" lon="7.6968051"><ele>834.5</ele><time>2026-03-28T13:21:11.947Z</time></trkpt><trkpt lat="45.4403788" lon="7.6969465"><ele>832.0</ele><time>2026-03-28T13:21:12.947Z</time></trkpt><trkpt lat="45.4404576" lon="7.6970907"><ele>829.5</ele><time>2026-03-28T13:21:13.944Z</time></trkpt><trkpt lat="45.4405199" lon="7.6972376"><ele>827.0</ele><time>2026-03-28T13:21:15.013Z</time></trkpt><trkpt lat="45.4405887" lon="7.6973731"><ele>828.6</ele><time>2026-03-28T13:21:16.015Z</time></trkpt><trkpt lat="45.4406592" lon="7.6975018"><ele>830.2</ele><time>2026-03-28T13:21:16.939Z</time></trkpt><trkpt lat="45.4407304" lon="7.6975808"><ele>831.8</ele><time>2026-03-28T13:21:17.943Z</time></trkpt><trkpt lat="45.4408134" lon="7.6976346"><ele>833.4</ele><time>2026-03-28T13:21:18.968Z</time></trkpt><trkpt lat="45.4409081" lon="7.6976806"><ele>835.0</ele><time>2026-03-28T13:21:20.007Z</time></trkpt><trkpt lat="45.4410053" lon="7.6977776"><ele>835.0</ele><time>2026-03-28T13:21:21.015Z</time></trkpt><trkpt lat="45.4410853" lon="7.69789"><ele>835.0</ele><time>2026-03-28T13:21:21.947Z</time></trkpt><trkpt lat="45.4411425" lon="7.6980031"><ele>835.0</ele><time>2026-03-28T13:21:22.954Z</time></trkpt><trkpt lat="45.4412185" lon="7.6981101"><ele>835.0</ele><time>2026-03-28T13:21:23.951Z</time></trkpt><trkpt lat="45.4413109" lon="7.6982245"><ele>835.0</ele><time>2026-03-28T13:21:25.012Z</time></trkpt><trkpt lat="45.4413951" lon="7.6983386"><ele>834.4</ele><time>2026-03-28T13:21:26.019Z</time></trkpt><trkpt lat="45.4414734" lon="7.6984497"><ele>833.8</ele><time>2026-03-28T13:21:26.943Z</time></trkpt><trkpt lat="45.4415536" lon="7.6985549"><ele>833.2</ele><time>2026-03-28T13:21:27.948Z</time></trkpt><trkpt lat="45.4416375" lon="7.6986489"><ele>832.6</ele><time>2026-03-28T13:21:28.963Z</time></trkpt><trkpt lat="45.4417196" lon="7.6987228"><ele>832.0</ele><time>2026-03-28T13:21:30.003Z</time></trkpt><trkpt lat="45.4418216" lon="7.6987802"><ele>832.0</ele><time>2026-03-28T13:21:31.019Z</time></trkpt><trkpt lat="45.4419327" lon="7.6988336"><ele>832.0</ele><time>2026-03-28T13:21:31.95Z</time></trkpt><trkpt lat="45.44205" lon="7.6988992"><ele>832.0</ele><time>2026-03-28T13:21:32.949Z</time></trkpt><trkpt lat="45.4421638" lon="7.6989713"><ele>832.0</ele><time>2026-03-28T13:21:33.983Z</time></trkpt><trkpt lat="45.4422644" lon="7.6990273"><ele>836.6</ele><time>2026-03-28T13:21:35.011Z</time></trkpt><trkpt lat="45.4423575" lon="7.6990521"><ele>841.2</ele><time>2026-03-28T13:21:36.009Z</time></trkpt><trkpt lat="45.4424681" lon="7.6990678"><ele>845.8</ele><time>2026-03-28T13:21:36.944Z</time></trkpt><trkpt lat="45.4425719" lon="7.6990986"><ele>850.4</ele><time>2026-03-28T13:21:37.948Z</time></trkpt><trkpt lat="45.4426533" lon="7.6991449"><ele>855.0</ele><time>2026-03-28T13:21:38.969Z</time></trkpt><trkpt lat="45.4427088" lon="7.6992091"><ele>855.0</ele><time>2026-03-28T13:21:40.01Z</time></trkpt><trkpt lat="45.4427406" lon="7.6992982"><ele>855.0</ele><time>2026-03-28T13:21:41.014Z</time></trkpt><trkpt lat="45.4427208" lon="7.6994"><ele>855.0</ele><time>2026-03-28T13:21:41.952Z</time></trkpt><trkpt lat="45.4426619" lon="7.6995136"><ele>855.0</ele><time>2026-03-28T13:21:42.951Z</time></trkpt><trkpt lat="45.4425947" lon="7.699618"><ele>855.0</ele><time>2026-03-28T13:21:43.944Z</time></trkpt><trkpt lat="45.4425351" lon="7.6997318"><ele>855.0</ele><time>2026-03-28T13:21:44.941Z</time></trkpt><trkpt lat="45.4424656" lon="7.6998451"><ele>855.6</ele><time>2026-03-28T13:21:45.946Z</time></trkpt><trkpt lat="45.4423975" lon="7.6999385"><ele>856.2</ele><time>2026-03-28T13:21:46.935Z</time></trkpt><trkpt lat="45.4423093" lon="7.7000118"><ele>856.8</ele><time>2026-03-28T13:21:47.934Z</time></trkpt><trkpt lat="45.4422139" lon="7.7000849"><ele>857.4</ele><time>2026-03-28T13:21:48.942Z</time></trkpt><trkpt lat="45.4421049" lon="7.70014"><ele>858.0</ele><time>2026-03-28T13:21:49.947Z</time></trkpt><trkpt lat="45.4420143" lon="7.7001721"><ele>855.4</ele><time>2026-03-28T13:21:50.951Z</time></trkpt><trkpt lat="45.4419398" lon="7.7002463"><ele>852.8</ele><time>2026-03-28T13:21:51.949Z</time></trkpt><trkpt lat="45.4418663" lon="7.7003313"><ele>850.2</ele><time>2026-03-28T13:21:52.936Z</time></trkpt><trkpt lat="45.4418002" lon="7.7004441"><ele>847.6</ele><time>2026-03-28T13:21:53.934Z</time></trkpt><trkpt lat="45.4417605" lon="7.70057"><ele>845.0</ele><time>2026-03-28T13:21:54.945Z</time></trkpt><trkpt lat="45.4417185" lon="7.7006948"><ele>845.0</ele><time>2026-03-28T13:21:56.022Z</time></trkpt><trkpt lat="45.4416824" lon="7.7008286"><ele>845.0</ele><time>2026-03-28T13:21:56.947Z</time></trkpt><trkpt lat="45.4416601" lon="7.7009462"><ele>845.0</ele><time>2026-03-28T13:21:57.936Z</time></trkpt><trkpt lat="45.4416554" lon="7.7010778"><ele>845.0</ele><time>2026-03-28T13:21:58.964Z</time></trkpt><trkpt lat="45.4416633" lon="7.7012301"><ele>845.0</ele><time>2026-03-28T13:22:00.023Z</time></trkpt><trkpt lat="45.4416681" lon="7.7014032"><ele>845.2</ele><time>2026-03-28T13:22:00.948Z</time></trkpt><trkpt lat="45.441672" lon="7.7015702"><ele>845.4</ele><time>2026-03-28T13:22:01.935Z</time></trkpt><trkpt lat="45.4416575" lon="7.7017268"><ele>845.5999999999999</ele><time>2026-03-28T13:22:02.942Z</time></trkpt><trkpt lat="45.4416305" lon="7.701867"><ele>845.8</ele><time>2026-03-28T13:22:03.944Z</time></trkpt><trkpt lat="45.4415855" lon="7.7020038"><ele>846.0</ele><time>2026-03-28T13:22:04.941Z</time></trkpt><trkpt lat="45.4415341" lon="7.702134"><ele>845.1666666666666</ele><time>2026-03-28T13:22:06.014Z</time></trkpt><trkpt lat="45.4414712" lon="7.7022467"><ele>844.3333333333333</ele><time>2026-03-28T13:22:06.943Z</time></trkpt><trkpt lat="45.4413962" lon="7.7023223"><ele>843.5</ele><time>2026-03-28T13:22:07.951Z</time></trkpt><trkpt lat="45.4413135" lon="7.7023538"><ele>842.6666666666666</ele><time>2026-03-28T13:22:08.949Z</time></trkpt><trkpt lat="45.4412349" lon="7.7023697"><ele>841.8333333333333</ele><time>2026-03-28T13:22:09.962Z</time></trkpt><trkpt lat="45.441149" lon="7.7024062"><ele>841.0</ele><time>2026-03-28T13:22:11.008Z</time></trkpt><trkpt lat="45.4410517" lon="7.7024647"><ele>841.0</ele><time>2026-03-28T13:22:11.949Z</time></trkpt><trkpt lat="45.440959" lon="7.7025407"><ele>841.0</ele><time>2026-03-28T13:22:12.951Z</time></trkpt><trkpt lat="45.4408749" lon="7.7026302"><ele>841.0</ele><time>2026-03-28T13:22:13.938Z</time></trkpt><trkpt lat="45.4407862" lon="7.702709"><ele>841.0</ele><time>2026-03-28T13:22:15.007Z</time></trkpt><trkpt lat="45.4407151" lon="7.7027886"><ele>841.0</ele><time>2026-03-28T13:22:16.025Z</time></trkpt><trkpt lat="45.440651" lon="7.7028616"><ele>840.9999999999999</ele><time>2026-03-28T13:22:16.946Z</time></trkpt><trkpt lat="45.4405814" lon="7.7029266"><ele>841.0</ele><time>2026-03-28T13:22:17.957Z</time></trkpt><trkpt lat="45.4405182" lon="7.7029971"><ele>841.0</ele><time>2026-03-28T13:22:18.944Z</time></trkpt><trkpt lat="45.4404635" lon="7.7030825"><ele>841.0</ele><time>2026-03-28T13:22:20.029Z</time></trkpt><trkpt lat="45.4404133" lon="7.7031764"><ele>840.9999999999999</ele><time>2026-03-28T13:22:20.953Z</time></trkpt><trkpt lat="45.4403618" lon="7.7032802"><ele>841.0</ele><time>2026-03-28T13:22:21.955Z</time></trkpt><trkpt lat="45.440302" lon="7.7033863"><ele>840.9999999999999</ele><time>2026-03-28T13:22:22.949Z</time></trkpt><trkpt lat="45.4402528" lon="7.7034884"><ele>841.0</ele><time>2026-03-28T13:22:24.01Z</time></trkpt><trkpt lat="45.4402029" lon="7.7035826"><ele>841.0</ele><time>2026-03-28T13:22:24.946Z</time></trkpt><trkpt lat="45.4401505" lon="7.703676"><ele>841.0</ele><time>2026-03-28T13:22:25.955Z</time></trkpt><trkpt lat="45.4401186" lon="7.7037817"><ele>840.9999999999999</ele><time>2026-03-28T13:22:26.943Z</time></trkpt><trkpt lat="45.4400987" lon="7.7038908"><ele>841.0</ele><time>2026-03-28T13:22:27.944Z</time></trkpt><trkpt lat="45.4400928" lon="7.7039947"><ele>841.1999999999999</ele><time>2026-03-28T13:22:29.041Z</time></trkpt><trkpt lat="45.4400982" lon="7.7040983"><ele>841.4</ele><time>2026-03-28T13:22:29.993Z</time></trkpt><trkpt lat="45.4401124" lon="7.7042203"><ele>841.6</ele><time>2026-03-28T13:22:31.034Z</time></trkpt><trkpt lat="45.44013" lon="7.7043513"><ele>841.8</ele><time>2026-03-28T13:22:31.957Z</time></trkpt><trkpt lat="45.4401474" lon="7.7044904"><ele>842.0</ele><time>2026-03-28T13:22:32.955Z</time></trkpt><trkpt lat="45.4401601" lon="7.7046305"><ele>842.6</ele><time>2026-03-28T13:22:33.959Z</time></trkpt><trkpt lat="45.4401682" lon="7.7047643"><ele>843.2</ele><time>2026-03-28T13:22:34.954Z</time></trkpt><trkpt lat="45.4401598" lon="7.7048934"><ele>843.8</ele><time>2026-03-28T13:22:35.959Z</time></trkpt><trkpt lat="45.4401377" lon="7.7050171"><ele>844.4</ele><time>2026-03-28T13:22:36.956Z</time></trkpt><trkpt lat="45.4401129" lon="7.7051363"><ele>845.0</ele><time>2026-03-28T13:22:37.958Z</time></trkpt><trkpt lat="45.4400924" lon="7.7052577"><ele>845.0</ele><time>2026-03-28T13:22:38.958Z</time></trkpt><trkpt lat="45.440074" lon="7.7053657"><ele>845.0</ele><time>2026-03-28T13:22:39.973Z</time></trkpt><trkpt lat="45.4400969" lon="7.7055185"><ele>845.0</ele><time>2026-03-28T13:22:41.955Z</time></trkpt><trkpt lat="45.4401678" lon="7.7056734"><ele>845.0</ele><time>2026-03-28T13:22:43.964Z</time></trkpt><trkpt lat="45.4402132" lon="7.7057451"><ele>845.0</ele><time>2026-03-28T13:22:44.959Z</time></trkpt><trkpt lat="45.4402746" lon="7.7057883"><ele>845.0</ele><time>2026-03-28T13:22:46.04Z</time></trkpt><trkpt lat="45.440339" lon="7.7058303"><ele>845.0</ele><time>2026-03-28T13:22:46.954Z</time></trkpt><trkpt lat="45.4404439" lon="7.7058941"><ele>845.0</ele><time>2026-03-28T13:22:48.997Z</time></trkpt><trkpt lat="45.4405497" lon="7.7059154"><ele>845.0</ele><time>2026-03-28T13:22:50.94Z</time></trkpt><trkpt lat="45.4406486" lon="7.7059126"><ele>845.0</ele><time>2026-03-28T13:22:52.945Z</time></trkpt><trkpt lat="45.44076" lon="7.7059132"><ele>849.6</ele><time>2026-03-28T13:22:55.033Z</time></trkpt><trkpt lat="45.4408602" lon="7.7060132"><ele>854.2</ele><time>2026-03-28T13:22:56.963Z</time></trkpt><trkpt lat="45.4409095" lon="7.7061181"><ele>858.8</ele><time>2026-03-28T13:22:57.96Z</time></trkpt><trkpt lat="45.4409422" lon="7.706258"><ele>863.4</ele><time>2026-03-28T13:22:58.957Z</time></trkpt><trkpt lat="45.4409596" lon="7.7063962"><ele>868.0</ele><time>2026-03-28T13:22:59.958Z</time></trkpt><trkpt lat="45.4409707" lon="7.7065153"><ele>868.0</ele><time>2026-03-28T13:23:00.957Z</time></trkpt><trkpt lat="45.4409867" lon="7.7066312"><ele>868.0</ele><time>2026-03-28T13:23:01.955Z</time></trkpt><trkpt lat="45.4410118" lon="7.7067579"><ele>868.0</ele><time>2026-03-28T13:23:03.055Z</time></trkpt><trkpt lat="45.4410447" lon="7.7068956"><ele>868.0</ele><time>2026-03-28T13:23:04.023Z</time></trkpt><trkpt lat="45.4410858" lon="7.7070224"><ele>868.0</ele><time>2026-03-28T13:23:05.033Z</time></trkpt><trkpt lat="45.4411212" lon="7.707143"><ele>867.3333333333333</ele><time>2026-03-28T13:23:06.044Z</time></trkpt><trkpt lat="45.4411527" lon="7.7072642"><ele>866.6666666666666</ele><time>2026-03-28T13:23:06.963Z</time></trkpt><trkpt lat="45.4411928" lon="7.7073536"><ele>866.0</ele><time>2026-03-28T13:23:07.958Z</time></trkpt><trkpt lat="45.4412419" lon="7.7074429"><ele>865.3333333333333</ele><time>2026-03-28T13:23:08.98Z</time></trkpt><trkpt lat="45.4412977" lon="7.707508"><ele>864.6666666666666</ele><time>2026-03-28T13:23:10.054Z</time></trkpt><trkpt lat="45.441347" lon="7.7075641"><ele>864.0</ele><time>2026-03-28T13:23:11.028Z</time></trkpt><trkpt lat="45.4414148" lon="7.70761"><ele>865.1428571428571</ele><time>2026-03-28T13:23:11.958Z</time></trkpt><trkpt lat="45.4414822" lon="7.7076469"><ele>866.2857142857142</ele><time>2026-03-28T13:23:12.966Z</time></trkpt><trkpt lat="45.4415438" lon="7.7076878"><ele>867.4285714285714</ele><time>2026-03-28T13:23:13.979Z</time></trkpt><trkpt lat="45.4416137" lon="7.7077231"><ele>868.5714285714286</ele><time>2026-03-28T13:23:15.026Z</time></trkpt><trkpt lat="45.4416837" lon="7.707744"><ele>869.7142857142858</ele><time>2026-03-28T13:23:16.03Z</time></trkpt><trkpt lat="45.441752" lon="7.7077563"><ele>870.8571428571429</ele><time>2026-03-28T13:23:16.963Z</time></trkpt><trkpt lat="45.4418198" lon="7.7077736"><ele>872.0</ele><time>2026-03-28T13:23:17.967Z</time></trkpt><trkpt lat="45.441943" lon="7.7078105"><ele>872.0000000000001</ele><time>2026-03-28T13:23:20.023Z</time></trkpt><trkpt lat="45.4420247" lon="7.7078152"><ele>872.0</ele><time>2026-03-28T13:23:21.035Z</time></trkpt><trkpt lat="45.442115" lon="7.7078361"><ele>872.0</ele><time>2026-03-28T13:23:21.962Z</time></trkpt><trkpt lat="45.4422097" lon="7.7078416"><ele>872.0</ele><time>2026-03-28T13:23:22.963Z</time></trkpt><trkpt lat="45.4422873" lon="7.7078732"><ele>872.0000000000001</ele><time>2026-03-28T13:23:23.985Z</time></trkpt><trkpt lat="45.4423562" lon="7.707921"><ele>872.0</ele><time>2026-03-28T13:23:25.03Z</time></trkpt><trkpt lat="45.4424183" lon="7.7079845"><ele>877.8</ele><time>2026-03-28T13:23:26.029Z</time></trkpt><trkpt lat="45.4424813" lon="7.7081008"><ele>883.6</ele><time>2026-03-28T13:23:26.964Z</time></trkpt><trkpt lat="45.4425427" lon="7.7082121"><ele>889.3999999999999</ele><time>2026-03-28T13:23:27.964Z</time></trkpt><trkpt lat="45.4426069" lon="7.7083333"><ele>895.1999999999999</ele><time>2026-03-28T13:23:29.007Z</time></trkpt><trkpt lat="45.442674" lon="7.7084449"><ele>901.0</ele><time>2026-03-28T13:23:29.961Z</time></trkpt><trkpt lat="45.4427291" lon="7.7085547"><ele>898.6666666666666</ele><time>2026-03-28T13:23:30.963Z</time></trkpt><trkpt lat="45.4427913" lon="7.7086414"><ele>896.3333333333333</ele><time>2026-03-28T13:23:31.958Z</time></trkpt><trkpt lat="45.4428258" lon="7.7087343"><ele>894.0</ele><time>2026-03-28T13:23:32.957Z</time></trkpt><trkpt lat="45.4428671" lon="7.7088302"><ele>891.6666666666667</ele><time>2026-03-28T13:23:33.96Z</time></trkpt><trkpt lat="45.4429172" lon="7.7089316"><ele>889.3333333333334</ele><time>2026-03-28T13:23:35.027Z</time></trkpt><trkpt lat="45.4429706" lon="7.7090503"><ele>887.0</ele><time>2026-03-28T13:23:36.034Z</time></trkpt><trkpt lat="45.4430284" lon="7.7091591"><ele>890.1666666666667</ele><time>2026-03-28T13:23:36.965Z</time></trkpt><trkpt lat="45.4430845" lon="7.7092742"><ele>893.3333333333334</ele><time>2026-03-28T13:23:37.965Z</time></trkpt><trkpt lat="45.4431306" lon="7.7093717"><ele>896.5</ele><time>2026-03-28T13:23:38.968Z</time></trkpt><trkpt lat="45.4431961" lon="7.7094702"><ele>899.6666666666667</ele><time>2026-03-28T13:23:39.965Z</time></trkpt><trkpt lat="45.443238" lon="7.7095633"><ele>902.8333333333334</ele><time>2026-03-28T13:23:40.961Z</time></trkpt><trkpt lat="45.4432812" lon="7.7096645"><ele>906.0</ele><time>2026-03-28T13:23:41.967Z</time></trkpt><trkpt lat="45.4433219" lon="7.7097636"><ele>906.0</ele><time>2026-03-28T13:23:42.965Z</time></trkpt><trkpt lat="45.4433803" lon="7.7098607"><ele>905.9999999999999</ele><time>2026-03-28T13:23:44.026Z</time></trkpt><trkpt lat="45.4434377" lon="7.7099683"><ele>905.9999999999999</ele><time>2026-03-28T13:23:44.962Z</time></trkpt><trkpt lat="45.443486" lon="7.7100647"><ele>906.0</ele><time>2026-03-28T13:23:46.036Z</time></trkpt><trkpt lat="45.4435306" lon="7.7101399"><ele>906.0</ele><time>2026-03-28T13:23:46.965Z</time></trkpt><trkpt lat="45.4436174" lon="7.7102598"><ele>905.1999999999999</ele><time>2026-03-28T13:23:48.981Z</time></trkpt><trkpt lat="45.4437675" lon="7.7102744"><ele>904.3999999999999</ele><time>2026-03-28T13:23:50.963Z</time></trkpt><trkpt lat="45.4438505" lon="7.7102479"><ele>903.6</ele><time>2026-03-28T13:23:51.951Z</time></trkpt><trkpt lat="45.4439268" lon="7.7102168"><ele>902.8</ele><time>2026-03-28T13:23:52.959Z</time></trkpt><trkpt lat="45.444001" lon="7.7101852"><ele>902.0</ele><time>2026-03-28T13:23:53.968Z</time></trkpt><trkpt lat="45.4440693" lon="7.7101617"><ele>907.8</ele><time>2026-03-28T13:23:54.972Z</time></trkpt><trkpt lat="45.444169" lon="7.7101163"><ele>913.6</ele><time>2026-03-28T13:23:56.961Z</time></trkpt><trkpt lat="45.4442793" lon="7.710069"><ele>919.3999999999999</ele><time>2026-03-28T13:23:58.956Z</time></trkpt><trkpt lat="45.4443345" lon="7.7100226"><ele>925.1999999999999</ele><time>2026-03-28T13:23:59.962Z</time></trkpt><trkpt lat="45.4444337" lon="7.7099442"><ele>931.0</ele><time>2026-03-28T13:24:01.966Z</time></trkpt><trkpt lat="45.4445292" lon="7.7098577"><ele>930.9999999999999</ele><time>2026-03-28T13:24:03.963Z</time></trkpt><trkpt lat="45.4446212" lon="7.7097657"><ele>931.0</ele><time>2026-03-28T13:24:05.961Z</time></trkpt><trkpt lat="45.4446678" lon="7.7096954"><ele>931.0</ele><time>2026-03-28T13:24:06.972Z</time></trkpt><trkpt lat="45.4447113" lon="7.7096175"><ele>931.0</ele><time>2026-03-28T13:24:07.957Z</time></trkpt><trkpt lat="45.4447623" lon="7.7095325"><ele>930.9999999999999</ele><time>2026-03-28T13:24:08.95Z</time></trkpt><trkpt lat="45.4448173" lon="7.7094405"><ele>931.0</ele><time>2026-03-28T13:24:10.03Z</time></trkpt><trkpt lat="45.4448559" lon="7.7093573"><ele>929.8571428571429</ele><time>2026-03-28T13:24:10.967Z</time></trkpt><trkpt lat="45.4449009" lon="7.7092823"><ele>928.7142857142858</ele><time>2026-03-28T13:24:11.956Z</time></trkpt><trkpt lat="45.4449473" lon="7.7092085"><ele>927.5714285714286</ele><time>2026-03-28T13:24:12.954Z</time></trkpt><trkpt lat="45.4450001" lon="7.7091533"><ele>926.4285714285714</ele><time>2026-03-28T13:24:13.954Z</time></trkpt><trkpt lat="45.4450605" lon="7.7091243"><ele>925.2857142857143</ele><time>2026-03-28T13:24:15.03Z</time></trkpt><trkpt lat="45.4451292" lon="7.7091271"><ele>924.1428571428571</ele><time>2026-03-28T13:24:16.032Z</time></trkpt><trkpt lat="45.4452101" lon="7.7091345"><ele>923.0</ele><time>2026-03-28T13:24:16.952Z</time></trkpt><trkpt lat="45.4452796" lon="7.7091505"><ele>923.0</ele><time>2026-03-28T13:24:17.947Z</time></trkpt><trkpt lat="45.445393" lon="7.7091598"><ele>923.0</ele><time>2026-03-28T13:24:19.978Z</time></trkpt><trkpt lat="45.4454451" lon="7.7092384"><ele>923.0</ele><time>2026-03-28T13:24:21.949Z</time></trkpt><trkpt lat="45.4453863" lon="7.7093145"><ele>923.0</ele><time>2026-03-28T13:24:25.017Z</time></trkpt><trkpt lat="45.4453123" lon="7.7093909"><ele>923.0</ele><time>2026-03-28T13:24:26.95Z</time></trkpt><trkpt lat="45.4452722" lon="7.7095069"><ele>921.8</ele><time>2026-03-28T13:24:28.941Z</time></trkpt><trkpt lat="45.4452783" lon="7.7096154"><ele>920.5999999999999</ele><time>2026-03-28T13:24:29.944Z</time></trkpt><trkpt lat="45.4453048" lon="7.7097068"><ele>919.4000000000001</ele><time>2026-03-28T13:24:30.945Z</time></trkpt><trkpt lat="45.4453346" lon="7.7097881"><ele>918.2</ele><time>2026-03-28T13:24:31.938Z</time></trkpt><trkpt lat="45.4453874" lon="7.7099499"><ele>917.0</ele><time>2026-03-28T13:24:33.952Z</time></trkpt><trkpt lat="45.4454272" lon="7.7101086"><ele>910.8</ele><time>2026-03-28T13:24:35.942Z</time></trkpt><trkpt lat="45.4454757" lon="7.7102431"><ele>904.6</ele><time>2026-03-28T13:24:37.944Z</time></trkpt><trkpt lat="45.4455422" lon="7.7103339"><ele>898.3999999999999</ele><time>2026-03-28T13:24:39.945Z</time></trkpt><trkpt lat="45.4456103" lon="7.7104044"><ele>892.1999999999999</ele><time>2026-03-28T13:24:41.949Z</time></trkpt><trkpt lat="45.4456818" lon="7.710459"><ele>886.0</ele><time>2026-03-28T13:24:43.949Z</time></trkpt><trkpt lat="45.4457641" lon="7.7105053"><ele>886.0</ele><time>2026-03-28T13:24:45.939Z</time></trkpt><trkpt lat="45.4458188" lon="7.7105841"><ele>885.9999999999999</ele><time>2026-03-28T13:24:46.953Z</time></trkpt><trkpt lat="45.4459128" lon="7.7106724"><ele>885.9999999999999</ele><time>2026-03-28T13:24:48.95Z</time></trkpt><trkpt lat="45.445988" lon="7.7107755"><ele>886.0</ele><time>2026-03-28T13:24:50.945Z</time></trkpt><trkpt lat="45.4460464" lon="7.7109033"><ele>886.0</ele><time>2026-03-28T13:24:52.952Z</time></trkpt><trkpt lat="45.4460772" lon="7.7110542"><ele>886.4</ele><time>2026-03-28T13:24:54.95Z</time></trkpt><trkpt lat="45.4460885" lon="7.7112215"><ele>886.8</ele><time>2026-03-28T13:24:56.955Z</time></trkpt><trkpt lat="45.4461025" lon="7.7113482"><ele>887.1999999999999</ele><time>2026-03-28T13:24:58.954Z</time></trkpt><trkpt lat="45.4461041" lon="7.7114916"><ele>887.5999999999999</ele><time>2026-03-28T13:25:00.953Z</time></trkpt><trkpt lat="45.446112" lon="7.7116445"><ele>888.0</ele><time>2026-03-28T13:25:02.944Z</time></trkpt><trkpt lat="45.4461339" lon="7.7117846"><ele>887.4</ele><time>2026-03-28T13:25:04.938Z</time></trkpt><trkpt lat="45.4461935" lon="7.7119073"><ele>886.8</ele><time>2026-03-28T13:25:06.942Z</time></trkpt><trkpt lat="45.446259" lon="7.7120213"><ele>886.2</ele><time>2026-03-28T13:25:08.935Z</time></trkpt><trkpt lat="45.4463138" lon="7.7121664"><ele>885.6</ele><time>2026-03-28T13:25:10.948Z</time></trkpt><trkpt lat="45.4463493" lon="7.7122966"><ele>885.0</ele><time>2026-03-28T13:25:12.955Z</time></trkpt><trkpt lat="45.4463604" lon="7.712457"><ele>877.8</ele><time>2026-03-28T13:25:14.954Z</time></trkpt><trkpt lat="45.4463749" lon="7.7126217"><ele>870.6</ele><time>2026-03-28T13:25:16.946Z</time></trkpt><trkpt lat="45.4463954" lon="7.7127126"><ele>863.4000000000001</ele><time>2026-03-28T13:25:17.952Z</time></trkpt><trkpt lat="45.4464127" lon="7.7127989"><ele>856.2</ele><time>2026-03-28T13:25:18.949Z</time></trkpt><trkpt lat="45.446457" lon="7.7129623"><ele>849.0</ele><time>2026-03-28T13:25:20.95Z</time></trkpt><trkpt lat="45.4465329" lon="7.7131039"><ele>848.6</ele><time>2026-03-28T13:25:22.952Z</time></trkpt><trkpt lat="45.4465899" lon="7.7132672"><ele>848.2</ele><time>2026-03-28T13:25:24.951Z</time></trkpt><trkpt lat="45.4466161" lon="7.7133547"><ele>847.8000000000001</ele><time>2026-03-28T13:25:25.957Z</time></trkpt><trkpt lat="45.4466787" lon="7.7134968"><ele>847.4000000000001</ele><time>2026-03-28T13:25:27.947Z</time></trkpt><trkpt lat="45.4467262" lon="7.7136528"><ele>847.0</ele><time>2026-03-28T13:25:29.942Z</time></trkpt><trkpt lat="45.4467494" lon="7.7137406"><ele>846.1666666666666</ele><time>2026-03-28T13:25:30.943Z</time></trkpt><trkpt lat="45.4467834" lon="7.7138262"><ele>845.3333333333333</ele><time>2026-03-28T13:25:31.943Z</time></trkpt><trkpt lat="45.4468188" lon="7.7139061"><ele>844.5</ele><time>2026-03-28T13:25:32.948Z</time></trkpt><trkpt lat="45.4468843" lon="7.7140432"><ele>843.6666666666667</ele><time>2026-03-28T13:25:34.943Z</time></trkpt><trkpt lat="45.4469124" lon="7.7141962"><ele>842.8333333333334</ele><time>2026-03-28T13:25:36.947Z</time></trkpt><trkpt lat="45.4468931" lon="7.7142905"><ele>842.0</ele><time>2026-03-28T13:25:37.944Z</time></trkpt><trkpt lat="45.4468673" lon="7.7143821"><ele>842.0</ele><time>2026-03-28T13:25:38.949Z</time></trkpt><trkpt lat="45.4468507" lon="7.7144725"><ele>842.0</ele><time>2026-03-28T13:25:39.946Z</time></trkpt><trkpt lat="45.4468522" lon="7.7146168"><ele>842.0</ele><time>2026-03-28T13:25:41.945Z</time></trkpt><trkpt lat="45.4468598" lon="7.7147865"><ele>842.0</ele><time>2026-03-28T13:25:43.947Z</time></trkpt><trkpt lat="45.4468629" lon="7.7149315"><ele>842.0</ele><time>2026-03-28T13:25:45.947Z</time></trkpt><trkpt lat="45.4468743" lon="7.7150736"><ele>842.0</ele><time>2026-03-28T13:25:47.955Z</time></trkpt><trkpt lat="45.4468929" lon="7.7152162"><ele>842.0</ele><time>2026-03-28T13:25:49.951Z</time></trkpt><trkpt lat="45.4468923" lon="7.7153429"><ele>842.0</ele><time>2026-03-28T13:25:51.947Z</time></trkpt><trkpt lat="45.4469213" lon="7.7155047"><ele>842.0</ele><time>2026-03-28T13:25:53.945Z</time></trkpt><trkpt lat="45.4469549" lon="7.7156662"><ele>842.0</ele><time>2026-03-28T13:25:55.952Z</time></trkpt><trkpt lat="45.4469519" lon="7.7157851"><ele>841.3333333333334</ele><time>2026-03-28T13:25:57.951Z</time></trkpt><trkpt lat="45.4469403" lon="7.7158873"><ele>840.6666666666667</ele><time>2026-03-28T13:25:59.943Z</time></trkpt><trkpt lat="45.4468925" lon="7.7160005"><ele>840.0</ele><time>2026-03-28T13:26:01.949Z</time></trkpt><trkpt lat="45.4468279" lon="7.7160718"><ele>839.3333333333333</ele><time>2026-03-28T13:26:04.943Z</time></trkpt><trkpt lat="45.4467621" lon="7.7160532"><ele>838.6666666666666</ele><time>2026-03-28T13:26:06.949Z</time></trkpt><trkpt lat="45.4467059" lon="7.7159743"><ele>838.0</ele><time>2026-03-28T13:26:08.941Z</time></trkpt><trkpt lat="45.4466613" lon="7.7158947"><ele>838.0</ele><time>2026-03-28T13:26:09.952Z</time></trkpt><trkpt lat="45.4466239" lon="7.7158192"><ele>838.0</ele><time>2026-03-28T13:26:10.939Z</time></trkpt><trkpt lat="45.4465479" lon="7.7156896"><ele>838.0</ele><time>2026-03-28T13:26:12.945Z</time></trkpt><trkpt lat="45.4464886" lon="7.7156157"><ele>838.0</ele><time>2026-03-28T13:26:14.942Z</time></trkpt><trkpt lat="45.4463867" lon="7.7155341"><ele>838.0</ele><time>2026-03-28T13:26:16.951Z</time></trkpt><trkpt lat="45.4463043" lon="7.7154719"><ele>843.2</ele><time>2026-03-28T13:26:17.952Z</time></trkpt><trkpt lat="45.4462254" lon="7.7154156"><ele>848.4</ele><time>2026-03-28T13:26:18.956Z</time></trkpt><trkpt lat="45.4461662" lon="7.7153651"><ele>853.6000000000001</ele><time>2026-03-28T13:26:19.945Z</time></trkpt><trkpt lat="45.4461009" lon="7.7152229"><ele>858.8000000000001</ele><time>2026-03-28T13:26:21.952Z</time></trkpt><trkpt lat="45.4460796" lon="7.7150499"><ele>864.0</ele><time>2026-03-28T13:26:23.946Z</time></trkpt><trkpt lat="45.4460674" lon="7.7148934"><ele>866.6</ele><time>2026-03-28T13:26:25.955Z</time></trkpt><trkpt lat="45.4460069" lon="7.7147473"><ele>869.2</ele><time>2026-03-28T13:26:27.943Z</time></trkpt><trkpt lat="45.4459096" lon="7.7146506"><ele>871.8000000000001</ele><time>2026-03-28T13:26:29.952Z</time></trkpt><trkpt lat="45.445839" lon="7.7146323"><ele>874.4000000000001</ele><time>2026-03-28T13:26:31.94Z</time></trkpt><trkpt lat="45.4457474" lon="7.7145885"><ele>877.0</ele><time>2026-03-28T13:26:34.954Z</time></trkpt><trkpt lat="45.4456608" lon="7.7145444"><ele>877.0</ele><time>2026-03-28T13:26:36.935Z</time></trkpt><trkpt lat="45.445549" lon="7.7145102"><ele>877.0</ele><time>2026-03-28T13:26:38.947Z</time></trkpt><trkpt lat="45.4454391" lon="7.7144715"><ele>877.0</ele><time>2026-03-28T13:26:40.946Z</time></trkpt><trkpt lat="45.4453151" lon="7.7144577"><ele>877.0</ele><time>2026-03-28T13:26:42.952Z</time></trkpt><trkpt lat="45.4451917" lon="7.7144504"><ele>883.6666666666666</ele><time>2026-03-28T13:26:44.953Z</time></trkpt><trkpt lat="45.4450749" lon="7.714464"><ele>890.3333333333333</ele><time>2026-03-28T13:26:46.953Z</time></trkpt><trkpt lat="45.4449969" lon="7.7144692"><ele>897.0</ele><time>2026-03-28T13:26:48.957Z</time></trkpt><trkpt lat="45.4449304" lon="7.7144789"><ele>903.6666666666667</ele><time>2026-03-28T13:26:50.952Z</time></trkpt><trkpt lat="45.4448499" lon="7.7144314"><ele>910.3333333333334</ele><time>2026-03-28T13:27:52.955Z</time></trkpt><trkpt lat="45.4447814" lon="7.7143962"><ele>917.0</ele><time>2026-03-28T13:27:55.945Z</time></trkpt><trkpt lat="45.4446962" lon="7.714355"><ele>917.2</ele><time>2026-03-28T13:27:57.949Z</time></trkpt><trkpt lat="45.4446235" lon="7.7143292"><ele>917.4000000000001</ele><time>2026-03-28T13:33:19.957Z</time></trkpt><trkpt lat="45.44453" lon="7.7143744"><ele>917.5999999999999</ele><time>2026-03-28T13:33:22.957Z</time></trkpt><trkpt lat="45.4444619" lon="7.7143204"><ele>917.8</ele><time>2026-03-28T13:33:25.954Z</time></trkpt><trkpt lat="45.4444418" lon="7.7141766"><ele>918.0</ele><time>2026-03-28T13:33:27.946Z</time></trkpt><trkpt lat="45.4444423" lon="7.7140283"><ele>918.0</ele><time>2026-03-28T13:33:29.956Z</time></trkpt><trkpt lat="45.4444479" lon="7.7139129"><ele>918.0</ele><time>2026-03-28T13:33:31.946Z</time></trkpt><trkpt lat="45.4444448" lon="7.7138035"><ele>918.0</ele><time>2026-03-28T13:33:33.958Z</time></trkpt><trkpt lat="45.4444317" lon="7.7136889"><ele>918.0</ele><time>2026-03-28T13:33:35.964Z</time></trkpt><trkpt lat="45.4444346" lon="7.7135284"><ele>918.0</ele><time>2026-03-28T13:33:37.953Z</time></trkpt><trkpt lat="45.4444359" lon="7.7134334"><ele>918.0</ele><time>2026-03-28T13:33:38.988Z</time></trkpt><trkpt lat="45.4444251" lon="7.7132734"><ele>919.5999999999999</ele><time>2026-03-28T13:33:40.956Z</time></trkpt><trkpt lat="45.4444434" lon="7.7130969"><ele>921.1999999999999</ele><time>2026-03-28T13:33:42.959Z</time></trkpt><trkpt lat="45.4444564" lon="7.7129618"><ele>922.8</ele><time>2026-03-28T13:33:45.041Z</time></trkpt><trkpt lat="45.4444704" lon="7.712858"><ele>924.4</ele><time>2026-03-28T13:33:46.959Z</time></trkpt><trkpt lat="45.4445013" lon="7.7127186"><ele>926.0</ele><time>2026-03-28T13:33:49.01Z</time></trkpt><trkpt lat="45.4445341" lon="7.7125646"><ele>926.8</ele><time>2026-03-28T13:33:50.955Z</time></trkpt><trkpt lat="45.4445357" lon="7.7124059"><ele>927.5999999999999</ele><time>2026-03-28T13:33:52.956Z</time></trkpt><trkpt lat="45.4445195" lon="7.7122595"><ele>928.4</ele><time>2026-03-28T13:33:54.955Z</time></trkpt><trkpt lat="45.4445281" lon="7.7120693"><ele>929.2</ele><time>2026-03-28T13:33:56.949Z</time></trkpt><trkpt lat="45.4445334" lon="7.7119627"><ele>930.0</ele><time>2026-03-28T13:33:57.96Z</time></trkpt><trkpt lat="45.4445395" lon="7.7118582"><ele>930.25</ele><time>2026-03-28T13:33:59.038Z</time></trkpt><trkpt lat="45.4445218" lon="7.7116925"><ele>930.5</ele><time>2026-03-28T13:34:00.947Z</time></trkpt><trkpt lat="45.4445003" lon="7.7115041"><ele>930.75</ele><time>2026-03-28T13:34:02.952Z</time></trkpt><trkpt lat="45.44448" lon="7.7114094"><ele>931.0</ele><time>2026-03-28T13:34:03.948Z</time></trkpt><trkpt lat="45.4444096" lon="7.7112347"><ele>931.0</ele><time>2026-03-28T13:34:06.019Z</time></trkpt><trkpt lat="45.4443393" lon="7.7111048"><ele>930.9999999999999</ele><time>2026-03-28T13:34:07.939Z</time></trkpt><trkpt lat="45.4442834" lon="7.7110379"><ele>930.9999999999999</ele><time>2026-03-28T13:34:09.01Z</time></trkpt><trkpt lat="45.4442283" lon="7.7109844"><ele>931.0</ele><time>2026-03-28T13:34:09.949Z</time></trkpt><trkpt lat="45.4441274" lon="7.7109085"><ele>931.0</ele><time>2026-03-28T13:34:11.941Z</time></trkpt><trkpt lat="45.4440344" lon="7.7108191"><ele>930.9999999999999</ele><time>2026-03-28T13:34:13.948Z</time></trkpt><trkpt lat="45.4440078" lon="7.7107302"><ele>931.0</ele><time>2026-03-28T13:34:15.949Z</time></trkpt><trkpt lat="45.4440257" lon="7.710619"><ele>931.0</ele><time>2026-03-28T13:34:17.957Z</time></trkpt><trkpt lat="45.4440764" lon="7.7105098"><ele>931.0</ele><time>2026-03-28T13:34:19.947Z</time></trkpt><trkpt lat="45.4441247" lon="7.7104113"><ele>930.9999999999999</ele><time>2026-03-28T13:34:21.949Z</time></trkpt><trkpt lat="45.444168" lon="7.7102755"><ele>931.0</ele><time>2026-03-28T13:34:23.964Z</time></trkpt><trkpt lat="45.4441962" lon="7.7101938"><ele>930.9999999999999</ele><time>2026-03-28T13:34:24.955Z</time></trkpt><trkpt lat="45.4442249" lon="7.7101085"><ele>931.0</ele><time>2026-03-28T13:34:25.938Z</time></trkpt><trkpt lat="45.444265" lon="7.7100374"><ele>931.0</ele><time>2026-03-28T13:34:26.94Z</time></trkpt><trkpt lat="45.4443467" lon="7.7099028"><ele>931.0</ele><time>2026-03-28T13:34:28.952Z</time></trkpt><trkpt lat="45.4443836" lon="7.7098259"><ele>930.9999999999999</ele><time>2026-03-28T13:34:30.041Z</time></trkpt><trkpt lat="45.4444104" lon="7.7097377"><ele>931.0</ele><time>2026-03-28T13:34:31.039Z</time></trkpt><trkpt lat="45.4444309" lon="7.7096399"><ele>930.9999999999999</ele><time>2026-03-28T13:34:31.964Z</time></trkpt><trkpt lat="45.4444527" lon="7.7095538"><ele>931.0</ele><time>2026-03-28T13:34:32.951Z</time></trkpt><trkpt lat="45.4444691" lon="7.7094623"><ele>931.0</ele><time>2026-03-28T13:34:33.992Z</time></trkpt><trkpt lat="45.4445218" lon="7.7092876"><ele>931.0</ele><time>2026-03-28T13:34:36.031Z</time></trkpt><trkpt lat="45.4445448" lon="7.7092009"><ele>930.9999999999999</ele><time>2026-03-28T13:34:36.953Z</time></trkpt><trkpt lat="45.4445708" lon="7.7090974"><ele>931.0</ele><time>2026-03-28T13:34:38.027Z</time></trkpt><trkpt lat="45.4445907" lon="7.7089964"><ele>931.0</ele><time>2026-03-28T13:34:38.951Z</time></trkpt><trkpt lat="45.4446174" lon="7.7088996"><ele>931.0</ele><time>2026-03-28T13:34:40.057Z</time></trkpt><trkpt lat="45.4446387" lon="7.7088034"><ele>931.0</ele><time>2026-03-28T13:34:41.031Z</time></trkpt><trkpt lat="45.4446645" lon="7.7087158"><ele>931.0</ele><time>2026-03-28T13:34:41.953Z</time></trkpt><trkpt lat="45.4446904" lon="7.7086244"><ele>931.0</ele><time>2026-03-28T13:34:42.955Z</time></trkpt><trkpt lat="45.4447297" lon="7.708533"><ele>931.0</ele><time>2026-03-28T13:34:43.964Z</time></trkpt><trkpt lat="45.4447682" lon="7.7084302"><ele>931.0</ele><time>2026-03-28T13:34:45.029Z</time></trkpt><trkpt lat="45.4447966" lon="7.7083348"><ele>930.9999999999999</ele><time>2026-03-28T13:34:46.03Z</time></trkpt><trkpt lat="45.4448251" lon="7.7082428"><ele>931.0</ele><time>2026-03-28T13:34:46.963Z</time></trkpt><trkpt lat="45.4448614" lon="7.708137"><ele>931.0</ele><time>2026-03-28T13:34:48.036Z</time></trkpt><trkpt lat="45.4448995" lon="7.7080373"><ele>931.0</ele><time>2026-03-28T13:34:49.031Z</time></trkpt><trkpt lat="45.4449383" lon="7.7079486"><ele>930.9999999999999</ele><time>2026-03-28T13:34:50.035Z</time></trkpt><trkpt lat="45.4450127" lon="7.7078031"><ele>931.0</ele><time>2026-03-28T13:34:51.95Z</time></trkpt><trkpt lat="45.445052" lon="7.7077204"><ele>932.4</ele><time>2026-03-28T13:34:52.947Z</time></trkpt><trkpt lat="45.4450875" lon="7.7076393"><ele>933.8</ele><time>2026-03-28T13:34:53.965Z</time></trkpt><trkpt lat="45.4451514" lon="7.7074906"><ele>935.1999999999999</ele><time>2026-03-28T13:34:55.963Z</time></trkpt><trkpt lat="45.4451906" lon="7.7074181"><ele>936.5999999999999</ele><time>2026-03-28T13:34:56.969Z</time></trkpt><trkpt lat="45.4452732" lon="7.7072969"><ele>938.0</ele><time>2026-03-28T13:34:58.958Z</time></trkpt><trkpt lat="45.4453662" lon="7.7072072"><ele>938.0</ele><time>2026-03-28T13:35:00.965Z</time></trkpt><trkpt lat="45.4454557" lon="7.7071454"><ele>938.0</ele><time>2026-03-28T13:35:02.966Z</time></trkpt><trkpt lat="45.4455631" lon="7.7071394"><ele>938.0</ele><time>2026-03-28T13:35:04.966Z</time></trkpt><trkpt lat="45.4456274" lon="7.70713"><ele>938.0</ele><time>2026-03-28T13:35:06.034Z</time></trkpt><trkpt lat="45.445756" lon="7.7070991"><ele>938.0</ele><time>2026-03-28T13:35:07.967Z</time></trkpt><trkpt lat="45.4458186" lon="7.7070537"><ele>936.8333333333334</ele><time>2026-03-28T13:35:08.961Z</time></trkpt><trkpt lat="45.4458774" lon="7.7069909"><ele>935.6666666666667</ele><time>2026-03-28T13:35:10.053Z</time></trkpt><trkpt lat="45.4459271" lon="7.7069178"><ele>934.5</ele><time>2026-03-28T13:35:11.03Z</time></trkpt><trkpt lat="45.4459699" lon="7.7068274"><ele>933.3333333333333</ele><time>2026-03-28T13:35:11.955Z</time></trkpt><trkpt lat="45.4460038" lon="7.7067317"><ele>932.1666666666666</ele><time>2026-03-28T13:35:12.956Z</time></trkpt><trkpt lat="45.4460308" lon="7.7066275"><ele>931.0</ele><time>2026-03-28T13:35:13.959Z</time></trkpt><trkpt lat="45.4460677" lon="7.7065226"><ele>933.3333333333333</ele><time>2026-03-28T13:35:14.963Z</time></trkpt><trkpt lat="45.4460971" lon="7.706421"><ele>935.6666666666666</ele><time>2026-03-28T13:35:16.018Z</time></trkpt><trkpt lat="45.4461385" lon="7.7063113"><ele>938.0</ele><time>2026-03-28T13:35:16.966Z</time></trkpt><trkpt lat="45.4461889" lon="7.7062061"><ele>940.3333333333333</ele><time>2026-03-28T13:35:18.012Z</time></trkpt><trkpt lat="45.4462351" lon="7.7061002"><ele>942.6666666666666</ele><time>2026-03-28T13:35:18.944Z</time></trkpt><trkpt lat="45.4462849" lon="7.7059885"><ele>945.0</ele><time>2026-03-28T13:35:19.954Z</time></trkpt><trkpt lat="45.4463396" lon="7.7058857"><ele>945.0</ele><time>2026-03-28T13:35:20.95Z</time></trkpt><trkpt lat="45.4463863" lon="7.7057958"><ele>945.0</ele><time>2026-03-28T13:35:21.955Z</time></trkpt><trkpt lat="45.4464339" lon="7.7057089"><ele>945.0</ele><time>2026-03-28T13:35:22.949Z</time></trkpt><trkpt lat="45.4464742" lon="7.7055951"><ele>945.0</ele><time>2026-03-28T13:35:24.038Z</time></trkpt><trkpt lat="45.4465124" lon="7.7054961"><ele>945.0</ele><time>2026-03-28T13:35:25.034Z</time></trkpt><trkpt lat="45.4465627" lon="7.7054175"><ele>945.0</ele><time>2026-03-28T13:35:26.031Z</time></trkpt><trkpt lat="45.4466262" lon="7.7053616"><ele>945.0</ele><time>2026-03-28T13:35:26.972Z</time></trkpt><trkpt lat="45.4466917" lon="7.7053178"><ele>945.0</ele><time>2026-03-28T13:35:28.032Z</time></trkpt><trkpt lat="45.4467546" lon="7.705302"><ele>945.0</ele><time>2026-03-28T13:35:29.037Z</time></trkpt><trkpt lat="45.4468391" lon="7.7053019"><ele>945.0</ele><time>2026-03-28T13:35:30.032Z</time></trkpt><trkpt lat="45.4469209" lon="7.7053062"><ele>945.0</ele><time>2026-03-28T13:35:30.976Z</time></trkpt><trkpt lat="45.4469952" lon="7.7052998"><ele>945.0</ele><time>2026-03-28T13:35:31.95Z</time></trkpt><trkpt lat="45.4470585" lon="7.7052743"><ele>945.0</ele><time>2026-03-28T13:35:32.957Z</time></trkpt><trkpt lat="45.4471713" lon="7.7051411"><ele>945.8</ele><time>2026-03-28T13:35:34.957Z</time></trkpt><trkpt lat="45.4472553" lon="7.704992"><ele>946.6</ele><time>2026-03-28T13:35:36.957Z</time></trkpt><trkpt lat="45.4472942" lon="7.7049181"><ele>947.4000000000001</ele><time>2026-03-28T13:35:37.957Z</time></trkpt><trkpt lat="45.4473439" lon="7.7048522"><ele>948.2</ele><time>2026-03-28T13:35:39.015Z</time></trkpt><trkpt lat="45.4474224" lon="7.7047266"><ele>949.0</ele><time>2026-03-28T13:35:41.034Z</time></trkpt><trkpt lat="45.4474578" lon="7.7046467"><ele>949.0</ele><time>2026-03-28T13:35:41.952Z</time></trkpt><trkpt lat="45.4475311" lon="7.7045365"><ele>949.0000000000001</ele><time>2026-03-28T13:35:43.951Z</time></trkpt><trkpt lat="45.4476427" lon="7.7044467"><ele>949.0000000000001</ele><time>2026-03-28T13:35:45.951Z</time></trkpt><trkpt lat="45.4477095" lon="7.704404"><ele>949.0</ele><time>2026-03-28T13:35:46.943Z</time></trkpt><trkpt lat="45.4477724" lon="7.7043721"><ele>949.0</ele><time>2026-03-28T13:35:47.945Z</time></trkpt><trkpt lat="45.4478811" lon="7.7043866"><ele>949.6666666666666</ele><time>2026-03-28T13:35:50.028Z</time></trkpt><trkpt lat="45.44797" lon="7.7044125"><ele>950.3333333333333</ele><time>2026-03-28T13:35:51.962Z</time></trkpt><trkpt lat="45.4480415" lon="7.7043353"><ele>951.0</ele><time>2026-03-28T13:35:53.952Z</time></trkpt><trkpt lat="45.4480984" lon="7.7042601"><ele>951.6666666666667</ele><time>2026-03-28T13:35:54.955Z</time></trkpt><trkpt lat="45.448144" lon="7.7041837"><ele>952.3333333333334</ele><time>2026-03-28T13:35:56.032Z</time></trkpt><trkpt lat="45.4481939" lon="7.7041066"><ele>953.0</ele><time>2026-03-28T13:35:56.955Z</time></trkpt><trkpt lat="45.448237" lon="7.7040346"><ele>953.0</ele><time>2026-03-28T13:35:57.953Z</time></trkpt><trkpt lat="45.4482796" lon="7.7039594"><ele>953.0</ele><time>2026-03-28T13:35:58.973Z</time></trkpt><trkpt lat="45.4483332" lon="7.7038494"><ele>953.0</ele><time>2026-03-28T13:36:00.953Z</time></trkpt><trkpt lat="45.4484079" lon="7.7038361"><ele>953.0</ele><time>2026-03-28T13:36:02.952Z</time></trkpt><trkpt lat="45.448505" lon="7.7038903"><ele>953.0</ele><time>2026-03-28T13:36:04.951Z</time></trkpt><trkpt lat="45.4485858" lon="7.7040106"><ele>953.0</ele><time>2026-03-28T13:36:06.956Z</time></trkpt><trkpt lat="45.4486567" lon="7.7041425"><ele>953.0</ele><time>2026-03-28T13:36:08.95Z</time></trkpt><trkpt lat="45.4487178" lon="7.7043121"><ele>953.0</ele><time>2026-03-28T13:36:10.958Z</time></trkpt><trkpt lat="45.44875" lon="7.7043896"><ele>953.0</ele><time>2026-03-28T13:36:11.951Z</time></trkpt><trkpt lat="45.4487865" lon="7.7044636"><ele>953.0</ele><time>2026-03-28T13:36:13.037Z</time></trkpt><trkpt lat="45.4488377" lon="7.7045483"><ele>954.0</ele><time>2026-03-28T13:36:13.959Z</time></trkpt><trkpt lat="45.4488969" lon="7.7046555"><ele>955.0</ele><time>2026-03-28T13:36:15.048Z</time></trkpt><trkpt lat="45.448956" lon="7.7047499"><ele>956.0</ele><time>2026-03-28T13:36:15.966Z</time></trkpt><trkpt lat="45.448999" lon="7.704816"><ele>957.0</ele><time>2026-03-28T13:36:16.965Z</time></trkpt><trkpt lat="45.4490865" lon="7.7049181"><ele>958.0</ele><time>2026-03-28T13:36:19.031Z</time></trkpt><trkpt lat="45.4491733" lon="7.7049841"><ele>958.0</ele><time>2026-03-28T13:36:20.971Z</time></trkpt><trkpt lat="45.449284" lon="7.7050615"><ele>958.0</ele><time>2026-03-28T13:36:22.978Z</time></trkpt><trkpt lat="45.4493778" lon="7.7051864"><ele>958.0</ele><time>2026-03-28T13:36:25.038Z</time></trkpt><trkpt lat="45.4494214" lon="7.7052578"><ele>958.0</ele><time>2026-03-28T13:36:25.946Z</time></trkpt><trkpt lat="45.4494677" lon="7.7053304"><ele>958.0</ele><time>2026-03-28T13:36:26.955Z</time></trkpt><trkpt lat="45.4495343" lon="7.7054776"><ele>957.3333333333333</ele><time>2026-03-28T13:36:28.947Z</time></trkpt><trkpt lat="45.4496022" lon="7.7055838"><ele>956.6666666666666</ele><time>2026-03-28T13:36:30.961Z</time></trkpt><trkpt lat="45.4496699" lon="7.7055806"><ele>956.0</ele><time>2026-03-28T13:36:32.952Z</time></trkpt><trkpt lat="45.4497608" lon="7.7055782"><ele>955.3333333333333</ele><time>2026-03-28T13:36:35.956Z</time></trkpt><trkpt lat="45.4498255" lon="7.7056083"><ele>954.6666666666666</ele><time>2026-03-28T13:36:37.957Z</time></trkpt><trkpt lat="45.4498777" lon="7.705663"><ele>954.0</ele><time>2026-03-28T13:36:40.95Z</time></trkpt><trkpt lat="45.4499417" lon="7.7056406"><ele>954.0</ele><time>2026-03-28T13:36:47.951Z</time></trkpt><trkpt lat="45.450008" lon="7.7056298"><ele>953.9999999999999</ele><time>2026-03-28T13:36:49.953Z</time></trkpt><trkpt lat="45.4500688" lon="7.7056742"><ele>954.0</ele><time>2026-03-28T13:36:53.049Z</time></trkpt><trkpt lat="45.4500572" lon="7.7057728"><ele>954.0</ele><time>2026-03-28T13:36:56.958Z</time></trkpt><trkpt lat="45.4500608" lon="7.70588"><ele>953.9999999999999</ele><time>2026-03-28T13:37:01.007Z</time></trkpt><trkpt lat="45.4500986" lon="7.7059531"><ele>954.0</ele><time>2026-03-28T13:37:02.963Z</time></trkpt><trkpt lat="45.4501387" lon="7.7060643"><ele>954.0</ele><time>2026-03-28T13:37:04.955Z</time></trkpt><trkpt lat="45.4501603" lon="7.7061877"><ele>955.0</ele><time>2026-03-28T13:37:06.939Z</time></trkpt><trkpt lat="45.4502053" lon="7.7063527"><ele>956.0000000000001</ele><time>2026-03-28T13:37:08.954Z</time></trkpt><trkpt lat="45.4502559" lon="7.7064854"><ele>957.0000000000001</ele><time>2026-03-28T13:37:11.036Z</time></trkpt><trkpt lat="45.4503284" lon="7.7065826"><ele>958.0</ele><time>2026-03-28T13:37:12.969Z</time></trkpt><trkpt lat="45.4503973" lon="7.706684"><ele>959.0</ele><time>2026-03-28T13:37:14.965Z</time></trkpt><trkpt lat="45.4504765" lon="7.7067546"><ele>959.0000000000001</ele><time>2026-03-28T13:37:16.954Z</time></trkpt><trkpt lat="45.4505463" lon="7.7067885"><ele>959.0</ele><time>2026-03-28T13:37:18.965Z</time></trkpt><trkpt lat="45.4506132" lon="7.7068098"><ele>959.0</ele><time>2026-03-28T13:37:20.97Z</time></trkpt><trkpt lat="45.4506787" lon="7.7068301"><ele>959.0</ele><time>2026-03-28T13:37:22.963Z</time></trkpt><trkpt lat="45.4507546" lon="7.7068473"><ele>959.0000000000001</ele><time>2026-03-28T13:37:24.966Z</time></trkpt><trkpt lat="45.4508528" lon="7.7069189"><ele>959.0</ele><time>2026-03-28T13:37:26.969Z</time></trkpt><trkpt lat="45.4509495" lon="7.706997"><ele>960.25</ele><time>2026-03-28T13:37:28.951Z</time></trkpt><trkpt lat="45.4510494" lon="7.7070944"><ele>961.5</ele><time>2026-03-28T13:37:30.97Z</time></trkpt><trkpt lat="45.4511504" lon="7.7071879"><ele>962.75</ele><time>2026-03-28T13:37:32.955Z</time></trkpt><trkpt lat="45.4512414" lon="7.7072665"><ele>964.0</ele><time>2026-03-28T13:37:34.96Z</time></trkpt><trkpt lat="45.4513176" lon="7.7073875"><ele>964.0</ele><time>2026-03-28T13:37:36.953Z</time></trkpt><trkpt lat="45.4513697" lon="7.7075067"><ele>964.0000000000001</ele><time>2026-03-28T13:37:38.951Z</time></trkpt><trkpt lat="45.4514394" lon="7.7076267"><ele>964.0000000000001</ele><time>2026-03-28T13:37:41.037Z</time></trkpt><trkpt lat="45.4515083" lon="7.7077648"><ele>964.0</ele><time>2026-03-28T13:37:42.952Z</time></trkpt><trkpt lat="45.4515832" lon="7.7078667"><ele>964.0</ele><time>2026-03-28T13:37:44.938Z</time></trkpt><trkpt lat="45.4516835" lon="7.7079372"><ele>962.1666666666666</ele><time>2026-03-28T13:37:46.949Z</time></trkpt><trkpt lat="45.4517455" lon="7.7079604"><ele>960.3333333333333</ele><time>2026-03-28T13:37:47.935Z</time></trkpt><trkpt lat="45.4518559" lon="7.707975"><ele>958.5</ele><time>2026-03-28T13:37:49.957Z</time></trkpt><trkpt lat="45.451957" lon="7.7079539"><ele>956.6666666666667</ele><time>2026-03-28T13:37:51.937Z</time></trkpt><trkpt lat="45.4520215" lon="7.7079153"><ele>954.8333333333334</ele><time>2026-03-28T13:37:52.94Z</time></trkpt><trkpt lat="45.4521208" lon="7.7078805"><ele>953.0</ele><time>2026-03-28T13:37:54.939Z</time></trkpt><trkpt lat="45.4521872" lon="7.7078868"><ele>953.0</ele><time>2026-03-28T13:37:55.94Z</time></trkpt><trkpt lat="45.4522994" lon="7.7079077"><ele>953.0</ele><time>2026-03-28T13:37:57.94Z</time></trkpt><trkpt lat="45.4523447" lon="7.7080201"><ele>953.0</ele><time>2026-03-28T13:37:59.937Z</time></trkpt><trkpt lat="45.4523898" lon="7.7081624"><ele>953.0</ele><time>2026-03-28T13:38:01.946Z</time></trkpt><trkpt lat="45.4524584" lon="7.7082821"><ele>953.0</ele><time>2026-03-28T13:38:03.946Z</time></trkpt><trkpt lat="45.4525625" lon="7.708324"><ele>953.0000000000001</ele><time>2026-03-28T13:38:05.951Z</time></trkpt><trkpt lat="45.4526858" lon="7.7083203"><ele>953.0</ele><time>2026-03-28T13:38:07.943Z</time></trkpt><trkpt lat="45.4527607" lon="7.7082925"><ele>953.0</ele><time>2026-03-28T13:38:08.951Z</time></trkpt><trkpt lat="45.4528334" lon="7.7082613"><ele>953.0</ele><time>2026-03-28T13:38:09.944Z</time></trkpt><trkpt lat="45.4528985" lon="7.708223"><ele>953.0000000000001</ele><time>2026-03-28T13:38:10.937Z</time></trkpt><trkpt lat="45.4529624" lon="7.7081836"><ele>953.0</ele><time>2026-03-28T13:38:11.944Z</time></trkpt><trkpt lat="45.4530229" lon="7.7081541"><ele>952.8</ele><time>2026-03-28T13:38:12.948Z</time></trkpt><trkpt lat="45.4531301" lon="7.7082174"><ele>952.5999999999999</ele><time>2026-03-28T13:38:14.951Z</time></trkpt><trkpt lat="45.4531808" lon="7.7083087"><ele>952.4000000000001</ele><time>2026-03-28T13:38:15.94Z</time></trkpt><trkpt lat="45.4532302" lon="7.7084157"><ele>952.2</ele><time>2026-03-28T13:38:16.949Z</time></trkpt><trkpt lat="45.4532772" lon="7.7085219"><ele>952.0</ele><time>2026-03-28T13:38:17.942Z</time></trkpt><trkpt lat="45.4533152" lon="7.7086188"><ele>952.0</ele><time>2026-03-28T13:38:18.945Z</time></trkpt><trkpt lat="45.4533515" lon="7.7087166"><ele>952.0</ele><time>2026-03-28T13:38:19.95Z</time></trkpt><trkpt lat="45.4533835" lon="7.7088084"><ele>952.0</ele><time>2026-03-28T13:38:20.951Z</time></trkpt><trkpt lat="45.4534033" lon="7.7089011"><ele>952.0</ele><time>2026-03-28T13:38:21.943Z</time></trkpt><trkpt lat="45.4534322" lon="7.7089826"><ele>952.0</ele><time>2026-03-28T13:38:23.034Z</time></trkpt><trkpt lat="45.4534717" lon="7.7090653"><ele>952.0</ele><time>2026-03-28T13:38:24.02Z</time></trkpt><trkpt lat="45.4535057" lon="7.7091471"><ele>952.0</ele><time>2026-03-28T13:38:25.017Z</time></trkpt><trkpt lat="45.4535337" lon="7.709241"><ele>951.9999999999999</ele><time>2026-03-28T13:38:25.942Z</time></trkpt><trkpt lat="45.4535562" lon="7.7093426"><ele>952.0</ele><time>2026-03-28T13:38:26.945Z</time></trkpt><trkpt lat="45.4535822" lon="7.7094423"><ele>952.0</ele><time>2026-03-28T13:38:27.955Z</time></trkpt><trkpt lat="45.4536087" lon="7.7095359"><ele>952.0</ele><time>2026-03-28T13:38:28.986Z</time></trkpt><trkpt lat="45.4536423" lon="7.7096122"><ele>951.9999999999999</ele><time>2026-03-28T13:38:29.959Z</time></trkpt><trkpt lat="45.4537121" lon="7.7097548"><ele>952.0</ele><time>2026-03-28T13:38:31.965Z</time></trkpt><trkpt lat="45.4538023" lon="7.7098695"><ele>951.8333333333333</ele><time>2026-03-28T13:38:33.957Z</time></trkpt><trkpt lat="45.453901" lon="7.7099552"><ele>951.6666666666666</ele><time>2026-03-28T13:38:35.957Z</time></trkpt><trkpt lat="45.4539585" lon="7.7100014"><ele>951.5</ele><time>2026-03-28T13:38:36.955Z</time></trkpt><trkpt lat="45.4540117" lon="7.7100625"><ele>951.3333333333333</ele><time>2026-03-28T13:38:37.959Z</time></trkpt><trkpt lat="45.4540662" lon="7.7101433"><ele>951.1666666666666</ele><time>2026-03-28T13:38:38.958Z</time></trkpt><trkpt lat="45.45411" lon="7.7102557"><ele>951.0</ele><time>2026-03-28T13:38:39.949Z</time></trkpt><trkpt lat="45.4541575" lon="7.7103614"><ele>951.0</ele><time>2026-03-28T13:38:40.947Z</time></trkpt><trkpt lat="45.4542058" lon="7.7104816"><ele>951.0</ele><time>2026-03-28T13:38:41.942Z</time></trkpt><trkpt lat="45.4542566" lon="7.7105927"><ele>951.0</ele><time>2026-03-28T13:38:43.02Z</time></trkpt><trkpt lat="45.4543106" lon="7.7106967"><ele>951.0</ele><time>2026-03-28T13:38:43.944Z</time></trkpt><trkpt lat="45.454344" lon="7.7107907"><ele>951.0</ele><time>2026-03-28T13:38:44.959Z</time></trkpt><trkpt lat="45.4543553" lon="7.7108824"><ele>951.0</ele><time>2026-03-28T13:38:45.94Z</time></trkpt><trkpt lat="45.4543675" lon="7.7110591"><ele>950.1666666666666</ele><time>2026-03-28T13:38:47.95Z</time></trkpt><trkpt lat="45.4543692" lon="7.7111504"><ele>949.3333333333333</ele><time>2026-03-28T13:38:48.941Z</time></trkpt><trkpt lat="45.4544112" lon="7.7112995"><ele>948.5</ele><time>2026-03-28T13:38:50.94Z</time></trkpt><trkpt lat="45.4545108" lon="7.7114131"><ele>947.6666666666666</ele><time>2026-03-28T13:38:52.948Z</time></trkpt><trkpt lat="45.45457" lon="7.7114603"><ele>946.8333333333333</ele><time>2026-03-28T13:38:53.951Z</time></trkpt><trkpt lat="45.4546318" lon="7.7114973"><ele>946.0</ele><time>2026-03-28T13:38:54.941Z</time></trkpt><trkpt lat="45.4547071" lon="7.7115478"><ele>945.8</ele><time>2026-03-28T13:38:55.952Z</time></trkpt><trkpt lat="45.4547817" lon="7.7116033"><ele>945.5999999999999</ele><time>2026-03-28T13:38:56.95Z</time></trkpt><trkpt lat="45.4548458" lon="7.7116584"><ele>945.4</ele><time>2026-03-28T13:38:57.934Z</time></trkpt><trkpt lat="45.4549013" lon="7.7117195"><ele>945.2</ele><time>2026-03-28T13:38:58.949Z</time></trkpt><trkpt lat="45.4549783" lon="7.7118408"><ele>945.0</ele><time>2026-03-28T13:39:00.951Z</time></trkpt><trkpt lat="45.4550708" lon="7.7119195"><ele>945.0</ele><time>2026-03-28T13:39:02.945Z</time></trkpt><trkpt lat="45.4551922" lon="7.7119423"><ele>945.0</ele><time>2026-03-28T13:39:04.946Z</time></trkpt><trkpt lat="45.4552619" lon="7.7119345"><ele>945.0</ele><time>2026-03-28T13:39:05.949Z</time></trkpt><trkpt lat="45.455331" lon="7.7119303"><ele>945.0</ele><time>2026-03-28T13:39:06.949Z</time></trkpt><trkpt lat="45.4553971" lon="7.7119397"><ele>945.0</ele><time>2026-03-28T13:39:07.947Z</time></trkpt><trkpt lat="45.4555046" lon="7.7119961"><ele>945.0</ele><time>2026-03-28T13:39:09.951Z</time></trkpt><trkpt lat="45.4555562" lon="7.7121212"><ele>945.3333333333334</ele><time>2026-03-28T13:39:11.955Z</time></trkpt><trkpt lat="45.4555534" lon="7.7122149"><ele>945.6666666666667</ele><time>2026-03-28T13:39:12.947Z</time></trkpt><trkpt lat="45.455535" lon="7.712321"><ele>946.0</ele><time>2026-03-28T13:39:13.947Z</time></trkpt><trkpt lat="45.4555095" lon="7.7124146"><ele>946.3333333333334</ele><time>2026-03-28T13:39:14.951Z</time></trkpt><trkpt lat="45.4554779" lon="7.7125204"><ele>946.6666666666667</ele><time>2026-03-28T13:39:15.949Z</time></trkpt><trkpt lat="45.4554634" lon="7.7126458"><ele>947.0</ele><time>2026-03-28T13:39:16.95Z</time></trkpt><trkpt lat="45.4554638" lon="7.7127766"><ele>946.2</ele><time>2026-03-28T13:39:18.013Z</time></trkpt><trkpt lat="45.4554966" lon="7.7129021"><ele>945.4000000000001</ele><time>2026-03-28T13:39:19.027Z</time></trkpt><trkpt lat="45.4555492" lon="7.7130296"><ele>944.5999999999999</ele><time>2026-03-28T13:39:20.007Z</time></trkpt><trkpt lat="45.4555944" lon="7.7131687"><ele>943.8</ele><time>2026-03-28T13:39:21.018Z</time></trkpt><trkpt lat="45.4556402" lon="7.7133263"><ele>943.0</ele><time>2026-03-28T13:39:21.952Z</time></trkpt><trkpt lat="45.4556975" lon="7.7134865"><ele>942.5999999999999</ele><time>2026-03-28T13:39:22.952Z</time></trkpt><trkpt lat="45.4557599" lon="7.7136416"><ele>942.1999999999999</ele><time>2026-03-28T13:39:23.97Z</time></trkpt><trkpt lat="45.4558258" lon="7.7137693"><ele>941.8</ele><time>2026-03-28T13:39:24.954Z</time></trkpt><trkpt lat="45.4558944" lon="7.7138712"><ele>941.4</ele><time>2026-03-28T13:39:25.948Z</time></trkpt><trkpt lat="45.4559525" lon="7.7139716"><ele>941.0</ele><time>2026-03-28T13:39:26.952Z</time></trkpt><trkpt lat="45.4560008" lon="7.7140648"><ele>941.0</ele><time>2026-03-28T13:39:27.955Z</time></trkpt><trkpt lat="45.4560276" lon="7.7141703"><ele>940.9999999999999</ele><time>2026-03-28T13:39:28.961Z</time></trkpt><trkpt lat="45.4560439" lon="7.7142808"><ele>940.9999999999999</ele><time>2026-03-28T13:39:29.944Z</time></trkpt><trkpt lat="45.456064" lon="7.714427"><ele>941.0</ele><time>2026-03-28T13:39:30.947Z</time></trkpt><trkpt lat="45.456068" lon="7.7146125"><ele>941.0</ele><time>2026-03-28T13:39:31.95Z</time></trkpt><trkpt lat="45.4560691" lon="7.7148401"><ele>939.3333333333334</ele><time>2026-03-28T13:39:32.95Z</time></trkpt><trkpt lat="45.4560672" lon="7.7151221"><ele>937.6666666666667</ele><time>2026-03-28T13:39:33.951Z</time></trkpt><trkpt lat="45.4560669" lon="7.7154316"><ele>936.0</ele><time>2026-03-28T13:39:34.946Z</time></trkpt><trkpt lat="45.4560631" lon="7.7157271"><ele>936.0</ele><time>2026-03-28T13:39:35.948Z</time></trkpt><trkpt lat="45.4560642" lon="7.7159847"><ele>936.0</ele><time>2026-03-28T13:39:36.937Z</time></trkpt><trkpt lat="45.4560594" lon="7.7162506"><ele>936.0</ele><time>2026-03-28T13:39:37.947Z</time></trkpt><trkpt lat="45.456061" lon="7.7165464"><ele>937.0</ele><time>2026-03-28T13:39:38.953Z</time></trkpt><trkpt lat="45.4560694" lon="7.7168158"><ele>938.0</ele><time>2026-03-28T13:39:39.949Z</time></trkpt><trkpt lat="45.4560708" lon="7.7170147"><ele>939.0</ele><time>2026-03-28T13:39:40.951Z</time></trkpt><trkpt lat="45.456073" lon="7.7171389"><ele>940.0</ele><time>2026-03-28T13:39:41.947Z</time></trkpt><trkpt lat="45.4560517" lon="7.7172894"><ele>940.8333333333333</ele><time>2026-03-28T13:39:43.948Z</time></trkpt><trkpt lat="45.4560264" lon="7.7173826"><ele>941.6666666666666</ele><time>2026-03-28T13:39:45.942Z</time></trkpt><trkpt lat="45.4560666" lon="7.7172665"><ele>942.5</ele><time>2026-03-28T13:42:02.953Z</time></trkpt><trkpt lat="45.4560258" lon="7.7173376"><ele>943.3333333333333</ele><time>2026-03-28T13:43:17.966Z</time></trkpt><trkpt lat="45.4559973" lon="7.7174306"><ele>944.1666666666666</ele><time>2026-03-28T13:44:05.979Z</time></trkpt><trkpt lat="45.4560629" lon="7.7173395"><ele>945.0</ele><time>2026-03-28T13:44:25.948Z</time></trkpt><trkpt lat="45.4560109" lon="7.717413"><ele>945.0</ele><time>2026-03-28T13:52:08.964Z</time></trkpt><trkpt lat="45.4559938" lon="7.7173143"><ele>945.0</ele><time>2026-03-28T13:52:12.958Z</time></trkpt><trkpt lat="45.4560078" lon="7.717157"><ele>945.0</ele><time>2026-03-28T13:52:14.965Z</time></trkpt><trkpt lat="45.4560156" lon="7.7170415"><ele>945.0</ele><time>2026-03-28T13:52:15.942Z</time></trkpt><trkpt lat="45.4560298" lon="7.716881"><ele>945.0</ele><time>2026-03-28T13:52:16.956Z</time></trkpt><trkpt lat="45.4560541" lon="7.7167004"><ele>943.75</ele><time>2026-03-28T13:52:17.956Z</time></trkpt><trkpt lat="45.4560664" lon="7.7164998"><ele>942.5</ele><time>2026-03-28T13:52:18.96Z</time></trkpt><trkpt lat="45.4560752" lon="7.7163047"><ele>941.25</ele><time>2026-03-28T13:52:19.957Z</time></trkpt><trkpt lat="45.4560709" lon="7.7161263"><ele>940.0</ele><time>2026-03-28T13:52:20.96Z</time></trkpt><trkpt lat="45.4560669" lon="7.7159673"><ele>939.3333333333333</ele><time>2026-03-28T13:52:21.955Z</time></trkpt><trkpt lat="45.4560589" lon="7.7158406"><ele>938.6666666666666</ele><time>2026-03-28T13:52:22.959Z</time></trkpt><trkpt lat="45.4560504" lon="7.7157354"><ele>938.0</ele><time>2026-03-28T13:52:23.945Z</time></trkpt><trkpt lat="45.4560471" lon="7.7156264"><ele>937.3333333333333</ele><time>2026-03-28T13:52:24.969Z</time></trkpt><trkpt lat="45.4560484" lon="7.7155314"><ele>936.6666666666666</ele><time>2026-03-28T13:52:25.955Z</time></trkpt><trkpt lat="45.4560594" lon="7.7153478"><ele>936.0</ele><time>2026-03-28T13:52:27.949Z</time></trkpt><trkpt lat="45.4560635" lon="7.7152489"><ele>936.0</ele><time>2026-03-28T13:52:28.954Z</time></trkpt><trkpt lat="45.4560644" lon="7.715154"><ele>936.0</ele><time>2026-03-28T13:52:29.954Z</time></trkpt><trkpt lat="45.4560628" lon="7.7150514"><ele>936.0</ele><time>2026-03-28T13:52:30.96Z</time></trkpt><trkpt lat="45.4560557" lon="7.7149452"><ele>936.0</ele><time>2026-03-28T13:52:31.95Z</time></trkpt><trkpt lat="45.4560515" lon="7.7148373"><ele>936.0</ele><time>2026-03-28T13:52:32.951Z</time></trkpt><trkpt lat="45.4560506" lon="7.714743"><ele>936.0</ele><time>2026-03-28T13:52:33.957Z</time></trkpt><trkpt lat="45.4560651" lon="7.7145709"><ele>936.0</ele><time>2026-03-28T13:52:35.959Z</time></trkpt><trkpt lat="45.4561327" lon="7.7144793"><ele>935.9999999999999</ele><time>2026-03-28T13:52:37.96Z</time></trkpt><trkpt lat="45.456221" lon="7.7145256"><ele>935.9999999999999</ele><time>2026-03-28T13:52:39.955Z</time></trkpt><trkpt lat="45.4562703" lon="7.7145956"><ele>936.0</ele><time>2026-03-28T13:52:40.951Z</time></trkpt><trkpt lat="45.456353" lon="7.7146968"><ele>936.0</ele><time>2026-03-28T13:52:42.957Z</time></trkpt><trkpt lat="45.4564484" lon="7.7147137"><ele>935.5999999999999</ele><time>2026-03-28T13:52:44.956Z</time></trkpt><trkpt lat="45.4565652" lon="7.714648"><ele>935.1999999999999</ele><time>2026-03-28T13:52:46.96Z</time></trkpt><trkpt lat="45.4566676" lon="7.7146286"><ele>934.8000000000001</ele><time>2026-03-28T13:52:48.953Z</time></trkpt><trkpt lat="45.4567587" lon="7.7145896"><ele>934.4000000000001</ele><time>2026-03-28T13:52:50.956Z</time></trkpt><trkpt lat="45.4568359" lon="7.7145174"><ele>934.0</ele><time>2026-03-28T13:52:52.956Z</time></trkpt><trkpt lat="45.4569425" lon="7.7145176"><ele>934.0</ele><time>2026-03-28T13:52:54.951Z</time></trkpt><trkpt lat="45.4570582" lon="7.7146094"><ele>934.0000000000001</ele><time>2026-03-28T13:52:56.951Z</time></trkpt><trkpt lat="45.457109" lon="7.7146874"><ele>934.0000000000001</ele><time>2026-03-28T13:52:57.957Z</time></trkpt><trkpt lat="45.4571692" lon="7.7147577"><ele>934.0</ele><time>2026-03-28T13:52:58.947Z</time></trkpt><trkpt lat="45.4572319" lon="7.7148254"><ele>934.0</ele><time>2026-03-28T13:52:59.948Z</time></trkpt><trkpt lat="45.4573058" lon="7.714895"><ele>933.1666666666666</ele><time>2026-03-28T13:53:00.964Z</time></trkpt><trkpt lat="45.4573662" lon="7.7149387"><ele>932.3333333333333</ele><time>2026-03-28T13:53:01.955Z</time></trkpt><trkpt lat="45.4574519" lon="7.715043"><ele>931.5</ele><time>2026-03-28T13:53:03.955Z</time></trkpt><trkpt lat="45.4574895" lon="7.715116"><ele>930.6666666666667</ele><time>2026-03-28T13:53:04.942Z</time></trkpt><trkpt lat="45.4575427" lon="7.7152348"><ele>929.8333333333334</ele><time>2026-03-28T13:53:06.955Z</time></trkpt><trkpt lat="45.4576083" lon="7.7152417"><ele>929.0</ele><time>2026-03-28T13:53:08.945Z</time></trkpt><trkpt lat="45.4577158" lon="7.7152205"><ele>928.1428571428572</ele><time>2026-03-28T13:53:11.038Z</time></trkpt><trkpt lat="45.4577872" lon="7.7152234"><ele>927.2857142857144</ele><time>2026-03-28T13:53:12.019Z</time></trkpt><trkpt lat="45.4578605" lon="7.7152155"><ele>926.4285714285714</ele><time>2026-03-28T13:53:12.96Z</time></trkpt><trkpt lat="45.4579414" lon="7.7152155"><ele>925.5714285714287</ele><time>2026-03-28T13:53:13.961Z</time></trkpt><trkpt lat="45.4580152" lon="7.7152108"><ele>924.7142857142858</ele><time>2026-03-28T13:53:14.968Z</time></trkpt><trkpt lat="45.4580859" lon="7.7152234"><ele>923.8571428571429</ele><time>2026-03-28T13:53:16.009Z</time></trkpt><trkpt lat="45.4581503" lon="7.7152509"><ele>923.0</ele><time>2026-03-28T13:53:17.033Z</time></trkpt><trkpt lat="45.4582078" lon="7.7152927"><ele>921.3333333333334</ele><time>2026-03-28T13:53:17.952Z</time></trkpt><trkpt lat="45.4582474" lon="7.715369"><ele>919.6666666666667</ele><time>2026-03-28T13:53:18.959Z</time></trkpt><trkpt lat="45.4582793" lon="7.7154576"><ele>918.0</ele><time>2026-03-28T13:53:19.977Z</time></trkpt><trkpt lat="45.4583035" lon="7.7155454"><ele>916.3333333333333</ele><time>2026-03-28T13:53:20.956Z</time></trkpt><trkpt lat="45.4583039" lon="7.7156367"><ele>914.6666666666666</ele><time>2026-03-28T13:53:21.978Z</time></trkpt><trkpt lat="45.4582995" lon="7.7157883"><ele>913.0</ele><time>2026-03-28T13:53:24.035Z</time></trkpt><trkpt lat="45.4582622" lon="7.7159342"><ele>912.0</ele><time>2026-03-28T13:53:25.953Z</time></trkpt><trkpt lat="45.4582068" lon="7.7160768"><ele>911.0</ele><time>2026-03-28T13:53:27.952Z</time></trkpt><trkpt lat="45.4581629" lon="7.7162218"><ele>910.0</ele><time>2026-03-28T13:53:29.948Z</time></trkpt><trkpt lat="45.4581216" lon="7.7163888"><ele>909.0</ele><time>2026-03-28T13:53:32.029Z</time></trkpt><trkpt lat="45.4581068" lon="7.7164783"><ele>908.0</ele><time>2026-03-28T13:53:32.978Z</time></trkpt><trkpt lat="45.4580971" lon="7.7165749"><ele>908.0</ele><time>2026-03-28T13:53:33.959Z</time></trkpt><trkpt lat="45.4580889" lon="7.716678"><ele>908.0000000000001</ele><time>2026-03-28T13:53:34.96Z</time></trkpt><trkpt lat="45.4580809" lon="7.7167859"><ele>908.0</ele><time>2026-03-28T13:53:35.956Z</time></trkpt><trkpt lat="45.4580779" lon="7.7168925"><ele>908.0</ele><time>2026-03-28T13:53:36.96Z</time></trkpt><trkpt lat="45.4580881" lon="7.7169857"><ele>908.0000000000001</ele><time>2026-03-28T13:53:37.962Z</time></trkpt><trkpt lat="45.458113" lon="7.7170776"><ele>908.0</ele><time>2026-03-28T13:53:38.961Z</time></trkpt><trkpt lat="45.4581522" lon="7.7171495"><ele>908.0</ele><time>2026-03-28T13:53:40.031Z</time></trkpt><trkpt lat="45.4582491" lon="7.7172653"><ele>907.6666666666667</ele><time>2026-03-28T13:53:41.952Z</time></trkpt><trkpt lat="45.458302" lon="7.7173964"><ele>907.3333333333334</ele><time>2026-03-28T13:53:43.956Z</time></trkpt><trkpt lat="45.4583065" lon="7.7175595"><ele>907.0</ele><time>2026-03-28T13:53:45.985Z</time></trkpt><trkpt lat="45.4582922" lon="7.7176475"><ele>906.6666666666667</ele><time>2026-03-28T13:53:46.956Z</time></trkpt><trkpt lat="45.4582729" lon="7.7177378"><ele>906.3333333333334</ele><time>2026-03-28T13:53:47.953Z</time></trkpt><trkpt lat="45.4582463" lon="7.7178361"><ele>906.0</ele><time>2026-03-28T13:53:48.942Z</time></trkpt><trkpt lat="45.4582271" lon="7.7179242"><ele>904.8333333333334</ele><time>2026-03-28T13:53:50.037Z</time></trkpt><trkpt lat="45.4582119" lon="7.7180161"><ele>903.6666666666667</ele><time>2026-03-28T13:53:51.035Z</time></trkpt><trkpt lat="45.4581751" lon="7.7181613"><ele>902.5</ele><time>2026-03-28T13:53:52.977Z</time></trkpt><trkpt lat="45.4581118" lon="7.7183169"><ele>901.3333333333334</ele><time>2026-03-28T13:53:54.969Z</time></trkpt><trkpt lat="45.4580656" lon="7.7183918"><ele>900.1666666666667</ele><time>2026-03-28T13:53:55.955Z</time></trkpt><trkpt lat="45.4580247" lon="7.7184607"><ele>899.0</ele><time>2026-03-28T13:53:56.962Z</time></trkpt><trkpt lat="45.4579395" lon="7.7185817"><ele>899.0</ele><time>2026-03-28T13:53:58.965Z</time></trkpt><trkpt lat="45.457851" lon="7.7186805"><ele>899.0000000000001</ele><time>2026-03-28T13:54:00.972Z</time></trkpt><trkpt lat="45.4577237" lon="7.718721"><ele>899.0000000000001</ele><time>2026-03-28T13:54:02.964Z</time></trkpt><trkpt lat="45.4575996" lon="7.718722"><ele>899.0</ele><time>2026-03-28T13:54:04.967Z</time></trkpt><trkpt lat="45.4575351" lon="7.7187055"><ele>899.0</ele><time>2026-03-28T13:54:06.025Z</time></trkpt><trkpt lat="45.4574721" lon="7.7186747"><ele>899.0</ele><time>2026-03-28T13:54:07.034Z</time></trkpt><trkpt lat="45.4573581" lon="7.7186213"><ele>899.0000000000001</ele><time>2026-03-28T13:54:08.955Z</time></trkpt><trkpt lat="45.4572734" lon="7.7186615"><ele>899.0000000000001</ele><time>2026-03-28T13:54:10.956Z</time></trkpt><trkpt lat="45.4571907" lon="7.7188012"><ele>899.0</ele><time>2026-03-28T13:54:12.957Z</time></trkpt><trkpt lat="45.4571487" lon="7.71887"><ele>899.0</ele><time>2026-03-28T13:54:13.96Z</time></trkpt><trkpt lat="45.4570586" lon="7.7190094"><ele>900.2857142857142</ele><time>2026-03-28T13:54:15.971Z</time></trkpt><trkpt lat="45.457009" lon="7.7190882"><ele>901.5714285714286</ele><time>2026-03-28T13:54:16.964Z</time></trkpt><trkpt lat="45.4569578" lon="7.71916"><ele>902.8571428571429</ele><time>2026-03-28T13:54:17.984Z</time></trkpt><trkpt lat="45.4569111" lon="7.7192371"><ele>904.1428571428571</ele><time>2026-03-28T13:54:18.966Z</time></trkpt><trkpt lat="45.4568619" lon="7.7193249"><ele>905.4285714285716</ele><time>2026-03-28T13:54:19.957Z</time></trkpt><trkpt lat="45.4568175" lon="7.7194145"><ele>906.7142857142858</ele><time>2026-03-28T13:54:20.957Z</time></trkpt><trkpt lat="45.4567828" lon="7.7195073"><ele>908.0</ele><time>2026-03-28T13:54:21.962Z</time></trkpt><trkpt lat="45.4567493" lon="7.719597"><ele>908.0</ele><time>2026-03-28T13:54:22.955Z</time></trkpt><trkpt lat="45.4567118" lon="7.7197069"><ele>908.0000000000001</ele><time>2026-03-28T13:54:23.956Z</time></trkpt><trkpt lat="45.4566808" lon="7.7198069"><ele>908.0</ele><time>2026-03-28T13:54:24.955Z</time></trkpt><trkpt lat="45.4566517" lon="7.719901"><ele>908.0</ele><time>2026-03-28T13:54:25.967Z</time></trkpt><trkpt lat="45.4566248" lon="7.7199911"><ele>908.0000000000001</ele><time>2026-03-28T13:54:26.949Z</time></trkpt><trkpt lat="45.4565904" lon="7.7200812"><ele>908.0</ele><time>2026-03-28T13:54:27.961Z</time></trkpt><trkpt lat="45.4565502" lon="7.7201648"><ele>908.0</ele><time>2026-03-28T13:54:28.955Z</time></trkpt><trkpt lat="45.4565061" lon="7.7202372"><ele>906.7142857142858</ele><time>2026-03-28T13:54:30.034Z</time></trkpt><trkpt lat="45.4564615" lon="7.7203047"><ele>905.4285714285716</ele><time>2026-03-28T13:54:31.029Z</time></trkpt><trkpt lat="45.4564068" lon="7.720363"><ele>904.1428571428571</ele><time>2026-03-28T13:54:31.961Z</time></trkpt><trkpt lat="45.4563427" lon="7.7204196"><ele>902.8571428571429</ele><time>2026-03-28T13:54:32.962Z</time></trkpt><trkpt lat="45.4562743" lon="7.7204553"><ele>901.5714285714286</ele><time>2026-03-28T13:54:33.965Z</time></trkpt><trkpt lat="45.4562088" lon="7.7204906"><ele>900.2857142857142</ele><time>2026-03-28T13:54:35.05Z</time></trkpt><trkpt lat="45.4561343" lon="7.7205324"><ele>898.9999999999999</ele><time>2026-03-28T13:54:35.989Z</time></trkpt><trkpt lat="45.456064" lon="7.7205649"><ele>898.9999999999999</ele><time>2026-03-28T13:54:36.97Z</time></trkpt><trkpt lat="45.4559977" lon="7.7205891"><ele>899.0</ele><time>2026-03-28T13:54:37.963Z</time></trkpt><trkpt lat="45.4559261" lon="7.7206053"><ele>898.9999999999999</ele><time>2026-03-28T13:54:38.963Z</time></trkpt><trkpt lat="45.4558604" lon="7.7206368"><ele>898.9999999999999</ele><time>2026-03-28T13:54:40.029Z</time></trkpt><trkpt lat="45.4557951" lon="7.7206692"><ele>899.0</ele><time>2026-03-28T13:54:40.958Z</time></trkpt><trkpt lat="45.4557328" lon="7.7207169"><ele>898.9999999999999</ele><time>2026-03-28T13:54:42.037Z</time></trkpt><trkpt lat="45.4556659" lon="7.7207513"><ele>898.9999999999999</ele><time>2026-03-28T13:54:42.956Z</time></trkpt><trkpt lat="45.4555959" lon="7.7207728"><ele>898.9999999999999</ele><time>2026-03-28T13:54:43.953Z</time></trkpt><trkpt lat="45.4555232" lon="7.720802"><ele>899.0</ele><time>2026-03-28T13:54:44.986Z</time></trkpt><trkpt lat="45.4554573" lon="7.7208326"><ele>898.9999999999999</ele><time>2026-03-28T13:54:46.052Z</time></trkpt><trkpt lat="45.4553953" lon="7.7208581"><ele>898.9999999999999</ele><time>2026-03-28T13:54:47.031Z</time></trkpt><trkpt lat="45.455326" lon="7.7208618"><ele>899.0</ele><time>2026-03-28T13:54:47.958Z</time></trkpt><trkpt lat="45.4552532" lon="7.7208653"><ele>898.9999999999999</ele><time>2026-03-28T13:54:48.964Z</time></trkpt><trkpt lat="45.4551825" lon="7.7208707"><ele>898.9999999999999</ele><time>2026-03-28T13:54:50.009Z</time></trkpt><trkpt lat="45.4551179" lon="7.7208732"><ele>900.0000000000001</ele><time>2026-03-28T13:54:50.959Z</time></trkpt><trkpt lat="45.4549888" lon="7.7208833"><ele>901.0</ele><time>2026-03-28T13:54:52.96Z</time></trkpt><trkpt lat="45.4549173" lon="7.7208952"><ele>902.0</ele><time>2026-03-28T13:54:53.964Z</time></trkpt><trkpt lat="45.4548524" lon="7.7209041"><ele>903.0</ele><time>2026-03-28T13:54:54.966Z</time></trkpt><trkpt lat="45.4547873" lon="7.7209081"><ele>904.0000000000001</ele><time>2026-03-28T13:54:56.038Z</time></trkpt><trkpt lat="45.4547234" lon="7.7209067"><ele>905.0</ele><time>2026-03-28T13:54:57.037Z</time></trkpt><trkpt lat="45.4546082" lon="7.7208787"><ele>902.0</ele><time>2026-03-28T13:54:58.948Z</time></trkpt><trkpt lat="45.4545053" lon="7.7208371"><ele>899.0</ele><time>2026-03-28T13:55:00.957Z</time></trkpt><trkpt lat="45.4544309" lon="7.720792"><ele>896.0</ele><time>2026-03-28T13:55:02.949Z</time></trkpt><trkpt lat="45.454374" lon="7.7207045"><ele>893.0</ele><time>2026-03-28T13:55:05.964Z</time></trkpt><trkpt lat="45.4543635" lon="7.7205729"><ele>890.0</ele><time>2026-03-28T13:55:07.954Z</time></trkpt><trkpt lat="45.4543537" lon="7.7204227"><ele>890.0000000000001</ele><time>2026-03-28T13:55:09.952Z</time></trkpt><trkpt lat="45.4543428" lon="7.720307"><ele>890.0</ele><time>2026-03-28T13:55:12.035Z</time></trkpt><trkpt lat="45.4542691" lon="7.7202595"><ele>890.0</ele><time>2026-03-28T13:55:13.958Z</time></trkpt><trkpt lat="45.4541888" lon="7.7202236"><ele>890.0</ele><time>2026-03-28T13:55:15.033Z</time></trkpt><trkpt lat="45.4541179" lon="7.7202042"><ele>890.0000000000001</ele><time>2026-03-28T13:55:15.975Z</time></trkpt><trkpt lat="45.4540573" lon="7.7201743"><ele>890.0</ele><time>2026-03-28T13:55:16.963Z</time></trkpt><trkpt lat="45.4539949" lon="7.7201404"><ele>889.8</ele><time>2026-03-28T13:55:17.962Z</time></trkpt><trkpt lat="45.4538908" lon="7.7200781"><ele>889.6</ele><time>2026-03-28T13:55:20.035Z</time></trkpt><trkpt lat="45.4538255" lon="7.7200675"><ele>889.4000000000001</ele><time>2026-03-28T13:55:21.046Z</time></trkpt><trkpt lat="45.4537139" lon="7.7200401"><ele>889.2</ele><time>2026-03-28T13:55:22.951Z</time></trkpt><trkpt lat="45.4536745" lon="7.7199342"><ele>889.0</ele><time>2026-03-28T13:55:27.04Z</time></trkpt><trkpt lat="45.4537171" lon="7.7198124"><ele>888.9999999999999</ele><time>2026-03-28T13:55:28.967Z</time></trkpt><trkpt lat="45.4537815" lon="7.7197859"><ele>889.0</ele><time>2026-03-28T13:55:30.966Z</time></trkpt><trkpt lat="45.4538744" lon="7.719793"><ele>889.0</ele><time>2026-03-28T13:55:32.989Z</time></trkpt><trkpt lat="45.4539267" lon="7.7197427"><ele>889.0</ele><time>2026-03-28T13:55:33.974Z</time></trkpt><trkpt lat="45.4539985" lon="7.7196679"><ele>888.9999999999999</ele><time>2026-03-28T13:55:34.998Z</time></trkpt><trkpt lat="45.4540759" lon="7.7195855"><ele>889.0</ele><time>2026-03-28T13:55:35.966Z</time></trkpt><trkpt lat="45.4541554" lon="7.7195158"><ele>891.9999999999999</ele><time>2026-03-28T13:55:36.968Z</time></trkpt><trkpt lat="45.4542277" lon="7.7194579"><ele>895.0</ele><time>2026-03-28T13:55:37.97Z</time></trkpt><trkpt lat="45.4542888" lon="7.7194017"><ele>898.0</ele><time>2026-03-28T13:55:38.977Z</time></trkpt><trkpt lat="45.4543495" lon="7.71937"><ele>901.0</ele><time>2026-03-28T13:55:39.973Z</time></trkpt><trkpt lat="45.454414" lon="7.7193271"><ele>903.9999999999999</ele><time>2026-03-28T13:55:40.965Z</time></trkpt><trkpt lat="45.4545082" lon="7.7192718"><ele>907.0</ele><time>2026-03-28T13:55:42.963Z</time></trkpt><trkpt lat="45.4545652" lon="7.7191898"><ele>912.4000000000001</ele><time>2026-03-28T13:55:44.96Z</time></trkpt><trkpt lat="45.4546319" lon="7.7191151"><ele>917.8000000000001</ele><time>2026-03-28T13:55:46.996Z</time></trkpt><trkpt lat="45.4547194" lon="7.7190536"><ele>923.2</ele><time>2026-03-28T13:55:48.962Z</time></trkpt><trkpt lat="45.4548205" lon="7.7189858"><ele>928.6</ele><time>2026-03-28T13:55:50.968Z</time></trkpt><trkpt lat="45.4548776" lon="7.718946"><ele>934.0</ele><time>2026-03-28T13:55:51.966Z</time></trkpt><trkpt lat="45.4549632" lon="7.7188429"><ele>933.9999999999999</ele><time>2026-03-28T13:55:53.966Z</time></trkpt><trkpt lat="45.455016" lon="7.7187916"><ele>934.0</ele><time>2026-03-28T13:55:54.979Z</time></trkpt><trkpt lat="45.4551109" lon="7.7187003"><ele>934.0</ele><time>2026-03-28T13:55:56.969Z</time></trkpt><trkpt lat="45.455164" lon="7.7186496"><ele>934.0</ele><time>2026-03-28T13:55:57.955Z</time></trkpt><trkpt lat="45.455215" lon="7.7185894"><ele>933.9999999999999</ele><time>2026-03-28T13:55:58.964Z</time></trkpt><trkpt lat="45.4552757" lon="7.7185218"><ele>934.0</ele><time>2026-03-28T13:55:59.956Z</time></trkpt><trkpt lat="45.4553549" lon="7.7184474"><ele>934.6666666666666</ele><time>2026-03-28T13:56:00.951Z</time></trkpt><trkpt lat="45.4554185" lon="7.7183706"><ele>935.3333333333333</ele><time>2026-03-28T13:56:01.951Z</time></trkpt><trkpt lat="45.4554845" lon="7.7182814"><ele>936.0</ele><time>2026-03-28T13:56:02.961Z</time></trkpt><trkpt lat="45.4555451" lon="7.7181924"><ele>936.6666666666667</ele><time>2026-03-28T13:56:03.948Z</time></trkpt><trkpt lat="45.4555996" lon="7.718104"><ele>937.3333333333334</ele><time>2026-03-28T13:56:04.945Z</time></trkpt><trkpt lat="45.4556477" lon="7.7180094"><ele>938.0</ele><time>2026-03-28T13:56:05.947Z</time></trkpt><trkpt lat="45.455691" lon="7.7179208"><ele>938.6666666666667</ele><time>2026-03-28T13:56:06.96Z</time></trkpt><trkpt lat="45.4557247" lon="7.7178285"><ele>939.3333333333334</ele><time>2026-03-28T13:56:07.95Z</time></trkpt><trkpt lat="45.4557536" lon="7.7177311"><ele>940.0</ele><time>2026-03-28T13:56:08.962Z</time></trkpt><trkpt lat="45.4557756" lon="7.7176368"><ele>940.6666666666667</ele><time>2026-03-28T13:56:09.964Z</time></trkpt><trkpt lat="45.4557902" lon="7.7174794"><ele>941.3333333333334</ele><time>2026-03-28T13:56:11.961Z</time></trkpt><trkpt lat="45.4557919" lon="7.7173233"><ele>942.0</ele><time>2026-03-28T13:56:13.966Z</time></trkpt><trkpt lat="45.4557959" lon="7.7171737"><ele>941.6</ele><time>2026-03-28T13:56:15.961Z</time></trkpt><trkpt lat="45.4558063" lon="7.7170808"><ele>941.2</ele><time>2026-03-28T13:56:16.96Z</time></trkpt><trkpt lat="45.4558256" lon="7.7169686"><ele>940.8</ele><time>2026-03-28T13:56:17.957Z</time></trkpt><trkpt lat="45.4558593" lon="7.7168448"><ele>940.4</ele><time>2026-03-28T13:56:18.967Z</time></trkpt><trkpt lat="45.4559024" lon="7.7167098"><ele>940.0</ele><time>2026-03-28T13:56:19.957Z</time></trkpt><trkpt lat="45.4559477" lon="7.7165657"><ele>940.0</ele><time>2026-03-28T13:56:21.021Z</time></trkpt><trkpt lat="45.45599" lon="7.7164322"><ele>940.0</ele><time>2026-03-28T13:56:22.028Z</time></trkpt><trkpt lat="45.4560193" lon="7.7162989"><ele>940.0</ele><time>2026-03-28T13:56:22.964Z</time></trkpt><trkpt lat="45.456042" lon="7.7161689"><ele>940.0</ele><time>2026-03-28T13:56:23.964Z</time></trkpt><trkpt lat="45.4560531" lon="7.7160416"><ele>940.0</ele><time>2026-03-28T13:56:24.972Z</time></trkpt><trkpt lat="45.4560551" lon="7.7159194"><ele>939.3333333333333</ele><time>2026-03-28T13:56:25.958Z</time></trkpt><trkpt lat="45.4560534" lon="7.7158013"><ele>938.6666666666666</ele><time>2026-03-28T13:56:26.955Z</time></trkpt><trkpt lat="45.4560488" lon="7.7156724"><ele>938.0</ele><time>2026-03-28T13:56:27.958Z</time></trkpt><trkpt lat="45.456042" lon="7.7155478"><ele>937.3333333333333</ele><time>2026-03-28T13:56:29.087Z</time></trkpt><trkpt lat="45.4560461" lon="7.7154152"><ele>936.6666666666666</ele><time>2026-03-28T13:56:30.028Z</time></trkpt><trkpt lat="45.4560476" lon="7.7152823"><ele>936.0</ele><time>2026-03-28T13:56:31.028Z</time></trkpt><trkpt lat="45.4560477" lon="7.7151455"><ele>936.0</ele><time>2026-03-28T13:56:32.032Z</time></trkpt><trkpt lat="45.4560468" lon="7.7150028"><ele>935.9999999999999</ele><time>2026-03-28T13:56:32.963Z</time></trkpt><trkpt lat="45.4560452" lon="7.7148633"><ele>935.9999999999999</ele><time>2026-03-28T13:56:33.967Z</time></trkpt><trkpt lat="45.4560384" lon="7.7147335"><ele>936.0</ele><time>2026-03-28T13:56:34.982Z</time></trkpt><trkpt lat="45.4560408" lon="7.7146055"><ele>936.0</ele><time>2026-03-28T13:56:36.02Z</time></trkpt><trkpt lat="45.4560379" lon="7.7144834"><ele>936.7142857142858</ele><time>2026-03-28T13:56:37.026Z</time></trkpt><trkpt lat="45.4560411" lon="7.7143675"><ele>937.4285714285716</ele><time>2026-03-28T13:56:37.962Z</time></trkpt><trkpt lat="45.4560436" lon="7.7142569"><ele>938.1428571428571</ele><time>2026-03-28T13:56:38.966Z</time></trkpt><trkpt lat="45.4560441" lon="7.7141521"><ele>938.8571428571429</ele><time>2026-03-28T13:56:39.989Z</time></trkpt><trkpt lat="45.4560285" lon="7.7140536"><ele>939.5714285714286</ele><time>2026-03-28T13:56:41.019Z</time></trkpt><trkpt lat="45.4560007" lon="7.7139673"><ele>940.2857142857142</ele><time>2026-03-28T13:56:42.019Z</time></trkpt><trkpt lat="45.4559662" lon="7.7138804"><ele>940.9999999999999</ele><time>2026-03-28T13:56:42.961Z</time></trkpt><trkpt lat="45.4559261" lon="7.7137909"><ele>941.0</ele><time>2026-03-28T13:56:43.968Z</time></trkpt><trkpt lat="45.455874" lon="7.7136937"><ele>940.9999999999999</ele><time>2026-03-28T13:56:44.997Z</time></trkpt><trkpt lat="45.455817" lon="7.7135824"><ele>940.9999999999999</ele><time>2026-03-28T13:56:46.018Z</time></trkpt><trkpt lat="45.4557674" lon="7.7134589"><ele>941.0</ele><time>2026-03-28T13:56:47.02Z</time></trkpt><trkpt lat="45.4557109" lon="7.7133348"><ele>941.0</ele><time>2026-03-28T13:56:47.961Z</time></trkpt><trkpt lat="45.4556603" lon="7.7132075"><ele>941.4</ele><time>2026-03-28T13:56:48.947Z</time></trkpt><trkpt lat="45.455607" lon="7.7130841"><ele>941.8</ele><time>2026-03-28T13:56:49.974Z</time></trkpt><trkpt lat="45.4555546" lon="7.7129594"><ele>942.1999999999999</ele><time>2026-03-28T13:56:51.029Z</time></trkpt><trkpt lat="45.4555044" lon="7.7128374"><ele>942.5999999999999</ele><time>2026-03-28T13:56:52.036Z</time></trkpt><trkpt lat="45.4554602" lon="7.7127193"><ele>943.0</ele><time>2026-03-28T13:56:52.962Z</time></trkpt><trkpt lat="45.4554194" lon="7.7126183"><ele>943.3333333333333</ele><time>2026-03-28T13:56:53.964Z</time></trkpt><trkpt lat="45.4553634" lon="7.7125299"><ele>943.6666666666666</ele><time>2026-03-28T13:56:54.975Z</time></trkpt><trkpt lat="45.4553033" lon="7.7124602"><ele>944.0</ele><time>2026-03-28T13:56:56.024Z</time></trkpt><trkpt lat="45.4552418" lon="7.7123972"><ele>944.3333333333333</ele><time>2026-03-28T13:56:56.963Z</time></trkpt><trkpt lat="45.4551815" lon="7.712349"><ele>944.6666666666666</ele><time>2026-03-28T13:56:57.959Z</time></trkpt><trkpt lat="45.4550723" lon="7.7123114"><ele>945.0</ele><time>2026-03-28T13:56:59.965Z</time></trkpt><trkpt lat="45.4549698" lon="7.7122804"><ele>945.0</ele><time>2026-03-28T13:57:01.964Z</time></trkpt><trkpt lat="45.4548666" lon="7.7122059"><ele>945.0</ele><time>2026-03-28T13:57:03.963Z</time></trkpt><trkpt lat="45.4548123" lon="7.7121378"><ele>945.0</ele><time>2026-03-28T13:57:04.959Z</time></trkpt><trkpt lat="45.4547541" lon="7.712077"><ele>945.0</ele><time>2026-03-28T13:57:05.959Z</time></trkpt><trkpt lat="45.454711" lon="7.7120003"><ele>945.0</ele><time>2026-03-28T13:57:06.967Z</time></trkpt><trkpt lat="45.4546601" lon="7.7119162"><ele>945.0</ele><time>2026-03-28T13:57:07.959Z</time></trkpt><trkpt lat="45.4546017" lon="7.7118352"><ele>945.1428571428571</ele><time>2026-03-28T13:57:08.955Z</time></trkpt><trkpt lat="45.4545541" lon="7.711758"><ele>945.2857142857142</ele><time>2026-03-28T13:57:09.961Z</time></trkpt><trkpt lat="45.4545229" lon="7.7116683"><ele>945.4285714285714</ele><time>2026-03-28T13:57:10.96Z</time></trkpt><trkpt lat="45.4544977" lon="7.7115716"><ele>945.5714285714286</ele><time>2026-03-28T13:57:12.029Z</time></trkpt><trkpt lat="45.4544696" lon="7.7114726"><ele>945.7142857142857</ele><time>2026-03-28T13:57:12.96Z</time></trkpt><trkpt lat="45.4544199" lon="7.7113947"><ele>945.8571428571429</ele><time>2026-03-28T13:57:13.956Z</time></trkpt><trkpt lat="45.4543826" lon="7.7113111"><ele>946.0</ele><time>2026-03-28T13:57:14.957Z</time></trkpt><trkpt lat="45.4543511" lon="7.7112321"><ele>947.0</ele><time>2026-03-28T13:57:15.961Z</time></trkpt><trkpt lat="45.4543211" lon="7.7110476"><ele>947.9999999999999</ele><time>2026-03-28T13:57:17.963Z</time></trkpt><trkpt lat="45.4543274" lon="7.7109466"><ele>948.9999999999999</ele><time>2026-03-28T13:57:18.971Z</time></trkpt><trkpt lat="45.4543276" lon="7.7107716"><ele>950.0</ele><time>2026-03-28T13:57:21.027Z</time></trkpt><trkpt lat="45.4543047" lon="7.7106851"><ele>951.0</ele><time>2026-03-28T13:57:22.035Z</time></trkpt><trkpt lat="45.4542647" lon="7.7105883"><ele>951.0</ele><time>2026-03-28T13:57:22.964Z</time></trkpt><trkpt lat="45.4542266" lon="7.7104816"><ele>951.0</ele><time>2026-03-28T13:57:23.962Z</time></trkpt><trkpt lat="45.4541877" lon="7.7103702"><ele>951.0</ele><time>2026-03-28T13:57:24.964Z</time></trkpt><trkpt lat="45.4541458" lon="7.7102639"><ele>951.0</ele><time>2026-03-28T13:57:26.044Z</time></trkpt><trkpt lat="45.4541091" lon="7.7101629"><ele>951.0</ele><time>2026-03-28T13:57:27.033Z</time></trkpt><trkpt lat="45.454068" lon="7.710074"><ele>951.0</ele><time>2026-03-28T13:57:27.992Z</time></trkpt><trkpt lat="45.4540147" lon="7.7100076"><ele>951.6666666666666</ele><time>2026-03-28T13:57:29.034Z</time></trkpt><trkpt lat="45.4539572" lon="7.709949"><ele>952.3333333333333</ele><time>2026-03-28T13:57:30.022Z</time></trkpt><trkpt lat="45.4538913" lon="7.7098982"><ele>953.0</ele><time>2026-03-28T13:57:30.952Z</time></trkpt><trkpt lat="45.4538336" lon="7.7098542"><ele>953.6666666666666</ele><time>2026-03-28T13:57:31.977Z</time></trkpt><trkpt lat="45.4537324" lon="7.7097523"><ele>954.3333333333333</ele><time>2026-03-28T13:57:33.966Z</time></trkpt><trkpt lat="45.4536626" lon="7.7096267"><ele>955.0</ele><time>2026-03-28T13:57:36.025Z</time></trkpt><trkpt lat="45.4536004" lon="7.7094696"><ele>954.4999999999999</ele><time>2026-03-28T13:57:37.974Z</time></trkpt><trkpt lat="45.4535743" lon="7.7093821"><ele>954.0</ele><time>2026-03-28T13:57:38.96Z</time></trkpt><trkpt lat="45.4535497" lon="7.7092929"><ele>953.5</ele><time>2026-03-28T13:57:40Z</time></trkpt><trkpt lat="45.4535282" lon="7.7092052"><ele>953.0</ele><time>2026-03-28T13:57:41.035Z</time></trkpt><trkpt lat="45.4534697" lon="7.7090629"><ele>952.4999999999999</ele><time>2026-03-28T13:57:42.964Z</time></trkpt><trkpt lat="45.4534328" lon="7.7089849"><ele>952.0</ele><time>2026-03-28T13:57:43.959Z</time></trkpt><trkpt lat="45.4533925" lon="7.7088892"><ele>952.0</ele><time>2026-03-28T13:57:45.06Z</time></trkpt><trkpt lat="45.4533661" lon="7.7087923"><ele>952.0</ele><time>2026-03-28T13:57:46.03Z</time></trkpt><trkpt lat="45.453333" lon="7.708698"><ele>952.0</ele><time>2026-03-28T13:57:46.95Z</time></trkpt><trkpt lat="45.4533043" lon="7.7086095"><ele>952.0</ele><time>2026-03-28T13:57:47.957Z</time></trkpt><trkpt lat="45.4532783" lon="7.7085266"><ele>952.0</ele><time>2026-03-28T13:57:48.955Z</time></trkpt><trkpt lat="45.4532442" lon="7.7084324"><ele>952.0</ele><time>2026-03-28T13:57:49.959Z</time></trkpt><trkpt lat="45.4532071" lon="7.7083469"><ele>952.0</ele><time>2026-03-28T13:57:50.965Z</time></trkpt><trkpt lat="45.4531657" lon="7.7082582"><ele>952.1666666666666</ele><time>2026-03-28T13:57:52.024Z</time></trkpt><trkpt lat="45.4531246" lon="7.7081854"><ele>952.3333333333333</ele><time>2026-03-28T13:57:52.952Z</time></trkpt><trkpt lat="45.4530119" lon="7.7081421"><ele>952.5</ele><time>2026-03-28T13:57:54.96Z</time></trkpt><trkpt lat="45.4529005" lon="7.7081707"><ele>952.6666666666667</ele><time>2026-03-28T13:57:56.958Z</time></trkpt><trkpt lat="45.45284" lon="7.7082078"><ele>952.8333333333334</ele><time>2026-03-28T13:57:57.955Z</time></trkpt><trkpt lat="45.4527759" lon="7.7082547"><ele>953.0</ele><time>2026-03-28T13:57:58.951Z</time></trkpt><trkpt lat="45.4526616" lon="7.7083131"><ele>953.0</ele><time>2026-03-28T13:58:00.958Z</time></trkpt><trkpt lat="45.4525564" lon="7.7083266"><ele>953.0</ele><time>2026-03-28T13:58:02.958Z</time></trkpt><trkpt lat="45.4524658" lon="7.7082854"><ele>953.0</ele><time>2026-03-28T13:58:04.954Z</time></trkpt><trkpt lat="45.4523983" lon="7.7081795"><ele>953.0</ele><time>2026-03-28T13:58:06.956Z</time></trkpt><trkpt lat="45.4523784" lon="7.7080506"><ele>953.0</ele><time>2026-03-28T13:58:08.961Z</time></trkpt><trkpt lat="45.4523676" lon="7.7079558"><ele>953.0000000000001</ele><time>2026-03-28T13:58:09.956Z</time></trkpt><trkpt lat="45.452311" lon="7.7078625"><ele>953.0</ele><time>2026-03-28T13:58:12.955Z</time></trkpt><trkpt lat="45.4522399" lon="7.7078695"><ele>953.0</ele><time>2026-03-28T13:58:13.954Z</time></trkpt><trkpt lat="45.4521717" lon="7.7078732"><ele>953.0</ele><time>2026-03-28T13:58:14.955Z</time></trkpt><trkpt lat="45.4521052" lon="7.7078656"><ele>953.0000000000001</ele><time>2026-03-28T13:58:15.951Z</time></trkpt><trkpt lat="45.4520408" lon="7.707869"><ele>953.0</ele><time>2026-03-28T13:58:16.95Z</time></trkpt><trkpt lat="45.4519142" lon="7.7078912"><ele>951.5</ele><time>2026-03-28T13:58:18.959Z</time></trkpt><trkpt lat="45.451798" lon="7.7078977"><ele>950.0</ele><time>2026-03-28T13:58:20.952Z</time></trkpt><trkpt lat="45.4516813" lon="7.7079125"><ele>948.5</ele><time>2026-03-28T13:58:22.958Z</time></trkpt><trkpt lat="45.4515777" lon="7.7078801"><ele>947.0</ele><time>2026-03-28T13:58:24.949Z</time></trkpt><trkpt lat="45.4514948" lon="7.7077719"><ele>945.75</ele><time>2026-03-28T13:58:26.955Z</time></trkpt><trkpt lat="45.4514261" lon="7.707658"><ele>944.5</ele><time>2026-03-28T13:58:28.978Z</time></trkpt><trkpt lat="45.4513667" lon="7.707517"><ele>943.25</ele><time>2026-03-28T13:58:30.956Z</time></trkpt><trkpt lat="45.4512797" lon="7.7074073"><ele>942.0</ele><time>2026-03-28T13:58:32.959Z</time></trkpt><trkpt lat="45.4511771" lon="7.7073147"><ele>942.0</ele><time>2026-03-28T13:58:34.963Z</time></trkpt><trkpt lat="45.4510886" lon="7.7071929"><ele>942.0</ele><time>2026-03-28T13:58:36.952Z</time></trkpt><trkpt lat="45.4510336" lon="7.7071391"><ele>942.0</ele><time>2026-03-28T13:58:37.951Z</time></trkpt><trkpt lat="45.4509308" lon="7.7070176"><ele>942.0</ele><time>2026-03-28T13:58:39.952Z</time></trkpt><trkpt lat="45.4508847" lon="7.7069531"><ele>942.0</ele><time>2026-03-28T13:58:40.956Z</time></trkpt><trkpt lat="45.4507751" lon="7.7068696"><ele>941.8333333333334</ele><time>2026-03-28T13:58:42.952Z</time></trkpt><trkpt lat="45.4507027" lon="7.7068474"><ele>941.6666666666667</ele><time>2026-03-28T13:58:43.951Z</time></trkpt><trkpt lat="45.450598" lon="7.7068187"><ele>941.5</ele><time>2026-03-28T13:58:45.948Z</time></trkpt><trkpt lat="45.4505241" lon="7.7068031"><ele>941.3333333333334</ele><time>2026-03-28T13:58:47.952Z</time></trkpt><trkpt lat="45.4504581" lon="7.7067519"><ele>941.1666666666667</ele><time>2026-03-28T13:58:49.949Z</time></trkpt><trkpt lat="45.450413" lon="7.7066884"><ele>941.0</ele><time>2026-03-28T13:58:51.955Z</time></trkpt><trkpt lat="45.4504102" lon="7.7065401"><ele>941.0</ele><time>2026-03-28T13:58:54.958Z</time></trkpt><trkpt lat="45.4504423" lon="7.7064289"><ele>940.9999999999999</ele><time>2026-03-28T13:58:56.949Z</time></trkpt><trkpt lat="45.450507" lon="7.7063702"><ele>940.9999999999999</ele><time>2026-03-28T13:58:59.042Z</time></trkpt><trkpt lat="45.4505798" lon="7.7062879"><ele>941.0</ele><time>2026-03-28T13:59:01.031Z</time></trkpt><trkpt lat="45.4506652" lon="7.7061975"><ele>941.0</ele><time>2026-03-28T13:59:02.951Z</time></trkpt><trkpt lat="45.450756" lon="7.7060681"><ele>946.1666666666667</ele><time>2026-03-28T13:59:04.953Z</time></trkpt><trkpt lat="45.4508106" lon="7.7059972"><ele>951.3333333333334</ele><time>2026-03-28T13:59:05.955Z</time></trkpt><trkpt lat="45.4508571" lon="7.7059218"><ele>956.5</ele><time>2026-03-28T13:59:06.959Z</time></trkpt><trkpt lat="45.4509021" lon="7.7058428"><ele>961.6666666666667</ele><time>2026-03-28T13:59:07.957Z</time></trkpt><trkpt lat="45.4509365" lon="7.7057542"><ele>966.8333333333334</ele><time>2026-03-28T13:59:08.953Z</time></trkpt><trkpt lat="45.4510176" lon="7.705635"><ele>972.0</ele><time>2026-03-28T13:59:10.947Z</time></trkpt><trkpt lat="45.4510675" lon="7.7055711"><ele>972.0</ele><time>2026-03-28T13:59:11.951Z</time></trkpt><trkpt lat="45.4511115" lon="7.7054925"><ele>972.0</ele><time>2026-03-28T13:59:12.954Z</time></trkpt><trkpt lat="45.45116" lon="7.7054028"><ele>972.0</ele><time>2026-03-28T13:59:13.953Z</time></trkpt><trkpt lat="45.4512163" lon="7.7053078"><ele>972.0</ele><time>2026-03-28T13:59:14.951Z</time></trkpt><trkpt lat="45.4512721" lon="7.7052257"><ele>972.0</ele><time>2026-03-28T13:59:16.033Z</time></trkpt><trkpt lat="45.4513306" lon="7.705159"><ele>972.0</ele><time>2026-03-28T13:59:17.029Z</time></trkpt><trkpt lat="45.4513947" lon="7.7050976"><ele>976.3333333333334</ele><time>2026-03-28T13:59:17.967Z</time></trkpt><trkpt lat="45.4514719" lon="7.7050274"><ele>980.6666666666667</ele><time>2026-03-28T13:59:18.959Z</time></trkpt><trkpt lat="45.4515514" lon="7.7049565"><ele>985.0</ele><time>2026-03-28T13:59:19.979Z</time></trkpt><trkpt lat="45.4516201" lon="7.7048819"><ele>989.3333333333334</ele><time>2026-03-28T13:59:20.971Z</time></trkpt><trkpt lat="45.4516683" lon="7.7048215"><ele>993.6666666666667</ele><time>2026-03-28T13:59:22.021Z</time></trkpt><trkpt lat="45.4517442" lon="7.704722"><ele>998.0</ele><time>2026-03-28T13:59:23.968Z</time></trkpt><trkpt lat="45.4518263" lon="7.7045887"><ele>998.0</ele><time>2026-03-28T13:59:25.971Z</time></trkpt><trkpt lat="45.4518902" lon="7.7044653"><ele>998.0</ele><time>2026-03-28T13:59:27.973Z</time></trkpt><trkpt lat="45.451952" lon="7.7043519"><ele>998.0</ele><time>2026-03-28T13:59:29.996Z</time></trkpt><trkpt lat="45.4519669" lon="7.7042536"><ele>998.0</ele><time>2026-03-28T13:59:31.951Z</time></trkpt><trkpt lat="45.4519293" lon="7.7041442"><ele>998.0</ele><time>2026-03-28T13:59:33.958Z</time></trkpt><trkpt lat="45.4518723" lon="7.7040408"><ele>999.0</ele><time>2026-03-28T13:59:36.04Z</time></trkpt><trkpt lat="45.451813" lon="7.7038886"><ele>1000.0</ele><time>2026-03-28T13:59:37.96Z</time></trkpt><trkpt lat="45.451783" lon="7.7037869"><ele>1001.0</ele><time>2026-03-28T13:59:38.969Z</time></trkpt><trkpt lat="45.4517507" lon="7.7036799"><ele>1002.0</ele><time>2026-03-28T13:59:39.965Z</time></trkpt><trkpt lat="45.4517173" lon="7.7035642"><ele>1003.0</ele><time>2026-03-28T13:59:40.967Z</time></trkpt><trkpt lat="45.4516862" lon="7.7034481"><ele>1004.2</ele><time>2026-03-28T13:59:41.99Z</time></trkpt><trkpt lat="45.4516555" lon="7.703329"><ele>1005.4</ele><time>2026-03-28T13:59:42.95Z</time></trkpt><trkpt lat="45.4516241" lon="7.7032039"><ele>1006.6000000000001</ele><time>2026-03-28T13:59:43.964Z</time></trkpt><trkpt lat="45.4515945" lon="7.7030667"><ele>1007.8000000000001</ele><time>2026-03-28T13:59:45.083Z</time></trkpt><trkpt lat="45.4515634" lon="7.702946"><ele>1009.0</ele><time>2026-03-28T13:59:46.03Z</time></trkpt><trkpt lat="45.4515215" lon="7.7028251"><ele>1009.6666666666666</ele><time>2026-03-28T13:59:47.031Z</time></trkpt><trkpt lat="45.4514838" lon="7.7027035"><ele>1010.3333333333333</ele><time>2026-03-28T13:59:47.952Z</time></trkpt><trkpt lat="45.4514487" lon="7.7025914"><ele>1011.0</ele><time>2026-03-28T13:59:48.953Z</time></trkpt><trkpt lat="45.4514116" lon="7.7024735"><ele>1011.6666666666667</ele><time>2026-03-28T13:59:49.967Z</time></trkpt><trkpt lat="45.4513704" lon="7.7023639"><ele>1012.3333333333334</ele><time>2026-03-28T13:59:51.034Z</time></trkpt><trkpt lat="45.4513256" lon="7.7022586"><ele>1013.0</ele><time>2026-03-28T13:59:52.03Z</time></trkpt><trkpt lat="45.4512873" lon="7.7021645"><ele>1013.0000000000001</ele><time>2026-03-28T13:59:52.953Z</time></trkpt><trkpt lat="45.4512559" lon="7.7020835"><ele>1013.0</ele><time>2026-03-28T13:59:53.956Z</time></trkpt><trkpt lat="45.4512566" lon="7.7019576"><ele>1013.0</ele><time>2026-03-28T13:59:55.962Z</time></trkpt><trkpt lat="45.4513273" lon="7.7019876"><ele>1013.0</ele><time>2026-03-28T13:59:59.022Z</time></trkpt><trkpt lat="45.4513988" lon="7.7021021"><ele>1013.0000000000001</ele><time>2026-03-28T14:00:00.969Z</time></trkpt><trkpt lat="45.4514666" lon="7.7021548"><ele>1013.0</ele><time>2026-03-28T14:00:01.953Z</time></trkpt><trkpt lat="45.4515486" lon="7.7022239"><ele>1013.8</ele><time>2026-03-28T14:00:02.958Z</time></trkpt><trkpt lat="45.4516356" lon="7.7023042"><ele>1014.5999999999999</ele><time>2026-03-28T14:00:03.967Z</time></trkpt><trkpt lat="45.4517161" lon="7.7024111"><ele>1015.4000000000001</ele><time>2026-03-28T14:00:04.962Z</time></trkpt><trkpt lat="45.4517848" lon="7.7025398"><ele>1016.2</ele><time>2026-03-28T14:00:05.961Z</time></trkpt><trkpt lat="45.45184" lon="7.7026712"><ele>1017.0</ele><time>2026-03-28T14:00:06.963Z</time></trkpt><trkpt lat="45.4518921" lon="7.7027792"><ele>1016.0</ele><time>2026-03-28T14:00:07.968Z</time></trkpt><trkpt lat="45.4519526" lon="7.7028578"><ele>1015.0</ele><time>2026-03-28T14:00:08.962Z</time></trkpt><trkpt lat="45.4520281" lon="7.7029228"><ele>1014.0</ele><time>2026-03-28T14:00:10.053Z</time></trkpt><trkpt lat="45.4521037" lon="7.7029999"><ele>1013.0</ele><time>2026-03-28T14:00:10.962Z</time></trkpt><trkpt lat="45.4521728" lon="7.7030799"><ele>1012.0</ele><time>2026-03-28T14:00:11.965Z</time></trkpt><trkpt lat="45.4522422" lon="7.7031592"><ele>1011.0</ele><time>2026-03-28T14:00:12.966Z</time></trkpt><trkpt lat="45.4523065" lon="7.7032344"><ele>1011.0</ele><time>2026-03-28T14:00:13.953Z</time></trkpt><trkpt lat="45.4523725" lon="7.7032926"><ele>1011.0</ele><time>2026-03-28T14:00:14.968Z</time></trkpt><trkpt lat="45.4524516" lon="7.7033495"><ele>1011.0</ele><time>2026-03-28T14:00:16.035Z</time></trkpt><trkpt lat="45.4525217" lon="7.703397"><ele>1011.0</ele><time>2026-03-28T14:00:17.032Z</time></trkpt><trkpt lat="45.4525833" lon="7.7034425"><ele>1011.0</ele><time>2026-03-28T14:00:17.965Z</time></trkpt><trkpt lat="45.4526743" lon="7.7035089"><ele>1011.0</ele><time>2026-03-28T14:00:19.977Z</time></trkpt><trkpt lat="45.4527345" lon="7.7034795"><ele>1011.0</ele><time>2026-03-28T14:00:21.961Z</time></trkpt><trkpt lat="45.4527808" lon="7.703368"><ele>1011.0</ele><time>2026-03-28T14:00:23.967Z</time></trkpt><trkpt lat="45.4528166" lon="7.7032027"><ele>1011.0</ele><time>2026-03-28T14:00:26.033Z</time></trkpt><trkpt lat="45.4528388" lon="7.7031161"><ele>1011.0</ele><time>2026-03-28T14:00:27.027Z</time></trkpt><trkpt lat="45.4528702" lon="7.7030301"><ele>1011.0</ele><time>2026-03-28T14:00:27.967Z</time></trkpt><trkpt lat="45.4529108" lon="7.7029471"><ele>1011.0</ele><time>2026-03-28T14:00:28.969Z</time></trkpt><trkpt lat="45.4529536" lon="7.7028683"><ele>1012.0</ele><time>2026-03-28T14:00:29.965Z</time></trkpt><trkpt lat="45.4529974" lon="7.7027997"><ele>1013.0</ele><time>2026-03-28T14:00:30.965Z</time></trkpt><trkpt lat="45.4530399" lon="7.7027305"><ele>1014.0</ele><time>2026-03-28T14:00:31.964Z</time></trkpt><trkpt lat="45.4530781" lon="7.7025931"><ele>1015.0</ele><time>2026-03-28T14:00:33.952Z</time></trkpt><trkpt lat="45.4530806" lon="7.7024239"><ele>1016.0</ele><time>2026-03-28T14:00:36.024Z</time></trkpt><trkpt lat="45.4530721" lon="7.702331"><ele>1017.0</ele><time>2026-03-28T14:00:36.963Z</time></trkpt><trkpt lat="45.4530557" lon="7.7021692"><ele>1019.0</ele><time>2026-03-28T14:00:38.97Z</time></trkpt><trkpt lat="45.4530598" lon="7.7020319"><ele>1021.0</ele><time>2026-03-28T14:00:40.963Z</time></trkpt><trkpt lat="45.4530775" lon="7.7019454"><ele>1023.0</ele><time>2026-03-28T14:00:43.962Z</time></trkpt><trkpt lat="45.4531606" lon="7.7019239"><ele>1025.0</ele><time>2026-03-28T14:00:55.962Z</time></trkpt><trkpt lat="45.4532409" lon="7.7019324"><ele>1027.0</ele><time>2026-03-28T14:00:56.956Z</time></trkpt><trkpt lat="45.4533373" lon="7.7019481"><ele>1029.0</ele><time>2026-03-28T14:00:57.958Z</time></trkpt><trkpt lat="45.4534353" lon="7.7019727"><ele>1029.0</ele><time>2026-03-28T14:00:58.965Z</time></trkpt><trkpt lat="45.4535333" lon="7.7019918"><ele>1029.0</ele><time>2026-03-28T14:00:59.967Z</time></trkpt><trkpt lat="45.453626" lon="7.7020051"><ele>1029.0</ele><time>2026-03-28T14:01:00.968Z</time></trkpt><trkpt lat="45.4537179" lon="7.7020172"><ele>1029.0</ele><time>2026-03-28T14:01:01.964Z</time></trkpt><trkpt lat="45.4538102" lon="7.702025"><ele>1029.0</ele><time>2026-03-28T14:01:02.979Z</time></trkpt><trkpt lat="45.4538899" lon="7.7020364"><ele>1028.4</ele><time>2026-03-28T14:01:03.968Z</time></trkpt><trkpt lat="45.4539617" lon="7.7020385"><ele>1027.8000000000002</ele><time>2026-03-28T14:01:05.034Z</time></trkpt><trkpt lat="45.4540723" lon="7.7019991"><ele>1027.1999999999998</ele><time>2026-03-28T14:01:06.977Z</time></trkpt><trkpt lat="45.4541562" lon="7.7018905"><ele>1026.6</ele><time>2026-03-28T14:01:08.971Z</time></trkpt><trkpt lat="45.4542222" lon="7.7018381"><ele>1026.0</ele><time>2026-03-28T14:01:10.954Z</time></trkpt><trkpt lat="45.4543182" lon="7.7018965"><ele>1026.0</ele><time>2026-03-28T14:01:12.967Z</time></trkpt><trkpt lat="45.4544115" lon="7.7020267"><ele>1026.0</ele><time>2026-03-28T14:01:15.025Z</time></trkpt><trkpt lat="45.4544693" lon="7.7021109"><ele>1026.0</ele><time>2026-03-28T14:01:16.029Z</time></trkpt><trkpt lat="45.4545345" lon="7.7021804"><ele>1026.0</ele><time>2026-03-28T14:01:17.029Z</time></trkpt><trkpt lat="45.4545926" lon="7.7022482"><ele>1026.0</ele><time>2026-03-28T14:01:17.966Z</time></trkpt><trkpt lat="45.4546478" lon="7.7023037"><ele>1026.0</ele><time>2026-03-28T14:01:18.957Z</time></trkpt><trkpt lat="45.454751" lon="7.7023902"><ele>1028.6666666666667</ele><time>2026-03-28T14:01:21.032Z</time></trkpt><trkpt lat="45.4548239" lon="7.7024157"><ele>1031.3333333333333</ele><time>2026-03-28T14:01:21.964Z</time></trkpt><trkpt lat="45.4549136" lon="7.7024446"><ele>1034.0</ele><time>2026-03-28T14:01:22.964Z</time></trkpt><trkpt lat="45.4550055" lon="7.7024842"><ele>1036.6666666666665</ele><time>2026-03-28T14:01:23.957Z</time></trkpt><trkpt lat="45.4550876" lon="7.7025128"><ele>1039.3333333333333</ele><time>2026-03-28T14:01:24.966Z</time></trkpt><trkpt lat="45.4551592" lon="7.7025349"><ele>1042.0</ele><time>2026-03-28T14:01:26.027Z</time></trkpt><trkpt lat="45.4552378" lon="7.7025369"><ele>1042.0</ele><time>2026-03-28T14:01:27.021Z</time></trkpt><trkpt lat="45.4553084" lon="7.7025261"><ele>1042.0</ele><time>2026-03-28T14:01:27.961Z</time></trkpt><trkpt lat="45.4553885" lon="7.7025063"><ele>1042.0</ele><time>2026-03-28T14:01:28.959Z</time></trkpt><trkpt lat="45.4554643" lon="7.7024821"><ele>1042.0</ele><time>2026-03-28T14:01:29.996Z</time></trkpt><trkpt lat="45.4555448" lon="7.7024459"><ele>1042.0</ele><time>2026-03-28T14:01:30.966Z</time></trkpt><trkpt lat="45.4556341" lon="7.7023854"><ele>1042.0</ele><time>2026-03-28T14:01:31.946Z</time></trkpt><trkpt lat="45.4557252" lon="7.7023152"><ele>1042.2</ele><time>2026-03-28T14:01:32.962Z</time></trkpt><trkpt lat="45.455816" lon="7.702255"><ele>1042.4</ele><time>2026-03-28T14:01:33.968Z</time></trkpt><trkpt lat="45.4559085" lon="7.7021893"><ele>1042.6</ele><time>2026-03-28T14:01:34.947Z</time></trkpt><trkpt lat="45.4559915" lon="7.7021234"><ele>1042.8</ele><time>2026-03-28T14:01:35.962Z</time></trkpt><trkpt lat="45.456066" lon="7.7020524"><ele>1043.0</ele><time>2026-03-28T14:01:37.038Z</time></trkpt><trkpt lat="45.4561412" lon="7.70198"><ele>1047.3333333333335</ele><time>2026-03-28T14:01:37.968Z</time></trkpt><trkpt lat="45.4562177" lon="7.7019096"><ele>1051.6666666666667</ele><time>2026-03-28T14:01:38.963Z</time></trkpt><trkpt lat="45.4562974" lon="7.7018391"><ele>1056.0</ele><time>2026-03-28T14:01:39.955Z</time></trkpt><trkpt lat="45.4563841" lon="7.7017862"><ele>1060.3333333333333</ele><time>2026-03-28T14:01:40.965Z</time></trkpt><trkpt lat="45.4564632" lon="7.7017309"><ele>1064.6666666666665</ele><time>2026-03-28T14:01:41.966Z</time></trkpt><trkpt lat="45.4565385" lon="7.7016868"><ele>1069.0</ele><time>2026-03-28T14:01:42.955Z</time></trkpt><trkpt lat="45.4566147" lon="7.7016583"><ele>1069.0</ele><time>2026-03-28T14:01:44.047Z</time></trkpt><trkpt lat="45.456691" lon="7.7016411"><ele>1069.0</ele><time>2026-03-28T14:01:45.034Z</time></trkpt><trkpt lat="45.4567732" lon="7.7016391"><ele>1069.0</ele><time>2026-03-28T14:01:45.958Z</time></trkpt><trkpt lat="45.4568562" lon="7.7016487"><ele>1069.0</ele><time>2026-03-28T14:01:46.964Z</time></trkpt><trkpt lat="45.4569488" lon="7.7016689"><ele>1069.0</ele><time>2026-03-28T14:01:47.96Z</time></trkpt><trkpt lat="45.457034" lon="7.701672"><ele>1069.0</ele><time>2026-03-28T14:01:48.955Z</time></trkpt><trkpt lat="45.4571233" lon="7.701666"><ele>1068.6666666666665</ele><time>2026-03-28T14:01:49.957Z</time></trkpt><trkpt lat="45.4572005" lon="7.701663"><ele>1068.3333333333333</ele><time>2026-03-28T14:01:50.954Z</time></trkpt><trkpt lat="45.4572717" lon="7.7016492"><ele>1068.0</ele><time>2026-03-28T14:01:52.045Z</time></trkpt><trkpt lat="45.4573313" lon="7.7016172"><ele>1067.6666666666667</ele><time>2026-03-28T14:01:52.95Z</time></trkpt><trkpt lat="45.4573888" lon="7.7015732"><ele>1067.3333333333335</ele><time>2026-03-28T14:01:54.026Z</time></trkpt><trkpt lat="45.4574999" lon="7.7014854"><ele>1067.0</ele><time>2026-03-28T14:01:55.956Z</time></trkpt><trkpt lat="45.4575585" lon="7.7014374"><ele>1067.0</ele><time>2026-03-28T14:01:56.963Z</time></trkpt><trkpt lat="45.4576375" lon="7.7013875"><ele>1067.0</ele><time>2026-03-28T14:01:57.964Z</time></trkpt><trkpt lat="45.4577072" lon="7.7013433"><ele>1067.0</ele><time>2026-03-28T14:01:58.975Z</time></trkpt><trkpt lat="45.4577721" lon="7.7013065"><ele>1067.0</ele><time>2026-03-28T14:02:00.022Z</time></trkpt><trkpt lat="45.4578596" lon="7.7012764"><ele>1067.0</ele><time>2026-03-28T14:02:00.999Z</time></trkpt><trkpt lat="45.4579229" lon="7.7012491"><ele>1067.0</ele><time>2026-03-28T14:02:01.956Z</time></trkpt><trkpt lat="45.4579881" lon="7.7012253"><ele>1068.0</ele><time>2026-03-28T14:02:02.963Z</time></trkpt><trkpt lat="45.4580553" lon="7.7011944"><ele>1069.0</ele><time>2026-03-28T14:02:03.965Z</time></trkpt><trkpt lat="45.4581246" lon="7.7011673"><ele>1070.0</ele><time>2026-03-28T14:02:05.034Z</time></trkpt><trkpt lat="45.4582226" lon="7.7011141"><ele>1071.0</ele><time>2026-03-28T14:02:06.957Z</time></trkpt><trkpt lat="45.4583194" lon="7.7010392"><ele>1072.0</ele><time>2026-03-28T14:02:08.956Z</time></trkpt><trkpt lat="45.4584128" lon="7.7009505"><ele>1074.8</ele><time>2026-03-28T14:02:11.023Z</time></trkpt><trkpt lat="45.4584767" lon="7.7008414"><ele>1077.6</ele><time>2026-03-28T14:02:12.96Z</time></trkpt><trkpt lat="45.4584911" lon="7.7007117"><ele>1080.3999999999999</ele><time>2026-03-28T14:02:14.964Z</time></trkpt><trkpt lat="45.4584805" lon="7.7005348"><ele>1083.2</ele><time>2026-03-28T14:02:16.956Z</time></trkpt><trkpt lat="45.4584705" lon="7.7004336"><ele>1086.0</ele><time>2026-03-28T14:02:17.957Z</time></trkpt><trkpt lat="45.4584595" lon="7.7003186"><ele>1090.0</ele><time>2026-03-28T14:02:18.958Z</time></trkpt><trkpt lat="45.4584387" lon="7.700193"><ele>1094.0</ele><time>2026-03-28T14:02:19.981Z</time></trkpt><trkpt lat="45.4584022" lon="7.7000826"><ele>1098.0</ele><time>2026-03-28T14:02:20.96Z</time></trkpt><trkpt lat="45.4583708" lon="7.6999799"><ele>1102.0</ele><time>2026-03-28T14:02:21.955Z</time></trkpt><trkpt lat="45.4583419" lon="7.6998832"><ele>1106.0</ele><time>2026-03-28T14:02:22.957Z</time></trkpt><trkpt lat="45.4583189" lon="7.699797"><ele>1110.0</ele><time>2026-03-28T14:02:23.952Z</time></trkpt><trkpt lat="45.4582592" lon="7.699649"><ele>1110.0</ele><time>2026-03-28T14:02:25.948Z</time></trkpt><trkpt lat="45.4581867" lon="7.6995432"><ele>1110.0</ele><time>2026-03-28T14:02:27.955Z</time></trkpt><trkpt lat="45.4581239" lon="7.6994825"><ele>1110.0</ele><time>2026-03-28T14:02:29.955Z</time></trkpt><trkpt lat="45.4581212" lon="7.6993865"><ele>1110.0</ele><time>2026-03-28T14:02:44.955Z</time></trkpt><trkpt lat="45.4581502" lon="7.6993051"><ele>1110.0</ele><time>2026-03-28T14:02:47.962Z</time></trkpt><trkpt lat="45.4581951" lon="7.6992289"><ele>1110.0</ele><time>2026-03-28T14:02:49.963Z</time></trkpt><trkpt lat="45.4582436" lon="7.6991077"><ele>1114.8333333333333</ele><time>2026-03-28T14:02:51.962Z</time></trkpt><trkpt lat="45.4582987" lon="7.6989645"><ele>1119.6666666666667</ele><time>2026-03-28T14:02:53.966Z</time></trkpt><trkpt lat="45.4583764" lon="7.6988314"><ele>1124.5</ele><time>2026-03-28T14:02:55.952Z</time></trkpt><trkpt lat="45.4584355" lon="7.698776"><ele>1129.3333333333335</ele><time>2026-03-28T14:02:56.951Z</time></trkpt><trkpt lat="45.4584968" lon="7.6987288"><ele>1134.1666666666667</ele><time>2026-03-28T14:02:57.962Z</time></trkpt><trkpt lat="45.4585531" lon="7.6986763"><ele>1139.0</ele><time>2026-03-28T14:02:58.956Z</time></trkpt><trkpt lat="45.458611" lon="7.6986209"><ele>1140.1666666666667</ele><time>2026-03-28T14:02:59.966Z</time></trkpt><trkpt lat="45.4586737" lon="7.6985587"><ele>1141.3333333333335</ele><time>2026-03-28T14:03:00.958Z</time></trkpt><trkpt lat="45.4587214" lon="7.6984996"><ele>1142.5</ele><time>2026-03-28T14:03:01.956Z</time></trkpt><trkpt lat="45.4588242" lon="7.6984075"><ele>1143.6666666666667</ele><time>2026-03-28T14:03:03.964Z</time></trkpt><trkpt lat="45.458883" lon="7.6983529"><ele>1144.8333333333333</ele><time>2026-03-28T14:03:04.957Z</time></trkpt><trkpt lat="45.4589462" lon="7.6982984"><ele>1146.0</ele><time>2026-03-28T14:03:05.96Z</time></trkpt><trkpt lat="45.4590183" lon="7.6982428"><ele>1146.0</ele><time>2026-03-28T14:03:06.952Z</time></trkpt><trkpt lat="45.4590801" lon="7.6981908"><ele>1146.0</ele><time>2026-03-28T14:03:07.959Z</time></trkpt><trkpt lat="45.4591442" lon="7.6981361"><ele>1146.0</ele><time>2026-03-28T14:03:08.953Z</time></trkpt><trkpt lat="45.4592037" lon="7.6980833"><ele>1146.0</ele><time>2026-03-28T14:03:09.959Z</time></trkpt><trkpt lat="45.4592951" lon="7.6979744"><ele>1146.0</ele><time>2026-03-28T14:03:11.96Z</time></trkpt><trkpt lat="45.459385" lon="7.6978671"><ele>1146.0</ele><time>2026-03-28T14:03:13.961Z</time></trkpt><trkpt lat="45.4594837" lon="7.6977769"><ele>1146.0</ele><time>2026-03-28T14:03:15.961Z</time></trkpt><trkpt lat="45.4595921" lon="7.6977224"><ele>1146.0</ele><time>2026-03-28T14:03:17.946Z</time></trkpt><trkpt lat="45.459699" lon="7.6976657"><ele>1146.0</ele><time>2026-03-28T14:03:19.958Z</time></trkpt><trkpt lat="45.4597844" lon="7.6976269"><ele>1146.0</ele><time>2026-03-28T14:03:21.948Z</time></trkpt><trkpt lat="45.4598643" lon="7.697594"><ele>1148.5714285714287</ele><time>2026-03-28T14:03:23.945Z</time></trkpt><trkpt lat="45.4599522" lon="7.6975611"><ele>1151.1428571428573</ele><time>2026-03-28T14:03:26.034Z</time></trkpt><trkpt lat="45.4600196" lon="7.6975354"><ele>1153.7142857142858</ele><time>2026-03-28T14:03:27.96Z</time></trkpt><trkpt lat="45.4600805" lon="7.6975026"><ele>1156.2857142857142</ele><time>2026-03-28T14:03:31.959Z</time></trkpt><trkpt lat="45.4601268" lon="7.6974352"><ele>1158.8571428571427</ele><time>2026-03-28T14:05:47.957Z</time></trkpt><trkpt lat="45.4601793" lon="7.6973767"><ele>1161.4285714285713</ele><time>2026-03-28T14:05:49.957Z</time></trkpt><trkpt lat="45.4602387" lon="7.697323"><ele>1164.0</ele><time>2026-03-28T14:05:51.954Z</time></trkpt><trkpt lat="45.4603003" lon="7.6972514"><ele>1164.0</ele><time>2026-03-28T14:05:53.956Z</time></trkpt><trkpt lat="45.4603768" lon="7.6971757"><ele>1164.0</ele><time>2026-03-28T14:05:55.958Z</time></trkpt><trkpt lat="45.4604555" lon="7.6971122"><ele>1164.0</ele><time>2026-03-28T14:05:57.959Z</time></trkpt><trkpt lat="45.4605187" lon="7.6970674"><ele>1164.0</ele><time>2026-03-28T14:05:59.952Z</time></trkpt><trkpt lat="45.460589" lon="7.6969896"><ele>1164.0</ele><time>2026-03-28T14:06:02.951Z</time></trkpt><trkpt lat="45.4606409" lon="7.696935"><ele>1164.0</ele><time>2026-03-28T14:06:22.951Z</time></trkpt><trkpt lat="45.460643" lon="7.6970425"><ele>1164.0</ele><time>2026-03-28T14:06:45.958Z</time></trkpt><trkpt lat="45.4605868" lon="7.697099"><ele>1164.0</ele><time>2026-03-28T14:06:51.949Z</time></trkpt><trkpt lat="45.4605141" lon="7.6971504"><ele>1164.0</ele><time>2026-03-28T14:06:53.961Z</time></trkpt><trkpt lat="45.4604377" lon="7.6971968"><ele>1164.0</ele><time>2026-03-28T14:06:55.943Z</time></trkpt><trkpt lat="45.4603672" lon="7.6972499"><ele>1164.0</ele><time>2026-03-28T14:06:57.956Z</time></trkpt><trkpt lat="45.4602973" lon="7.69731"><ele>1164.0</ele><time>2026-03-28T14:06:59.949Z</time></trkpt><trkpt lat="45.4602387" lon="7.6973569"><ele>1164.0</ele><time>2026-03-28T14:07:01.955Z</time></trkpt><trkpt lat="45.4602175" lon="7.6974495"><ele>1164.0</ele><time>2026-03-28T14:07:04.956Z</time></trkpt><trkpt lat="45.460285" lon="7.6974393"><ele>1164.0</ele><time>2026-03-28T14:07:08.959Z</time></trkpt><trkpt lat="45.4603454" lon="7.6974013"><ele>1164.0</ele><time>2026-03-28T14:07:10.958Z</time></trkpt><trkpt lat="45.4603998" lon="7.6973439"><ele>1164.0</ele><time>2026-03-28T14:07:12.957Z</time></trkpt><trkpt lat="45.4604777" lon="7.6972744"><ele>1164.0</ele><time>2026-03-28T14:07:15.951Z</time></trkpt><trkpt lat="45.4605474" lon="7.6972396"><ele>1164.0</ele><time>2026-03-28T14:07:17.944Z</time></trkpt><trkpt lat="45.4606155" lon="7.6971969"><ele>1163.0</ele><time>2026-03-28T14:07:19.964Z</time></trkpt><trkpt lat="45.460695" lon="7.6972066"><ele>1162.0</ele><time>2026-03-28T14:07:24.966Z</time></trkpt><trkpt lat="45.460773" lon="7.6972003"><ele>1161.0</ele><time>2026-03-28T14:07:27.956Z</time></trkpt><trkpt lat="45.4608426" lon="7.6971604"><ele>1160.0</ele><time>2026-03-28T14:07:30.953Z</time></trkpt><trkpt lat="45.4609149" lon="7.6971532"><ele>1159.0</ele><time>2026-03-28T14:07:48.956Z</time></trkpt><trkpt lat="45.460979" lon="7.697119"><ele>1158.0</ele><time>2026-03-28T14:07:51.959Z</time></trkpt><trkpt lat="45.4610459" lon="7.6971169"><ele>1157.0</ele><time>2026-03-28T14:07:56.951Z</time></trkpt><trkpt lat="45.4611094" lon="7.6971583"><ele>1157.0</ele><time>2026-03-28T14:08:02.97Z</time></trkpt><trkpt lat="45.4611855" lon="7.697176"><ele>1157.0</ele><time>2026-03-28T14:08:05.957Z</time></trkpt><trkpt lat="45.4612527" lon="7.6971832"><ele>1157.0</ele><time>2026-03-28T14:08:25.961Z</time></trkpt><trkpt lat="45.4613129" lon="7.6970898"><ele>1157.0</ele><time>2026-03-28T14:08:28.949Z</time></trkpt><trkpt lat="45.4613534" lon="7.6970208"><ele>1157.0</ele><time>2026-03-28T14:08:31.958Z</time></trkpt><trkpt lat="45.4613395" lon="7.6969255"><ele>1157.0</ele><time>2026-03-28T14:08:39.956Z</time></trkpt><trkpt lat="45.4614077" lon="7.6969509"><ele>1157.0</ele><time>2026-03-28T14:11:11.965Z</time></trkpt><trkpt lat="45.4614917" lon="7.6969445"><ele>1156.6666666666667</ele><time>2026-03-28T14:11:21.961Z</time></trkpt><trkpt lat="45.4615635" lon="7.696962"><ele>1156.3333333333335</ele><time>2026-03-28T14:11:27.967Z</time></trkpt><trkpt lat="45.4616482" lon="7.6969049"><ele>1156.0</ele><time>2026-03-28T14:11:28.968Z</time></trkpt><trkpt lat="45.4617226" lon="7.6968658"><ele>1155.6666666666667</ele><time>2026-03-28T14:11:29.963Z</time></trkpt><trkpt lat="45.4618301" lon="7.6968218"><ele>1155.3333333333333</ele><time>2026-03-28T14:11:31.966Z</time></trkpt><trkpt lat="45.4619071" lon="7.6967937"><ele>1155.0</ele><time>2026-03-28T14:11:32.952Z</time></trkpt><trkpt lat="45.4620028" lon="7.6967225"><ele>1159.8333333333333</ele><time>2026-03-28T14:11:35.963Z</time></trkpt><trkpt lat="45.462076" lon="7.6966691"><ele>1164.6666666666667</ele><time>2026-03-28T14:11:37.976Z</time></trkpt><trkpt lat="45.4621574" lon="7.6966284"><ele>1169.5</ele><time>2026-03-28T14:11:41.034Z</time></trkpt><trkpt lat="45.4622224" lon="7.6965977"><ele>1174.3333333333335</ele><time>2026-03-28T14:11:42.966Z</time></trkpt><trkpt lat="45.4622921" lon="7.6965805"><ele>1179.1666666666667</ele><time>2026-03-28T14:11:43.968Z</time></trkpt><trkpt lat="45.4623714" lon="7.6965552"><ele>1184.0</ele><time>2026-03-28T14:11:46.968Z</time></trkpt><trkpt lat="45.4624785" lon="7.6965284"><ele>1184.7142857142858</ele><time>2026-03-28T14:11:48.97Z</time></trkpt><trkpt lat="45.4625469" lon="7.6965382"><ele>1185.4285714285713</ele><time>2026-03-28T14:11:51.057Z</time></trkpt><trkpt lat="45.4626399" lon="7.6965828"><ele>1186.142857142857</ele><time>2026-03-28T14:11:53.985Z</time></trkpt><trkpt lat="45.4627065" lon="7.6966109"><ele>1186.857142857143</ele><time>2026-03-28T14:11:55.939Z</time></trkpt><trkpt lat="45.4627796" lon="7.6966005"><ele>1187.5714285714287</ele><time>2026-03-28T14:11:57.971Z</time></trkpt><trkpt lat="45.4628481" lon="7.6965856"><ele>1188.2857142857142</ele><time>2026-03-28T14:12:01.969Z</time></trkpt><trkpt lat="45.4629167" lon="7.6965847"><ele>1189.0</ele><time>2026-03-28T14:13:29.966Z</time></trkpt><trkpt lat="45.4629912" lon="7.6965433"><ele>1189.2857142857142</ele><time>2026-03-28T14:13:33.966Z</time></trkpt><trkpt lat="45.4630483" lon="7.696468"><ele>1189.5714285714287</ele><time>2026-03-28T14:13:35.965Z</time></trkpt><trkpt lat="45.4631055" lon="7.6964071"><ele>1189.857142857143</ele><time>2026-03-28T14:13:37.969Z</time></trkpt><trkpt lat="45.4631579" lon="7.6963521"><ele>1190.142857142857</ele><time>2026-03-28T14:13:39.965Z</time></trkpt><trkpt lat="45.4632031" lon="7.6962712"><ele>1190.4285714285713</ele><time>2026-03-28T14:13:42.967Z</time></trkpt><trkpt lat="45.4632537" lon="7.6962077"><ele>1190.7142857142858</ele><time>2026-03-28T14:13:45.968Z</time></trkpt><trkpt lat="45.4632901" lon="7.6961318"><ele>1191.0</ele><time>2026-03-28T14:13:47.973Z</time></trkpt><trkpt lat="45.4633278" lon="7.6960195"><ele>1194.6666666666667</ele><time>2026-03-28T14:13:50.963Z</time></trkpt><trkpt lat="45.4633619" lon="7.6959133"><ele>1198.3333333333333</ele><time>2026-03-28T14:13:53.959Z</time></trkpt><trkpt lat="45.4634036" lon="7.6958116"><ele>1202.0</ele><time>2026-03-28T14:13:56.969Z</time></trkpt><trkpt lat="45.4634491" lon="7.6957409"><ele>1205.6666666666665</ele><time>2026-03-28T14:13:58.952Z</time></trkpt><trkpt lat="45.4634976" lon="7.6956811"><ele>1209.3333333333333</ele><time>2026-03-28T14:14:00.874Z</time></trkpt><trkpt lat="45.4635508" lon="7.6955753"><ele>1213.0</ele><time>2026-03-28T14:14:03.965Z</time></trkpt><trkpt lat="45.4636176" lon="7.6954843"><ele>1213.0</ele><time>2026-03-28T14:14:06.969Z</time></trkpt><trkpt lat="45.4636697" lon="7.6954245"><ele>1213.0</ele><time>2026-03-28T14:14:08.965Z</time></trkpt><trkpt lat="45.463735" lon="7.6953365"><ele>1213.0</ele><time>2026-03-28T14:14:11.965Z</time></trkpt><trkpt lat="45.4637885" lon="7.695243"><ele>1213.0</ele><time>2026-03-28T14:14:14.968Z</time></trkpt><trkpt lat="45.4638242" lon="7.6951402"><ele>1213.0</ele><time>2026-03-28T14:15:52.953Z</time></trkpt><trkpt lat="45.4638653" lon="7.6950453"><ele>1213.0</ele><time>2026-03-28T14:15:54.962Z</time></trkpt><trkpt lat="45.4639056" lon="7.6949648"><ele>1213.1666666666665</ele><time>2026-03-28T14:15:56.941Z</time></trkpt><trkpt lat="45.4639514" lon="7.6948552"><ele>1213.3333333333333</ele><time>2026-03-28T14:16:22.961Z</time></trkpt><trkpt lat="45.4639973" lon="7.6947304"><ele>1213.5</ele><time>2026-03-28T14:16:25.953Z</time></trkpt><trkpt lat="45.4640435" lon="7.6946486"><ele>1213.6666666666667</ele><time>2026-03-28T14:16:27.952Z</time></trkpt><trkpt lat="45.4640933" lon="7.694581"><ele>1213.8333333333335</ele><time>2026-03-28T14:16:29.949Z</time></trkpt><trkpt lat="45.4641297" lon="7.6944991"><ele>1214.0</ele><time>2026-03-28T14:16:31.957Z</time></trkpt><trkpt lat="45.4641848" lon="7.6944051"><ele>1218.3333333333335</ele><time>2026-03-28T14:16:35.053Z</time></trkpt><trkpt lat="45.4642211" lon="7.6942931"><ele>1222.6666666666667</ele><time>2026-03-28T14:16:37.967Z</time></trkpt><trkpt lat="45.4642673" lon="7.6942274"><ele>1227.0</ele><time>2026-03-28T14:17:09.957Z</time></trkpt><trkpt lat="45.464313" lon="7.6941448"><ele>1231.3333333333333</ele><time>2026-03-28T14:17:11.955Z</time></trkpt><trkpt lat="45.4643568" lon="7.6940406"><ele>1235.6666666666665</ele><time>2026-03-28T14:17:13.937Z</time></trkpt><trkpt lat="45.4643943" lon="7.6939442"><ele>1240.0</ele><time>2026-03-28T14:17:15.953Z</time></trkpt><trkpt lat="45.4644326" lon="7.6938199"><ele>1240.0</ele><time>2026-03-28T14:17:18.971Z</time></trkpt><trkpt lat="45.4644659" lon="7.6937217"><ele>1240.0</ele><time>2026-03-28T14:17:21.01Z</time></trkpt><trkpt lat="45.4644797" lon="7.6936308"><ele>1240.0</ele><time>2026-03-28T14:17:22.96Z</time></trkpt><trkpt lat="45.4645313" lon="7.6935511"><ele>1240.0</ele><time>2026-03-28T14:17:54.954Z</time></trkpt><trkpt lat="45.4645703" lon="7.6934649"><ele>1240.0</ele><time>2026-03-28T14:17:57.965Z</time></trkpt><trkpt lat="45.4646141" lon="7.6933844"><ele>1240.0</ele><time>2026-03-28T14:18:00.957Z</time></trkpt><trkpt lat="45.4646573" lon="7.693296"><ele>1240.0</ele><time>2026-03-28T14:18:03.959Z</time></trkpt><trkpt lat="45.464703" lon="7.6931904"><ele>1240.6666666666665</ele><time>2026-03-28T14:18:06.961Z</time></trkpt><trkpt lat="45.4647539" lon="7.6930809"><ele>1241.3333333333333</ele><time>2026-03-28T14:18:09.956Z</time></trkpt><trkpt lat="45.4647943" lon="7.6929875"><ele>1242.0</ele><time>2026-03-28T14:18:11.959Z</time></trkpt><trkpt lat="45.4648053" lon="7.6928837"><ele>1242.6666666666667</ele><time>2026-03-28T14:18:15.04Z</time></trkpt><trkpt lat="45.4648241" lon="7.692777"><ele>1243.3333333333335</ele><time>2026-03-28T14:18:17.962Z</time></trkpt><trkpt lat="45.464826" lon="7.692678"><ele>1244.0</ele><time>2026-03-28T14:18:19.961Z</time></trkpt><trkpt lat="45.4648235" lon="7.692575"><ele>1245.8333333333335</ele><time>2026-03-28T14:18:22.974Z</time></trkpt><trkpt lat="45.4648452" lon="7.6924601"><ele>1247.6666666666667</ele><time>2026-03-28T14:18:32.975Z</time></trkpt><trkpt lat="45.4648625" lon="7.6923572"><ele>1249.5</ele><time>2026-03-28T14:18:36.037Z</time></trkpt><trkpt lat="45.464885" lon="7.6922637"><ele>1251.3333333333333</ele><time>2026-03-28T14:18:37.971Z</time></trkpt><trkpt lat="45.4649133" lon="7.6921426"><ele>1253.1666666666665</ele><time>2026-03-28T14:18:39.961Z</time></trkpt><trkpt lat="45.4649224" lon="7.6920456"><ele>1255.0</ele><time>2026-03-28T14:18:42.967Z</time></trkpt><trkpt lat="45.4649564" lon="7.6919485"><ele>1255.0</ele><time>2026-03-28T14:18:45.968Z</time></trkpt><trkpt lat="45.4649272" lon="7.6920329"><ele>1255.0</ele><time>2026-03-28T14:23:27.933Z</time></trkpt><trkpt lat="45.46494" lon="7.6919447"><ele>1255.0</ele><time>2026-03-28T14:24:19.941Z</time></trkpt><trkpt lat="45.4649861" lon="7.6918809"><ele>1255.0</ele><time>2026-03-28T14:29:26.948Z</time></trkpt><trkpt lat="45.4650439" lon="7.6918023"><ele>1255.0</ele><time>2026-03-28T14:29:30.946Z</time></trkpt><trkpt lat="45.4650818" lon="7.6916835"><ele>1255.0</ele><time>2026-03-28T14:29:33.945Z</time></trkpt><trkpt lat="45.4651206" lon="7.691597"><ele>1255.0</ele><time>2026-03-28T14:29:35.947Z</time></trkpt><trkpt lat="45.4651655" lon="7.6915011"><ele>1256.1666666666665</ele><time>2026-03-28T14:29:37.95Z</time></trkpt><trkpt lat="45.4652048" lon="7.6914195"><ele>1257.3333333333333</ele><time>2026-03-28T14:29:39.95Z</time></trkpt><trkpt lat="45.4652458" lon="7.691338"><ele>1258.5</ele><time>2026-03-28T14:29:41.95Z</time></trkpt><trkpt lat="45.4653095" lon="7.6912783"><ele>1259.6666666666667</ele><time>2026-03-28T14:29:43.948Z</time></trkpt><trkpt lat="45.465376" lon="7.6912195"><ele>1260.8333333333335</ele><time>2026-03-28T14:29:45.946Z</time></trkpt><trkpt lat="45.4654517" lon="7.6911533"><ele>1262.0</ele><time>2026-03-28T14:29:48.947Z</time></trkpt><trkpt lat="45.4655333" lon="7.6911276"><ele>1262.2</ele><time>2026-03-28T14:29:51.947Z</time></trkpt><trkpt lat="45.4656059" lon="7.691132"><ele>1262.4</ele><time>2026-03-28T14:29:53.949Z</time></trkpt><trkpt lat="45.465699" lon="7.6911588"><ele>1262.6</ele><time>2026-03-28T14:29:55.955Z</time></trkpt><trkpt lat="45.4658168" lon="7.6911839"><ele>1262.8</ele><time>2026-03-28T14:29:57.952Z</time></trkpt><trkpt lat="45.4659372" lon="7.691151"><ele>1263.0</ele><time>2026-03-28T14:29:59.951Z</time></trkpt><trkpt lat="45.4660585" lon="7.6910981"><ele>1264.0</ele><time>2026-03-28T14:30:01.954Z</time></trkpt><trkpt lat="45.4661741" lon="7.6910327"><ele>1265.0</ele><time>2026-03-28T14:30:03.948Z</time></trkpt><trkpt lat="45.4662824" lon="7.6909722"><ele>1266.0</ele><time>2026-03-28T14:30:05.948Z</time></trkpt><trkpt lat="45.4663874" lon="7.6909468"><ele>1267.0</ele><time>2026-03-28T14:30:07.943Z</time></trkpt><trkpt lat="45.4665018" lon="7.6909646"><ele>1271.0</ele><time>2026-03-28T14:30:09.946Z</time></trkpt><trkpt lat="45.4666208" lon="7.6910282"><ele>1275.0</ele><time>2026-03-28T14:30:11.948Z</time></trkpt><trkpt lat="45.466736" lon="7.6910699"><ele>1279.0</ele><time>2026-03-28T14:30:13.937Z</time></trkpt><trkpt lat="45.4668483" lon="7.6910795"><ele>1283.0</ele><time>2026-03-28T14:30:15.94Z</time></trkpt><trkpt lat="45.4669508" lon="7.6910505"><ele>1283.0</ele><time>2026-03-28T14:30:17.939Z</time></trkpt><trkpt lat="45.4668959" lon="7.6909762"><ele>1283.0</ele><time>2026-03-28T14:30:23.942Z</time></trkpt><trkpt lat="45.4668345" lon="7.6909354"><ele>1283.0</ele><time>2026-03-28T14:30:25.946Z</time></trkpt><trkpt lat="45.4667603" lon="7.6908804"><ele>1283.0</ele><time>2026-03-28T14:30:27.947Z</time></trkpt><trkpt lat="45.4666869" lon="7.6908207"><ele>1283.0</ele><time>2026-03-28T14:30:29.945Z</time></trkpt><trkpt lat="45.4665982" lon="7.6907492"><ele>1283.0</ele><time>2026-03-28T14:30:31.946Z</time></trkpt><trkpt lat="45.4664979" lon="7.6906851"><ele>1283.0</ele><time>2026-03-28T14:30:33.961Z</time></trkpt><trkpt lat="45.4663897" lon="7.6906089"><ele>1283.0</ele><time>2026-03-28T14:30:35.947Z</time></trkpt><trkpt lat="45.4662835" lon="7.6904899"><ele>1283.0</ele><time>2026-03-28T14:30:37.943Z</time></trkpt><trkpt lat="45.4662144" lon="7.690321"><ele>1283.0</ele><time>2026-03-28T14:30:39.945Z</time></trkpt><trkpt lat="45.466195" lon="7.6902208"><ele>1279.7142857142858</ele><time>2026-03-28T14:30:40.953Z</time></trkpt><trkpt lat="45.4661917" lon="7.6901209"><ele>1276.4285714285713</ele><time>2026-03-28T14:30:41.951Z</time></trkpt><trkpt lat="45.4662007" lon="7.6900121"><ele>1273.142857142857</ele><time>2026-03-28T14:30:42.944Z</time></trkpt><trkpt lat="45.466217" lon="7.689903"><ele>1269.857142857143</ele><time>2026-03-28T14:30:43.945Z</time></trkpt><trkpt lat="45.4662335" lon="7.6898014"><ele>1266.5714285714284</ele><time>2026-03-28T14:30:44.948Z</time></trkpt><trkpt lat="45.4662479" lon="7.6896969"><ele>1263.2857142857142</ele><time>2026-03-28T14:30:45.95Z</time></trkpt><trkpt lat="45.4662603" lon="7.6895909"><ele>1260.0</ele><time>2026-03-28T14:30:46.949Z</time></trkpt><trkpt lat="45.4662724" lon="7.6894836"><ele>1259.5714285714287</ele><time>2026-03-28T14:30:47.954Z</time></trkpt><trkpt lat="45.4662771" lon="7.6893825"><ele>1259.142857142857</ele><time>2026-03-28T14:30:48.948Z</time></trkpt><trkpt lat="45.466275" lon="7.6892783"><ele>1258.7142857142858</ele><time>2026-03-28T14:30:49.952Z</time></trkpt><trkpt lat="45.4662677" lon="7.6891745"><ele>1258.2857142857142</ele><time>2026-03-28T14:30:50.945Z</time></trkpt><trkpt lat="45.4662584" lon="7.6890853"><ele>1257.857142857143</ele><time>2026-03-28T14:30:51.949Z</time></trkpt><trkpt lat="45.4662044" lon="7.6889858"><ele>1257.4285714285716</ele><time>2026-03-28T14:30:53.946Z</time></trkpt><trkpt lat="45.4661398" lon="7.6890527"><ele>1257.0</ele><time>2026-03-28T14:30:55.944Z</time></trkpt><trkpt lat="45.466142" lon="7.6891974"><ele>1257.0</ele><time>2026-03-28T14:30:57.951Z</time></trkpt><trkpt lat="45.4661519" lon="7.689356"><ele>1257.0</ele><time>2026-03-28T14:30:59.943Z</time></trkpt><trkpt lat="45.4661067" lon="7.6895239"><ele>1257.0</ele><time>2026-03-28T14:31:01.95Z</time></trkpt><trkpt lat="45.4660717" lon="7.6896117"><ele>1257.0</ele><time>2026-03-28T14:31:02.963Z</time></trkpt><trkpt lat="45.466026" lon="7.6897037"><ele>1257.0</ele><time>2026-03-28T14:31:03.941Z</time></trkpt><trkpt lat="45.4659805" lon="7.6897964"><ele>1257.5</ele><time>2026-03-28T14:31:04.949Z</time></trkpt><trkpt lat="45.4659346" lon="7.6898909"><ele>1258.0</ele><time>2026-03-28T14:31:05.949Z</time></trkpt><trkpt lat="45.4658859" lon="7.689987"><ele>1258.5</ele><time>2026-03-28T14:31:06.943Z</time></trkpt><trkpt lat="45.4658451" lon="7.6900954"><ele>1259.0</ele><time>2026-03-28T14:31:07.945Z</time></trkpt><trkpt lat="45.4658093" lon="7.6902104"><ele>1259.5</ele><time>2026-03-28T14:31:08.941Z</time></trkpt><trkpt lat="45.4657776" lon="7.6903299"><ele>1260.0</ele><time>2026-03-28T14:31:09.956Z</time></trkpt><trkpt lat="45.4657345" lon="7.6904445"><ele>1261.4</ele><time>2026-03-28T14:31:10.945Z</time></trkpt><trkpt lat="45.465682" lon="7.6905534"><ele>1262.8</ele><time>2026-03-28T14:31:11.951Z</time></trkpt><trkpt lat="45.465617" lon="7.6906429"><ele>1264.2</ele><time>2026-03-28T14:31:12.949Z</time></trkpt><trkpt lat="45.4655456" lon="7.690713"><ele>1265.6</ele><time>2026-03-28T14:31:13.945Z</time></trkpt><trkpt lat="45.4654597" lon="7.6907513"><ele>1267.0</ele><time>2026-03-28T14:31:14.946Z</time></trkpt><trkpt lat="45.4653728" lon="7.6907853"><ele>1262.8</ele><time>2026-03-28T14:31:15.944Z</time></trkpt><trkpt lat="45.4652805" lon="7.6908182"><ele>1258.6</ele><time>2026-03-28T14:31:16.946Z</time></trkpt><trkpt lat="45.4651913" lon="7.6908444"><ele>1254.3999999999999</ele><time>2026-03-28T14:31:17.947Z</time></trkpt><trkpt lat="45.4651011" lon="7.6908694"><ele>1250.2</ele><time>2026-03-28T14:31:18.948Z</time></trkpt><trkpt lat="45.4650085" lon="7.6908951"><ele>1246.0</ele><time>2026-03-28T14:31:19.948Z</time></trkpt><trkpt lat="45.4649132" lon="7.690921"><ele>1246.0</ele><time>2026-03-28T14:31:20.961Z</time></trkpt><trkpt lat="45.4648206" lon="7.6909546"><ele>1246.0</ele><time>2026-03-28T14:31:21.948Z</time></trkpt><trkpt lat="45.4647212" lon="7.6909893"><ele>1246.0</ele><time>2026-03-28T14:31:22.951Z</time></trkpt><trkpt lat="45.4646254" lon="7.6910297"><ele>1246.0</ele><time>2026-03-28T14:31:23.949Z</time></trkpt><trkpt lat="45.4645413" lon="7.6910918"><ele>1246.0</ele><time>2026-03-28T14:31:24.952Z</time></trkpt><trkpt lat="45.4644585" lon="7.6911734"><ele>1246.3999999999999</ele><time>2026-03-28T14:31:25.957Z</time></trkpt><trkpt lat="45.4643836" lon="7.6912572"><ele>1246.8</ele><time>2026-03-28T14:31:26.95Z</time></trkpt><trkpt lat="45.4643201" lon="7.6913258"><ele>1247.1999999999998</ele><time>2026-03-28T14:31:27.944Z</time></trkpt><trkpt lat="45.4642167" lon="7.6913407"><ele>1247.6</ele><time>2026-03-28T14:31:29.946Z</time></trkpt><trkpt lat="45.4641948" lon="7.6912092"><ele>1248.0</ele><time>2026-03-28T14:31:31.943Z</time></trkpt><trkpt lat="45.4642641" lon="7.6910945"><ele>1243.75</ele><time>2026-03-28T14:31:33.943Z</time></trkpt><trkpt lat="45.4643314" lon="7.6909677"><ele>1239.5</ele><time>2026-03-28T14:31:35.944Z</time></trkpt><trkpt lat="45.4644081" lon="7.6908372"><ele>1235.25</ele><time>2026-03-28T14:31:37.944Z</time></trkpt><trkpt lat="45.464489" lon="7.6907068"><ele>1231.0</ele><time>2026-03-28T14:31:39.947Z</time></trkpt><trkpt lat="45.4645713" lon="7.6905915"><ele>1230.5</ele><time>2026-03-28T14:31:41.946Z</time></trkpt><trkpt lat="45.4646752" lon="7.6904828"><ele>1230.0</ele><time>2026-03-28T14:31:43.947Z</time></trkpt><trkpt lat="45.4647321" lon="7.6904196"><ele>1229.5</ele><time>2026-03-28T14:31:44.957Z</time></trkpt><trkpt lat="45.4647914" lon="7.6903657"><ele>1229.0</ele><time>2026-03-28T14:31:45.948Z</time></trkpt><trkpt lat="45.4648479" lon="7.6903067"><ele>1228.5</ele><time>2026-03-28T14:31:46.945Z</time></trkpt><trkpt lat="45.4649075" lon="7.6902499"><ele>1228.0</ele><time>2026-03-28T14:31:47.94Z</time></trkpt><trkpt lat="45.4649667" lon="7.6901972"><ele>1228.0</ele><time>2026-03-28T14:31:48.944Z</time></trkpt><trkpt lat="45.465015" lon="7.6901384"><ele>1228.0</ele><time>2026-03-28T14:31:49.946Z</time></trkpt><trkpt lat="45.4650334" lon="7.6900196"><ele>1228.0</ele><time>2026-03-28T14:31:51.955Z</time></trkpt><trkpt lat="45.4649883" lon="7.6899397"><ele>1228.0</ele><time>2026-03-28T14:31:53.944Z</time></trkpt><trkpt lat="45.4648797" lon="7.6900116"><ele>1228.0</ele><time>2026-03-28T14:31:55.943Z</time></trkpt><trkpt lat="45.4648166" lon="7.690044"><ele>1228.0</ele><time>2026-03-28T14:31:56.949Z</time></trkpt><trkpt lat="45.4647472" lon="7.6900817"><ele>1228.0</ele><time>2026-03-28T14:31:57.954Z</time></trkpt><trkpt lat="45.4646698" lon="7.6901046"><ele>1228.0</ele><time>2026-03-28T14:31:58.943Z</time></trkpt><trkpt lat="45.4645897" lon="7.6901286"><ele>1228.0</ele><time>2026-03-28T14:31:59.951Z</time></trkpt><trkpt lat="45.4645056" lon="7.6901485"><ele>1228.0</ele><time>2026-03-28T14:32:00.949Z</time></trkpt><trkpt lat="45.4644192" lon="7.690156"><ele>1228.0</ele><time>2026-03-28T14:32:01.949Z</time></trkpt><trkpt lat="45.4643328" lon="7.6901533"><ele>1228.0</ele><time>2026-03-28T14:32:02.955Z</time></trkpt><trkpt lat="45.4642481" lon="7.6901321"><ele>1224.0</ele><time>2026-03-28T14:32:03.94Z</time></trkpt><trkpt lat="45.4641568" lon="7.690108"><ele>1220.0</ele><time>2026-03-28T14:32:04.944Z</time></trkpt><trkpt lat="45.4640614" lon="7.6901085"><ele>1216.0</ele><time>2026-03-28T14:32:05.949Z</time></trkpt><trkpt lat="45.463963" lon="7.6901234"><ele>1212.0</ele><time>2026-03-28T14:32:06.952Z</time></trkpt><trkpt lat="45.4638684" lon="7.6901224"><ele>1208.0</ele><time>2026-03-28T14:32:07.951Z</time></trkpt><trkpt lat="45.4637719" lon="7.690119"><ele>1207.0</ele><time>2026-03-28T14:32:08.946Z</time></trkpt><trkpt lat="45.4636661" lon="7.6901066"><ele>1206.0</ele><time>2026-03-28T14:32:09.948Z</time></trkpt><trkpt lat="45.4635611" lon="7.6901025"><ele>1205.0</ele><time>2026-03-28T14:32:10.944Z</time></trkpt><trkpt lat="45.4634525" lon="7.6901158"><ele>1204.0</ele><time>2026-03-28T14:32:11.946Z</time></trkpt><trkpt lat="45.4633465" lon="7.6901283"><ele>1203.0</ele><time>2026-03-28T14:32:12.947Z</time></trkpt><trkpt lat="45.4632339" lon="7.6901134"><ele>1203.0</ele><time>2026-03-28T14:32:13.953Z</time></trkpt><trkpt lat="45.463129" lon="7.6900585"><ele>1203.0</ele><time>2026-03-28T14:32:14.945Z</time></trkpt><trkpt lat="45.4630378" lon="7.6899781"><ele>1203.0</ele><time>2026-03-28T14:32:15.952Z</time></trkpt><trkpt lat="45.4629529" lon="7.6898884"><ele>1203.0</ele><time>2026-03-28T14:32:16.949Z</time></trkpt><trkpt lat="45.4628795" lon="7.6898014"><ele>1203.0</ele><time>2026-03-28T14:32:17.953Z</time></trkpt><trkpt lat="45.4627982" lon="7.6897271"><ele>1204.2</ele><time>2026-03-28T14:32:18.949Z</time></trkpt><trkpt lat="45.4627125" lon="7.6896603"><ele>1205.4</ele><time>2026-03-28T14:32:19.943Z</time></trkpt><trkpt lat="45.4626293" lon="7.689595"><ele>1206.6000000000001</ele><time>2026-03-28T14:32:20.944Z</time></trkpt><trkpt lat="45.4625449" lon="7.6895195"><ele>1207.8</ele><time>2026-03-28T14:32:21.949Z</time></trkpt><trkpt lat="45.4624544" lon="7.6894243"><ele>1209.0</ele><time>2026-03-28T14:32:22.952Z</time></trkpt><trkpt lat="45.4623715" lon="7.6893291"><ele>1205.75</ele><time>2026-03-28T14:32:23.952Z</time></trkpt><trkpt lat="45.4622915" lon="7.6892133"><ele>1202.5</ele><time>2026-03-28T14:32:24.949Z</time></trkpt><trkpt lat="45.4622069" lon="7.6891004"><ele>1199.25</ele><time>2026-03-28T14:32:25.95Z</time></trkpt><trkpt lat="45.462117" lon="7.6890046"><ele>1196.0</ele><time>2026-03-28T14:32:26.944Z</time></trkpt><trkpt lat="45.4620167" lon="7.6889078"><ele>1196.0</ele><time>2026-03-28T14:32:27.943Z</time></trkpt><trkpt lat="45.4619239" lon="7.6888014"><ele>1196.0</ele><time>2026-03-28T14:32:28.949Z</time></trkpt><trkpt lat="45.4618209" lon="7.6886931"><ele>1196.0</ele><time>2026-03-28T14:32:29.948Z</time></trkpt><trkpt lat="45.4617163" lon="7.6885852"><ele>1196.0</ele><time>2026-03-28T14:32:30.946Z</time></trkpt><trkpt lat="45.461608" lon="7.6884899"><ele>1190.5</ele><time>2026-03-28T14:32:31.94Z</time></trkpt><trkpt lat="45.4614967" lon="7.6883874"><ele>1185.0</ele><time>2026-03-28T14:32:32.96Z</time></trkpt><trkpt lat="45.461388" lon="7.6882921"><ele>1179.5</ele><time>2026-03-28T14:32:33.944Z</time></trkpt><trkpt lat="45.461283" lon="7.6882105"><ele>1174.0</ele><time>2026-03-28T14:32:34.952Z</time></trkpt><trkpt lat="45.4611827" lon="7.6881456"><ele>1173.2</ele><time>2026-03-28T14:32:35.946Z</time></trkpt><trkpt lat="45.4610789" lon="7.6881087"><ele>1172.4</ele><time>2026-03-28T14:32:36.947Z</time></trkpt><trkpt lat="45.4609683" lon="7.6880833"><ele>1171.6</ele><time>2026-03-28T14:32:37.947Z</time></trkpt><trkpt lat="45.4608708" lon="7.6880832"><ele>1170.8</ele><time>2026-03-28T14:32:38.95Z</time></trkpt><trkpt lat="45.4607812" lon="7.6881241"><ele>1170.0</ele><time>2026-03-28T14:32:39.948Z</time></trkpt><trkpt lat="45.4606898" lon="7.6882073"><ele>1170.0</ele><time>2026-03-28T14:32:40.954Z</time></trkpt><trkpt lat="45.4606132" lon="7.6883149"><ele>1170.0</ele><time>2026-03-28T14:32:41.94Z</time></trkpt><trkpt lat="45.460537" lon="7.6884248"><ele>1170.0</ele><time>2026-03-28T14:32:42.964Z</time></trkpt><trkpt lat="45.4604454" lon="7.6885047"><ele>1170.0</ele><time>2026-03-28T14:32:43.947Z</time></trkpt><trkpt lat="45.4603411" lon="7.688552"><ele>1170.0</ele><time>2026-03-28T14:32:44.946Z</time></trkpt><trkpt lat="45.4602429" lon="7.6885751"><ele>1171.0</ele><time>2026-03-28T14:32:45.948Z</time></trkpt><trkpt lat="45.4601477" lon="7.6886035"><ele>1172.0</ele><time>2026-03-28T14:32:46.951Z</time></trkpt><trkpt lat="45.4600554" lon="7.6886351"><ele>1173.0</ele><time>2026-03-28T14:32:47.944Z</time></trkpt><trkpt lat="45.4599632" lon="7.6886712"><ele>1174.0</ele><time>2026-03-28T14:32:48.946Z</time></trkpt><trkpt lat="45.4598708" lon="7.6887125"><ele>1175.0</ele><time>2026-03-28T14:32:49.947Z</time></trkpt><trkpt lat="45.459774" lon="7.6887294"><ele>1175.0</ele><time>2026-03-28T14:32:50.949Z</time></trkpt><trkpt lat="45.459685" lon="7.6887205"><ele>1175.0</ele><time>2026-03-28T14:32:51.945Z</time></trkpt><trkpt lat="45.4595871" lon="7.6886903"><ele>1175.0</ele><time>2026-03-28T14:32:52.945Z</time></trkpt><trkpt lat="45.4594873" lon="7.6886656"><ele>1175.0</ele><time>2026-03-28T14:32:53.95Z</time></trkpt><trkpt lat="45.4593822" lon="7.6886697"><ele>1175.0</ele><time>2026-03-28T14:32:54.944Z</time></trkpt><trkpt lat="45.4592809" lon="7.6886933"><ele>1171.5</ele><time>2026-03-28T14:32:55.949Z</time></trkpt><trkpt lat="45.4591716" lon="7.688722"><ele>1168.0</ele><time>2026-03-28T14:32:56.954Z</time></trkpt><trkpt lat="45.4590669" lon="7.6887618"><ele>1164.5</ele><time>2026-03-28T14:32:57.944Z</time></trkpt><trkpt lat="45.4589557" lon="7.6888199"><ele>1161.0</ele><time>2026-03-28T14:32:58.953Z</time></trkpt><trkpt lat="45.4588561" lon="7.6888924"><ele>1155.5</ele><time>2026-03-28T14:32:59.948Z</time></trkpt><trkpt lat="45.4587557" lon="7.6889672"><ele>1150.0</ele><time>2026-03-28T14:33:00.947Z</time></trkpt><trkpt lat="45.4586449" lon="7.6890325"><ele>1144.5</ele><time>2026-03-28T14:33:01.949Z</time></trkpt><trkpt lat="45.4585323" lon="7.6890753"><ele>1139.0</ele><time>2026-03-28T14:33:02.949Z</time></trkpt><trkpt lat="45.4584124" lon="7.6891053"><ele>1139.0</ele><time>2026-03-28T14:33:03.946Z</time></trkpt><trkpt lat="45.4582943" lon="7.6891368"><ele>1139.0</ele><time>2026-03-28T14:33:04.943Z</time></trkpt><trkpt lat="45.4581712" lon="7.6891599"><ele>1139.0</ele><time>2026-03-28T14:33:05.948Z</time></trkpt><trkpt lat="45.4580443" lon="7.6891741"><ele>1139.0</ele><time>2026-03-28T14:33:06.944Z</time></trkpt><trkpt lat="45.4579134" lon="7.6891733"><ele>1136.25</ele><time>2026-03-28T14:33:07.948Z</time></trkpt><trkpt lat="45.4577853" lon="7.689158"><ele>1133.5</ele><time>2026-03-28T14:33:08.945Z</time></trkpt><trkpt lat="45.4576625" lon="7.6891429"><ele>1130.75</ele><time>2026-03-28T14:33:09.94Z</time></trkpt><trkpt lat="45.4575458" lon="7.6891328"><ele>1128.0</ele><time>2026-03-28T14:33:10.945Z</time></trkpt><trkpt lat="45.4574322" lon="7.6891193"><ele>1128.0</ele><time>2026-03-28T14:33:11.948Z</time></trkpt><trkpt lat="45.4573241" lon="7.6891114"><ele>1128.0</ele><time>2026-03-28T14:33:12.943Z</time></trkpt><trkpt lat="45.4572212" lon="7.6891148"><ele>1128.0</ele><time>2026-03-28T14:33:13.945Z</time></trkpt><trkpt lat="45.4571204" lon="7.6891382"><ele>1128.0</ele><time>2026-03-28T14:33:14.953Z</time></trkpt><trkpt lat="45.4570245" lon="7.6891821"><ele>1128.0</ele><time>2026-03-28T14:33:15.946Z</time></trkpt><trkpt lat="45.4569365" lon="7.6892377"><ele>1126.0</ele><time>2026-03-28T14:33:16.942Z</time></trkpt><trkpt lat="45.4568447" lon="7.6892903"><ele>1124.0</ele><time>2026-03-28T14:33:17.946Z</time></trkpt><trkpt lat="45.4567553" lon="7.6893306"><ele>1122.0</ele><time>2026-03-28T14:33:18.944Z</time></trkpt><trkpt lat="45.4566688" lon="7.6893715"><ele>1120.0</ele><time>2026-03-28T14:33:19.95Z</time></trkpt><trkpt lat="45.45658" lon="7.6894106"><ele>1118.0</ele><time>2026-03-28T14:33:20.938Z</time></trkpt><trkpt lat="45.4564956" lon="7.6894498"><ele>1119.8333333333335</ele><time>2026-03-28T14:33:21.946Z</time></trkpt><trkpt lat="45.4564138" lon="7.6894884"><ele>1121.6666666666667</ele><time>2026-03-28T14:33:22.944Z</time></trkpt><trkpt lat="45.4563319" lon="7.6895258"><ele>1123.5</ele><time>2026-03-28T14:33:23.94Z</time></trkpt><trkpt lat="45.4562525" lon="7.6895633"><ele>1125.3333333333333</ele><time>2026-03-28T14:33:24.945Z</time></trkpt><trkpt lat="45.4561744" lon="7.6895982"><ele>1127.1666666666665</ele><time>2026-03-28T14:33:25.941Z</time></trkpt><trkpt lat="45.4560974" lon="7.6896373"><ele>1129.0</ele><time>2026-03-28T14:33:26.947Z</time></trkpt><trkpt lat="45.4560216" lon="7.6896719"><ele>1129.0</ele><time>2026-03-28T14:33:27.949Z</time></trkpt><trkpt lat="45.455945" lon="7.6897088"><ele>1129.0</ele><time>2026-03-28T14:33:28.947Z</time></trkpt><trkpt lat="45.4558749" lon="7.6897455"><ele>1129.0</ele><time>2026-03-28T14:33:29.957Z</time></trkpt><trkpt lat="45.4558081" lon="7.6897959"><ele>1129.0</ele><time>2026-03-28T14:33:30.95Z</time></trkpt><trkpt lat="45.4557427" lon="7.6898549"><ele>1129.0</ele><time>2026-03-28T14:33:31.939Z</time></trkpt><trkpt lat="45.4556822" lon="7.6899238"><ele>1129.0</ele><time>2026-03-28T14:33:32.952Z</time></trkpt><trkpt lat="45.4556175" lon="7.689986"><ele>1129.0</ele><time>2026-03-28T14:33:33.945Z</time></trkpt><trkpt lat="45.4555499" lon="7.6900341"><ele>1129.0</ele><time>2026-03-28T14:33:34.955Z</time></trkpt><trkpt lat="45.4554788" lon="7.6900724"><ele>1129.0</ele><time>2026-03-28T14:33:35.946Z</time></trkpt><trkpt lat="45.4554081" lon="7.690091"><ele>1129.0</ele><time>2026-03-28T14:33:36.942Z</time></trkpt><trkpt lat="45.4553374" lon="7.6900971"><ele>1129.0</ele><time>2026-03-28T14:33:37.949Z</time></trkpt><trkpt lat="45.4552658" lon="7.6900986"><ele>1129.0</ele><time>2026-03-28T14:33:38.942Z</time></trkpt><trkpt lat="45.4551945" lon="7.6900948"><ele>1129.0</ele><time>2026-03-28T14:33:39.954Z</time></trkpt><trkpt lat="45.455123" lon="7.6900987"><ele>1127.857142857143</ele><time>2026-03-28T14:33:40.943Z</time></trkpt><trkpt lat="45.4550547" lon="7.6901106"><ele>1126.7142857142856</ele><time>2026-03-28T14:33:41.953Z</time></trkpt><trkpt lat="45.4549938" lon="7.6901405"><ele>1125.5714285714284</ele><time>2026-03-28T14:33:42.95Z</time></trkpt><trkpt lat="45.4549326" lon="7.690183"><ele>1124.4285714285713</ele><time>2026-03-28T14:33:43.953Z</time></trkpt><trkpt lat="45.4548754" lon="7.6902336"><ele>1123.2857142857142</ele><time>2026-03-28T14:33:44.945Z</time></trkpt><trkpt lat="45.4548266" lon="7.6902926"><ele>1122.142857142857</ele><time>2026-03-28T14:33:45.94Z</time></trkpt><trkpt lat="45.4547798" lon="7.6903614"><ele>1121.0</ele><time>2026-03-28T14:33:46.952Z</time></trkpt><trkpt lat="45.4547405" lon="7.6904371"><ele>1121.0</ele><time>2026-03-28T14:33:47.944Z</time></trkpt><trkpt lat="45.4547022" lon="7.6905278"><ele>1121.0</ele><time>2026-03-28T14:33:48.956Z</time></trkpt><trkpt lat="45.4546786" lon="7.6906223"><ele>1121.0</ele><time>2026-03-28T14:33:49.938Z</time></trkpt><trkpt lat="45.4546624" lon="7.6907194"><ele>1121.0</ele><time>2026-03-28T14:33:50.947Z</time></trkpt><trkpt lat="45.454651" lon="7.6908265"><ele>1121.0</ele><time>2026-03-28T14:33:51.945Z</time></trkpt><trkpt lat="45.4546507" lon="7.6909445"><ele>1121.0</ele><time>2026-03-28T14:33:52.951Z</time></trkpt><trkpt lat="45.4546501" lon="7.691067"><ele>1122.3333333333335</ele><time>2026-03-28T14:33:53.948Z</time></trkpt><trkpt lat="45.4546369" lon="7.6911846"><ele>1123.6666666666667</ele><time>2026-03-28T14:33:54.956Z</time></trkpt><trkpt lat="45.4546025" lon="7.6912994"><ele>1125.0</ele><time>2026-03-28T14:33:55.939Z</time></trkpt><trkpt lat="45.4545512" lon="7.6913946"><ele>1126.3333333333333</ele><time>2026-03-28T14:33:56.949Z</time></trkpt><trkpt lat="45.4544952" lon="7.6914845"><ele>1127.6666666666665</ele><time>2026-03-28T14:33:57.948Z</time></trkpt><trkpt lat="45.4544325" lon="7.6915836"><ele>1129.0</ele><time>2026-03-28T14:33:58.946Z</time></trkpt><trkpt lat="45.4543791" lon="7.6916943"><ele>1123.6666666666665</ele><time>2026-03-28T14:33:59.953Z</time></trkpt><trkpt lat="45.4543345" lon="7.6918035"><ele>1118.3333333333333</ele><time>2026-03-28T14:34:00.949Z</time></trkpt><trkpt lat="45.4543006" lon="7.6919223"><ele>1113.0</ele><time>2026-03-28T14:34:01.946Z</time></trkpt><trkpt lat="45.4542724" lon="7.6920507"><ele>1107.6666666666667</ele><time>2026-03-28T14:34:02.958Z</time></trkpt><trkpt lat="45.4542527" lon="7.692176"><ele>1102.3333333333335</ele><time>2026-03-28T14:34:03.943Z</time></trkpt><trkpt lat="45.4542181" lon="7.6922882"><ele>1097.0</ele><time>2026-03-28T14:34:04.95Z</time></trkpt><trkpt lat="45.4541674" lon="7.6923757"><ele>1097.0</ele><time>2026-03-28T14:34:05.949Z</time></trkpt><trkpt lat="45.4540932" lon="7.6924512"><ele>1097.0</ele><time>2026-03-28T14:34:06.945Z</time></trkpt><trkpt lat="45.45401" lon="7.6925176"><ele>1097.0</ele><time>2026-03-28T14:34:07.95Z</time></trkpt><trkpt lat="45.4539268" lon="7.6925855"><ele>1097.0</ele><time>2026-03-28T14:34:08.944Z</time></trkpt><trkpt lat="45.4538535" lon="7.6926548"><ele>1097.0</ele><time>2026-03-28T14:34:09.948Z</time></trkpt><trkpt lat="45.4538016" lon="7.692734"><ele>1097.0</ele><time>2026-03-28T14:34:10.948Z</time></trkpt><trkpt lat="45.4537636" lon="7.6928282"><ele>1094.2857142857142</ele><time>2026-03-28T14:34:11.952Z</time></trkpt><trkpt lat="45.4537486" lon="7.6929272"><ele>1091.5714285714287</ele><time>2026-03-28T14:34:12.948Z</time></trkpt><trkpt lat="45.4537437" lon="7.6930422"><ele>1088.857142857143</ele><time>2026-03-28T14:34:13.94Z</time></trkpt><trkpt lat="45.4537367" lon="7.693154"><ele>1086.142857142857</ele><time>2026-03-28T14:34:14.949Z</time></trkpt><trkpt lat="45.4537247" lon="7.6932641"><ele>1083.4285714285716</ele><time>2026-03-28T14:34:15.951Z</time></trkpt><trkpt lat="45.4537011" lon="7.6933606"><ele>1080.7142857142858</ele><time>2026-03-28T14:34:16.945Z</time></trkpt><trkpt lat="45.4536662" lon="7.6934393"><ele>1078.0</ele><time>2026-03-28T14:34:17.953Z</time></trkpt><trkpt lat="45.4535511" lon="7.6934927"><ele>1078.0</ele><time>2026-03-28T14:34:19.942Z</time></trkpt><trkpt lat="45.4534224" lon="7.6934487"><ele>1078.0</ele><time>2026-03-28T14:34:21.952Z</time></trkpt><trkpt lat="45.4533551" lon="7.6934595"><ele>1078.0</ele><time>2026-03-28T14:34:22.945Z</time></trkpt><trkpt lat="45.453303" lon="7.6935157"><ele>1078.0</ele><time>2026-03-28T14:34:23.95Z</time></trkpt><trkpt lat="45.4532476" lon="7.6935914"><ele>1078.0</ele><time>2026-03-28T14:34:24.937Z</time></trkpt><trkpt lat="45.4531958" lon="7.693669"><ele>1078.0</ele><time>2026-03-28T14:34:25.944Z</time></trkpt><trkpt lat="45.4531419" lon="7.6937436"><ele>1075.6666666666665</ele><time>2026-03-28T14:34:26.943Z</time></trkpt><trkpt lat="45.4530804" lon="7.6938172"><ele>1073.3333333333333</ele><time>2026-03-28T14:34:27.942Z</time></trkpt><trkpt lat="45.4530272" lon="7.6938982"><ele>1071.0</ele><time>2026-03-28T14:34:28.956Z</time></trkpt><trkpt lat="45.4529819" lon="7.6939949"><ele>1068.6666666666667</ele><time>2026-03-28T14:34:29.949Z</time></trkpt><trkpt lat="45.4529441" lon="7.6940902"><ele>1066.3333333333335</ele><time>2026-03-28T14:34:30.942Z</time></trkpt><trkpt lat="45.4529108" lon="7.6941822"><ele>1064.0</ele><time>2026-03-28T14:34:31.945Z</time></trkpt><trkpt lat="45.4528591" lon="7.6942816"><ele>1064.0</ele><time>2026-03-28T14:34:32.944Z</time></trkpt><trkpt lat="45.4528036" lon="7.6943748"><ele>1064.0</ele><time>2026-03-28T14:34:33.952Z</time></trkpt><trkpt lat="45.4527456" lon="7.6944571"><ele>1064.0</ele><time>2026-03-28T14:34:34.941Z</time></trkpt><trkpt lat="45.4526868" lon="7.6945243"><ele>1064.0</ele><time>2026-03-28T14:34:35.943Z</time></trkpt><trkpt lat="45.452622" lon="7.6945853"><ele>1064.0</ele><time>2026-03-28T14:34:36.948Z</time></trkpt><trkpt lat="45.4525529" lon="7.6946423"><ele>1064.0</ele><time>2026-03-28T14:34:37.948Z</time></trkpt><trkpt lat="45.4524783" lon="7.6947071"><ele>1064.8333333333335</ele><time>2026-03-28T14:34:38.95Z</time></trkpt><trkpt lat="45.4524076" lon="7.6947602"><ele>1065.6666666666667</ele><time>2026-03-28T14:34:39.953Z</time></trkpt><trkpt lat="45.4523349" lon="7.694791"><ele>1066.5</ele><time>2026-03-28T14:34:40.949Z</time></trkpt><trkpt lat="45.4522591" lon="7.6948077"><ele>1067.3333333333333</ele><time>2026-03-28T14:34:41.953Z</time></trkpt><trkpt lat="45.4521771" lon="7.6948277"><ele>1068.1666666666665</ele><time>2026-03-28T14:34:42.943Z</time></trkpt><trkpt lat="45.4520997" lon="7.6948504"><ele>1069.0</ele><time>2026-03-28T14:34:43.948Z</time></trkpt><trkpt lat="45.4520244" lon="7.6948809"><ele>1069.0</ele><time>2026-03-28T14:34:44.945Z</time></trkpt><trkpt lat="45.4519515" lon="7.6949126"><ele>1069.0</ele><time>2026-03-28T14:34:45.95Z</time></trkpt><trkpt lat="45.4518761" lon="7.6949423"><ele>1069.0</ele><time>2026-03-28T14:34:46.947Z</time></trkpt><trkpt lat="45.4517994" lon="7.694978"><ele>1069.0</ele><time>2026-03-28T14:34:47.943Z</time></trkpt><trkpt lat="45.4517236" lon="7.6950101"><ele>1069.0</ele><time>2026-03-28T14:34:48.947Z</time></trkpt><trkpt lat="45.4516464" lon="7.6950443"><ele>1069.0</ele><time>2026-03-28T14:34:49.946Z</time></trkpt><trkpt lat="45.4515695" lon="7.695083"><ele>1069.0</ele><time>2026-03-28T14:34:50.957Z</time></trkpt><trkpt lat="45.4514905" lon="7.6951172"><ele>1069.0</ele><time>2026-03-28T14:34:51.945Z</time></trkpt><trkpt lat="45.4514107" lon="7.6951497"><ele>1069.0</ele><time>2026-03-28T14:34:52.945Z</time></trkpt><trkpt lat="45.4513286" lon="7.6951755"><ele>1069.0</ele><time>2026-03-28T14:34:53.951Z</time></trkpt><trkpt lat="45.4512477" lon="7.6951918"><ele>1069.0</ele><time>2026-03-28T14:34:54.948Z</time></trkpt><trkpt lat="45.4511691" lon="7.6952116"><ele>1069.0</ele><time>2026-03-28T14:34:55.944Z</time></trkpt><trkpt lat="45.4510941" lon="7.6952391"><ele>1069.6666666666665</ele><time>2026-03-28T14:34:56.948Z</time></trkpt><trkpt lat="45.4510178" lon="7.6952662"><ele>1070.3333333333333</ele><time>2026-03-28T14:34:57.95Z</time></trkpt><trkpt lat="45.4509402" lon="7.6953033"><ele>1071.0</ele><time>2026-03-28T14:34:58.952Z</time></trkpt><trkpt lat="45.4508625" lon="7.6953541"><ele>1071.6666666666667</ele><time>2026-03-28T14:34:59.953Z</time></trkpt><trkpt lat="45.450785" lon="7.6954044"><ele>1072.3333333333335</ele><time>2026-03-28T14:35:00.943Z</time></trkpt><trkpt lat="45.4507155" lon="7.695449"><ele>1073.0</ele><time>2026-03-28T14:35:01.943Z</time></trkpt><trkpt lat="45.4506113" lon="7.6955066"><ele>1073.0</ele><time>2026-03-28T14:35:03.95Z</time></trkpt><trkpt lat="45.4505376" lon="7.6955442"><ele>1073.0</ele><time>2026-03-28T14:35:05.945Z</time></trkpt><trkpt lat="45.4504752" lon="7.6955913"><ele>1073.0</ele><time>2026-03-28T14:38:40.973Z</time></trkpt><trkpt lat="45.4504132" lon="7.6956766"><ele>1073.0</ele><time>2026-03-28T14:39:37.948Z</time></trkpt><trkpt lat="45.4503445" lon="7.6957322"><ele>1073.0</ele><time>2026-03-28T14:39:39.946Z</time></trkpt><trkpt lat="45.4502856" lon="7.6957794"><ele>1073.0</ele><time>2026-03-28T14:39:40.945Z</time></trkpt><trkpt lat="45.4502006" lon="7.6958545"><ele>1072.0</ele><time>2026-03-28T14:39:42.943Z</time></trkpt><trkpt lat="45.4501328" lon="7.6959078"><ele>1071.0</ele><time>2026-03-28T14:39:44.982Z</time></trkpt><trkpt lat="45.450068" lon="7.6959923"><ele>1070.0</ele><time>2026-03-28T14:39:47.955Z</time></trkpt><trkpt lat="45.450034" lon="7.696089"><ele>1069.0</ele><time>2026-03-28T14:39:49.956Z</time></trkpt><trkpt lat="45.4500012" lon="7.6962397"><ele>1068.0</ele><time>2026-03-28T14:39:51.949Z</time></trkpt><trkpt lat="45.4499896" lon="7.6963699"><ele>1067.0</ele><time>2026-03-28T14:39:52.951Z</time></trkpt><trkpt lat="45.4499953" lon="7.6964743"><ele>1067.0</ele><time>2026-03-28T14:39:53.945Z</time></trkpt><trkpt lat="45.449999" lon="7.696588"><ele>1067.0</ele><time>2026-03-28T14:39:54.951Z</time></trkpt><trkpt lat="45.4500084" lon="7.6966792"><ele>1067.0</ele><time>2026-03-28T14:39:55.952Z</time></trkpt><trkpt lat="45.4500273" lon="7.6968654"><ele>1067.0</ele><time>2026-03-28T14:39:57.949Z</time></trkpt><trkpt lat="45.4500301" lon="7.6969668"><ele>1067.0</ele><time>2026-03-28T14:39:58.949Z</time></trkpt><trkpt lat="45.4500326" lon="7.6970568"><ele>1067.0</ele><time>2026-03-28T14:39:59.947Z</time></trkpt><trkpt lat="45.4500192" lon="7.6971532"><ele>1066.4</ele><time>2026-03-28T14:40:00.949Z</time></trkpt><trkpt lat="45.4500061" lon="7.697245"><ele>1065.8000000000002</ele><time>2026-03-28T14:40:01.951Z</time></trkpt><trkpt lat="45.4499989" lon="7.6973691"><ele>1065.2</ele><time>2026-03-28T14:40:03.954Z</time></trkpt><trkpt lat="45.4500348" lon="7.6974827"><ele>1064.6000000000001</ele><time>2026-03-28T14:40:05.946Z</time></trkpt><trkpt lat="45.4500559" lon="7.6976554"><ele>1064.0</ele><time>2026-03-28T14:40:07.942Z</time></trkpt><trkpt lat="45.4500801" lon="7.6977888"><ele>1063.3333333333335</ele><time>2026-03-28T14:40:09.95Z</time></trkpt><trkpt lat="45.4500768" lon="7.6978964"><ele>1062.6666666666667</ele><time>2026-03-28T14:40:11.959Z</time></trkpt><trkpt lat="45.4500392" lon="7.697989"><ele>1062.0</ele><time>2026-03-28T14:40:13.961Z</time></trkpt><trkpt lat="45.450003" lon="7.6981056"><ele>1061.3333333333333</ele><time>2026-03-28T14:40:15.95Z</time></trkpt><trkpt lat="45.4499534" lon="7.6982298"><ele>1060.6666666666665</ele><time>2026-03-28T14:40:17.953Z</time></trkpt><trkpt lat="45.4499111" lon="7.6983526"><ele>1060.0</ele><time>2026-03-28T14:40:19.95Z</time></trkpt><trkpt lat="45.4498713" lon="7.6984596"><ele>1060.0</ele><time>2026-03-28T14:40:21.948Z</time></trkpt><trkpt lat="45.4498316" lon="7.6985895"><ele>1060.0</ele><time>2026-03-28T14:40:23.952Z</time></trkpt><trkpt lat="45.4497976" lon="7.6987495"><ele>1060.0</ele><time>2026-03-28T14:40:25.95Z</time></trkpt><trkpt lat="45.4497818" lon="7.6988416"><ele>1060.0</ele><time>2026-03-28T14:40:26.952Z</time></trkpt><trkpt lat="45.4497523" lon="7.6990057"><ele>1060.0</ele><time>2026-03-28T14:40:28.95Z</time></trkpt><trkpt lat="45.4497407" lon="7.6991541"><ele>1060.0</ele><time>2026-03-28T14:40:30.947Z</time></trkpt><trkpt lat="45.4497485" lon="7.6992876"><ele>1060.0</ele><time>2026-03-28T14:40:32.954Z</time></trkpt><trkpt lat="45.4497588" lon="7.6994248"><ele>1060.0</ele><time>2026-03-28T14:40:34.954Z</time></trkpt><trkpt lat="45.4497936" lon="7.6995444"><ele>1060.0</ele><time>2026-03-28T14:40:36.956Z</time></trkpt><trkpt lat="45.4498462" lon="7.6996293"><ele>1060.0</ele><time>2026-03-28T14:40:38.952Z</time></trkpt><trkpt lat="45.4499264" lon="7.6996868"><ele>1056.8333333333333</ele><time>2026-03-28T14:40:40.955Z</time></trkpt><trkpt lat="45.4500664" lon="7.6997216"><ele>1053.6666666666665</ele><time>2026-03-28T14:40:42.954Z</time></trkpt><trkpt lat="45.4501295" lon="7.6997344"><ele>1050.5</ele><time>2026-03-28T14:40:43.944Z</time></trkpt><trkpt lat="45.4502005" lon="7.6997371"><ele>1047.3333333333333</ele><time>2026-03-28T14:40:44.954Z</time></trkpt><trkpt lat="45.4502754" lon="7.6997432"><ele>1044.1666666666667</ele><time>2026-03-28T14:40:45.951Z</time></trkpt><trkpt lat="45.4503483" lon="7.699753"><ele>1041.0</ele><time>2026-03-28T14:40:46.955Z</time></trkpt><trkpt lat="45.4504159" lon="7.6997538"><ele>1040.5</ele><time>2026-03-28T14:40:47.957Z</time></trkpt><trkpt lat="45.4505396" lon="7.6997499"><ele>1040.0</ele><time>2026-03-28T14:40:49.958Z</time></trkpt><trkpt lat="45.450631" lon="7.6997201"><ele>1039.5</ele><time>2026-03-28T14:40:51.947Z</time></trkpt><trkpt lat="45.4506998" lon="7.6996466"><ele>1039.0</ele><time>2026-03-28T14:40:53.949Z</time></trkpt><trkpt lat="45.4507692" lon="7.6996075"><ele>1038.5</ele><time>2026-03-28T14:40:55.955Z</time></trkpt><trkpt lat="45.4508331" lon="7.6996415"><ele>1038.0</ele><time>2026-03-28T14:40:57.953Z</time></trkpt><trkpt lat="45.4509546" lon="7.6996819"><ele>1038.0</ele><time>2026-03-28T14:40:59.957Z</time></trkpt><trkpt lat="45.451036" lon="7.699699"><ele>1038.0</ele><time>2026-03-28T14:41:00.963Z</time></trkpt><trkpt lat="45.4511116" lon="7.699714"><ele>1038.0</ele><time>2026-03-28T14:41:01.952Z</time></trkpt><trkpt lat="45.4511809" lon="7.6997448"><ele>1038.0</ele><time>2026-03-28T14:41:02.956Z</time></trkpt><trkpt lat="45.4512385" lon="7.6998035"><ele>1038.0</ele><time>2026-03-28T14:41:03.955Z</time></trkpt><trkpt lat="45.4512986" lon="7.6998913"><ele>1038.0</ele><time>2026-03-28T14:41:04.943Z</time></trkpt><trkpt lat="45.4513536" lon="7.6999829"><ele>1037.5</ele><time>2026-03-28T14:41:05.963Z</time></trkpt><trkpt lat="45.4514074" lon="7.7000786"><ele>1037.0</ele><time>2026-03-28T14:41:06.953Z</time></trkpt><trkpt lat="45.4514639" lon="7.7001747"><ele>1036.5</ele><time>2026-03-28T14:41:07.959Z</time></trkpt><trkpt lat="45.4515143" lon="7.7002612"><ele>1036.0</ele><time>2026-03-28T14:41:08.961Z</time></trkpt><trkpt lat="45.4515662" lon="7.7003427"><ele>1035.5</ele><time>2026-03-28T14:41:09.956Z</time></trkpt><trkpt lat="45.4516004" lon="7.7004445"><ele>1035.0</ele><time>2026-03-28T14:41:10.96Z</time></trkpt><trkpt lat="45.4516229" lon="7.7005461"><ele>1035.0</ele><time>2026-03-28T14:41:11.957Z</time></trkpt><trkpt lat="45.451648" lon="7.700629"><ele>1035.0</ele><time>2026-03-28T14:41:12.956Z</time></trkpt><trkpt lat="45.4516874" lon="7.7007127"><ele>1035.0</ele><time>2026-03-28T14:41:13.959Z</time></trkpt><trkpt lat="45.451733" lon="7.7007913"><ele>1035.0</ele><time>2026-03-28T14:41:14.954Z</time></trkpt><trkpt lat="45.4518462" lon="7.700899"><ele>1035.0</ele><time>2026-03-28T14:41:16.947Z</time></trkpt><trkpt lat="45.4519349" lon="7.7009644"><ele>1035.0</ele><time>2026-03-28T14:41:17.949Z</time></trkpt><trkpt lat="45.452028" lon="7.701032"><ele>1034.8</ele><time>2026-03-28T14:41:18.943Z</time></trkpt><trkpt lat="45.4521177" lon="7.7010934"><ele>1034.6</ele><time>2026-03-28T14:41:19.956Z</time></trkpt><trkpt lat="45.4522124" lon="7.7011543"><ele>1034.4</ele><time>2026-03-28T14:41:20.953Z</time></trkpt><trkpt lat="45.4523072" lon="7.7012252"><ele>1034.2</ele><time>2026-03-28T14:41:21.95Z</time></trkpt><trkpt lat="45.4523975" lon="7.7012965"><ele>1034.0</ele><time>2026-03-28T14:41:22.952Z</time></trkpt><trkpt lat="45.4524916" lon="7.7013839"><ele>1035.0</ele><time>2026-03-28T14:41:23.951Z</time></trkpt><trkpt lat="45.4525764" lon="7.7014602"><ele>1036.0</ele><time>2026-03-28T14:41:24.959Z</time></trkpt><trkpt lat="45.4526477" lon="7.7015257"><ele>1037.0</ele><time>2026-03-28T14:41:25.948Z</time></trkpt><trkpt lat="45.4527101" lon="7.7015854"><ele>1038.0</ele><time>2026-03-28T14:41:26.955Z</time></trkpt><trkpt lat="45.4527686" lon="7.7016421"><ele>1039.0</ele><time>2026-03-28T14:41:27.952Z</time></trkpt><trkpt lat="45.4528229" lon="7.7016909"><ele>1040.0</ele><time>2026-03-28T14:41:28.947Z</time></trkpt><trkpt lat="45.4528796" lon="7.7017321"><ele>1041.4</ele><time>2026-03-28T14:41:29.951Z</time></trkpt><trkpt lat="45.4529669" lon="7.7018402"><ele>1042.8</ele><time>2026-03-28T14:41:31.954Z</time></trkpt><trkpt lat="45.4530205" lon="7.7019444"><ele>1044.2</ele><time>2026-03-28T14:41:33.944Z</time></trkpt><trkpt lat="45.453027" lon="7.7021292"><ele>1045.6</ele><time>2026-03-28T14:41:35.951Z</time></trkpt><trkpt lat="45.4530213" lon="7.7022491"><ele>1047.0</ele><time>2026-03-28T14:41:36.952Z</time></trkpt><trkpt lat="45.4530228" lon="7.7023661"><ele>1044.0</ele><time>2026-03-28T14:41:37.963Z</time></trkpt><trkpt lat="45.4530293" lon="7.702484"><ele>1041.0</ele><time>2026-03-28T14:41:38.959Z</time></trkpt><trkpt lat="45.4530388" lon="7.7025823"><ele>1038.0</ele><time>2026-03-28T14:41:39.949Z</time></trkpt><trkpt lat="45.4530377" lon="7.7026818"><ele>1035.0</ele><time>2026-03-28T14:41:40.956Z</time></trkpt><trkpt lat="45.4530087" lon="7.7027792"><ele>1032.0</ele><time>2026-03-28T14:41:41.95Z</time></trkpt><trkpt lat="45.4529632" lon="7.7028709"><ele>1029.0</ele><time>2026-03-28T14:41:42.953Z</time></trkpt><trkpt lat="45.4529138" lon="7.7029507"><ele>1026.0</ele><time>2026-03-28T14:41:43.953Z</time></trkpt><trkpt lat="45.4528653" lon="7.7030326"><ele>1023.0</ele><time>2026-03-28T14:41:44.949Z</time></trkpt><trkpt lat="45.4528252" lon="7.7031227"><ele>1020.0</ele><time>2026-03-28T14:41:45.957Z</time></trkpt><trkpt lat="45.4527999" lon="7.7032263"><ele>1017.0</ele><time>2026-03-28T14:41:46.957Z</time></trkpt><trkpt lat="45.4527784" lon="7.703323"><ele>1014.0</ele><time>2026-03-28T14:41:47.952Z</time></trkpt><trkpt lat="45.4527474" lon="7.7034687"><ele>1011.0</ele><time>2026-03-28T14:41:49.947Z</time></trkpt><trkpt lat="45.4526701" lon="7.7035114"><ele>1011.0</ele><time>2026-03-28T14:41:52.951Z</time></trkpt><trkpt lat="45.4525956" lon="7.7034507"><ele>1011.0</ele><time>2026-03-28T14:41:54.949Z</time></trkpt><trkpt lat="45.4525152" lon="7.7034014"><ele>1011.0</ele><time>2026-03-28T14:41:56.952Z</time></trkpt><trkpt lat="45.4524515" lon="7.7033965"><ele>1011.0</ele><time>2026-03-28T14:41:58.953Z</time></trkpt><trkpt lat="45.4525256" lon="7.7033672"><ele>1011.0</ele><time>2026-03-28T14:42:04.946Z</time></trkpt><trkpt lat="45.4525965" lon="7.7034182"><ele>1011.0</ele><time>2026-03-28T14:42:06.958Z</time></trkpt><trkpt lat="45.4525763" lon="7.7035293"><ele>1010.0</ele><time>2026-03-28T14:42:09.949Z</time></trkpt><trkpt lat="45.4525299" lon="7.7036112"><ele>1008.9999999999999</ele><time>2026-03-28T14:42:11.948Z</time></trkpt><trkpt lat="45.4524621" lon="7.7037223"><ele>1007.9999999999999</ele><time>2026-03-28T14:42:13.952Z</time></trkpt><trkpt lat="45.4524069" lon="7.7038111"><ele>1007.0</ele><time>2026-03-28T14:42:14.945Z</time></trkpt><trkpt lat="45.4523464" lon="7.7039212"><ele>1006.0</ele><time>2026-03-28T14:42:15.961Z</time></trkpt><trkpt lat="45.45228" lon="7.7040218"><ele>1005.9999999999999</ele><time>2026-03-28T14:42:16.948Z</time></trkpt><trkpt lat="45.4522214" lon="7.7041155"><ele>1006.0</ele><time>2026-03-28T14:42:17.954Z</time></trkpt><trkpt lat="45.4521677" lon="7.7041973"><ele>1006.0</ele><time>2026-03-28T14:42:18.953Z</time></trkpt><trkpt lat="45.4521157" lon="7.7042621"><ele>1006.0</ele><time>2026-03-28T14:42:19.951Z</time></trkpt><trkpt lat="45.4520287" lon="7.7043586"><ele>1005.9999999999999</ele><time>2026-03-28T14:42:21.955Z</time></trkpt><trkpt lat="45.4519773" lon="7.704427"><ele>1006.0</ele><time>2026-03-28T14:42:22.948Z</time></trkpt><trkpt lat="45.4519178" lon="7.7045032"><ele>1004.4</ele><time>2026-03-28T14:42:23.949Z</time></trkpt><trkpt lat="45.4518608" lon="7.704583"><ele>1002.8</ele><time>2026-03-28T14:42:24.952Z</time></trkpt><trkpt lat="45.4518045" lon="7.7046554"><ele>1001.1999999999999</ele><time>2026-03-28T14:42:25.946Z</time></trkpt><trkpt lat="45.4517601" lon="7.7047261"><ele>999.5999999999999</ele><time>2026-03-28T14:42:26.955Z</time></trkpt><trkpt lat="45.4516716" lon="7.7048406"><ele>998.0</ele><time>2026-03-28T14:42:28.942Z</time></trkpt><trkpt lat="45.451588" lon="7.7049563"><ele>998.0</ele><time>2026-03-28T14:42:30.954Z</time></trkpt><trkpt lat="45.4514892" lon="7.7050596"><ele>998.0</ele><time>2026-03-28T14:42:32.951Z</time></trkpt><trkpt lat="45.4513947" lon="7.7051457"><ele>998.0</ele><time>2026-03-28T14:42:34.956Z</time></trkpt><trkpt lat="45.4513049" lon="7.7052188"><ele>998.0</ele><time>2026-03-28T14:42:36.953Z</time></trkpt><trkpt lat="45.4512056" lon="7.7053012"><ele>992.8</ele><time>2026-03-28T14:42:38.95Z</time></trkpt><trkpt lat="45.4511227" lon="7.7054201"><ele>987.5999999999999</ele><time>2026-03-28T14:42:40.957Z</time></trkpt><trkpt lat="45.4510475" lon="7.7055279"><ele>982.4000000000001</ele><time>2026-03-28T14:42:42.953Z</time></trkpt><trkpt lat="45.4509874" lon="7.7056247"><ele>977.2</ele><time>2026-03-28T14:42:44.95Z</time></trkpt><trkpt lat="45.4509288" lon="7.7057432"><ele>972.0</ele><time>2026-03-28T14:42:46.953Z</time></trkpt><trkpt lat="45.4508648" lon="7.7058576"><ele>972.0</ele><time>2026-03-28T14:42:48.95Z</time></trkpt><trkpt lat="45.4507981" lon="7.7059975"><ele>972.0</ele><time>2026-03-28T14:42:50.946Z</time></trkpt><trkpt lat="45.4507089" lon="7.7061198"><ele>972.0</ele><time>2026-03-28T14:42:52.949Z</time></trkpt><trkpt lat="45.4506366" lon="7.7062413"><ele>972.0</ele><time>2026-03-28T14:42:54.954Z</time></trkpt><trkpt lat="45.4505904" lon="7.7063193"><ele>972.0</ele><time>2026-03-28T14:42:56.952Z</time></trkpt><trkpt lat="45.4505087" lon="7.7063956"><ele>965.8</ele><time>2026-03-28T14:42:59.95Z</time></trkpt><trkpt lat="45.4504263" lon="7.7064648"><ele>959.6</ele><time>2026-03-28T14:43:02.952Z</time></trkpt><trkpt lat="45.4503634" lon="7.7065359"><ele>953.3999999999999</ele><time>2026-03-28T14:43:04.963Z</time></trkpt><trkpt lat="45.4502981" lon="7.7065719"><ele>947.1999999999999</ele><time>2026-03-28T14:43:07.953Z</time></trkpt><trkpt lat="45.4502203" lon="7.7064795"><ele>941.0</ele><time>2026-03-28T14:43:09.946Z</time></trkpt><trkpt lat="45.450173" lon="7.7063475"><ele>941.0000000000001</ele><time>2026-03-28T14:43:11.951Z</time></trkpt><trkpt lat="45.450163" lon="7.7061766"><ele>941.0</ele><time>2026-03-28T14:43:13.952Z</time></trkpt><trkpt lat="45.4501173" lon="7.7060546"><ele>941.0</ele><time>2026-03-28T14:43:15.949Z</time></trkpt><trkpt lat="45.4500368" lon="7.7059869"><ele>941.0</ele><time>2026-03-28T14:43:17.955Z</time></trkpt><trkpt lat="45.4499933" lon="7.7059207"><ele>941.0000000000001</ele><time>2026-03-28T14:43:20.943Z</time></trkpt><trkpt lat="45.4500047" lon="7.705819"><ele>941.0</ele><time>2026-03-28T14:43:24.953Z</time></trkpt><trkpt lat="45.4499916" lon="7.7057291"><ele>941.8</ele><time>2026-03-28T14:43:35.954Z</time></trkpt><trkpt lat="45.4499345" lon="7.7056661"><ele>942.5999999999999</ele><time>2026-03-28T14:43:40.947Z</time></trkpt><trkpt lat="45.4498485" lon="7.7056625"><ele>943.4</ele><time>2026-03-28T14:43:42.957Z</time></trkpt><trkpt lat="45.4497546" lon="7.705659"><ele>944.2</ele><time>2026-03-28T14:43:44.98Z</time></trkpt><trkpt lat="45.4496538" lon="7.7055868"><ele>945.0</ele><time>2026-03-28T14:43:46.951Z</time></trkpt><trkpt lat="45.4495368" lon="7.7054641"><ele>945.0</ele><time>2026-03-28T14:43:48.959Z</time></trkpt><trkpt lat="45.4494654" lon="7.7053847"><ele>945.0</ele><time>2026-03-28T14:43:49.955Z</time></trkpt><trkpt lat="45.449402" lon="7.7053103"><ele>945.0</ele><time>2026-03-28T14:43:50.967Z</time></trkpt><trkpt lat="45.4493424" lon="7.7052462"><ele>945.0</ele><time>2026-03-28T14:43:51.948Z</time></trkpt><trkpt lat="45.4492762" lon="7.7051887"><ele>945.0</ele><time>2026-03-28T14:43:52.95Z</time></trkpt><trkpt lat="45.4492076" lon="7.7051403"><ele>945.0</ele><time>2026-03-28T14:43:53.949Z</time></trkpt><trkpt lat="45.4491443" lon="7.7050973"><ele>946.8571428571429</ele><time>2026-03-28T14:43:54.956Z</time></trkpt><trkpt lat="45.44909" lon="7.7050496"><ele>948.7142857142858</ele><time>2026-03-28T14:43:55.95Z</time></trkpt><trkpt lat="45.4490403" lon="7.7049901"><ele>950.5714285714286</ele><time>2026-03-28T14:43:56.954Z</time></trkpt><trkpt lat="45.4489856" lon="7.7049233"><ele>952.4285714285714</ele><time>2026-03-28T14:43:57.949Z</time></trkpt><trkpt lat="45.4489348" lon="7.7048531"><ele>954.2857142857143</ele><time>2026-03-28T14:43:58.947Z</time></trkpt><trkpt lat="45.4488861" lon="7.7047864"><ele>956.1428571428571</ele><time>2026-03-28T14:43:59.954Z</time></trkpt><trkpt lat="45.4488414" lon="7.7047135"><ele>958.0</ele><time>2026-03-28T14:44:00.955Z</time></trkpt><trkpt lat="45.4487964" lon="7.7046402"><ele>957.0</ele><time>2026-03-28T14:44:01.953Z</time></trkpt><trkpt lat="45.4487531" lon="7.7045705"><ele>956.0</ele><time>2026-03-28T14:44:02.961Z</time></trkpt><trkpt lat="45.4486946" lon="7.704412"><ele>955.0</ele><time>2026-03-28T14:44:04.961Z</time></trkpt><trkpt lat="45.4486628" lon="7.704326"><ele>954.0</ele><time>2026-03-28T14:44:05.952Z</time></trkpt><trkpt lat="45.4485931" lon="7.7041628"><ele>953.0</ele><time>2026-03-28T14:44:07.954Z</time></trkpt><trkpt lat="45.448556" lon="7.7040862"><ele>953.0000000000001</ele><time>2026-03-28T14:44:08.95Z</time></trkpt><trkpt lat="45.4484892" lon="7.7039969"><ele>953.0</ele><time>2026-03-28T14:44:10.951Z</time></trkpt><trkpt lat="45.4484025" lon="7.7039606"><ele>953.0</ele><time>2026-03-28T14:44:12.957Z</time></trkpt><trkpt lat="45.44834" lon="7.7039738"><ele>953.0</ele><time>2026-03-28T14:44:14.954Z</time></trkpt><trkpt lat="45.4483015" lon="7.7040556"><ele>953.0000000000001</ele><time>2026-03-28T14:44:16.948Z</time></trkpt><trkpt lat="45.4482418" lon="7.7042125"><ele>953.0</ele><time>2026-03-28T14:44:18.956Z</time></trkpt><trkpt lat="45.4481569" lon="7.7043334"><ele>953.0000000000001</ele><time>2026-03-28T14:44:20.959Z</time></trkpt><trkpt lat="45.4481009" lon="7.704388"><ele>953.0</ele><time>2026-03-28T14:44:21.952Z</time></trkpt><trkpt lat="45.4479965" lon="7.7044428"><ele>953.0</ele><time>2026-03-28T14:44:23.958Z</time></trkpt><trkpt lat="45.4479299" lon="7.7044171"><ele>953.0</ele><time>2026-03-28T14:44:24.95Z</time></trkpt><trkpt lat="45.4478613" lon="7.7043807"><ele>953.0000000000001</ele><time>2026-03-28T14:44:25.947Z</time></trkpt><trkpt lat="45.4477376" lon="7.7044039"><ele>953.0</ele><time>2026-03-28T14:44:27.944Z</time></trkpt><trkpt lat="45.4476683" lon="7.7044358"><ele>952.2</ele><time>2026-03-28T14:44:28.953Z</time></trkpt><trkpt lat="45.4475952" lon="7.7044721"><ele>951.4</ele><time>2026-03-28T14:44:29.944Z</time></trkpt><trkpt lat="45.447536" lon="7.7045269"><ele>950.6000000000001</ele><time>2026-03-28T14:44:30.949Z</time></trkpt><trkpt lat="45.4474521" lon="7.7046363"><ele>949.8000000000001</ele><time>2026-03-28T14:44:32.95Z</time></trkpt><trkpt lat="45.4474174" lon="7.7047657"><ele>949.0</ele><time>2026-03-28T14:44:34.949Z</time></trkpt><trkpt lat="45.4473598" lon="7.7049105"><ele>948.9999999999999</ele><time>2026-03-28T14:44:36.952Z</time></trkpt><trkpt lat="45.4473046" lon="7.7050678"><ele>949.0</ele><time>2026-03-28T14:44:38.944Z</time></trkpt><trkpt lat="45.4472399" lon="7.7051918"><ele>949.0</ele><time>2026-03-28T14:44:40.953Z</time></trkpt><trkpt lat="45.4471766" lon="7.7052331"><ele>949.0</ele><time>2026-03-28T14:44:41.954Z</time></trkpt><trkpt lat="45.4471084" lon="7.7052561"><ele>948.9999999999999</ele><time>2026-03-28T14:44:42.954Z</time></trkpt><trkpt lat="45.4470397" lon="7.7052751"><ele>949.0</ele><time>2026-03-28T14:44:43.943Z</time></trkpt><trkpt lat="45.4469667" lon="7.7052913"><ele>948.2</ele><time>2026-03-28T14:44:44.952Z</time></trkpt><trkpt lat="45.4468934" lon="7.7053087"><ele>947.4000000000001</ele><time>2026-03-28T14:44:45.951Z</time></trkpt><trkpt lat="45.4468193" lon="7.7053263"><ele>946.6</ele><time>2026-03-28T14:44:46.962Z</time></trkpt><trkpt lat="45.4467132" lon="7.7053851"><ele>945.8</ele><time>2026-03-28T14:44:48.951Z</time></trkpt><trkpt lat="45.446644" lon="7.7055544"><ele>945.0</ele><time>2026-03-28T14:44:50.949Z</time></trkpt><trkpt lat="45.4465794" lon="7.7056731"><ele>945.0</ele><time>2026-03-28T14:44:51.94Z</time></trkpt><trkpt lat="45.4465028" lon="7.7057974"><ele>945.0</ele><time>2026-03-28T14:44:52.956Z</time></trkpt><trkpt lat="45.4464421" lon="7.7059251"><ele>945.0</ele><time>2026-03-28T14:44:53.954Z</time></trkpt><trkpt lat="45.4463893" lon="7.7060507"><ele>945.0</ele><time>2026-03-28T14:44:54.958Z</time></trkpt><trkpt lat="45.4463314" lon="7.7061927"><ele>945.0</ele><time>2026-03-28T14:44:55.949Z</time></trkpt><trkpt lat="45.4462769" lon="7.7063286"><ele>945.5</ele><time>2026-03-28T14:44:56.955Z</time></trkpt><trkpt lat="45.4462378" lon="7.7064393"><ele>946.0</ele><time>2026-03-28T14:44:57.949Z</time></trkpt><trkpt lat="45.446205" lon="7.7065457"><ele>946.5</ele><time>2026-03-28T14:44:58.958Z</time></trkpt><trkpt lat="45.4461671" lon="7.7066544"><ele>947.0</ele><time>2026-03-28T14:44:59.945Z</time></trkpt><trkpt lat="45.4461402" lon="7.7067651"><ele>947.5</ele><time>2026-03-28T14:45:00.948Z</time></trkpt><trkpt lat="45.4461063" lon="7.7068711"><ele>948.0</ele><time>2026-03-28T14:45:01.955Z</time></trkpt><trkpt lat="45.4460652" lon="7.7069624"><ele>945.5714285714284</ele><time>2026-03-28T14:45:02.958Z</time></trkpt><trkpt lat="45.4459996" lon="7.7070286"><ele>943.1428571428571</ele><time>2026-03-28T14:45:03.953Z</time></trkpt><trkpt lat="45.4459347" lon="7.7070765"><ele>940.7142857142857</ele><time>2026-03-28T14:45:04.958Z</time></trkpt><trkpt lat="45.4458658" lon="7.7071089"><ele>938.2857142857142</ele><time>2026-03-28T14:45:05.947Z</time></trkpt><trkpt lat="45.4457986" lon="7.7071388"><ele>935.8571428571429</ele><time>2026-03-28T14:45:06.954Z</time></trkpt><trkpt lat="45.4457354" lon="7.7071448"><ele>933.4285714285714</ele><time>2026-03-28T14:45:07.956Z</time></trkpt><trkpt lat="45.4456717" lon="7.7071439"><ele>931.0</ele><time>2026-03-28T14:45:08.949Z</time></trkpt><trkpt lat="45.4455534" lon="7.7071447"><ele>930.9999999999999</ele><time>2026-03-28T14:45:10.958Z</time></trkpt><trkpt lat="45.4454827" lon="7.707147"><ele>931.0</ele><time>2026-03-28T14:45:12.947Z</time></trkpt><trkpt lat="45.4454403" lon="7.7072173"><ele>931.0</ele><time>2026-03-28T14:48:48.949Z</time></trkpt><trkpt lat="45.4453896" lon="7.707295"><ele>931.0</ele><time>2026-03-28T14:48:51.957Z</time></trkpt><trkpt lat="45.4453471" lon="7.7074191"><ele>930.9999999999999</ele><time>2026-03-28T14:48:53.949Z</time></trkpt><trkpt lat="45.4453011" lon="7.7075425"><ele>931.0</ele><time>2026-03-28T14:48:54.958Z</time></trkpt><trkpt lat="45.4452455" lon="7.7076739"><ele>931.0</ele><time>2026-03-28T14:48:55.949Z</time></trkpt><trkpt lat="45.4451767" lon="7.7078153"><ele>931.0</ele><time>2026-03-28T14:48:56.952Z</time></trkpt><trkpt lat="45.445109" lon="7.7079496"><ele>931.0</ele><time>2026-03-28T14:48:57.949Z</time></trkpt><trkpt lat="45.445047" lon="7.7080821"><ele>931.0</ele><time>2026-03-28T14:48:58.981Z</time></trkpt><trkpt lat="45.4449835" lon="7.7081999"><ele>930.9999999999999</ele><time>2026-03-28T14:48:59.958Z</time></trkpt><trkpt lat="45.4449333" lon="7.7082986"><ele>931.0</ele><time>2026-03-28T14:49:00.952Z</time></trkpt><trkpt lat="45.4448876" lon="7.7083886"><ele>931.0</ele><time>2026-03-28T14:49:01.968Z</time></trkpt><trkpt lat="45.4448551" lon="7.708481"><ele>931.0</ele><time>2026-03-28T14:49:02.962Z</time></trkpt><trkpt lat="45.4448211" lon="7.7085751"><ele>930.9999999999999</ele><time>2026-03-28T14:49:03.944Z</time></trkpt><trkpt lat="45.4447793" lon="7.708668"><ele>931.0</ele><time>2026-03-28T14:49:04.948Z</time></trkpt><trkpt lat="45.4447535" lon="7.7087539"><ele>932.4</ele><time>2026-03-28T14:49:05.962Z</time></trkpt><trkpt lat="45.4447267" lon="7.7088442"><ele>933.8</ele><time>2026-03-28T14:49:06.956Z</time></trkpt><trkpt lat="45.4446907" lon="7.7089923"><ele>935.1999999999999</ele><time>2026-03-28T14:49:08.961Z</time></trkpt><trkpt lat="45.4446341" lon="7.7091329"><ele>936.5999999999999</ele><time>2026-03-28T14:49:10.946Z</time></trkpt><trkpt lat="45.4445961" lon="7.7092626"><ele>938.0</ele><time>2026-03-28T14:49:12.943Z</time></trkpt><trkpt lat="45.4445574" lon="7.7093896"><ele>936.25</ele><time>2026-03-28T14:49:14.953Z</time></trkpt><trkpt lat="45.4445187" lon="7.7095476"><ele>934.5</ele><time>2026-03-28T14:49:16.952Z</time></trkpt><trkpt lat="45.4444792" lon="7.7097219"><ele>932.75</ele><time>2026-03-28T14:49:18.947Z</time></trkpt><trkpt lat="45.444439" lon="7.7098148"><ele>931.0</ele><time>2026-03-28T14:49:19.94Z</time></trkpt><trkpt lat="45.4443482" lon="7.7099561"><ele>931.0</ele><time>2026-03-28T14:49:21.955Z</time></trkpt><trkpt lat="45.4442909" lon="7.7100252"><ele>931.0</ele><time>2026-03-28T14:49:22.945Z</time></trkpt><trkpt lat="45.4442272" lon="7.7100844"><ele>931.0</ele><time>2026-03-28T14:49:23.956Z</time></trkpt><trkpt lat="45.4441602" lon="7.7101399"><ele>931.0</ele><time>2026-03-28T14:49:24.956Z</time></trkpt><trkpt lat="45.4441021" lon="7.7101824"><ele>931.0</ele><time>2026-03-28T14:49:25.958Z</time></trkpt><trkpt lat="45.4440332" lon="7.710219"><ele>931.0</ele><time>2026-03-28T14:49:26.953Z</time></trkpt><trkpt lat="45.4439656" lon="7.7102476"><ele>931.0</ele><time>2026-03-28T14:49:27.957Z</time></trkpt><trkpt lat="45.443893" lon="7.7102813"><ele>930.9999999999999</ele><time>2026-03-28T14:49:28.964Z</time></trkpt><trkpt lat="45.4438229" lon="7.7103015"><ele>931.0</ele><time>2026-03-28T14:49:29.955Z</time></trkpt><trkpt lat="45.4437032" lon="7.7102783"><ele>931.0</ele><time>2026-03-28T14:49:31.947Z</time></trkpt><trkpt lat="45.4436582" lon="7.7102053"><ele>931.0</ele><time>2026-03-28T14:49:32.953Z</time></trkpt><trkpt lat="45.4436162" lon="7.7101105"><ele>930.9999999999999</ele><time>2026-03-28T14:49:33.957Z</time></trkpt><trkpt lat="45.4435771" lon="7.7100179"><ele>931.0</ele><time>2026-03-28T14:49:34.955Z</time></trkpt><trkpt lat="45.4435271" lon="7.7099221"><ele>926.8333333333333</ele><time>2026-03-28T14:49:35.953Z</time></trkpt><trkpt lat="45.4434742" lon="7.7098361"><ele>922.6666666666666</ele><time>2026-03-28T14:49:36.962Z</time></trkpt><trkpt lat="45.4434157" lon="7.7097618"><ele>918.5</ele><time>2026-03-28T14:49:37.95Z</time></trkpt><trkpt lat="45.4433518" lon="7.7096902"><ele>914.3333333333333</ele><time>2026-03-28T14:49:38.948Z</time></trkpt><trkpt lat="45.4432947" lon="7.709617"><ele>910.1666666666666</ele><time>2026-03-28T14:49:39.951Z</time></trkpt><trkpt lat="45.4432376" lon="7.7095393"><ele>906.0</ele><time>2026-03-28T14:49:40.956Z</time></trkpt><trkpt lat="45.4431869" lon="7.7094502"><ele>907.6666666666666</ele><time>2026-03-28T14:49:41.956Z</time></trkpt><trkpt lat="45.4431301" lon="7.7093603"><ele>909.3333333333333</ele><time>2026-03-28T14:49:42.947Z</time></trkpt><trkpt lat="45.4430743" lon="7.7092681"><ele>911.0</ele><time>2026-03-28T14:49:43.959Z</time></trkpt><trkpt lat="45.4430161" lon="7.7091754"><ele>912.6666666666666</ele><time>2026-03-28T14:49:44.952Z</time></trkpt><trkpt lat="45.4429623" lon="7.7090835"><ele>914.3333333333333</ele><time>2026-03-28T14:49:45.958Z</time></trkpt><trkpt lat="45.4429082" lon="7.708989"><ele>916.0</ele><time>2026-03-28T14:49:46.953Z</time></trkpt><trkpt lat="45.4428573" lon="7.708878"><ele>913.4999999999999</ele><time>2026-03-28T14:49:47.949Z</time></trkpt><trkpt lat="45.4428187" lon="7.7087719"><ele>911.0</ele><time>2026-03-28T14:49:48.954Z</time></trkpt><trkpt lat="45.4427779" lon="7.7086721"><ele>908.5</ele><time>2026-03-28T14:49:49.958Z</time></trkpt><trkpt lat="45.4427321" lon="7.7085766"><ele>906.0</ele><time>2026-03-28T14:49:50.949Z</time></trkpt><trkpt lat="45.4426778" lon="7.7084705"><ele>903.4999999999999</ele><time>2026-03-28T14:49:51.947Z</time></trkpt><trkpt lat="45.4426305" lon="7.7083645"><ele>901.0</ele><time>2026-03-28T14:49:52.949Z</time></trkpt><trkpt lat="45.4425881" lon="7.7082646"><ele>901.0</ele><time>2026-03-28T14:49:53.949Z</time></trkpt><trkpt lat="45.4425476" lon="7.7081923"><ele>900.9999999999999</ele><time>2026-03-28T14:49:54.952Z</time></trkpt><trkpt lat="45.4424486" lon="7.7080867"><ele>900.9999999999999</ele><time>2026-03-28T14:49:56.952Z</time></trkpt><trkpt lat="45.4423184" lon="7.7080129"><ele>901.0</ele><time>2026-03-28T14:49:58.957Z</time></trkpt><trkpt lat="45.4422266" lon="7.7080007"><ele>901.0</ele><time>2026-03-28T14:49:59.952Z</time></trkpt><trkpt lat="45.4421318" lon="7.70799"><ele>896.1666666666666</ele><time>2026-03-28T14:50:00.958Z</time></trkpt><trkpt lat="45.4420364" lon="7.7079706"><ele>891.3333333333333</ele><time>2026-03-28T14:50:01.953Z</time></trkpt><trkpt lat="45.4419572" lon="7.7079563"><ele>886.5</ele><time>2026-03-28T14:50:02.955Z</time></trkpt><trkpt lat="45.441875" lon="7.7079331"><ele>881.6666666666667</ele><time>2026-03-28T14:50:03.956Z</time></trkpt><trkpt lat="45.441787" lon="7.7079049"><ele>876.8333333333334</ele><time>2026-03-28T14:50:04.959Z</time></trkpt><trkpt lat="45.4417035" lon="7.7078853"><ele>872.0</ele><time>2026-03-28T14:50:05.944Z</time></trkpt><trkpt lat="45.4416239" lon="7.7078613"><ele>872.0000000000001</ele><time>2026-03-28T14:50:06.95Z</time></trkpt><trkpt lat="45.4415342" lon="7.70783"><ele>872.0</ele><time>2026-03-28T14:50:07.959Z</time></trkpt><trkpt lat="45.4414539" lon="7.7077794"><ele>872.0</ele><time>2026-03-28T14:50:08.951Z</time></trkpt><trkpt lat="45.4413703" lon="7.7077196"><ele>872.0</ele><time>2026-03-28T14:50:09.945Z</time></trkpt><trkpt lat="45.4413071" lon="7.707638"><ele>872.0000000000001</ele><time>2026-03-28T14:50:10.95Z</time></trkpt><trkpt lat="45.4412494" lon="7.7075485"><ele>872.0</ele><time>2026-03-28T14:50:11.956Z</time></trkpt><trkpt lat="45.4411975" lon="7.7074553"><ele>871.2</ele><time>2026-03-28T14:50:12.946Z</time></trkpt><trkpt lat="45.4411482" lon="7.707368"><ele>870.4000000000001</ele><time>2026-03-28T14:50:13.95Z</time></trkpt><trkpt lat="45.4410937" lon="7.7072656"><ele>869.5999999999999</ele><time>2026-03-28T14:50:14.959Z</time></trkpt><trkpt lat="45.441033" lon="7.7071402"><ele>868.8</ele><time>2026-03-28T14:50:15.958Z</time></trkpt><trkpt lat="45.4409822" lon="7.7070035"><ele>868.0</ele><time>2026-03-28T14:50:16.949Z</time></trkpt><trkpt lat="45.4409544" lon="7.7068476"><ele>868.0</ele><time>2026-03-28T14:50:17.956Z</time></trkpt><trkpt lat="45.4409414" lon="7.7066918"><ele>868.0</ele><time>2026-03-28T14:50:18.961Z</time></trkpt><trkpt lat="45.440928" lon="7.7065406"><ele>868.0</ele><time>2026-03-28T14:50:19.948Z</time></trkpt><trkpt lat="45.440916" lon="7.7063973"><ele>868.0</ele><time>2026-03-28T14:50:20.949Z</time></trkpt><trkpt lat="45.4408955" lon="7.7062778"><ele>868.0</ele><time>2026-03-28T14:50:21.962Z</time></trkpt><trkpt lat="45.440865" lon="7.7061609"><ele>868.4999999999999</ele><time>2026-03-28T14:50:22.949Z</time></trkpt><trkpt lat="45.4408241" lon="7.7060604"><ele>869.0</ele><time>2026-03-28T14:50:23.952Z</time></trkpt><trkpt lat="45.440724" lon="7.7059655"><ele>869.5</ele><time>2026-03-28T14:50:25.952Z</time></trkpt><trkpt lat="45.4406606" lon="7.7059359"><ele>870.0</ele><time>2026-03-28T14:50:26.954Z</time></trkpt><trkpt lat="45.440591" lon="7.7059372"><ele>870.4999999999999</ele><time>2026-03-28T14:50:27.952Z</time></trkpt><trkpt lat="45.440519" lon="7.705946"><ele>871.0</ele><time>2026-03-28T14:50:28.953Z</time></trkpt><trkpt lat="45.4404496" lon="7.705943"><ele>865.8</ele><time>2026-03-28T14:50:29.953Z</time></trkpt><trkpt lat="45.4403849" lon="7.7059365"><ele>860.5999999999999</ele><time>2026-03-28T14:50:30.957Z</time></trkpt><trkpt lat="45.4402737" lon="7.7058818"><ele>855.4</ele><time>2026-03-28T14:50:32.952Z</time></trkpt><trkpt lat="45.4401661" lon="7.7058163"><ele>850.2</ele><time>2026-03-28T14:50:34.953Z</time></trkpt><trkpt lat="45.4400916" lon="7.7057162"><ele>845.0</ele><time>2026-03-28T14:50:36.954Z</time></trkpt><trkpt lat="45.4400531" lon="7.7056289"><ele>845.0000000000001</ele><time>2026-03-28T14:50:38.96Z</time></trkpt><trkpt lat="45.4399681" lon="7.705597"><ele>845.0</ele><time>2026-03-28T14:50:40.958Z</time></trkpt><trkpt lat="45.4398985" lon="7.7055693"><ele>845.0</ele><time>2026-03-28T14:50:41.947Z</time></trkpt><trkpt lat="45.439822" lon="7.705535"><ele>845.0</ele><time>2026-03-28T14:50:42.956Z</time></trkpt><trkpt lat="45.4397409" lon="7.7054993"><ele>845.0000000000001</ele><time>2026-03-28T14:50:43.946Z</time></trkpt><trkpt lat="45.439664" lon="7.7054832"><ele>845.0</ele><time>2026-03-28T14:50:44.948Z</time></trkpt><trkpt lat="45.4395925" lon="7.7054879"><ele>841.5</ele><time>2026-03-28T14:50:45.954Z</time></trkpt><trkpt lat="45.4394855" lon="7.7055537"><ele>838.0</ele><time>2026-03-28T14:50:47.946Z</time></trkpt><trkpt lat="45.4393521" lon="7.7056245"><ele>834.5</ele><time>2026-03-28T14:50:49.956Z</time></trkpt><trkpt lat="45.4392569" lon="7.7056617"><ele>831.0</ele><time>2026-03-28T14:50:50.954Z</time></trkpt><trkpt lat="45.4391552" lon="7.7056998"><ele>831.0</ele><time>2026-03-28T14:50:51.956Z</time></trkpt><trkpt lat="45.4390603" lon="7.7057373"><ele>831.0</ele><time>2026-03-28T14:50:52.956Z</time></trkpt><trkpt lat="45.4389662" lon="7.705779"><ele>831.0</ele><time>2026-03-28T14:50:53.947Z</time></trkpt><trkpt lat="45.4388736" lon="7.7057998"><ele>831.0</ele><time>2026-03-28T14:50:54.942Z</time></trkpt><trkpt lat="45.4387871" lon="7.705824"><ele>831.0</ele><time>2026-03-28T14:50:55.952Z</time></trkpt><trkpt lat="45.4387021" lon="7.7058441"><ele>830.3333333333334</ele><time>2026-03-28T14:50:56.946Z</time></trkpt><trkpt lat="45.4386207" lon="7.7058697"><ele>829.6666666666667</ele><time>2026-03-28T14:50:57.958Z</time></trkpt><trkpt lat="45.4385425" lon="7.705886"><ele>829.0</ele><time>2026-03-28T14:50:58.948Z</time></trkpt><trkpt lat="45.4384794" lon="7.7058961"><ele>828.3333333333334</ele><time>2026-03-28T14:50:59.953Z</time></trkpt><trkpt lat="45.4384111" lon="7.7058914"><ele>827.6666666666667</ele><time>2026-03-28T14:51:00.956Z</time></trkpt><trkpt lat="45.4383314" lon="7.7058633"><ele>827.0</ele><time>2026-03-28T14:51:01.953Z</time></trkpt><trkpt lat="45.4382565" lon="7.7058246"><ele>827.0000000000001</ele><time>2026-03-28T14:51:02.971Z</time></trkpt><trkpt lat="45.4381825" lon="7.7057865"><ele>827.0</ele><time>2026-03-28T14:51:03.958Z</time></trkpt><trkpt lat="45.4381056" lon="7.705758"><ele>827.0</ele><time>2026-03-28T14:51:04.954Z</time></trkpt><trkpt lat="45.4380283" lon="7.7057337"><ele>827.0</ele><time>2026-03-28T14:51:05.957Z</time></trkpt><trkpt lat="45.4379466" lon="7.7057307"><ele>827.0000000000001</ele><time>2026-03-28T14:51:06.949Z</time></trkpt><trkpt lat="45.4378578" lon="7.7057291"><ele>827.0</ele><time>2026-03-28T14:51:07.964Z</time></trkpt><trkpt lat="45.437783" lon="7.7057292"><ele>825.4000000000001</ele><time>2026-03-28T14:51:08.951Z</time></trkpt><trkpt lat="45.4377168" lon="7.7057255"><ele>823.8000000000001</ele><time>2026-03-28T14:51:09.949Z</time></trkpt><trkpt lat="45.4375912" lon="7.7057447"><ele>822.2</ele><time>2026-03-28T14:51:11.956Z</time></trkpt><trkpt lat="45.4374679" lon="7.7057443"><ele>820.6</ele><time>2026-03-28T14:51:13.956Z</time></trkpt><trkpt lat="45.4373403" lon="7.7057427"><ele>819.0</ele><time>2026-03-28T14:51:15.952Z</time></trkpt><trkpt lat="45.4372126" lon="7.7057245"><ele>816.3333333333334</ele><time>2026-03-28T14:51:17.958Z</time></trkpt><trkpt lat="45.4370898" lon="7.7056592"><ele>813.6666666666667</ele><time>2026-03-28T14:51:19.949Z</time></trkpt><trkpt lat="45.4370316" lon="7.7056203"><ele>811.0</ele><time>2026-03-28T14:51:20.943Z</time></trkpt><trkpt lat="45.4369725" lon="7.7055794"><ele>808.3333333333334</ele><time>2026-03-28T14:51:21.95Z</time></trkpt><trkpt lat="45.4369086" lon="7.7055371"><ele>805.6666666666667</ele><time>2026-03-28T14:51:22.95Z</time></trkpt><trkpt lat="45.4368485" lon="7.7054841"><ele>803.0</ele><time>2026-03-28T14:51:23.953Z</time></trkpt><trkpt lat="45.436789" lon="7.7054286"><ele>803.0000000000001</ele><time>2026-03-28T14:51:24.953Z</time></trkpt><trkpt lat="45.4367257" lon="7.7053787"><ele>803.0</ele><time>2026-03-28T14:51:25.959Z</time></trkpt><trkpt lat="45.4366612" lon="7.7053301"><ele>803.0</ele><time>2026-03-28T14:51:26.955Z</time></trkpt><trkpt lat="45.4365981" lon="7.7052911"><ele>803.0</ele><time>2026-03-28T14:51:27.949Z</time></trkpt><trkpt lat="45.4365073" lon="7.7052599"><ele>803.0000000000001</ele><time>2026-03-28T14:51:29.955Z</time></trkpt><trkpt lat="45.4364273" lon="7.7052645"><ele>803.0</ele><time>2026-03-28T14:51:31.96Z</time></trkpt><trkpt lat="45.4363379" lon="7.70527"><ele>804.8333333333334</ele><time>2026-03-28T14:51:33.95Z</time></trkpt><trkpt lat="45.4362542" lon="7.7052797"><ele>806.6666666666667</ele><time>2026-03-28T14:51:35.956Z</time></trkpt><trkpt lat="45.4361506" lon="7.7053056"><ele>808.5</ele><time>2026-03-28T14:51:37.953Z</time></trkpt><trkpt lat="45.436062" lon="7.7052888"><ele>810.3333333333333</ele><time>2026-03-28T14:51:38.95Z</time></trkpt><trkpt lat="45.4359819" lon="7.705284"><ele>812.1666666666666</ele><time>2026-03-28T14:51:39.949Z</time></trkpt><trkpt lat="45.4358976" lon="7.7052639"><ele>814.0</ele><time>2026-03-28T14:51:40.95Z</time></trkpt><trkpt lat="45.4358164" lon="7.7052371"><ele>813.9999999999999</ele><time>2026-03-28T14:51:41.954Z</time></trkpt><trkpt lat="45.4357341" lon="7.7052145"><ele>814.0</ele><time>2026-03-28T14:51:42.948Z</time></trkpt><trkpt lat="45.4356543" lon="7.7051811"><ele>814.0</ele><time>2026-03-28T14:51:43.952Z</time></trkpt><trkpt lat="45.4355744" lon="7.7051457"><ele>814.0</ele><time>2026-03-28T14:51:44.958Z</time></trkpt><trkpt lat="45.4355009" lon="7.7051212"><ele>813.9999999999999</ele><time>2026-03-28T14:51:45.951Z</time></trkpt><trkpt lat="45.4354253" lon="7.7051066"><ele>814.0</ele><time>2026-03-28T14:51:46.956Z</time></trkpt><trkpt lat="45.4353527" lon="7.7051053"><ele>812.1428571428572</ele><time>2026-03-28T14:51:47.956Z</time></trkpt><trkpt lat="45.4352802" lon="7.7051044"><ele>810.2857142857143</ele><time>2026-03-28T14:51:48.952Z</time></trkpt><trkpt lat="45.4352101" lon="7.7051095"><ele>808.4285714285714</ele><time>2026-03-28T14:51:49.953Z</time></trkpt><trkpt lat="45.4351354" lon="7.7051299"><ele>806.5714285714287</ele><time>2026-03-28T14:51:50.954Z</time></trkpt><trkpt lat="45.4350595" lon="7.7051451"><ele>804.7142857142857</ele><time>2026-03-28T14:51:51.951Z</time></trkpt><trkpt lat="45.4349867" lon="7.7051585"><ele>802.8571428571429</ele><time>2026-03-28T14:51:52.951Z</time></trkpt><trkpt lat="45.4349187" lon="7.7051645"><ele>801.0</ele><time>2026-03-28T14:51:53.955Z</time></trkpt><trkpt lat="45.4348557" lon="7.7051688"><ele>801.0</ele><time>2026-03-28T14:51:54.953Z</time></trkpt><trkpt lat="45.43479" lon="7.7051691"><ele>801.0</ele><time>2026-03-28T14:51:55.944Z</time></trkpt><trkpt lat="45.4347284" lon="7.70515"><ele>801.0</ele><time>2026-03-28T14:51:56.961Z</time></trkpt><trkpt lat="45.4346654" lon="7.7051103"><ele>801.0</ele><time>2026-03-28T14:51:57.95Z</time></trkpt><trkpt lat="45.4345526" lon="7.7050258"><ele>801.0</ele><time>2026-03-28T14:51:59.959Z</time></trkpt><trkpt lat="45.4344919" lon="7.7049896"><ele>801.0</ele><time>2026-03-28T14:52:00.954Z</time></trkpt><trkpt lat="45.4343755" lon="7.7049241"><ele>799.1428571428571</ele><time>2026-03-28T14:52:02.957Z</time></trkpt><trkpt lat="45.434311" lon="7.7049088"><ele>797.2857142857142</ele><time>2026-03-28T14:52:03.948Z</time></trkpt><trkpt lat="45.4342429" lon="7.7049062"><ele>795.4285714285714</ele><time>2026-03-28T14:52:04.952Z</time></trkpt><trkpt lat="45.4341735" lon="7.7049081"><ele>793.5714285714286</ele><time>2026-03-28T14:52:05.954Z</time></trkpt><trkpt lat="45.4340991" lon="7.7049244"><ele>791.7142857142858</ele><time>2026-03-28T14:52:06.96Z</time></trkpt><trkpt lat="45.4340309" lon="7.7049334"><ele>789.8571428571429</ele><time>2026-03-28T14:52:07.958Z</time></trkpt><trkpt lat="45.4339548" lon="7.7049469"><ele>788.0</ele><time>2026-03-28T14:52:08.957Z</time></trkpt><trkpt lat="45.4338831" lon="7.704949"><ele>788.0</ele><time>2026-03-28T14:52:09.957Z</time></trkpt><trkpt lat="45.433811" lon="7.7049543"><ele>788.0</ele><time>2026-03-28T14:52:10.95Z</time></trkpt><trkpt lat="45.4337401" lon="7.7049511"><ele>788.0</ele><time>2026-03-28T14:52:11.956Z</time></trkpt><trkpt lat="45.4336738" lon="7.7049376"><ele>788.0</ele><time>2026-03-28T14:52:12.958Z</time></trkpt><trkpt lat="45.4336078" lon="7.7049266"><ele>788.0</ele><time>2026-03-28T14:52:13.95Z</time></trkpt><trkpt lat="45.4335378" lon="7.7049078"><ele>788.0</ele><time>2026-03-28T14:52:14.944Z</time></trkpt><trkpt lat="45.4334657" lon="7.7048979"><ele>788.0</ele><time>2026-03-28T14:52:15.949Z</time></trkpt><trkpt lat="45.4334022" lon="7.7048973"><ele>785.5000000000001</ele><time>2026-03-28T14:52:16.954Z</time></trkpt><trkpt lat="45.4333258" lon="7.704897"><ele>783.0</ele><time>2026-03-28T14:52:17.959Z</time></trkpt><trkpt lat="45.4332528" lon="7.7048965"><ele>780.5</ele><time>2026-03-28T14:52:18.952Z</time></trkpt><trkpt lat="45.4331312" lon="7.7049265"><ele>778.0</ele><time>2026-03-28T14:52:20.957Z</time></trkpt><trkpt lat="45.4330638" lon="7.7049364"><ele>775.5000000000001</ele><time>2026-03-28T14:52:21.947Z</time></trkpt><trkpt lat="45.4329878" lon="7.7049436"><ele>773.0</ele><time>2026-03-28T14:52:22.954Z</time></trkpt><trkpt lat="45.4329205" lon="7.7049569"><ele>770.8333333333334</ele><time>2026-03-28T14:52:23.957Z</time></trkpt><trkpt lat="45.4328046" lon="7.7049825"><ele>768.6666666666667</ele><time>2026-03-28T14:52:25.952Z</time></trkpt><trkpt lat="45.4327405" lon="7.7049808"><ele>766.5</ele><time>2026-03-28T14:52:26.958Z</time></trkpt><trkpt lat="45.4326756" lon="7.704973"><ele>764.3333333333334</ele><time>2026-03-28T14:52:27.948Z</time></trkpt><trkpt lat="45.4325963" lon="7.7049515"><ele>762.1666666666667</ele><time>2026-03-28T14:52:28.948Z</time></trkpt><trkpt lat="45.4325252" lon="7.7049319"><ele>760.0</ele><time>2026-03-28T14:52:29.959Z</time></trkpt><trkpt lat="45.4324508" lon="7.7049092"><ele>760.0</ele><time>2026-03-28T14:52:30.95Z</time></trkpt><trkpt lat="45.4323808" lon="7.7048952"><ele>760.0</ele><time>2026-03-28T14:52:31.954Z</time></trkpt><trkpt lat="45.4323117" lon="7.7048917"><ele>760.0</ele><time>2026-03-28T14:52:32.95Z</time></trkpt><trkpt lat="45.4322414" lon="7.7048875"><ele>760.0</ele><time>2026-03-28T14:52:33.944Z</time></trkpt><trkpt lat="45.43217" lon="7.7048816"><ele>760.0</ele><time>2026-03-28T14:52:34.957Z</time></trkpt><trkpt lat="45.4320929" lon="7.7048768"><ele>760.0</ele><time>2026-03-28T14:52:35.951Z</time></trkpt><trkpt lat="45.4320219" lon="7.7048796"><ele>760.0</ele><time>2026-03-28T14:52:36.954Z</time></trkpt><trkpt lat="45.4319557" lon="7.7048736"><ele>756.5</ele><time>2026-03-28T14:52:37.956Z</time></trkpt><trkpt lat="45.4318354" lon="7.704872"><ele>753.0</ele><time>2026-03-28T14:52:39.947Z</time></trkpt><trkpt lat="45.4317116" lon="7.7048764"><ele>749.5</ele><time>2026-03-28T14:52:41.95Z</time></trkpt><trkpt lat="45.4315903" lon="7.7048789"><ele>746.0</ele><time>2026-03-28T14:52:43.955Z</time></trkpt><trkpt lat="45.4314626" lon="7.7048724"><ele>746.0</ele><time>2026-03-28T14:52:45.941Z</time></trkpt><trkpt lat="45.4313418" lon="7.7048841"><ele>746.0</ele><time>2026-03-28T14:52:47.949Z</time></trkpt><trkpt lat="45.4312778" lon="7.7049041"><ele>746.0</ele><time>2026-03-28T14:52:48.952Z</time></trkpt><trkpt lat="45.4311673" lon="7.7049153"><ele>746.0</ele><time>2026-03-28T14:52:50.956Z</time></trkpt><trkpt lat="45.4310534" lon="7.7049478"><ele>746.0</ele><time>2026-03-28T14:52:52.952Z</time></trkpt><trkpt lat="45.4309514" lon="7.7049878"><ele>742.5</ele><time>2026-03-28T14:52:54.956Z</time></trkpt><trkpt lat="45.4308859" lon="7.7050356"><ele>739.0</ele><time>2026-03-28T14:52:56.957Z</time></trkpt><trkpt lat="45.4308084" lon="7.7050532"><ele>735.5</ele><time>2026-03-28T14:52:58.949Z</time></trkpt><trkpt lat="45.4306974" lon="7.7050093"><ele>732.0</ele><time>2026-03-28T14:53:00.953Z</time></trkpt><trkpt lat="45.4306345" lon="7.7049538"><ele>728.5</ele><time>2026-03-28T14:53:01.96Z</time></trkpt><trkpt lat="45.4305615" lon="7.7048967"><ele>725.0</ele><time>2026-03-28T14:53:02.957Z</time></trkpt><trkpt lat="45.430479" lon="7.7048444"><ele>721.1666666666666</ele><time>2026-03-28T14:53:03.953Z</time></trkpt><trkpt lat="45.4303952" lon="7.7048093"><ele>717.3333333333333</ele><time>2026-03-28T14:53:04.954Z</time></trkpt><trkpt lat="45.4303178" lon="7.7047845"><ele>713.5</ele><time>2026-03-28T14:53:05.945Z</time></trkpt><trkpt lat="45.4302443" lon="7.704771"><ele>709.6666666666666</ele><time>2026-03-28T14:53:06.952Z</time></trkpt><trkpt lat="45.4301657" lon="7.7047617"><ele>705.8333333333334</ele><time>2026-03-28T14:53:07.949Z</time></trkpt><trkpt lat="45.4300879" lon="7.7047674"><ele>702.0</ele><time>2026-03-28T14:53:08.957Z</time></trkpt><trkpt lat="45.4300145" lon="7.7047725"><ele>702.0</ele><time>2026-03-28T14:53:09.954Z</time></trkpt><trkpt lat="45.4299519" lon="7.7048018"><ele>702.0</ele><time>2026-03-28T14:53:10.958Z</time></trkpt><trkpt lat="45.4298913" lon="7.7048479"><ele>702.0</ele><time>2026-03-28T14:53:11.959Z</time></trkpt><trkpt lat="45.4298348" lon="7.7048968"><ele>702.0</ele><time>2026-03-28T14:53:12.959Z</time></trkpt><trkpt lat="45.4297234" lon="7.7049393"><ele>702.0</ele><time>2026-03-28T14:53:14.959Z</time></trkpt><trkpt lat="45.4296035" lon="7.704889"><ele>702.0</ele><time>2026-03-28T14:53:16.956Z</time></trkpt><trkpt lat="45.429545" lon="7.7048475"><ele>699.1666666666666</ele><time>2026-03-28T14:53:17.953Z</time></trkpt><trkpt lat="45.4294852" lon="7.7047863"><ele>696.3333333333334</ele><time>2026-03-28T14:53:18.95Z</time></trkpt><trkpt lat="45.4294284" lon="7.7047209"><ele>693.5</ele><time>2026-03-28T14:53:19.948Z</time></trkpt><trkpt lat="45.4293727" lon="7.7046613"><ele>690.6666666666667</ele><time>2026-03-28T14:53:20.951Z</time></trkpt><trkpt lat="45.4293048" lon="7.7045265"><ele>687.8333333333334</ele><time>2026-03-28T14:53:22.958Z</time></trkpt><trkpt lat="45.4292797" lon="7.7044373"><ele>685.0</ele><time>2026-03-28T14:53:23.945Z</time></trkpt><trkpt lat="45.4292639" lon="7.7043255"><ele>685.0</ele><time>2026-03-28T14:53:24.952Z</time></trkpt><trkpt lat="45.4292645" lon="7.7042144"><ele>685.0</ele><time>2026-03-28T14:53:25.955Z</time></trkpt><trkpt lat="45.4292768" lon="7.7040949"><ele>685.0</ele><time>2026-03-28T14:53:26.946Z</time></trkpt><trkpt lat="45.4293045" lon="7.7039692"><ele>685.0</ele><time>2026-03-28T14:53:27.948Z</time></trkpt><trkpt lat="45.4293346" lon="7.7038419"><ele>685.0</ele><time>2026-03-28T14:53:28.946Z</time></trkpt><trkpt lat="45.4293688" lon="7.7037142"><ele>685.0</ele><time>2026-03-28T14:53:29.954Z</time></trkpt><trkpt lat="45.4294102" lon="7.7035977"><ele>686.4285714285714</ele><time>2026-03-28T14:53:30.957Z</time></trkpt><trkpt lat="45.4294494" lon="7.7034996"><ele>687.8571428571429</ele><time>2026-03-28T14:53:31.949Z</time></trkpt><trkpt lat="45.4294935" lon="7.7034096"><ele>689.2857142857143</ele><time>2026-03-28T14:53:32.955Z</time></trkpt><trkpt lat="45.4295418" lon="7.7033354"><ele>690.7142857142858</ele><time>2026-03-28T14:53:33.955Z</time></trkpt><trkpt lat="45.4295951" lon="7.703266"><ele>692.1428571428571</ele><time>2026-03-28T14:53:34.96Z</time></trkpt><trkpt lat="45.42965" lon="7.7031916"><ele>693.5714285714287</ele><time>2026-03-28T14:53:35.959Z</time></trkpt><trkpt lat="45.4296947" lon="7.7031236"><ele>695.0</ele><time>2026-03-28T14:53:36.951Z</time></trkpt><trkpt lat="45.4297165" lon="7.7030318"><ele>691.1666666666666</ele><time>2026-03-28T14:53:38.947Z</time></trkpt><trkpt lat="45.4296023" lon="7.7030408"><ele>687.3333333333333</ele><time>2026-03-28T14:53:41.958Z</time></trkpt><trkpt lat="45.4295287" lon="7.7030632"><ele>683.5</ele><time>2026-03-28T14:53:42.949Z</time></trkpt><trkpt lat="45.4294486" lon="7.7030852"><ele>679.6666666666666</ele><time>2026-03-28T14:53:43.942Z</time></trkpt><trkpt lat="45.4293661" lon="7.7031045"><ele>675.8333333333334</ele><time>2026-03-28T14:53:44.953Z</time></trkpt><trkpt lat="45.4292819" lon="7.7031595"><ele>672.0</ele><time>2026-03-28T14:53:45.957Z</time></trkpt><trkpt lat="45.4291959" lon="7.7032473"><ele>672.0</ele><time>2026-03-28T14:53:46.952Z</time></trkpt><trkpt lat="45.4291015" lon="7.7033305"><ele>672.0</ele><time>2026-03-28T14:53:47.954Z</time></trkpt><trkpt lat="45.429005" lon="7.7033901"><ele>672.0</ele><time>2026-03-28T14:53:48.944Z</time></trkpt><trkpt lat="45.4289175" lon="7.7034164"><ele>672.0</ele><time>2026-03-28T14:53:49.953Z</time></trkpt><trkpt lat="45.4288312" lon="7.703448"><ele>672.0</ele><time>2026-03-28T14:53:50.949Z</time></trkpt><trkpt lat="45.4287381" lon="7.7034881"><ele>670.5</ele><time>2026-03-28T14:53:51.95Z</time></trkpt><trkpt lat="45.4286517" lon="7.7035464"><ele>669.0</ele><time>2026-03-28T14:53:52.941Z</time></trkpt><trkpt lat="45.4285665" lon="7.7035883"><ele>667.5</ele><time>2026-03-28T14:53:53.956Z</time></trkpt><trkpt lat="45.4284818" lon="7.7036246"><ele>666.0</ele><time>2026-03-28T14:53:54.945Z</time></trkpt><trkpt lat="45.4283998" lon="7.7036618"><ele>664.5</ele><time>2026-03-28T14:53:55.96Z</time></trkpt><trkpt lat="45.4283179" lon="7.7036875"><ele>663.0</ele><time>2026-03-28T14:53:56.949Z</time></trkpt><trkpt lat="45.4282394" lon="7.7037221"><ele>663.0</ele><time>2026-03-28T14:53:57.952Z</time></trkpt><trkpt lat="45.4281599" lon="7.703749"><ele>663.0</ele><time>2026-03-28T14:53:58.958Z</time></trkpt><trkpt lat="45.428088" lon="7.7037398"><ele>663.0</ele><time>2026-03-28T14:53:59.953Z</time></trkpt><trkpt lat="45.4279957" lon="7.7037091"><ele>663.0</ele><time>2026-03-28T14:54:00.952Z</time></trkpt><trkpt lat="45.4279179" lon="7.7036938"><ele>663.0</ele><time>2026-03-28T14:54:01.958Z</time></trkpt><trkpt lat="45.4278474" lon="7.7036498"><ele>663.0</ele><time>2026-03-28T14:54:02.95Z</time></trkpt><trkpt lat="45.4277359" lon="7.7036323"><ele>662.4</ele><time>2026-03-28T14:54:04.955Z</time></trkpt><trkpt lat="45.4276524" lon="7.7036029"><ele>661.8</ele><time>2026-03-28T14:54:06.958Z</time></trkpt><trkpt lat="45.4277013" lon="7.7035096"><ele>661.2</ele><time>2026-03-28T14:54:10.954Z</time></trkpt><trkpt lat="45.4277593" lon="7.7034274"><ele>660.6</ele><time>2026-03-28T14:54:12.964Z</time></trkpt><trkpt lat="45.4277387" lon="7.7033216"><ele>660.0</ele><time>2026-03-28T14:54:14.951Z</time></trkpt><trkpt lat="45.4276996" lon="7.7031536"><ele>660.0</ele><time>2026-03-28T14:54:16.957Z</time></trkpt><trkpt lat="45.427676" lon="7.7030546"><ele>660.0</ele><time>2026-03-28T14:54:17.954Z</time></trkpt><trkpt lat="45.4276495" lon="7.7029557"><ele>660.0</ele><time>2026-03-28T14:54:18.952Z</time></trkpt><trkpt lat="45.4276254" lon="7.7028656"><ele>660.0</ele><time>2026-03-28T14:54:19.95Z</time></trkpt><trkpt lat="45.4275871" lon="7.7027013"><ele>660.0</ele><time>2026-03-28T14:54:21.957Z</time></trkpt><trkpt lat="45.4275125" lon="7.7025568"><ele>658.0</ele><time>2026-03-28T14:54:23.949Z</time></trkpt><trkpt lat="45.4274589" lon="7.7024688"><ele>656.0</ele><time>2026-03-28T14:54:24.946Z</time></trkpt><trkpt lat="45.4273991" lon="7.7023581"><ele>654.0</ele><time>2026-03-28T14:54:25.948Z</time></trkpt><trkpt lat="45.4273528" lon="7.7022538"><ele>652.0</ele><time>2026-03-28T14:54:26.954Z</time></trkpt><trkpt lat="45.4273194" lon="7.7021553"><ele>650.0</ele><time>2026-03-28T14:54:27.95Z</time></trkpt><trkpt lat="45.4272839" lon="7.7020584"><ele>648.0</ele><time>2026-03-28T14:54:28.957Z</time></trkpt><trkpt lat="45.427241" lon="7.7019708"><ele>649.8333333333334</ele><time>2026-03-28T14:54:29.961Z</time></trkpt><trkpt lat="45.4271935" lon="7.70188"><ele>651.6666666666666</ele><time>2026-03-28T14:54:30.952Z</time></trkpt><trkpt lat="45.4271304" lon="7.7017865"><ele>653.5</ele><time>2026-03-28T14:54:31.946Z</time></trkpt><trkpt lat="45.4270718" lon="7.7016973"><ele>655.3333333333333</ele><time>2026-03-28T14:54:32.956Z</time></trkpt><trkpt lat="45.4270149" lon="7.7016004"><ele>657.1666666666666</ele><time>2026-03-28T14:54:33.956Z</time></trkpt><trkpt lat="45.4269672" lon="7.7015064"><ele>659.0</ele><time>2026-03-28T14:54:34.957Z</time></trkpt><trkpt lat="45.426921" lon="7.7014179"><ele>659.0</ele><time>2026-03-28T14:54:35.947Z</time></trkpt><trkpt lat="45.4268692" lon="7.7013269"><ele>659.0</ele><time>2026-03-28T14:54:36.958Z</time></trkpt><trkpt lat="45.4268218" lon="7.70124"><ele>659.0</ele><time>2026-03-28T14:54:37.952Z</time></trkpt><trkpt lat="45.4267788" lon="7.7011647"><ele>659.0</ele><time>2026-03-28T14:54:38.946Z</time></trkpt><trkpt lat="45.4267122" lon="7.7010547"><ele>659.0</ele><time>2026-03-28T14:54:40.953Z</time></trkpt><trkpt lat="45.4266431" lon="7.7009405"><ele>659.0</ele><time>2026-03-28T14:54:42.955Z</time></trkpt><trkpt lat="45.4265967" lon="7.70084"><ele>656.1666666666666</ele><time>2026-03-28T14:54:44.95Z</time></trkpt><trkpt lat="45.4265516" lon="7.7007647"><ele>653.3333333333333</ele><time>2026-03-28T14:54:46.961Z</time></trkpt><trkpt lat="45.4265721" lon="7.7006594"><ele>650.5</ele><time>2026-03-28T14:54:49.948Z</time></trkpt><trkpt lat="45.4266308" lon="7.7005962"><ele>647.6666666666666</ele><time>2026-03-28T14:54:51.952Z</time></trkpt><trkpt lat="45.4266823" lon="7.7005438"><ele>644.8333333333334</ele><time>2026-03-28T14:54:52.953Z</time></trkpt><trkpt lat="45.426755" lon="7.7004782"><ele>642.0</ele><time>2026-03-28T14:54:54.953Z</time></trkpt><trkpt lat="45.4268278" lon="7.7003927"><ele>642.0</ele><time>2026-03-28T14:54:56.953Z</time></trkpt><trkpt lat="45.4268851" lon="7.7002948"><ele>642.0</ele><time>2026-03-28T14:54:58.955Z</time></trkpt><trkpt lat="45.4269031" lon="7.7001637"><ele>642.0</ele><time>2026-03-28T14:55:00.95Z</time></trkpt><trkpt lat="45.4268974" lon="7.7000297"><ele>642.0</ele><time>2026-03-28T14:55:02.955Z</time></trkpt><trkpt lat="45.4268654" lon="7.6998695"><ele>642.0</ele><time>2026-03-28T14:55:04.947Z</time></trkpt><trkpt lat="45.4268305" lon="7.6997494"><ele>640.8333333333334</ele><time>2026-03-28T14:55:05.963Z</time></trkpt><trkpt lat="45.4267823" lon="7.6996261"><ele>639.6666666666666</ele><time>2026-03-28T14:55:06.958Z</time></trkpt><trkpt lat="45.4267288" lon="7.699498"><ele>638.5</ele><time>2026-03-28T14:55:07.947Z</time></trkpt><trkpt lat="45.4266795" lon="7.6994089"><ele>637.3333333333333</ele><time>2026-03-28T14:55:08.964Z</time></trkpt><trkpt lat="45.4266363" lon="7.6993193"><ele>636.1666666666666</ele><time>2026-03-28T14:55:09.959Z</time></trkpt><trkpt lat="45.4266072" lon="7.6992293"><ele>635.0</ele><time>2026-03-28T14:55:10.952Z</time></trkpt><trkpt lat="45.4265606" lon="7.6990755"><ele>636.6</ele><time>2026-03-28T14:55:12.948Z</time></trkpt><trkpt lat="45.4265092" lon="7.6989408"><ele>638.2</ele><time>2026-03-28T14:55:14.951Z</time></trkpt><trkpt lat="45.4264254" lon="7.698818"><ele>639.8</ele><time>2026-03-28T14:55:16.95Z</time></trkpt><trkpt lat="45.4263749" lon="7.6987599"><ele>641.4</ele><time>2026-03-28T14:55:17.948Z</time></trkpt><trkpt lat="45.4262887" lon="7.6986584"><ele>643.0</ele><time>2026-03-28T14:55:19.953Z</time></trkpt><trkpt lat="45.4262409" lon="7.698592"><ele>638.6</ele><time>2026-03-28T14:55:20.953Z</time></trkpt><trkpt lat="45.4261895" lon="7.6985316"><ele>634.1999999999999</ele><time>2026-03-28T14:55:21.955Z</time></trkpt><trkpt lat="45.4260999" lon="7.6984239"><ele>629.8</ele><time>2026-03-28T14:55:23.953Z</time></trkpt><trkpt lat="45.4260402" lon="7.698385"><ele>625.4</ele><time>2026-03-28T14:55:24.96Z</time></trkpt><trkpt lat="45.4259148" lon="7.6982927"><ele>621.0</ele><time>2026-03-28T14:55:26.95Z</time></trkpt><trkpt lat="45.4258464" lon="7.6982436"><ele>620.9999999999999</ele><time>2026-03-28T14:55:27.958Z</time></trkpt><trkpt lat="45.4257878" lon="7.6982054"><ele>621.0</ele><time>2026-03-28T14:55:28.957Z</time></trkpt><trkpt lat="45.4257258" lon="7.6981742"><ele>621.0</ele><time>2026-03-28T14:55:29.945Z</time></trkpt><trkpt lat="45.4256632" lon="7.698139"><ele>621.0</ele><time>2026-03-28T14:55:30.954Z</time></trkpt><trkpt lat="45.4255776" lon="7.6981374"><ele>621.0</ele><time>2026-03-28T14:55:32.963Z</time></trkpt><trkpt lat="45.4254893" lon="7.6981755"><ele>620.9999999999999</ele><time>2026-03-28T14:55:34.954Z</time></trkpt><trkpt lat="45.4254271" lon="7.6982233"><ele>621.0</ele><time>2026-03-28T14:55:35.957Z</time></trkpt><trkpt lat="45.4253652" lon="7.6982881"><ele>621.8333333333334</ele><time>2026-03-28T14:55:36.946Z</time></trkpt><trkpt lat="45.4253075" lon="7.6983379"><ele>622.6666666666666</ele><time>2026-03-28T14:55:37.954Z</time></trkpt><trkpt lat="45.4252291" lon="7.6984018"><ele>623.5</ele><time>2026-03-28T14:55:39.95Z</time></trkpt><trkpt lat="45.425164" lon="7.6983902"><ele>624.3333333333333</ele><time>2026-03-28T14:55:42.949Z</time></trkpt><trkpt lat="45.4251331" lon="7.6983024"><ele>625.1666666666666</ele><time>2026-03-28T14:55:44.949Z</time></trkpt><trkpt lat="45.4251005" lon="7.6981677"><ele>626.0</ele><time>2026-03-28T14:55:46.958Z</time></trkpt><trkpt lat="45.4250658" lon="7.6980411"><ele>626.0</ele><time>2026-03-28T14:55:48.952Z</time></trkpt><trkpt lat="45.4250209" lon="7.6978868"><ele>626.0</ele><time>2026-03-28T14:55:50.949Z</time></trkpt><trkpt lat="45.4249981" lon="7.6978007"><ele>626.0</ele><time>2026-03-28T14:55:51.957Z</time></trkpt><trkpt lat="45.4249071" lon="7.6975982"><ele>626.0</ele><time>2026-03-28T14:55:53.95Z</time></trkpt><trkpt lat="45.4248493" lon="7.6975202"><ele>626.0</ele><time>2026-03-28T14:55:54.954Z</time></trkpt><trkpt lat="45.4247806" lon="7.6974524"><ele>626.5</ele><time>2026-03-28T14:55:56.959Z</time></trkpt><trkpt lat="45.4247016" lon="7.6974095"><ele>627.0</ele><time>2026-03-28T14:55:58.965Z</time></trkpt><trkpt lat="45.4246496" lon="7.6973471"><ele>627.5</ele><time>2026-03-28T14:56:00.953Z</time></trkpt><trkpt lat="45.424634" lon="7.6972533"><ele>628.0</ele><time>2026-03-28T14:56:02.949Z</time></trkpt><trkpt lat="45.4245753" lon="7.6971318"><ele>628.5</ele><time>2026-03-28T14:56:04.956Z</time></trkpt><trkpt lat="45.4245377" lon="7.6970225"><ele>629.0</ele><time>2026-03-28T14:56:05.951Z</time></trkpt><trkpt lat="45.424499" lon="7.6969482"><ele>626.3333333333333</ele><time>2026-03-28T14:56:06.953Z</time></trkpt><trkpt lat="45.4244338" lon="7.6968444"><ele>623.6666666666666</ele><time>2026-03-28T14:56:08.956Z</time></trkpt><trkpt lat="45.4243572" lon="7.6967062"><ele>621.0</ele><time>2026-03-28T14:56:10.954Z</time></trkpt><trkpt lat="45.424316" lon="7.6966301"><ele>618.3333333333334</ele><time>2026-03-28T14:56:11.965Z</time></trkpt><trkpt lat="45.4242725" lon="7.696554"><ele>615.6666666666667</ele><time>2026-03-28T14:56:12.948Z</time></trkpt><trkpt lat="45.4242173" lon="7.6964892"><ele>613.0</ele><time>2026-03-28T14:56:13.961Z</time></trkpt><trkpt lat="45.4241521" lon="7.6963829"><ele>613.0</ele><time>2026-03-28T14:56:15.951Z</time></trkpt><trkpt lat="45.4241081" lon="7.6962694"><ele>613.0</ele><time>2026-03-28T14:56:17.953Z</time></trkpt><trkpt lat="45.4240509" lon="7.6961196"><ele>613.0</ele><time>2026-03-28T14:56:19.947Z</time></trkpt><trkpt lat="45.4240186" lon="7.6960351"><ele>613.0</ele><time>2026-03-28T14:56:20.957Z</time></trkpt><trkpt lat="45.4239823" lon="7.6959476"><ele>613.0</ele><time>2026-03-28T14:56:21.957Z</time></trkpt><trkpt lat="45.4239277" lon="7.6958012"><ele>611.6666666666667</ele><time>2026-03-28T14:56:23.953Z</time></trkpt><trkpt lat="45.4238767" lon="7.695719"><ele>610.3333333333334</ele><time>2026-03-28T14:56:25.952Z</time></trkpt><trkpt lat="45.4238159" lon="7.6956421"><ele>609.0</ele><time>2026-03-28T14:56:27.953Z</time></trkpt><trkpt lat="45.4237677" lon="7.6955516"><ele>607.6666666666666</ele><time>2026-03-28T14:56:30.952Z</time></trkpt><trkpt lat="45.4237579" lon="7.6954521"><ele>606.3333333333333</ele><time>2026-03-28T14:56:33.948Z</time></trkpt><trkpt lat="45.4237535" lon="7.6953389"><ele>605.0</ele><time>2026-03-28T14:56:36.946Z</time></trkpt><trkpt lat="45.4237368" lon="7.6952096"><ele>602.0</ele><time>2026-03-28T14:56:39.952Z</time></trkpt><trkpt lat="45.4236953" lon="7.6950988"><ele>599.0</ele><time>2026-03-28T14:56:42.942Z</time></trkpt><trkpt lat="45.4236278" lon="7.6950064"><ele>596.0</ele><time>2026-03-28T14:56:45.95Z</time></trkpt><trkpt lat="45.4235634" lon="7.6949469"><ele>593.0</ele><time>2026-03-28T14:56:47.952Z</time></trkpt><trkpt lat="45.4235257" lon="7.6948313"><ele>590.0</ele><time>2026-03-28T14:56:49.946Z</time></trkpt><trkpt lat="45.4235063" lon="7.6947388"><ele>587.0</ele><time>2026-03-28T14:56:50.959Z</time></trkpt><trkpt lat="45.4234809" lon="7.6946045"><ele>587.0</ele><time>2026-03-28T14:56:52.954Z</time></trkpt><trkpt lat="45.423496" lon="7.694471"><ele>587.0</ele><time>2026-03-28T14:56:54.951Z</time></trkpt><trkpt lat="45.4235058" lon="7.6943677"><ele>587.0</ele><time>2026-03-28T14:56:56.948Z</time></trkpt><trkpt lat="45.423498" lon="7.6942354"><ele>587.0</ele><time>2026-03-28T14:56:59.953Z</time></trkpt><trkpt lat="45.4234544" lon="7.6941651"><ele>587.0</ele><time>2026-03-28T14:57:01.947Z</time></trkpt><trkpt lat="45.4234092" lon="7.6940893"><ele>587.0</ele><time>2026-03-28T14:57:03.945Z</time></trkpt><trkpt lat="45.4233634" lon="7.6939933"><ele>587.6666666666666</ele><time>2026-03-28T14:57:05.948Z</time></trkpt><trkpt lat="45.4233051" lon="7.6938863"><ele>588.3333333333333</ele><time>2026-03-28T14:57:07.951Z</time></trkpt><trkpt lat="45.4232608" lon="7.6938174"><ele>589.0</ele><time>2026-03-28T14:57:08.946Z</time></trkpt><trkpt lat="45.423214" lon="7.6937501"><ele>589.6666666666666</ele><time>2026-03-28T14:57:09.952Z</time></trkpt><trkpt lat="45.4231739" lon="7.693679"><ele>590.3333333333334</ele><time>2026-03-28T14:57:10.951Z</time></trkpt><trkpt lat="45.4231461" lon="7.693592"><ele>591.0</ele><time>2026-03-28T14:57:11.948Z</time></trkpt><trkpt lat="45.4231081" lon="7.6934577"><ele>591.0</ele><time>2026-03-28T14:57:13.943Z</time></trkpt><trkpt lat="45.4230432" lon="7.6933261"><ele>591.0</ele><time>2026-03-28T14:57:15.952Z</time></trkpt><trkpt lat="45.4229513" lon="7.6931987"><ele>591.0</ele><time>2026-03-28T14:57:17.954Z</time></trkpt><trkpt lat="45.4228945" lon="7.6931411"><ele>591.0</ele><time>2026-03-28T14:57:18.957Z</time></trkpt><trkpt lat="45.4228289" lon="7.6930916"><ele>591.0</ele><time>2026-03-28T14:57:19.945Z</time></trkpt><trkpt lat="45.422767" lon="7.693038"><ele>591.0</ele><time>2026-03-28T14:57:20.943Z</time></trkpt><trkpt lat="45.4227044" lon="7.6929863"><ele>591.0</ele><time>2026-03-28T14:57:21.95Z</time></trkpt><trkpt lat="45.4226143" lon="7.6929015"><ele>591.0</ele><time>2026-03-28T14:57:23.957Z</time></trkpt><trkpt lat="45.422551" lon="7.6928383"><ele>591.0</ele><time>2026-03-28T14:57:25.95Z</time></trkpt><trkpt lat="45.4224946" lon="7.6927671"><ele>591.0</ele><time>2026-03-28T14:57:40.945Z</time></trkpt><trkpt lat="45.422457" lon="7.692682"><ele>591.0</ele><time>2026-03-28T14:57:48.942Z</time></trkpt><trkpt lat="45.422518" lon="7.6926473"><ele>591.0</ele><time>2026-03-28T14:58:03.948Z</time></trkpt><trkpt lat="45.4225743" lon="7.6927389"><ele>591.0</ele><time>2026-03-28T14:58:12.943Z</time></trkpt><trkpt lat="45.4226378" lon="7.692722"><ele>591.0</ele><time>2026-03-28T14:58:21.957Z</time></trkpt><trkpt lat="45.4225959" lon="7.6926509"><ele>591.0</ele><time>2026-03-28T14:58:26.948Z</time></trkpt><trkpt lat="45.4225322" lon="7.6925985"><ele>591.0</ele><time>2026-03-28T14:58:30.964Z</time></trkpt><trkpt lat="45.4225077" lon="7.692459"><ele>591.0</ele><time>2026-03-28T14:58:55.946Z</time></trkpt><trkpt lat="45.4224473" lon="7.6924225"><ele>591.0</ele><time>2026-03-28T14:59:36.953Z</time></trkpt><trkpt lat="45.4223685" lon="7.6924063"><ele>591.0</ele><time>2026-03-28T15:00:03.954Z</time></trkpt><trkpt lat="45.4222868" lon="7.6923393"><ele>591.0</ele><time>2026-03-28T15:00:06.952Z</time></trkpt><trkpt lat="45.4222369" lon="7.6922652"><ele>591.0</ele><time>2026-03-28T15:00:08.95Z</time></trkpt><trkpt lat="45.4221871" lon="7.6921764"><ele>591.0</ele><time>2026-03-28T15:00:10.961Z</time></trkpt><trkpt lat="45.4221284" lon="7.6920252"><ele>591.0</ele><time>2026-03-28T15:00:12.959Z</time></trkpt><trkpt lat="45.4221083" lon="7.6919295"><ele>589.4285714285714</ele><time>2026-03-28T15:00:13.959Z</time></trkpt><trkpt lat="45.4220802" lon="7.6918231"><ele>587.8571428571429</ele><time>2026-03-28T15:00:14.951Z</time></trkpt><trkpt lat="45.4220633" lon="7.6917082"><ele>586.2857142857143</ele><time>2026-03-28T15:00:15.956Z</time></trkpt><trkpt lat="45.4220463" lon="7.6916088"><ele>584.7142857142858</ele><time>2026-03-28T15:00:16.946Z</time></trkpt><trkpt lat="45.4220261" lon="7.6915156"><ele>583.1428571428572</ele><time>2026-03-28T15:00:17.95Z</time></trkpt><trkpt lat="45.4219974" lon="7.6914298"><ele>581.5714285714286</ele><time>2026-03-28T15:00:18.945Z</time></trkpt><trkpt lat="45.4219561" lon="7.6913592"><ele>580.0</ele><time>2026-03-28T15:00:19.955Z</time></trkpt><trkpt lat="45.421906" lon="7.6912799"><ele>580.0</ele><time>2026-03-28T15:00:20.95Z</time></trkpt><trkpt lat="45.4218498" lon="7.6912115"><ele>580.0</ele><time>2026-03-28T15:00:21.947Z</time></trkpt><trkpt lat="45.4217976" lon="7.691147"><ele>580.0</ele><time>2026-03-28T15:00:22.955Z</time></trkpt><trkpt lat="45.421746" lon="7.6910808"><ele>580.0</ele><time>2026-03-28T15:00:23.952Z</time></trkpt><trkpt lat="45.4216929" lon="7.6910106"><ele>580.0</ele><time>2026-03-28T15:00:24.951Z</time></trkpt><trkpt lat="45.4216327" lon="7.6909351"><ele>580.0</ele><time>2026-03-28T15:00:25.953Z</time></trkpt><trkpt lat="45.421564" lon="7.6908629"><ele>580.5</ele><time>2026-03-28T15:00:26.962Z</time></trkpt><trkpt lat="45.4214908" lon="7.690792"><ele>581.0</ele><time>2026-03-28T15:00:27.954Z</time></trkpt><trkpt lat="45.4214223" lon="7.6907196"><ele>581.5</ele><time>2026-03-28T15:00:28.954Z</time></trkpt><trkpt lat="45.4213586" lon="7.6906584"><ele>582.0</ele><time>2026-03-28T15:00:29.944Z</time></trkpt><trkpt lat="45.4213013" lon="7.6905912"><ele>582.5</ele><time>2026-03-28T15:00:30.953Z</time></trkpt><trkpt lat="45.4212542" lon="7.690512"><ele>583.0</ele><time>2026-03-28T15:00:31.952Z</time></trkpt><trkpt lat="45.4211828" lon="7.6903812"><ele>580.6666666666667</ele><time>2026-03-28T15:00:33.953Z</time></trkpt><trkpt lat="45.4211502" lon="7.6902627"><ele>578.3333333333334</ele><time>2026-03-28T15:00:35.954Z</time></trkpt><trkpt lat="45.421145" lon="7.690152"><ele>576.0</ele><time>2026-03-28T15:00:39.946Z</time></trkpt><trkpt lat="45.4211395" lon="7.6900555"><ele>573.6666666666666</ele><time>2026-03-28T15:00:52.949Z</time></trkpt><trkpt lat="45.4211664" lon="7.6899614"><ele>571.3333333333333</ele><time>2026-03-28T15:01:06.945Z</time></trkpt><trkpt lat="45.4212271" lon="7.6898956"><ele>569.0</ele><time>2026-03-28T15:01:08.951Z</time></trkpt><trkpt lat="45.4213009" lon="7.6897588"><ele>567.6</ele><time>2026-03-28T15:01:10.949Z</time></trkpt><trkpt lat="45.4213481" lon="7.6896709"><ele>566.2</ele><time>2026-03-28T15:01:12.954Z</time></trkpt><trkpt lat="45.421247" lon="7.6896924"><ele>564.8000000000001</ele><time>2026-03-28T15:01:17.951Z</time></trkpt><trkpt lat="45.4211595" lon="7.6897378"><ele>563.4</ele><time>2026-03-28T15:01:19.948Z</time></trkpt><trkpt lat="45.4210521" lon="7.6897842"><ele>562.0</ele><time>2026-03-28T15:01:21.948Z</time></trkpt><trkpt lat="45.4209362" lon="7.6898201"><ele>562.0</ele><time>2026-03-28T15:01:23.953Z</time></trkpt><trkpt lat="45.4208137" lon="7.689801"><ele>562.0</ele><time>2026-03-28T15:01:25.949Z</time></trkpt><trkpt lat="45.4206911" lon="7.6897414"><ele>562.0</ele><time>2026-03-28T15:01:27.951Z</time></trkpt><trkpt lat="45.4206302" lon="7.689684"><ele>562.0</ele><time>2026-03-28T15:01:28.948Z</time></trkpt><trkpt lat="45.4205666" lon="7.6896332"><ele>562.0</ele><time>2026-03-28T15:01:29.948Z</time></trkpt><trkpt lat="45.4205074" lon="7.6895827"><ele>562.5</ele><time>2026-03-28T15:01:30.95Z</time></trkpt><trkpt lat="45.4204458" lon="7.6895294"><ele>563.0</ele><time>2026-03-28T15:01:31.959Z</time></trkpt><trkpt lat="45.4203854" lon="7.6894763"><ele>563.5</ele><time>2026-03-28T15:01:32.95Z</time></trkpt><trkpt lat="45.4203209" lon="7.6894256"><ele>564.0</ele><time>2026-03-28T15:01:33.954Z</time></trkpt><trkpt lat="45.4202151" lon="7.6893528"><ele>564.5</ele><time>2026-03-28T15:01:35.957Z</time></trkpt><trkpt lat="45.4201437" lon="7.689313"><ele>565.0</ele><time>2026-03-28T15:01:36.951Z</time></trkpt><trkpt lat="45.4200673" lon="7.6892677"><ele>565.3333333333334</ele><time>2026-03-28T15:01:37.943Z</time></trkpt><trkpt lat="45.4199939" lon="7.6892265"><ele>565.6666666666667</ele><time>2026-03-28T15:01:38.957Z</time></trkpt><trkpt lat="45.4199353" lon="7.6891867"><ele>566.0</ele><time>2026-03-28T15:01:39.953Z</time></trkpt><trkpt lat="45.4198311" lon="7.6891627"><ele>566.3333333333334</ele><time>2026-03-28T15:01:41.958Z</time></trkpt><trkpt lat="45.4197443" lon="7.6891331"><ele>566.6666666666666</ele><time>2026-03-28T15:01:43.951Z</time></trkpt><trkpt lat="45.4196591" lon="7.6890751"><ele>567.0</ele><time>2026-03-28T15:01:45.957Z</time></trkpt><trkpt lat="45.4196025" lon="7.6889587"><ele>567.1666666666666</ele><time>2026-03-28T15:01:47.951Z</time></trkpt><trkpt lat="45.4195642" lon="7.6888598"><ele>567.3333333333334</ele><time>2026-03-28T15:01:49.959Z</time></trkpt><trkpt lat="45.4195323" lon="7.6887103"><ele>567.5</ele><time>2026-03-28T15:01:51.955Z</time></trkpt><trkpt lat="45.4195022" lon="7.6885599"><ele>567.6666666666667</ele><time>2026-03-28T15:01:53.952Z</time></trkpt><trkpt lat="45.4194776" lon="7.6884773"><ele>567.8333333333334</ele><time>2026-03-28T15:01:54.962Z</time></trkpt><trkpt lat="45.4194524" lon="7.688393"><ele>568.0</ele><time>2026-03-28T15:01:55.957Z</time></trkpt><trkpt lat="45.4194199" lon="7.6883117"><ele>566.5</ele><time>2026-03-28T15:01:56.954Z</time></trkpt><trkpt lat="45.4193809" lon="7.6882273"><ele>565.0</ele><time>2026-03-28T15:01:57.95Z</time></trkpt><trkpt lat="45.419338" lon="7.6881332"><ele>563.5</ele><time>2026-03-28T15:01:58.952Z</time></trkpt><trkpt lat="45.4192917" lon="7.6880428"><ele>562.0</ele><time>2026-03-28T15:01:59.954Z</time></trkpt><trkpt lat="45.4192558" lon="7.687952"><ele>560.5</ele><time>2026-03-28T15:02:00.952Z</time></trkpt><trkpt lat="45.4192213" lon="7.6878622"><ele>559.0</ele><time>2026-03-28T15:02:01.953Z</time></trkpt><trkpt lat="45.4191895" lon="7.6877578"><ele>559.0</ele><time>2026-03-28T15:02:02.947Z</time></trkpt><trkpt lat="45.4191507" lon="7.6876557"><ele>559.0</ele><time>2026-03-28T15:02:03.963Z</time></trkpt><trkpt lat="45.4191155" lon="7.687558"><ele>559.0</ele><time>2026-03-28T15:02:04.95Z</time></trkpt><trkpt lat="45.4190777" lon="7.6874813"><ele>559.0</ele><time>2026-03-28T15:02:05.949Z</time></trkpt><trkpt lat="45.4190344" lon="7.68741"><ele>559.0</ele><time>2026-03-28T15:02:06.958Z</time></trkpt><trkpt lat="45.4189907" lon="7.6873428"><ele>559.0</ele><time>2026-03-28T15:02:07.939Z</time></trkpt><trkpt lat="45.4189437" lon="7.6872647"><ele>559.0</ele><time>2026-03-28T15:02:08.959Z</time></trkpt><trkpt lat="45.4188967" lon="7.6871742"><ele>559.0</ele><time>2026-03-28T15:02:09.964Z</time></trkpt><trkpt lat="45.418844" lon="7.687086"><ele>559.0</ele><time>2026-03-28T15:02:10.951Z</time></trkpt><trkpt lat="45.4187981" lon="7.6870145"><ele>559.0</ele><time>2026-03-28T15:02:11.961Z</time></trkpt><trkpt lat="45.4187156" lon="7.6869038"><ele>559.0</ele><time>2026-03-28T15:02:13.946Z</time></trkpt><trkpt lat="45.418659" lon="7.6867697"><ele>559.0</ele><time>2026-03-28T15:02:15.953Z</time></trkpt><trkpt lat="45.4185925" lon="7.6866427"><ele>557.8333333333334</ele><time>2026-03-28T15:02:17.957Z</time></trkpt><trkpt lat="45.4185149" lon="7.6865369"><ele>556.6666666666667</ele><time>2026-03-28T15:02:19.953Z</time></trkpt><trkpt lat="45.4184304" lon="7.6864687"><ele>555.5</ele><time>2026-03-28T15:02:21.954Z</time></trkpt><trkpt lat="45.41837" lon="7.6864033"><ele>554.3333333333334</ele><time>2026-03-28T15:02:23.954Z</time></trkpt><trkpt lat="45.4182905" lon="7.6863537"><ele>553.1666666666666</ele><time>2026-03-28T15:02:25.958Z</time></trkpt><trkpt lat="45.4182176" lon="7.6863101"><ele>552.0</ele><time>2026-03-28T15:02:27.957Z</time></trkpt><trkpt lat="45.4181398" lon="7.6863433"><ele>552.0</ele><time>2026-03-28T15:02:29.949Z</time></trkpt><trkpt lat="45.4180585" lon="7.6864239"><ele>552.0</ele><time>2026-03-28T15:02:31.962Z</time></trkpt><trkpt lat="45.4179655" lon="7.6864866"><ele>552.0</ele><time>2026-03-28T15:02:33.955Z</time></trkpt><trkpt lat="45.4178923" lon="7.6865759"><ele>552.0</ele><time>2026-03-28T15:02:35.953Z</time></trkpt><trkpt lat="45.4178823" lon="7.6867094"><ele>552.0</ele><time>2026-03-28T15:02:37.956Z</time></trkpt><trkpt lat="45.4179087" lon="7.6868732"><ele>551.3333333333334</ele><time>2026-03-28T15:02:39.945Z</time></trkpt><trkpt lat="45.4179312" lon="7.6870211"><ele>550.6666666666666</ele><time>2026-03-28T15:02:41.952Z</time></trkpt><trkpt lat="45.4179687" lon="7.6871447"><ele>550.0</ele><time>2026-03-28T15:02:43.954Z</time></trkpt><trkpt lat="45.418015" lon="7.6872214"><ele>549.3333333333333</ele><time>2026-03-28T15:02:45.965Z</time></trkpt><trkpt lat="45.4180899" lon="7.6872496"><ele>548.6666666666666</ele><time>2026-03-28T15:02:48.951Z</time></trkpt><trkpt lat="45.4180233" lon="7.6872585"><ele>548.0</ele><time>2026-03-28T15:07:26.95Z</time></trkpt><trkpt lat="45.4179632" lon="7.6871803"><ele>547.1666666666666</ele><time>2026-03-28T15:07:29.953Z</time></trkpt><trkpt lat="45.4179124" lon="7.6870527"><ele>546.3333333333333</ele><time>2026-03-28T15:07:31.957Z</time></trkpt><trkpt lat="45.417896" lon="7.6869556"><ele>545.5</ele><time>2026-03-28T15:07:32.951Z</time></trkpt><trkpt lat="45.4178889" lon="7.6868375"><ele>544.6666666666666</ele><time>2026-03-28T15:07:33.956Z</time></trkpt><trkpt lat="45.4178961" lon="7.6867287"><ele>543.8333333333334</ele><time>2026-03-28T15:07:34.948Z</time></trkpt><trkpt lat="45.4178935" lon="7.6865795"><ele>543.0</ele><time>2026-03-28T15:07:36.953Z</time></trkpt><trkpt lat="45.4179242" lon="7.6864536"><ele>542.6666666666666</ele><time>2026-03-28T15:07:38.956Z</time></trkpt><trkpt lat="45.4180235" lon="7.6863225"><ele>542.3333333333334</ele><time>2026-03-28T15:07:40.957Z</time></trkpt><trkpt lat="45.418077" lon="7.6862694"><ele>542.0</ele><time>2026-03-28T15:07:41.953Z</time></trkpt><trkpt lat="45.4181364" lon="7.6862206"><ele>541.6666666666667</ele><time>2026-03-28T15:07:42.954Z</time></trkpt><trkpt lat="45.4181996" lon="7.6861763"><ele>541.3333333333334</ele><time>2026-03-28T15:07:43.961Z</time></trkpt><trkpt lat="45.4182664" lon="7.6861256"><ele>541.0</ele><time>2026-03-28T15:07:44.947Z</time></trkpt><trkpt lat="45.4183372" lon="7.6860527"><ele>541.0</ele><time>2026-03-28T15:07:45.951Z</time></trkpt><trkpt lat="45.4184071" lon="7.6859718"><ele>541.0</ele><time>2026-03-28T15:07:46.947Z</time></trkpt><trkpt lat="45.4184769" lon="7.6858815"><ele>541.0</ele><time>2026-03-28T15:07:47.954Z</time></trkpt><trkpt lat="45.4185511" lon="7.6857878"><ele>541.0</ele><time>2026-03-28T15:07:48.955Z</time></trkpt><trkpt lat="45.4186214" lon="7.6856933"><ele>541.0</ele><time>2026-03-28T15:07:49.967Z</time></trkpt><trkpt lat="45.4186857" lon="7.6855849"><ele>541.0</ele><time>2026-03-28T15:07:50.951Z</time></trkpt><trkpt lat="45.4187353" lon="7.6854634"><ele>541.0</ele><time>2026-03-28T15:07:51.956Z</time></trkpt><trkpt lat="45.418775" lon="7.6853226"><ele>541.0</ele><time>2026-03-28T15:07:52.942Z</time></trkpt><trkpt lat="45.4187991" lon="7.6851678"><ele>541.0</ele><time>2026-03-28T15:07:53.951Z</time></trkpt><trkpt lat="45.4188152" lon="7.6850171"><ele>541.0</ele><time>2026-03-28T15:07:54.954Z</time></trkpt><trkpt lat="45.4188403" lon="7.6848719"><ele>541.4</ele><time>2026-03-28T15:07:55.947Z</time></trkpt><trkpt lat="45.41886" lon="7.6847416"><ele>541.8</ele><time>2026-03-28T15:07:56.952Z</time></trkpt><trkpt lat="45.4188836" lon="7.684621"><ele>542.1999999999999</ele><time>2026-03-28T15:07:57.956Z</time></trkpt><trkpt lat="45.4189167" lon="7.6845137"><ele>542.6</ele><time>2026-03-28T15:07:58.952Z</time></trkpt><trkpt lat="45.4189718" lon="7.6844052"><ele>543.0</ele><time>2026-03-28T15:07:59.952Z</time></trkpt><trkpt lat="45.4190452" lon="7.6843209"><ele>543.0</ele><time>2026-03-28T15:08:00.949Z</time></trkpt><trkpt lat="45.4191208" lon="7.6842653"><ele>543.0</ele><time>2026-03-28T15:08:01.948Z</time></trkpt><trkpt lat="45.4191849" lon="7.6841966"><ele>543.0</ele><time>2026-03-28T15:08:02.959Z</time></trkpt><trkpt lat="45.4192252" lon="7.6841043"><ele>543.0</ele><time>2026-03-28T15:08:03.946Z</time></trkpt><trkpt lat="45.4192582" lon="7.6839813"><ele>543.0</ele><time>2026-03-28T15:08:04.96Z</time></trkpt><trkpt lat="45.4192827" lon="7.6838155"><ele>543.0</ele><time>2026-03-28T15:08:05.94Z</time></trkpt><trkpt lat="45.4192983" lon="7.6836214"><ele>543.0</ele><time>2026-03-28T15:08:06.951Z</time></trkpt><trkpt lat="45.4192986" lon="7.6833883"><ele>543.0</ele><time>2026-03-28T15:08:07.939Z</time></trkpt><trkpt lat="45.4193037" lon="7.6831368"><ele>545.3333333333334</ele><time>2026-03-28T15:08:08.959Z</time></trkpt><trkpt lat="45.4193063" lon="7.6828818"><ele>547.6666666666667</ele><time>2026-03-28T15:08:09.95Z</time></trkpt><trkpt lat="45.4192944" lon="7.6826273"><ele>550.0</ele><time>2026-03-28T15:08:10.955Z</time></trkpt><trkpt lat="45.4192914" lon="7.6824003"><ele>550.75</ele><time>2026-03-28T15:08:11.952Z</time></trkpt><trkpt lat="45.4192823" lon="7.6822042"><ele>551.5</ele><time>2026-03-28T15:08:12.949Z</time></trkpt><trkpt lat="45.4192777" lon="7.682034"><ele>552.25</ele><time>2026-03-28T15:08:13.957Z</time></trkpt><trkpt lat="45.4192721" lon="7.681862"><ele>553.0</ele><time>2026-03-28T15:08:14.957Z</time></trkpt><trkpt lat="45.419262" lon="7.6816853"><ele>553.5</ele><time>2026-03-28T15:08:15.955Z</time></trkpt><trkpt lat="45.4192515" lon="7.6814979"><ele>554.0</ele><time>2026-03-28T15:08:16.953Z</time></trkpt><trkpt lat="45.4192427" lon="7.6812926"><ele>554.5</ele><time>2026-03-28T15:08:17.949Z</time></trkpt><trkpt lat="45.4192392" lon="7.6810814"><ele>555.0</ele><time>2026-03-28T15:08:18.96Z</time></trkpt><trkpt lat="45.4192383" lon="7.6808657"><ele>555.3333333333334</ele><time>2026-03-28T15:08:19.958Z</time></trkpt><trkpt lat="45.4192425" lon="7.6806409"><ele>555.6666666666667</ele><time>2026-03-28T15:08:20.951Z</time></trkpt><trkpt lat="45.4192403" lon="7.6804061"><ele>556.0</ele><time>2026-03-28T15:08:21.953Z</time></trkpt><trkpt lat="45.4192322" lon="7.6801761"><ele>555.3333333333334</ele><time>2026-03-28T15:08:22.955Z</time></trkpt><trkpt lat="45.4192285" lon="7.6799549"><ele>554.6666666666666</ele><time>2026-03-28T15:08:23.951Z</time></trkpt><trkpt lat="45.4192397" lon="7.6797299"><ele>554.0</ele><time>2026-03-28T15:08:24.956Z</time></trkpt><trkpt lat="45.4192551" lon="7.6795056"><ele>554.6666666666666</ele><time>2026-03-28T15:08:25.955Z</time></trkpt><trkpt lat="45.4192781" lon="7.6792781"><ele>555.3333333333334</ele><time>2026-03-28T15:08:26.957Z</time></trkpt><trkpt lat="45.4193094" lon="7.6790542"><ele>556.0</ele><time>2026-03-28T15:08:27.951Z</time></trkpt><trkpt lat="45.4193402" lon="7.6788363"><ele>556.0</ele><time>2026-03-28T15:08:28.961Z</time></trkpt><trkpt lat="45.4193649" lon="7.6786332"><ele>556.0</ele><time>2026-03-28T15:08:29.948Z</time></trkpt><trkpt lat="45.4193892" lon="7.6784492"><ele>556.0</ele><time>2026-03-28T15:08:30.953Z</time></trkpt><trkpt lat="45.419412" lon="7.6782853"><ele>556.0</ele><time>2026-03-28T15:08:31.961Z</time></trkpt><trkpt lat="45.4194298" lon="7.6781431"><ele>556.8333333333334</ele><time>2026-03-28T15:08:32.957Z</time></trkpt><trkpt lat="45.4194467" lon="7.6780218"><ele>557.6666666666667</ele><time>2026-03-28T15:08:33.955Z</time></trkpt><trkpt lat="45.4194593" lon="7.677925"><ele>558.5</ele><time>2026-03-28T15:08:34.96Z</time></trkpt><trkpt lat="45.4194724" lon="7.6778298"><ele>559.3333333333334</ele><time>2026-03-28T15:08:36.944Z</time></trkpt><trkpt lat="45.4194241" lon="7.6777623"><ele>560.1666666666666</ele><time>2026-03-28T15:08:39.948Z</time></trkpt><trkpt lat="45.4193567" lon="7.6777254"><ele>561.0</ele><time>2026-03-28T15:08:40.957Z</time></trkpt><trkpt lat="45.4192508" lon="7.6776554"><ele>561.75</ele><time>2026-03-28T15:08:41.96Z</time></trkpt><trkpt lat="45.4191396" lon="7.6776003"><ele>562.5</ele><time>2026-03-28T15:08:42.94Z</time></trkpt><trkpt lat="45.4190232" lon="7.6775521"><ele>563.25</ele><time>2026-03-28T15:08:43.952Z</time></trkpt><trkpt lat="45.4189146" lon="7.6774908"><ele>564.0</ele><time>2026-03-28T15:08:44.941Z</time></trkpt><trkpt lat="45.418821" lon="7.6774002"><ele>562.6</ele><time>2026-03-28T15:08:45.957Z</time></trkpt><trkpt lat="45.4187395" lon="7.6773148"><ele>561.2</ele><time>2026-03-28T15:08:46.955Z</time></trkpt><trkpt lat="45.418659" lon="7.6772219"><ele>559.8000000000001</ele><time>2026-03-28T15:08:47.954Z</time></trkpt><trkpt lat="45.4185756" lon="7.6771409"><ele>558.4</ele><time>2026-03-28T15:08:48.95Z</time></trkpt><trkpt lat="45.4184911" lon="7.6770755"><ele>557.0</ele><time>2026-03-28T15:08:49.963Z</time></trkpt><trkpt lat="45.4184088" lon="7.6770307"><ele>557.0</ele><time>2026-03-28T15:08:50.956Z</time></trkpt><trkpt lat="45.4183148" lon="7.6770174"><ele>557.0</ele><time>2026-03-28T15:08:51.962Z</time></trkpt><trkpt lat="45.4181994" lon="7.6770357"><ele>557.0</ele><time>2026-03-28T15:08:52.951Z</time></trkpt><trkpt lat="45.4180897" lon="7.6770687"><ele>557.0</ele><time>2026-03-28T15:08:53.953Z</time></trkpt><trkpt lat="45.4179969" lon="7.6770998"><ele>557.0</ele><time>2026-03-28T15:08:54.953Z</time></trkpt><trkpt lat="45.4179291" lon="7.6771069"><ele>556.6</ele><time>2026-03-28T15:08:55.943Z</time></trkpt><trkpt lat="45.4178529" lon="7.6770362"><ele>556.2</ele><time>2026-03-28T15:08:57.95Z</time></trkpt><trkpt lat="45.4178847" lon="7.6768971"><ele>555.8</ele><time>2026-03-28T15:08:59.957Z</time></trkpt><trkpt lat="45.4179625" lon="7.6768586"><ele>555.4</ele><time>2026-03-28T15:09:00.948Z</time></trkpt><trkpt lat="45.4180693" lon="7.676842"><ele>555.0</ele><time>2026-03-28T15:09:01.942Z</time></trkpt><trkpt lat="45.4182066" lon="7.6768374"><ele>553.3333333333334</ele><time>2026-03-28T15:09:02.955Z</time></trkpt><trkpt lat="45.4183651" lon="7.6768261"><ele>551.6666666666667</ele><time>2026-03-28T15:09:03.957Z</time></trkpt><trkpt lat="45.418543" lon="7.6768281"><ele>550.0</ele><time>2026-03-28T15:09:04.952Z</time></trkpt><trkpt lat="45.4187255" lon="7.6768311"><ele>550.6666666666667</ele><time>2026-03-28T15:09:05.95Z</time></trkpt><trkpt lat="45.4189069" lon="7.6768205"><ele>551.3333333333334</ele><time>2026-03-28T15:09:06.953Z</time></trkpt><trkpt lat="45.4190807" lon="7.6768018"><ele>552.0</ele><time>2026-03-28T15:09:07.95Z</time></trkpt><trkpt lat="45.4192522" lon="7.6767779"><ele>552.0</ele><time>2026-03-28T15:09:08.951Z</time></trkpt><trkpt lat="45.4194182" lon="7.6767487"><ele>552.0</ele><time>2026-03-28T15:09:09.946Z</time></trkpt><trkpt lat="45.4195795" lon="7.6767339"><ele>552.0</ele><time>2026-03-28T15:09:10.952Z</time></trkpt><trkpt lat="45.4197366" lon="7.6767143"><ele>552.5</ele><time>2026-03-28T15:09:11.942Z</time></trkpt><trkpt lat="45.4198823" lon="7.6766921"><ele>553.0</ele><time>2026-03-28T15:09:12.949Z</time></trkpt><trkpt lat="45.4200178" lon="7.6766839"><ele>553.5</ele><time>2026-03-28T15:09:13.952Z</time></trkpt><trkpt lat="45.4201287" lon="7.6766768"><ele>554.0</ele><time>2026-03-28T15:09:14.951Z</time></trkpt><trkpt lat="45.4202207" lon="7.6766773"><ele>554.0</ele><time>2026-03-28T15:09:15.943Z</time></trkpt><trkpt lat="45.420294" lon="7.6766689"><ele>554.0</ele><time>2026-03-28T15:09:16.948Z</time></trkpt><trkpt lat="45.4203935" lon="7.6766083"><ele>554.0</ele><time>2026-03-28T15:09:18.96Z</time></trkpt><trkpt lat="45.4203778" lon="7.6765079"><ele>554.0</ele><time>2026-03-28T15:09:20.937Z</time></trkpt><trkpt lat="45.4203248" lon="7.6764528"><ele>554.0</ele><time>2026-03-28T15:09:21.947Z</time></trkpt><trkpt lat="45.4202483" lon="7.6763993"><ele>554.0</ele><time>2026-03-28T15:09:22.947Z</time></trkpt><trkpt lat="45.4201199" lon="7.6763518"><ele>554.0</ele><time>2026-03-28T15:09:23.953Z</time></trkpt><trkpt lat="45.4199588" lon="7.6762685"><ele>554.0</ele><time>2026-03-28T15:09:24.954Z</time></trkpt><trkpt lat="45.4197835" lon="7.6761663"><ele>554.0</ele><time>2026-03-28T15:09:25.955Z</time></trkpt><trkpt lat="45.4196086" lon="7.6760528"><ele>549.6666666666666</ele><time>2026-03-28T15:09:26.953Z</time></trkpt><trkpt lat="45.4194384" lon="7.6759287"><ele>545.3333333333334</ele><time>2026-03-28T15:09:27.951Z</time></trkpt><trkpt lat="45.4192812" lon="7.6758034"><ele>541.0</ele><time>2026-03-28T15:09:28.955Z</time></trkpt><trkpt lat="45.4191385" lon="7.6756741"><ele>541.0</ele><time>2026-03-28T15:09:29.951Z</time></trkpt><trkpt lat="45.4189952" lon="7.6755416"><ele>541.0</ele><time>2026-03-28T15:09:30.951Z</time></trkpt><trkpt lat="45.418856" lon="7.6754102"><ele>541.0</ele><time>2026-03-28T15:09:31.951Z</time></trkpt><trkpt lat="45.418717" lon="7.6753015"><ele>539.6666666666667</ele><time>2026-03-28T15:09:32.941Z</time></trkpt><trkpt lat="45.418578" lon="7.6752044"><ele>538.3333333333334</ele><time>2026-03-28T15:09:33.956Z</time></trkpt><trkpt lat="45.4184344" lon="7.6751154"><ele>537.0</ele><time>2026-03-28T15:09:34.941Z</time></trkpt><trkpt lat="45.4182875" lon="7.6750466"><ele>537.0</ele><time>2026-03-28T15:09:35.952Z</time></trkpt><trkpt lat="45.418148" lon="7.6749743"><ele>537.0</ele><time>2026-03-28T15:09:36.946Z</time></trkpt><trkpt lat="45.4180188" lon="7.6748865"><ele>537.0</ele><time>2026-03-28T15:09:37.951Z</time></trkpt><trkpt lat="45.4178914" lon="7.6747745"><ele>537.0</ele><time>2026-03-28T15:09:38.94Z</time></trkpt><trkpt lat="45.4177739" lon="7.6746492"><ele>537.75</ele><time>2026-03-28T15:09:39.954Z</time></trkpt><trkpt lat="45.417665" lon="7.6745187"><ele>538.5</ele><time>2026-03-28T15:09:40.944Z</time></trkpt><trkpt lat="45.4175633" lon="7.6743746"><ele>539.25</ele><time>2026-03-28T15:09:41.957Z</time></trkpt><trkpt lat="45.4174719" lon="7.6742273"><ele>540.0</ele><time>2026-03-28T15:09:42.952Z</time></trkpt><trkpt lat="45.4174028" lon="7.6740677"><ele>540.0</ele><time>2026-03-28T15:09:43.951Z</time></trkpt><trkpt lat="45.417352" lon="7.6739031"><ele>540.0</ele><time>2026-03-28T15:09:44.957Z</time></trkpt><trkpt lat="45.4173173" lon="7.6737199"><ele>540.0</ele><time>2026-03-28T15:09:45.958Z</time></trkpt><trkpt lat="45.4172971" lon="7.6735145"><ele>540.0</ele><time>2026-03-28T15:09:46.949Z</time></trkpt><trkpt lat="45.4172881" lon="7.6732942"><ele>542.3333333333334</ele><time>2026-03-28T15:09:47.957Z</time></trkpt><trkpt lat="45.4172844" lon="7.6730502"><ele>544.6666666666667</ele><time>2026-03-28T15:09:48.953Z</time></trkpt><trkpt lat="45.4172787" lon="7.6727725"><ele>547.0</ele><time>2026-03-28T15:09:49.957Z</time></trkpt><trkpt lat="45.4172708" lon="7.6724672"><ele>547.3333333333334</ele><time>2026-03-28T15:09:50.946Z</time></trkpt><trkpt lat="45.4172612" lon="7.6721763"><ele>547.6666666666666</ele><time>2026-03-28T15:09:51.952Z</time></trkpt><trkpt lat="45.4172558" lon="7.6719209"><ele>548.0</ele><time>2026-03-28T15:09:52.954Z</time></trkpt><trkpt lat="45.4172485" lon="7.6716947"><ele>549.25</ele><time>2026-03-28T15:09:53.95Z</time></trkpt><trkpt lat="45.4172406" lon="7.671492"><ele>550.5</ele><time>2026-03-28T15:09:54.954Z</time></trkpt><trkpt lat="45.4172393" lon="7.6713132"><ele>551.75</ele><time>2026-03-28T15:09:55.951Z</time></trkpt><trkpt lat="45.4172574" lon="7.6711497"><ele>553.0</ele><time>2026-03-28T15:09:56.957Z</time></trkpt><trkpt lat="45.4172945" lon="7.6709983"><ele>553.5</ele><time>2026-03-28T15:09:57.959Z</time></trkpt><trkpt lat="45.4173499" lon="7.670834"><ele>554.0</ele><time>2026-03-28T15:09:58.947Z</time></trkpt><trkpt lat="45.4174291" lon="7.6706678"><ele>554.5</ele><time>2026-03-28T15:09:59.953Z</time></trkpt><trkpt lat="45.4175241" lon="7.6704808"><ele>555.0</ele><time>2026-03-28T15:10:00.953Z</time></trkpt><trkpt lat="45.417616" lon="7.670287"><ele>554.75</ele><time>2026-03-28T15:10:01.948Z</time></trkpt><trkpt lat="45.4176893" lon="7.6701001"><ele>554.5</ele><time>2026-03-28T15:10:02.95Z</time></trkpt><trkpt lat="45.4177388" lon="7.6699281"><ele>554.25</ele><time>2026-03-28T15:10:03.946Z</time></trkpt><trkpt lat="45.4177771" lon="7.6697639"><ele>554.0</ele><time>2026-03-28T15:10:04.959Z</time></trkpt><trkpt lat="45.4177998" lon="7.6696219"><ele>554.0</ele><time>2026-03-28T15:10:05.951Z</time></trkpt><trkpt lat="45.417792" lon="7.6695056"><ele>554.0</ele><time>2026-03-28T15:10:06.951Z</time></trkpt><trkpt lat="45.4177639" lon="7.6694159"><ele>554.0</ele><time>2026-03-28T15:10:07.954Z</time></trkpt><trkpt lat="45.4177174" lon="7.6693495"><ele>554.0</ele><time>2026-03-28T15:10:08.95Z</time></trkpt><trkpt lat="45.4176568" lon="7.6693114"><ele>554.0</ele><time>2026-03-28T15:10:09.941Z</time></trkpt><trkpt lat="45.4175901" lon="7.6693172"><ele>554.0</ele><time>2026-03-28T15:10:10.956Z</time></trkpt><trkpt lat="45.4175202" lon="7.6693262"><ele>554.0</ele><time>2026-03-28T15:10:11.952Z</time></trkpt><trkpt lat="45.4174307" lon="7.6693242"><ele>554.75</ele><time>2026-03-28T15:10:12.949Z</time></trkpt><trkpt lat="45.4173313" lon="7.6692744"><ele>555.5</ele><time>2026-03-28T15:10:13.954Z</time></trkpt><trkpt lat="45.4172223" lon="7.6691901"><ele>556.25</ele><time>2026-03-28T15:10:14.947Z</time></trkpt><trkpt lat="45.4170887" lon="7.6690848"><ele>557.0</ele><time>2026-03-28T15:10:15.957Z</time></trkpt><trkpt lat="45.4169438" lon="7.6689775"><ele>557.0</ele><time>2026-03-28T15:10:16.945Z</time></trkpt><trkpt lat="45.416825" lon="7.6689096"><ele>557.0</ele><time>2026-03-28T15:10:17.955Z</time></trkpt><trkpt lat="45.416713" lon="7.6688728"><ele>557.0</ele><time>2026-03-28T15:10:18.954Z</time></trkpt><trkpt lat="45.4166009" lon="7.6688792"><ele>557.0</ele><time>2026-03-28T15:10:19.955Z</time></trkpt><trkpt lat="45.4164971" lon="7.6688903"><ele>557.0</ele><time>2026-03-28T15:10:20.948Z</time></trkpt><trkpt lat="45.4164068" lon="7.6689009"><ele>557.0</ele><time>2026-03-28T15:10:21.949Z</time></trkpt><trkpt lat="45.4163276" lon="7.6688605"><ele>557.0</ele><time>2026-03-28T15:10:22.965Z</time></trkpt><trkpt lat="45.4162652" lon="7.6687922"><ele>557.0</ele><time>2026-03-28T15:10:23.958Z</time></trkpt><trkpt lat="45.4162174" lon="7.6687039"><ele>557.0</ele><time>2026-03-28T15:10:24.951Z</time></trkpt><trkpt lat="45.416171" lon="7.6685799"><ele>557.0</ele><time>2026-03-28T15:10:25.953Z</time></trkpt><trkpt lat="45.4161059" lon="7.6684402"><ele>557.5</ele><time>2026-03-28T15:10:26.96Z</time></trkpt><trkpt lat="45.416039" lon="7.6683112"><ele>558.0</ele><time>2026-03-28T15:10:27.961Z</time></trkpt><trkpt lat="45.4159534" lon="7.6681904"><ele>558.5</ele><time>2026-03-28T15:10:28.949Z</time></trkpt><trkpt lat="45.4158563" lon="7.6680991"><ele>559.0</ele><time>2026-03-28T15:10:29.962Z</time></trkpt><trkpt lat="45.415755" lon="7.6680406"><ele>559.0</ele><time>2026-03-28T15:10:30.951Z</time></trkpt><trkpt lat="45.4156715" lon="7.6680053"><ele>559.0</ele><time>2026-03-28T15:10:31.948Z</time></trkpt><trkpt lat="45.4155941" lon="7.6679972"><ele>559.0</ele><time>2026-03-28T15:10:32.952Z</time></trkpt><trkpt lat="45.4155077" lon="7.6680311"><ele>559.0</ele><time>2026-03-28T15:10:33.952Z</time></trkpt><trkpt lat="45.4154151" lon="7.668109"><ele>559.0</ele><time>2026-03-28T15:10:34.953Z</time></trkpt><trkpt lat="45.4153081" lon="7.6682078"><ele>557.3333333333334</ele><time>2026-03-28T15:10:35.954Z</time></trkpt><trkpt lat="45.4152353" lon="7.6682812"><ele>555.6666666666667</ele><time>2026-03-28T15:10:36.954Z</time></trkpt><trkpt lat="45.4151782" lon="7.668325"><ele>554.0</ele><time>2026-03-28T15:10:37.953Z</time></trkpt><trkpt lat="45.41508" lon="7.6682963"><ele>552.3333333333334</ele><time>2026-03-28T15:10:39.957Z</time></trkpt><trkpt lat="45.4150761" lon="7.6681628"><ele>550.6666666666666</ele><time>2026-03-28T15:10:41.947Z</time></trkpt><trkpt lat="45.4150988" lon="7.6680785"><ele>549.0</ele><time>2026-03-28T15:10:42.959Z</time></trkpt><trkpt lat="45.4151799" lon="7.6679826"><ele>549.0</ele><time>2026-03-28T15:10:43.951Z</time></trkpt><trkpt lat="45.4152924" lon="7.6678817"><ele>549.0</ele><time>2026-03-28T15:10:44.954Z</time></trkpt><trkpt lat="45.4153887" lon="7.667782"><ele>549.0</ele><time>2026-03-28T15:10:45.953Z</time></trkpt><trkpt lat="45.4154642" lon="7.6676939"><ele>549.0</ele><time>2026-03-28T15:10:46.953Z</time></trkpt><trkpt lat="45.4155165" lon="7.6676206"><ele>549.0</ele><time>2026-03-28T15:10:47.951Z</time></trkpt><trkpt lat="45.4155156" lon="7.667496"><ele>548.5</ele><time>2026-03-28T15:10:49.944Z</time></trkpt><trkpt lat="45.4154474" lon="7.6674224"><ele>548.0</ele><time>2026-03-28T15:10:51.956Z</time></trkpt><trkpt lat="45.415359" lon="7.6674624"><ele>547.5</ele><time>2026-03-28T15:10:52.95Z</time></trkpt><trkpt lat="45.4152328" lon="7.6675224"><ele>547.0</ele><time>2026-03-28T15:10:53.95Z</time></trkpt><trkpt lat="45.415069" lon="7.6675915"><ele>547.0</ele><time>2026-03-28T15:10:54.96Z</time></trkpt><trkpt lat="45.4148936" lon="7.6676623"><ele>547.0</ele><time>2026-03-28T15:10:55.945Z</time></trkpt><trkpt lat="45.4147092" lon="7.6677221"><ele>547.0</ele><time>2026-03-28T15:10:56.96Z</time></trkpt><trkpt lat="45.4145244" lon="7.6677558"><ele>545.0</ele><time>2026-03-28T15:10:57.952Z</time></trkpt><trkpt lat="45.414342" lon="7.6677934"><ele>543.0</ele><time>2026-03-28T15:10:58.956Z</time></trkpt><trkpt lat="45.414163" lon="7.6678254"><ele>541.0</ele><time>2026-03-28T15:10:59.948Z</time></trkpt><trkpt lat="45.4139903" lon="7.6678483"><ele>541.0</ele><time>2026-03-28T15:11:00.954Z</time></trkpt><trkpt lat="45.4138269" lon="7.6678681"><ele>541.0</ele><time>2026-03-28T15:11:01.955Z</time></trkpt><trkpt lat="45.4136799" lon="7.667897"><ele>541.0</ele><time>2026-03-28T15:11:02.948Z</time></trkpt><trkpt lat="45.4135425" lon="7.6679516"><ele>539.6666666666667</ele><time>2026-03-28T15:11:03.952Z</time></trkpt><trkpt lat="45.4133916" lon="7.6680526"><ele>538.3333333333334</ele><time>2026-03-28T15:11:04.954Z</time></trkpt><trkpt lat="45.4132441" lon="7.668206"><ele>537.0</ele><time>2026-03-28T15:11:05.956Z</time></trkpt><trkpt lat="45.4130938" lon="7.6683537"><ele>536.3333333333334</ele><time>2026-03-28T15:11:06.948Z</time></trkpt><trkpt lat="45.4129496" lon="7.6684927"><ele>535.6666666666667</ele><time>2026-03-28T15:11:07.958Z</time></trkpt><trkpt lat="45.4127994" lon="7.6686196"><ele>535.0</ele><time>2026-03-28T15:11:08.954Z</time></trkpt><trkpt lat="45.4126446" lon="7.6687377"><ele>533.3333333333334</ele><time>2026-03-28T15:11:09.95Z</time></trkpt><trkpt lat="45.4124776" lon="7.6688427"><ele>531.6666666666666</ele><time>2026-03-28T15:11:10.946Z</time></trkpt><trkpt lat="45.4123132" lon="7.6689397"><ele>530.0</ele><time>2026-03-28T15:11:11.955Z</time></trkpt><trkpt lat="45.4121508" lon="7.6690394"><ele>530.0</ele><time>2026-03-28T15:11:12.951Z</time></trkpt><trkpt lat="45.4119917" lon="7.6691562"><ele>530.0</ele><time>2026-03-28T15:11:13.956Z</time></trkpt><trkpt lat="45.4118339" lon="7.6692773"><ele>530.0</ele><time>2026-03-28T15:11:14.951Z</time></trkpt><trkpt lat="45.4116808" lon="7.6693915"><ele>527.0</ele><time>2026-03-28T15:11:15.947Z</time></trkpt><trkpt lat="45.4115314" lon="7.6695082"><ele>524.0</ele><time>2026-03-28T15:11:16.957Z</time></trkpt><trkpt lat="45.4113875" lon="7.6696222"><ele>521.0</ele><time>2026-03-28T15:11:17.949Z</time></trkpt><trkpt lat="45.4112495" lon="7.6697233"><ele>521.0</ele><time>2026-03-28T15:11:18.948Z</time></trkpt><trkpt lat="45.411119" lon="7.6698222"><ele>521.0</ele><time>2026-03-28T15:11:19.951Z</time></trkpt><trkpt lat="45.4109993" lon="7.6699081"><ele>521.0</ele><time>2026-03-28T15:11:20.961Z</time></trkpt><trkpt lat="45.4109026" lon="7.6699692"><ele>521.0</ele><time>2026-03-28T15:11:21.947Z</time></trkpt><trkpt lat="45.4108158" lon="7.6700101"><ele>521.0</ele><time>2026-03-28T15:11:22.952Z</time></trkpt><trkpt lat="45.4107464" lon="7.6700196"><ele>521.0</ele><time>2026-03-28T15:11:23.955Z</time></trkpt><trkpt lat="45.4106871" lon="7.6699855"><ele>521.0</ele><time>2026-03-28T15:11:24.946Z</time></trkpt><trkpt lat="45.4106157" lon="7.6698253"><ele>521.0</ele><time>2026-03-28T15:11:26.953Z</time></trkpt><trkpt lat="45.4106054" lon="7.6696855"><ele>521.0</ele><time>2026-03-28T15:11:27.957Z</time></trkpt><trkpt lat="45.4106191" lon="7.6695271"><ele>521.25</ele><time>2026-03-28T15:11:28.949Z</time></trkpt><trkpt lat="45.4106375" lon="7.669336"><ele>521.5</ele><time>2026-03-28T15:11:29.958Z</time></trkpt><trkpt lat="45.4106384" lon="7.6691402"><ele>521.75</ele><time>2026-03-28T15:11:30.944Z</time></trkpt><trkpt lat="45.4106107" lon="7.6689425"><ele>522.0</ele><time>2026-03-28T15:11:31.949Z</time></trkpt><trkpt lat="45.410582" lon="7.6687554"><ele>520.25</ele><time>2026-03-28T15:11:32.951Z</time></trkpt><trkpt lat="45.4105708" lon="7.6686007"><ele>518.5</ele><time>2026-03-28T15:11:33.95Z</time></trkpt><trkpt lat="45.4105915" lon="7.6684341"><ele>516.75</ele><time>2026-03-28T15:11:34.955Z</time></trkpt><trkpt lat="45.4106323" lon="7.6682302"><ele>515.0</ele><time>2026-03-28T15:11:35.95Z</time></trkpt><trkpt lat="45.4107018" lon="7.6680207"><ele>515.0</ele><time>2026-03-28T15:11:36.951Z</time></trkpt><trkpt lat="45.4107887" lon="7.6678082"><ele>515.0</ele><time>2026-03-28T15:11:37.961Z</time></trkpt><trkpt lat="45.4108988" lon="7.6675864"><ele>515.0</ele><time>2026-03-28T15:11:38.944Z</time></trkpt><trkpt lat="45.411021" lon="7.6673842"><ele>509.66666666666663</ele><time>2026-03-28T15:11:39.96Z</time></trkpt><trkpt lat="45.4111338" lon="7.6671876"><ele>504.33333333333337</ele><time>2026-03-28T15:11:40.951Z</time></trkpt><trkpt lat="45.4112403" lon="7.6670124"><ele>499.0</ele><time>2026-03-28T15:11:41.949Z</time></trkpt><trkpt lat="45.4113416" lon="7.6668622"><ele>498.6666666666667</ele><time>2026-03-28T15:11:42.953Z</time></trkpt><trkpt lat="45.4114504" lon="7.6667295"><ele>498.33333333333337</ele><time>2026-03-28T15:11:43.956Z</time></trkpt><trkpt lat="45.4115781" lon="7.6665987"><ele>498.0</ele><time>2026-03-28T15:11:44.943Z</time></trkpt><trkpt lat="45.4116982" lon="7.6664726"><ele>498.0</ele><time>2026-03-28T15:11:45.95Z</time></trkpt><trkpt lat="45.4118044" lon="7.6663445"><ele>498.0</ele><time>2026-03-28T15:11:46.958Z</time></trkpt><trkpt lat="45.4119047" lon="7.6662108"><ele>498.0</ele><time>2026-03-28T15:11:47.956Z</time></trkpt><trkpt lat="45.4119906" lon="7.6660751"><ele>498.0</ele><time>2026-03-28T15:11:48.961Z</time></trkpt><trkpt lat="45.4120555" lon="7.665944"><ele>496.0</ele><time>2026-03-28T15:11:49.946Z</time></trkpt><trkpt lat="45.4120971" lon="7.665824"><ele>494.0</ele><time>2026-03-28T15:11:50.956Z</time></trkpt><trkpt lat="45.4121184" lon="7.66571"><ele>492.0</ele><time>2026-03-28T15:11:51.961Z</time></trkpt><trkpt lat="45.4121084" lon="7.6655779"><ele>490.0</ele><time>2026-03-28T15:11:52.956Z</time></trkpt><trkpt lat="45.4120654" lon="7.6654727"><ele>488.0</ele><time>2026-03-28T15:11:53.945Z</time></trkpt><trkpt lat="45.4119876" lon="7.6654017"><ele>486.0</ele><time>2026-03-28T15:11:54.949Z</time></trkpt><trkpt lat="45.4118879" lon="7.6653521"><ele>486.0</ele><time>2026-03-28T15:11:55.951Z</time></trkpt><trkpt lat="45.4117532" lon="7.6652934"><ele>486.0</ele><time>2026-03-28T15:11:56.947Z</time></trkpt><trkpt lat="45.4116125" lon="7.6652282"><ele>486.0</ele><time>2026-03-28T15:11:57.953Z</time></trkpt><trkpt lat="45.4114826" lon="7.6651616"><ele>486.0</ele><time>2026-03-28T15:11:58.958Z</time></trkpt><trkpt lat="45.4113701" lon="7.6651054"><ele>483.6666666666667</ele><time>2026-03-28T15:11:59.951Z</time></trkpt><trkpt lat="45.4112774" lon="7.665043"><ele>481.33333333333337</ele><time>2026-03-28T15:12:00.955Z</time></trkpt><trkpt lat="45.4112191" lon="7.664962"><ele>479.0</ele><time>2026-03-28T15:12:01.954Z</time></trkpt><trkpt lat="45.4111863" lon="7.6648661"><ele>476.6666666666667</ele><time>2026-03-28T15:12:02.952Z</time></trkpt><trkpt lat="45.4111848" lon="7.6647608"><ele>474.33333333333337</ele><time>2026-03-28T15:12:03.95Z</time></trkpt><trkpt lat="45.4112087" lon="7.6646627"><ele>472.0</ele><time>2026-03-28T15:12:04.948Z</time></trkpt><trkpt lat="45.4112507" lon="7.6645552"><ele>473.25</ele><time>2026-03-28T15:12:05.953Z</time></trkpt><trkpt lat="45.4113247" lon="7.6644263"><ele>474.5</ele><time>2026-03-28T15:12:06.955Z</time></trkpt><trkpt lat="45.4114144" lon="7.6642856"><ele>475.75</ele><time>2026-03-28T15:12:07.947Z</time></trkpt><trkpt lat="45.4115023" lon="7.6641349"><ele>477.0</ele><time>2026-03-28T15:12:08.954Z</time></trkpt><trkpt lat="45.411576" lon="7.6639984"><ele>477.0</ele><time>2026-03-28T15:12:09.954Z</time></trkpt><trkpt lat="45.4116272" lon="7.6638656"><ele>477.00000000000006</ele><time>2026-03-28T15:12:10.947Z</time></trkpt><trkpt lat="45.4116592" lon="7.6637504"><ele>477.00000000000006</ele><time>2026-03-28T15:12:11.951Z</time></trkpt><trkpt lat="45.4116465" lon="7.6636386"><ele>477.0</ele><time>2026-03-28T15:12:12.963Z</time></trkpt><trkpt lat="45.4116007" lon="7.6635132"><ele>477.0</ele><time>2026-03-28T15:12:13.953Z</time></trkpt><trkpt lat="45.4115307" lon="7.6633723"><ele>475.75</ele><time>2026-03-28T15:12:14.953Z</time></trkpt><trkpt lat="45.4114375" lon="7.6632013"><ele>474.5</ele><time>2026-03-28T15:12:15.947Z</time></trkpt><trkpt lat="45.4113437" lon="7.6630248"><ele>473.25</ele><time>2026-03-28T15:12:16.953Z</time></trkpt><trkpt lat="45.4112577" lon="7.662864"><ele>472.0</ele><time>2026-03-28T15:12:17.944Z</time></trkpt><trkpt lat="45.411185" lon="7.6627208"><ele>470.25</ele><time>2026-03-28T15:12:18.949Z</time></trkpt><trkpt lat="45.4111051" lon="7.6625977"><ele>468.5</ele><time>2026-03-28T15:12:19.959Z</time></trkpt><trkpt lat="45.4110076" lon="7.6624923"><ele>466.75</ele><time>2026-03-28T15:12:20.952Z</time></trkpt><trkpt lat="45.4108905" lon="7.6624169"><ele>465.0</ele><time>2026-03-28T15:12:21.96Z</time></trkpt><trkpt lat="45.4107563" lon="7.6623557"><ele>465.0</ele><time>2026-03-28T15:12:22.946Z</time></trkpt><trkpt lat="45.4106171" lon="7.6622906"><ele>465.0</ele><time>2026-03-28T15:12:23.951Z</time></trkpt><trkpt lat="45.4104765" lon="7.662195"><ele>465.0</ele><time>2026-03-28T15:12:24.941Z</time></trkpt><trkpt lat="45.4103384" lon="7.662064"><ele>461.66666666666663</ele><time>2026-03-28T15:12:25.949Z</time></trkpt><trkpt lat="45.4102055" lon="7.6619211"><ele>458.3333333333333</ele><time>2026-03-28T15:12:26.954Z</time></trkpt><trkpt lat="45.410076" lon="7.6617727"><ele>455.0</ele><time>2026-03-28T15:12:27.954Z</time></trkpt><trkpt lat="45.409942" lon="7.6616255"><ele>455.0</ele><time>2026-03-28T15:12:28.951Z</time></trkpt><trkpt lat="45.4098068" lon="7.6614868"><ele>455.0</ele><time>2026-03-28T15:12:29.95Z</time></trkpt><trkpt lat="45.4096726" lon="7.6613562"><ele>455.0</ele><time>2026-03-28T15:12:30.954Z</time></trkpt><trkpt lat="45.4095359" lon="7.6612177"><ele>453.0</ele><time>2026-03-28T15:12:31.949Z</time></trkpt><trkpt lat="45.4094019" lon="7.6610853"><ele>451.0</ele><time>2026-03-28T15:12:32.948Z</time></trkpt><trkpt lat="45.4092695" lon="7.6609489"><ele>449.0</ele><time>2026-03-28T15:12:33.951Z</time></trkpt><trkpt lat="45.4091345" lon="7.6608133"><ele>449.0</ele><time>2026-03-28T15:12:34.959Z</time></trkpt><trkpt lat="45.4089976" lon="7.6606837"><ele>449.0</ele><time>2026-03-28T15:12:35.954Z</time></trkpt><trkpt lat="45.4088585" lon="7.6605496"><ele>449.0</ele><time>2026-03-28T15:12:36.951Z</time></trkpt><trkpt lat="45.4087157" lon="7.6604196"><ele>446.0</ele><time>2026-03-28T15:12:37.958Z</time></trkpt><trkpt lat="45.4085823" lon="7.6602936"><ele>443.0</ele><time>2026-03-28T15:12:38.956Z</time></trkpt><trkpt lat="45.408454" lon="7.6601673"><ele>440.0</ele><time>2026-03-28T15:12:39.95Z</time></trkpt><trkpt lat="45.408329" lon="7.6600475"><ele>440.0</ele><time>2026-03-28T15:12:40.954Z</time></trkpt><trkpt lat="45.4082092" lon="7.6599325"><ele>440.0</ele><time>2026-03-28T15:12:41.984Z</time></trkpt><trkpt lat="45.4080901" lon="7.6598193"><ele>440.0</ele><time>2026-03-28T15:12:42.956Z</time></trkpt><trkpt lat="45.4079816" lon="7.6597134"><ele>440.0</ele><time>2026-03-28T15:12:43.96Z</time></trkpt><trkpt lat="45.4078789" lon="7.6596184"><ele>438.0</ele><time>2026-03-28T15:12:44.95Z</time></trkpt><trkpt lat="45.4077942" lon="7.6595378"><ele>436.0</ele><time>2026-03-28T15:12:45.954Z</time></trkpt><trkpt lat="45.4077151" lon="7.6594807"><ele>434.0</ele><time>2026-03-28T15:12:46.957Z</time></trkpt><trkpt lat="45.4076412" lon="7.6594537"><ele>432.0</ele><time>2026-03-28T15:12:47.958Z</time></trkpt><trkpt lat="45.4075601" lon="7.6594612"><ele>430.0</ele><time>2026-03-28T15:12:48.955Z</time></trkpt><trkpt lat="45.4074611" lon="7.6595331"><ele>430.0</ele><time>2026-03-28T15:12:49.949Z</time></trkpt><trkpt lat="45.4073318" lon="7.6596302"><ele>430.0</ele><time>2026-03-28T15:12:50.953Z</time></trkpt><trkpt lat="45.407184" lon="7.6597045"><ele>430.0</ele><time>2026-03-28T15:12:51.955Z</time></trkpt><trkpt lat="45.4070587" lon="7.6597583"><ele>430.0</ele><time>2026-03-28T15:12:52.948Z</time></trkpt><trkpt lat="45.4069707" lon="7.6597989"><ele>429.57142857142856</ele><time>2026-03-28T15:12:53.952Z</time></trkpt><trkpt lat="45.4069041" lon="7.6598644"><ele>429.14285714285717</ele><time>2026-03-28T15:12:54.945Z</time></trkpt><trkpt lat="45.4068494" lon="7.6599343"><ele>428.7142857142857</ele><time>2026-03-28T15:12:55.952Z</time></trkpt><trkpt lat="45.4068069" lon="7.6600118"><ele>428.2857142857143</ele><time>2026-03-28T15:12:56.95Z</time></trkpt><trkpt lat="45.4067771" lon="7.6600997"><ele>427.8571428571429</ele><time>2026-03-28T15:12:57.954Z</time></trkpt><trkpt lat="45.4067551" lon="7.6601909"><ele>427.42857142857144</ele><time>2026-03-28T15:12:58.947Z</time></trkpt><trkpt lat="45.4067206" lon="7.6602842"><ele>427.0</ele><time>2026-03-28T15:12:59.953Z</time></trkpt><trkpt lat="45.4066628" lon="7.6603667"><ele>427.0</ele><time>2026-03-28T15:13:00.949Z</time></trkpt><trkpt lat="45.406601" lon="7.6604247"><ele>427.00000000000006</ele><time>2026-03-28T15:13:01.956Z</time></trkpt><trkpt lat="45.4065283" lon="7.6604448"><ele>427.00000000000006</ele><time>2026-03-28T15:13:02.955Z</time></trkpt><trkpt lat="45.4064234" lon="7.6604383"><ele>427.0</ele><time>2026-03-28T15:13:03.952Z</time></trkpt><trkpt lat="45.4063056" lon="7.6604088"><ele>427.0</ele><time>2026-03-28T15:13:04.948Z</time></trkpt><trkpt lat="45.4062049" lon="7.6603634"><ele>425.25</ele><time>2026-03-28T15:13:05.949Z</time></trkpt><trkpt lat="45.4061019" lon="7.6603133"><ele>423.5</ele><time>2026-03-28T15:13:06.957Z</time></trkpt><trkpt lat="45.4059811" lon="7.6602616"><ele>421.75</ele><time>2026-03-28T15:13:07.948Z</time></trkpt><trkpt lat="45.4058711" lon="7.6602179"><ele>420.0</ele><time>2026-03-28T15:13:08.954Z</time></trkpt><trkpt lat="45.4057631" lon="7.6601926"><ele>419.5</ele><time>2026-03-28T15:13:09.952Z</time></trkpt><trkpt lat="45.4056445" lon="7.660161"><ele>419.0</ele><time>2026-03-28T15:13:10.949Z</time></trkpt><trkpt lat="45.4054961" lon="7.6601316"><ele>418.5</ele><time>2026-03-28T15:13:11.957Z</time></trkpt><trkpt lat="45.4053191" lon="7.660108"><ele>418.0</ele><time>2026-03-28T15:13:12.956Z</time></trkpt><trkpt lat="45.4051262" lon="7.6600691"><ele>415.0</ele><time>2026-03-28T15:13:13.952Z</time></trkpt><trkpt lat="45.404949" lon="7.6600205"><ele>412.0</ele><time>2026-03-28T15:13:14.963Z</time></trkpt><trkpt lat="45.4047912" lon="7.6599692"><ele>409.0</ele><time>2026-03-28T15:13:15.955Z</time></trkpt><trkpt lat="45.4046321" lon="7.6599315"><ele>408.6666666666667</ele><time>2026-03-28T15:13:16.95Z</time></trkpt><trkpt lat="45.404468" lon="7.6599051"><ele>408.33333333333337</ele><time>2026-03-28T15:13:17.944Z</time></trkpt><trkpt lat="45.4043022" lon="7.6598756"><ele>408.0</ele><time>2026-03-28T15:13:18.953Z</time></trkpt><trkpt lat="45.4041472" lon="7.659828"><ele>408.0</ele><time>2026-03-28T15:13:19.956Z</time></trkpt><trkpt lat="45.4040007" lon="7.6597577"><ele>408.0</ele><time>2026-03-28T15:13:20.952Z</time></trkpt><trkpt lat="45.4038567" lon="7.6596796"><ele>408.0</ele><time>2026-03-28T15:13:21.957Z</time></trkpt><trkpt lat="45.4037049" lon="7.6596053"><ele>406.33333333333337</ele><time>2026-03-28T15:13:22.954Z</time></trkpt><trkpt lat="45.4035433" lon="7.6595469"><ele>404.6666666666667</ele><time>2026-03-28T15:13:23.953Z</time></trkpt><trkpt lat="45.4033761" lon="7.6595065"><ele>403.0</ele><time>2026-03-28T15:13:24.96Z</time></trkpt><trkpt lat="45.4032131" lon="7.6594679"><ele>402.75</ele><time>2026-03-28T15:13:25.948Z</time></trkpt><trkpt lat="45.403068" lon="7.6594261"><ele>402.5</ele><time>2026-03-28T15:13:26.954Z</time></trkpt><trkpt lat="45.4029398" lon="7.6593846"><ele>402.25</ele><time>2026-03-28T15:13:27.951Z</time></trkpt><trkpt lat="45.4028278" lon="7.6593312"><ele>402.0</ele><time>2026-03-28T15:13:28.951Z</time></trkpt><trkpt lat="45.4027423" lon="7.6592647"><ele>402.0</ele><time>2026-03-28T15:13:29.947Z</time></trkpt><trkpt lat="45.4026766" lon="7.6591822"><ele>402.0</ele><time>2026-03-28T15:13:30.949Z</time></trkpt><trkpt lat="45.4026343" lon="7.65907"><ele>402.0</ele><time>2026-03-28T15:13:31.954Z</time></trkpt><trkpt lat="45.4026171" lon="7.6589608"><ele>402.0</ele><time>2026-03-28T15:13:32.954Z</time></trkpt><trkpt lat="45.4026118" lon="7.6588553"><ele>402.0</ele><time>2026-03-28T15:13:33.949Z</time></trkpt><trkpt lat="45.4026118" lon="7.6587265"><ele>402.0</ele><time>2026-03-28T15:13:35.958Z</time></trkpt></trkseg></trk></gpx>